<?xml version="1.0" encoding="UTF-8" standalone="no" ?>
<gpx xmlns="http://www.topografix.com/GPX/1/1" xmlns:xsi="http://www.w3.org/2001/XMLSchema-instance" xsi:schemaLocation="http://www.topografix.com/GPX/1/1 http://www.topografix.com/GPX/1/1/gpx.xsd" version="1.1" creator="VisuGPX - https://www.visugpx.com">
  <metadata>
    <name>Sancerre</name>
    <desc><![CDATA[Deux boucles de 12km et 5,5 km avec pique nique pour une journée à Sancerre.]]></desc>
  </metadata>
  <trk>
    <name><![CDATA[Sancerre]]></name>
    <trkseg>
      <trkpt lat="47.32909" lon="2.83651">
        <ele>264.39999389648</ele>
        <time>2019-10-12T07:08:49Z</time>
      </trkpt>
      <trkpt lat="47.32908" lon="2.83647">
        <ele>264.60000610352</ele>
        <time>2019-10-12T07:08:54Z</time>
      </trkpt>
      <trkpt lat="47.32909" lon="2.83645">
        <ele>264.60000610352</ele>
        <time>2019-10-12T07:08:59Z</time>
      </trkpt>
      <trkpt lat="47.32912" lon="2.83644">
        <ele>264.60000610352</ele>
        <time>2019-10-12T07:09:04Z</time>
      </trkpt>
      <trkpt lat="47.32913" lon="2.83645">
        <ele>264.79998779297</ele>
        <time>2019-10-12T07:09:09Z</time>
      </trkpt>
      <trkpt lat="47.32914" lon="2.83644">
        <ele>265</ele>
        <time>2019-10-12T07:09:14Z</time>
      </trkpt>
      <trkpt lat="47.32914" lon="2.83643">
        <ele>265.20001220703</ele>
        <time>2019-10-12T07:09:19Z</time>
      </trkpt>
      <trkpt lat="47.32907" lon="2.83638">
        <ele>265.20001220703</ele>
        <time>2019-10-12T07:09:24Z</time>
      </trkpt>
      <trkpt lat="47.32902" lon="2.8363">
        <ele>264.79998779297</ele>
        <time>2019-10-12T07:09:29Z</time>
      </trkpt>
      <trkpt lat="47.329" lon="2.83631">
        <ele>264.60000610352</ele>
        <time>2019-10-12T07:09:34Z</time>
      </trkpt>
      <trkpt lat="47.32895" lon="2.83627">
        <ele>264.60000610352</ele>
        <time>2019-10-12T07:09:39Z</time>
      </trkpt>
      <trkpt lat="47.3289" lon="2.83619">
        <ele>264.79998779297</ele>
        <time>2019-10-12T07:09:44Z</time>
      </trkpt>
      <trkpt lat="47.3289" lon="2.83618">
        <ele>265.20001220703</ele>
        <time>2019-10-12T07:09:49Z</time>
      </trkpt>
      <trkpt lat="47.3289" lon="2.83617">
        <ele>265.39999389648</ele>
        <time>2019-10-12T07:09:54Z</time>
      </trkpt>
      <trkpt lat="47.3289" lon="2.83616">
        <ele>265.20001220703</ele>
        <time>2019-10-12T07:09:59Z</time>
      </trkpt>
      <trkpt lat="47.3289" lon="2.83614">
        <ele>266</ele>
        <time>2019-10-12T07:10:04Z</time>
      </trkpt>
      <trkpt lat="47.32891" lon="2.83614">
        <ele>265.79998779297</ele>
        <time>2019-10-12T07:10:09Z</time>
      </trkpt>
      <trkpt lat="47.32891" lon="2.83614">
        <ele>265.60000610352</ele>
        <time>2019-10-12T07:10:14Z</time>
      </trkpt>
      <trkpt lat="47.32893" lon="2.83614">
        <ele>265.60000610352</ele>
        <time>2019-10-12T07:10:19Z</time>
      </trkpt>
      <trkpt lat="47.32898" lon="2.83616">
        <ele>265.39999389648</ele>
        <time>2019-10-12T07:10:24Z</time>
      </trkpt>
      <trkpt lat="47.32903" lon="2.83618">
        <ele>265.20001220703</ele>
        <time>2019-10-12T07:10:29Z</time>
      </trkpt>
      <trkpt lat="47.32907" lon="2.83625">
        <ele>265.20001220703</ele>
        <time>2019-10-12T07:10:34Z</time>
      </trkpt>
      <trkpt lat="47.3291" lon="2.83632">
        <ele>265.20001220703</ele>
        <time>2019-10-12T07:10:39Z</time>
      </trkpt>
      <trkpt lat="47.32911" lon="2.83637">
        <ele>265</ele>
        <time>2019-10-12T07:10:44Z</time>
      </trkpt>
      <trkpt lat="47.32912" lon="2.83637">
        <ele>265</ele>
        <time>2019-10-12T07:10:49Z</time>
      </trkpt>
      <trkpt lat="47.32912" lon="2.83638">
        <ele>265</ele>
        <time>2019-10-12T07:10:54Z</time>
      </trkpt>
      <trkpt lat="47.32912" lon="2.83637">
        <ele>265.20001220703</ele>
        <time>2019-10-12T07:10:59Z</time>
      </trkpt>
      <trkpt lat="47.32914" lon="2.83639">
        <ele>265.39999389648</ele>
        <time>2019-10-12T07:11:04Z</time>
      </trkpt>
      <trkpt lat="47.32918" lon="2.83639">
        <ele>265.79998779297</ele>
        <time>2019-10-12T07:11:09Z</time>
      </trkpt>
      <trkpt lat="47.32919" lon="2.83639">
        <ele>266</ele>
        <time>2019-10-12T07:11:14Z</time>
      </trkpt>
      <trkpt lat="47.3292" lon="2.83638">
        <ele>266.20001220703</ele>
        <time>2019-10-12T07:11:19Z</time>
      </trkpt>
      <trkpt lat="47.3292" lon="2.83637">
        <ele>266</ele>
        <time>2019-10-12T07:11:24Z</time>
      </trkpt>
      <trkpt lat="47.32921" lon="2.83638">
        <ele>266</ele>
        <time>2019-10-12T07:11:29Z</time>
      </trkpt>
      <trkpt lat="47.32922" lon="2.83639">
        <ele>265.60000610352</ele>
        <time>2019-10-12T07:11:34Z</time>
      </trkpt>
      <trkpt lat="47.32924" lon="2.83639">
        <ele>265.39999389648</ele>
        <time>2019-10-12T07:11:39Z</time>
      </trkpt>
      <trkpt lat="47.32925" lon="2.83638">
        <ele>265.60000610352</ele>
        <time>2019-10-12T07:11:44Z</time>
      </trkpt>
      <trkpt lat="47.32927" lon="2.8364">
        <ele>265.60000610352</ele>
        <time>2019-10-12T07:11:49Z</time>
      </trkpt>
      <trkpt lat="47.32932" lon="2.83639">
        <ele>265.60000610352</ele>
        <time>2019-10-12T07:11:54Z</time>
      </trkpt>
      <trkpt lat="47.32932" lon="2.83637">
        <ele>265.79998779297</ele>
        <time>2019-10-12T07:11:59Z</time>
      </trkpt>
      <trkpt lat="47.32932" lon="2.83635">
        <ele>265.60000610352</ele>
        <time>2019-10-12T07:12:04Z</time>
      </trkpt>
      <trkpt lat="47.32932" lon="2.83632">
        <ele>265.60000610352</ele>
        <time>2019-10-12T07:12:09Z</time>
      </trkpt>
      <trkpt lat="47.32934" lon="2.83627">
        <ele>265.60000610352</ele>
        <time>2019-10-12T07:12:14Z</time>
      </trkpt>
      <trkpt lat="47.32937" lon="2.83623">
        <ele>265.60000610352</ele>
        <time>2019-10-12T07:12:19Z</time>
      </trkpt>
      <trkpt lat="47.32938" lon="2.8362">
        <ele>265.60000610352</ele>
        <time>2019-10-12T07:12:24Z</time>
      </trkpt>
      <trkpt lat="47.32941" lon="2.83618">
        <ele>266</ele>
        <time>2019-10-12T07:12:29Z</time>
      </trkpt>
      <trkpt lat="47.32947" lon="2.83614">
        <ele>266</ele>
        <time>2019-10-12T07:12:34Z</time>
      </trkpt>
      <trkpt lat="47.32952" lon="2.83613">
        <ele>266.20001220703</ele>
        <time>2019-10-12T07:12:39Z</time>
      </trkpt>
      <trkpt lat="47.32957" lon="2.83612">
        <ele>266.39999389648</ele>
        <time>2019-10-12T07:12:44Z</time>
      </trkpt>
      <trkpt lat="47.32962" lon="2.83611">
        <ele>266.79998779297</ele>
        <time>2019-10-12T07:12:49Z</time>
      </trkpt>
      <trkpt lat="47.32967" lon="2.83611">
        <ele>266.79998779297</ele>
        <time>2019-10-12T07:12:54Z</time>
      </trkpt>
      <trkpt lat="47.3297" lon="2.8361">
        <ele>267</ele>
        <time>2019-10-12T07:12:59Z</time>
      </trkpt>
      <trkpt lat="47.32975" lon="2.83609">
        <ele>267.20001220703</ele>
        <time>2019-10-12T07:13:04Z</time>
      </trkpt>
      <trkpt lat="47.32978" lon="2.83607">
        <ele>267.60000610352</ele>
        <time>2019-10-12T07:13:09Z</time>
      </trkpt>
      <trkpt lat="47.32981" lon="2.83606">
        <ele>267.79998779297</ele>
        <time>2019-10-12T07:13:14Z</time>
      </trkpt>
      <trkpt lat="47.32983" lon="2.83605">
        <ele>268</ele>
        <time>2019-10-12T07:13:19Z</time>
      </trkpt>
      <trkpt lat="47.32985" lon="2.83603">
        <ele>268</ele>
        <time>2019-10-12T07:13:24Z</time>
      </trkpt>
      <trkpt lat="47.32988" lon="2.83602">
        <ele>267.79998779297</ele>
        <time>2019-10-12T07:13:29Z</time>
      </trkpt>
      <trkpt lat="47.3299" lon="2.83597">
        <ele>267.79998779297</ele>
        <time>2019-10-12T07:13:34Z</time>
      </trkpt>
      <trkpt lat="47.32991" lon="2.83596">
        <ele>267.79998779297</ele>
        <time>2019-10-12T07:13:39Z</time>
      </trkpt>
      <trkpt lat="47.32991" lon="2.83594">
        <ele>268.20001220703</ele>
        <time>2019-10-12T07:13:44Z</time>
      </trkpt>
      <trkpt lat="47.32991" lon="2.83593">
        <ele>267.79998779297</ele>
        <time>2019-10-12T07:13:49Z</time>
      </trkpt>
      <trkpt lat="47.32992" lon="2.83594">
        <ele>268</ele>
        <time>2019-10-12T07:13:54Z</time>
      </trkpt>
      <trkpt lat="47.3299" lon="2.83591">
        <ele>268</ele>
        <time>2019-10-12T07:13:59Z</time>
      </trkpt>
      <trkpt lat="47.3299" lon="2.83592">
        <ele>268</ele>
        <time>2019-10-12T07:14:04Z</time>
      </trkpt>
      <trkpt lat="47.32991" lon="2.83592">
        <ele>268.20001220703</ele>
        <time>2019-10-12T07:14:09Z</time>
      </trkpt>
      <trkpt lat="47.32991" lon="2.83592">
        <ele>268.20001220703</ele>
        <time>2019-10-12T07:14:14Z</time>
      </trkpt>
      <trkpt lat="47.32992" lon="2.83592">
        <ele>268.20001220703</ele>
        <time>2019-10-12T07:14:19Z</time>
      </trkpt>
      <trkpt lat="47.32994" lon="2.83593">
        <ele>267.79998779297</ele>
        <time>2019-10-12T07:14:24Z</time>
      </trkpt>
      <trkpt lat="47.32998" lon="2.83594">
        <ele>268</ele>
        <time>2019-10-12T07:14:29Z</time>
      </trkpt>
      <trkpt lat="47.32999" lon="2.83595">
        <ele>268.20001220703</ele>
        <time>2019-10-12T07:14:34Z</time>
      </trkpt>
      <trkpt lat="47.32998" lon="2.83594">
        <ele>268.20001220703</ele>
        <time>2019-10-12T07:14:39Z</time>
      </trkpt>
      <trkpt lat="47.32995" lon="2.83592">
        <ele>268.20001220703</ele>
        <time>2019-10-12T07:14:44Z</time>
      </trkpt>
      <trkpt lat="47.32992" lon="2.83588">
        <ele>268.20001220703</ele>
        <time>2019-10-12T07:14:49Z</time>
      </trkpt>
      <trkpt lat="47.32991" lon="2.83587">
        <ele>268.60000610352</ele>
        <time>2019-10-12T07:14:54Z</time>
      </trkpt>
      <trkpt lat="47.32991" lon="2.8359">
        <ele>268.60000610352</ele>
        <time>2019-10-12T07:14:59Z</time>
      </trkpt>
      <trkpt lat="47.32991" lon="2.83591">
        <ele>268.60000610352</ele>
        <time>2019-10-12T07:15:04Z</time>
      </trkpt>
      <trkpt lat="47.32991" lon="2.83593">
        <ele>268.60000610352</ele>
        <time>2019-10-12T07:15:09Z</time>
      </trkpt>
      <trkpt lat="47.32991" lon="2.83591">
        <ele>268.79998779297</ele>
        <time>2019-10-12T07:15:14Z</time>
      </trkpt>
      <trkpt lat="47.32994" lon="2.8359">
        <ele>268.79998779297</ele>
        <time>2019-10-12T07:15:19Z</time>
      </trkpt>
      <trkpt lat="47.32995" lon="2.8359">
        <ele>268.79998779297</ele>
        <time>2019-10-12T07:15:24Z</time>
      </trkpt>
      <trkpt lat="47.32996" lon="2.83591">
        <ele>268.79998779297</ele>
        <time>2019-10-12T07:15:29Z</time>
      </trkpt>
      <trkpt lat="47.32997" lon="2.83591">
        <ele>268.60000610352</ele>
        <time>2019-10-12T07:15:34Z</time>
      </trkpt>
      <trkpt lat="47.32996" lon="2.83591">
        <ele>268.79998779297</ele>
        <time>2019-10-12T07:15:39Z</time>
      </trkpt>
      <trkpt lat="47.32994" lon="2.83592">
        <ele>269</ele>
        <time>2019-10-12T07:15:44Z</time>
      </trkpt>
      <trkpt lat="47.32992" lon="2.83594">
        <ele>268.79998779297</ele>
        <time>2019-10-12T07:15:49Z</time>
      </trkpt>
      <trkpt lat="47.32991" lon="2.83593">
        <ele>269</ele>
        <time>2019-10-12T07:15:54Z</time>
      </trkpt>
      <trkpt lat="47.3299" lon="2.83593">
        <ele>269</ele>
        <time>2019-10-12T07:15:59Z</time>
      </trkpt>
      <trkpt lat="47.3299" lon="2.83594">
        <ele>269</ele>
        <time>2019-10-12T07:16:04Z</time>
      </trkpt>
      <trkpt lat="47.3299" lon="2.83593">
        <ele>269</ele>
        <time>2019-10-12T07:16:09Z</time>
      </trkpt>
      <trkpt lat="47.3299" lon="2.83592">
        <ele>269</ele>
        <time>2019-10-12T07:16:14Z</time>
      </trkpt>
      <trkpt lat="47.32989" lon="2.83592">
        <ele>269</ele>
        <time>2019-10-12T07:16:19Z</time>
      </trkpt>
      <trkpt lat="47.32986" lon="2.83594">
        <ele>269</ele>
        <time>2019-10-12T07:16:24Z</time>
      </trkpt>
      <trkpt lat="47.32985" lon="2.83594">
        <ele>269</ele>
        <time>2019-10-12T07:16:29Z</time>
      </trkpt>
      <trkpt lat="47.32986" lon="2.83593">
        <ele>269</ele>
        <time>2019-10-12T07:16:34Z</time>
      </trkpt>
      <trkpt lat="47.32986" lon="2.83591">
        <ele>269</ele>
        <time>2019-10-12T07:16:39Z</time>
      </trkpt>
      <trkpt lat="47.32986" lon="2.8359">
        <ele>269</ele>
        <time>2019-10-12T07:16:44Z</time>
      </trkpt>
      <trkpt lat="47.32986" lon="2.83589">
        <ele>269</ele>
        <time>2019-10-12T07:16:49Z</time>
      </trkpt>
      <trkpt lat="47.32985" lon="2.83588">
        <ele>269</ele>
        <time>2019-10-12T07:16:54Z</time>
      </trkpt>
      <trkpt lat="47.32986" lon="2.8359">
        <ele>269</ele>
        <time>2019-10-12T07:17:00Z</time>
      </trkpt>
      <trkpt lat="47.32985" lon="2.83591">
        <ele>269</ele>
        <time>2019-10-12T07:17:05Z</time>
      </trkpt>
      <trkpt lat="47.32986" lon="2.83594">
        <ele>269</ele>
        <time>2019-10-12T07:17:10Z</time>
      </trkpt>
      <trkpt lat="47.32987" lon="2.83595">
        <ele>269</ele>
        <time>2019-10-12T07:17:15Z</time>
      </trkpt>
      <trkpt lat="47.32988" lon="2.83595">
        <ele>269</ele>
        <time>2019-10-12T07:17:20Z</time>
      </trkpt>
      <trkpt lat="47.32988" lon="2.83594">
        <ele>269</ele>
        <time>2019-10-12T07:17:25Z</time>
      </trkpt>
      <trkpt lat="47.32988" lon="2.83595">
        <ele>269</ele>
        <time>2019-10-12T07:17:30Z</time>
      </trkpt>
      <trkpt lat="47.32988" lon="2.83595">
        <ele>269</ele>
        <time>2019-10-12T07:17:35Z</time>
      </trkpt>
      <trkpt lat="47.32988" lon="2.83596">
        <ele>269</ele>
        <time>2019-10-12T07:17:40Z</time>
      </trkpt>
      <trkpt lat="47.32987" lon="2.83596">
        <ele>269</ele>
        <time>2019-10-12T07:17:45Z</time>
      </trkpt>
      <trkpt lat="47.32986" lon="2.83596">
        <ele>269</ele>
        <time>2019-10-12T07:17:50Z</time>
      </trkpt>
      <trkpt lat="47.32986" lon="2.83597">
        <ele>269</ele>
        <time>2019-10-12T07:17:55Z</time>
      </trkpt>
      <trkpt lat="47.32985" lon="2.83598">
        <ele>269</ele>
        <time>2019-10-12T07:18:00Z</time>
      </trkpt>
      <trkpt lat="47.32985" lon="2.83599">
        <ele>269</ele>
        <time>2019-10-12T07:18:05Z</time>
      </trkpt>
      <trkpt lat="47.32986" lon="2.83596">
        <ele>269</ele>
        <time>2019-10-12T07:18:10Z</time>
      </trkpt>
      <trkpt lat="47.32986" lon="2.83596">
        <ele>269</ele>
        <time>2019-10-12T07:18:15Z</time>
      </trkpt>
      <trkpt lat="47.32986" lon="2.83596">
        <ele>269</ele>
        <time>2019-10-12T07:18:20Z</time>
      </trkpt>
      <trkpt lat="47.32988" lon="2.83599">
        <ele>269</ele>
        <time>2019-10-12T07:18:25Z</time>
      </trkpt>
      <trkpt lat="47.32989" lon="2.83598">
        <ele>269</ele>
        <time>2019-10-12T07:18:30Z</time>
      </trkpt>
      <trkpt lat="47.32991" lon="2.83598">
        <ele>269</ele>
        <time>2019-10-12T07:18:35Z</time>
      </trkpt>
      <trkpt lat="47.32993" lon="2.83599">
        <ele>269</ele>
        <time>2019-10-12T07:18:40Z</time>
      </trkpt>
      <trkpt lat="47.32994" lon="2.83599">
        <ele>269</ele>
        <time>2019-10-12T07:18:45Z</time>
      </trkpt>
      <trkpt lat="47.32996" lon="2.836">
        <ele>269</ele>
        <time>2019-10-12T07:18:50Z</time>
      </trkpt>
      <trkpt lat="47.32998" lon="2.836">
        <ele>269</ele>
        <time>2019-10-12T07:18:55Z</time>
      </trkpt>
      <trkpt lat="47.32999" lon="2.836">
        <ele>269</ele>
        <time>2019-10-12T07:19:00Z</time>
      </trkpt>
      <trkpt lat="47.33" lon="2.836">
        <ele>269</ele>
        <time>2019-10-12T07:19:05Z</time>
      </trkpt>
      <trkpt lat="47.33001" lon="2.836">
        <ele>269</ele>
        <time>2019-10-12T07:19:10Z</time>
      </trkpt>
      <trkpt lat="47.33" lon="2.836">
        <ele>269</ele>
        <time>2019-10-12T07:19:15Z</time>
      </trkpt>
      <trkpt lat="47.32999" lon="2.83602">
        <ele>269</ele>
        <time>2019-10-12T07:19:20Z</time>
      </trkpt>
      <trkpt lat="47.32997" lon="2.83602">
        <ele>269</ele>
        <time>2019-10-12T07:19:25Z</time>
      </trkpt>
      <trkpt lat="47.32998" lon="2.83601">
        <ele>269</ele>
        <time>2019-10-12T07:19:30Z</time>
      </trkpt>
      <trkpt lat="47.32999" lon="2.83601">
        <ele>269</ele>
        <time>2019-10-12T07:19:35Z</time>
      </trkpt>
      <trkpt lat="47.32999" lon="2.83602">
        <ele>269</ele>
        <time>2019-10-12T07:19:40Z</time>
      </trkpt>
      <trkpt lat="47.32998" lon="2.836">
        <ele>269</ele>
        <time>2019-10-12T07:19:45Z</time>
      </trkpt>
      <trkpt lat="47.32998" lon="2.836">
        <ele>269</ele>
        <time>2019-10-12T07:19:50Z</time>
      </trkpt>
      <trkpt lat="47.32999" lon="2.83599">
        <ele>269</ele>
        <time>2019-10-12T07:19:55Z</time>
      </trkpt>
      <trkpt lat="47.32999" lon="2.836">
        <ele>269</ele>
        <time>2019-10-12T07:20:00Z</time>
      </trkpt>
      <trkpt lat="47.32996" lon="2.83602">
        <ele>269</ele>
        <time>2019-10-12T07:20:05Z</time>
      </trkpt>
      <trkpt lat="47.32996" lon="2.83601">
        <ele>269</ele>
        <time>2019-10-12T07:20:10Z</time>
      </trkpt>
      <trkpt lat="47.32997" lon="2.83601">
        <ele>269</ele>
        <time>2019-10-12T07:20:15Z</time>
      </trkpt>
      <trkpt lat="47.32997" lon="2.83602">
        <ele>269</ele>
        <time>2019-10-12T07:20:20Z</time>
      </trkpt>
      <trkpt lat="47.32996" lon="2.83602">
        <ele>269</ele>
        <time>2019-10-12T07:20:25Z</time>
      </trkpt>
      <trkpt lat="47.32996" lon="2.83603">
        <ele>269</ele>
        <time>2019-10-12T07:20:30Z</time>
      </trkpt>
      <trkpt lat="47.32996" lon="2.83603">
        <ele>269</ele>
        <time>2019-10-12T07:20:35Z</time>
      </trkpt>
      <trkpt lat="47.32996" lon="2.83602">
        <ele>269</ele>
        <time>2019-10-12T07:20:40Z</time>
      </trkpt>
      <trkpt lat="47.32996" lon="2.83601">
        <ele>269</ele>
        <time>2019-10-12T07:20:45Z</time>
      </trkpt>
      <trkpt lat="47.32997" lon="2.836">
        <ele>269</ele>
        <time>2019-10-12T07:20:50Z</time>
      </trkpt>
      <trkpt lat="47.32998" lon="2.83601">
        <ele>269</ele>
        <time>2019-10-12T07:20:55Z</time>
      </trkpt>
      <trkpt lat="47.33001" lon="2.83601">
        <ele>269</ele>
        <time>2019-10-12T07:21:00Z</time>
      </trkpt>
      <trkpt lat="47.33004" lon="2.83601">
        <ele>269</ele>
        <time>2019-10-12T07:21:05Z</time>
      </trkpt>
      <trkpt lat="47.33009" lon="2.83601">
        <ele>269</ele>
        <time>2019-10-12T07:21:10Z</time>
      </trkpt>
      <trkpt lat="47.33013" lon="2.83601">
        <ele>270.20001220703</ele>
        <time>2019-10-12T07:21:15Z</time>
      </trkpt>
      <trkpt lat="47.33016" lon="2.83602">
        <ele>270.60000610352</ele>
        <time>2019-10-12T07:21:20Z</time>
      </trkpt>
      <trkpt lat="47.3302" lon="2.83604">
        <ele>271</ele>
        <time>2019-10-12T07:21:25Z</time>
      </trkpt>
      <trkpt lat="47.33024" lon="2.83605">
        <ele>271.39999389648</ele>
        <time>2019-10-12T07:21:30Z</time>
      </trkpt>
      <trkpt lat="47.33028" lon="2.83604">
        <ele>271.60000610352</ele>
        <time>2019-10-12T07:21:35Z</time>
      </trkpt>
      <trkpt lat="47.33034" lon="2.83605">
        <ele>271.39999389648</ele>
        <time>2019-10-12T07:21:40Z</time>
      </trkpt>
      <trkpt lat="47.33038" lon="2.83604">
        <ele>271.79998779297</ele>
        <time>2019-10-12T07:21:45Z</time>
      </trkpt>
      <trkpt lat="47.33043" lon="2.83604">
        <ele>272.60000610352</ele>
        <time>2019-10-12T07:21:50Z</time>
      </trkpt>
      <trkpt lat="47.33049" lon="2.83605">
        <ele>272.79998779297</ele>
        <time>2019-10-12T07:21:55Z</time>
      </trkpt>
      <trkpt lat="47.33054" lon="2.83606">
        <ele>273.20001220703</ele>
        <time>2019-10-12T07:22:00Z</time>
      </trkpt>
      <trkpt lat="47.33061" lon="2.83609">
        <ele>274</ele>
        <time>2019-10-12T07:22:05Z</time>
      </trkpt>
      <trkpt lat="47.33066" lon="2.83612">
        <ele>274.79998779297</ele>
        <time>2019-10-12T07:22:10Z</time>
      </trkpt>
      <trkpt lat="47.33077" lon="2.83616">
        <ele>274.60000610352</ele>
        <time>2019-10-12T07:22:15Z</time>
      </trkpt>
      <trkpt lat="47.33083" lon="2.83618">
        <ele>274.60000610352</ele>
        <time>2019-10-12T07:22:20Z</time>
      </trkpt>
      <trkpt lat="47.33089" lon="2.83621">
        <ele>274.79998779297</ele>
        <time>2019-10-12T07:22:25Z</time>
      </trkpt>
      <trkpt lat="47.33095" lon="2.83624">
        <ele>275</ele>
        <time>2019-10-12T07:22:30Z</time>
      </trkpt>
      <trkpt lat="47.33105" lon="2.83627">
        <ele>275</ele>
        <time>2019-10-12T07:22:35Z</time>
      </trkpt>
      <trkpt lat="47.33112" lon="2.83628">
        <ele>275</ele>
        <time>2019-10-12T07:22:40Z</time>
      </trkpt>
      <trkpt lat="47.33117" lon="2.83629">
        <ele>275.20001220703</ele>
        <time>2019-10-12T07:22:45Z</time>
      </trkpt>
      <trkpt lat="47.33122" lon="2.83631">
        <ele>275.39999389648</ele>
        <time>2019-10-12T07:22:50Z</time>
      </trkpt>
      <trkpt lat="47.33127" lon="2.83631">
        <ele>275.39999389648</ele>
        <time>2019-10-12T07:22:55Z</time>
      </trkpt>
      <trkpt lat="47.33132" lon="2.83633">
        <ele>275.39999389648</ele>
        <time>2019-10-12T07:23:00Z</time>
      </trkpt>
      <trkpt lat="47.33137" lon="2.83634">
        <ele>275.39999389648</ele>
        <time>2019-10-12T07:23:05Z</time>
      </trkpt>
      <trkpt lat="47.33143" lon="2.83635">
        <ele>275.39999389648</ele>
        <time>2019-10-12T07:23:10Z</time>
      </trkpt>
      <trkpt lat="47.33148" lon="2.83636">
        <ele>275.39999389648</ele>
        <time>2019-10-12T07:23:15Z</time>
      </trkpt>
      <trkpt lat="47.33155" lon="2.83637">
        <ele>275.39999389648</ele>
        <time>2019-10-12T07:23:20Z</time>
      </trkpt>
      <trkpt lat="47.33163" lon="2.83638">
        <ele>275.60000610352</ele>
        <time>2019-10-12T07:23:25Z</time>
      </trkpt>
      <trkpt lat="47.33168" lon="2.8364">
        <ele>275.20001220703</ele>
        <time>2019-10-12T07:23:30Z</time>
      </trkpt>
      <trkpt lat="47.33175" lon="2.83641">
        <ele>275</ele>
        <time>2019-10-12T07:23:35Z</time>
      </trkpt>
      <trkpt lat="47.33181" lon="2.83643">
        <ele>275</ele>
        <time>2019-10-12T07:23:40Z</time>
      </trkpt>
      <trkpt lat="47.33187" lon="2.83646">
        <ele>275</ele>
        <time>2019-10-12T07:23:45Z</time>
      </trkpt>
      <trkpt lat="47.33191" lon="2.83649">
        <ele>275.20001220703</ele>
        <time>2019-10-12T07:23:50Z</time>
      </trkpt>
      <trkpt lat="47.33196" lon="2.83653">
        <ele>275</ele>
        <time>2019-10-12T07:23:55Z</time>
      </trkpt>
      <trkpt lat="47.332" lon="2.83657">
        <ele>275.20001220703</ele>
        <time>2019-10-12T07:24:00Z</time>
      </trkpt>
      <trkpt lat="47.33205" lon="2.83661">
        <ele>275.60000610352</ele>
        <time>2019-10-12T07:24:05Z</time>
      </trkpt>
      <trkpt lat="47.33209" lon="2.83666">
        <ele>275.60000610352</ele>
        <time>2019-10-12T07:24:10Z</time>
      </trkpt>
      <trkpt lat="47.33214" lon="2.8367">
        <ele>275.39999389648</ele>
        <time>2019-10-12T07:24:15Z</time>
      </trkpt>
      <trkpt lat="47.33217" lon="2.83674">
        <ele>275.20001220703</ele>
        <time>2019-10-12T07:24:20Z</time>
      </trkpt>
      <trkpt lat="47.33221" lon="2.83678">
        <ele>275.20001220703</ele>
        <time>2019-10-12T07:24:25Z</time>
      </trkpt>
      <trkpt lat="47.33223" lon="2.8368">
        <ele>275.20001220703</ele>
        <time>2019-10-12T07:24:30Z</time>
      </trkpt>
      <trkpt lat="47.33222" lon="2.83681">
        <ele>275.20001220703</ele>
        <time>2019-10-12T07:24:35Z</time>
      </trkpt>
      <trkpt lat="47.33219" lon="2.83685">
        <ele>275</ele>
        <time>2019-10-12T07:24:40Z</time>
      </trkpt>
      <trkpt lat="47.33223" lon="2.83689">
        <ele>275.20001220703</ele>
        <time>2019-10-12T07:24:45Z</time>
      </trkpt>
      <trkpt lat="47.3323" lon="2.83694">
        <ele>275.60000610352</ele>
        <time>2019-10-12T07:24:50Z</time>
      </trkpt>
      <trkpt lat="47.33236" lon="2.83699">
        <ele>275.79998779297</ele>
        <time>2019-10-12T07:24:55Z</time>
      </trkpt>
      <trkpt lat="47.33237" lon="2.83704">
        <ele>275.60000610352</ele>
        <time>2019-10-12T07:25:00Z</time>
      </trkpt>
      <trkpt lat="47.33237" lon="2.83711">
        <ele>275.79998779297</ele>
        <time>2019-10-12T07:25:05Z</time>
      </trkpt>
      <trkpt lat="47.33234" lon="2.83719">
        <ele>275.79998779297</ele>
        <time>2019-10-12T07:25:10Z</time>
      </trkpt>
      <trkpt lat="47.33231" lon="2.83726">
        <ele>275.39999389648</ele>
        <time>2019-10-12T07:25:15Z</time>
      </trkpt>
      <trkpt lat="47.33227" lon="2.83734">
        <ele>276.60000610352</ele>
        <time>2019-10-12T07:25:20Z</time>
      </trkpt>
      <trkpt lat="47.33227" lon="2.83736">
        <ele>277.60000610352</ele>
        <time>2019-10-12T07:25:25Z</time>
      </trkpt>
      <trkpt lat="47.33228" lon="2.83737">
        <ele>277.79998779297</ele>
        <time>2019-10-12T07:25:30Z</time>
      </trkpt>
      <trkpt lat="47.33234" lon="2.83745">
        <ele>277.79998779297</ele>
        <time>2019-10-12T07:25:35Z</time>
      </trkpt>
      <trkpt lat="47.33239" lon="2.83749">
        <ele>278</ele>
        <time>2019-10-12T07:25:40Z</time>
      </trkpt>
      <trkpt lat="47.33243" lon="2.83753">
        <ele>277.79998779297</ele>
        <time>2019-10-12T07:25:45Z</time>
      </trkpt>
      <trkpt lat="47.33245" lon="2.83757">
        <ele>278</ele>
        <time>2019-10-12T07:25:50Z</time>
      </trkpt>
      <trkpt lat="47.3325" lon="2.83762">
        <ele>278.39999389648</ele>
        <time>2019-10-12T07:25:55Z</time>
      </trkpt>
      <trkpt lat="47.33251" lon="2.83772">
        <ele>278.60000610352</ele>
        <time>2019-10-12T07:26:00Z</time>
      </trkpt>
      <trkpt lat="47.33252" lon="2.83781">
        <ele>279.20001220703</ele>
        <time>2019-10-12T07:26:05Z</time>
      </trkpt>
      <trkpt lat="47.33254" lon="2.83787">
        <ele>279.60000610352</ele>
        <time>2019-10-12T07:26:10Z</time>
      </trkpt>
      <trkpt lat="47.33255" lon="2.83791">
        <ele>280</ele>
        <time>2019-10-12T07:26:15Z</time>
      </trkpt>
      <trkpt lat="47.33258" lon="2.83797">
        <ele>280.39999389648</ele>
        <time>2019-10-12T07:26:20Z</time>
      </trkpt>
      <trkpt lat="47.3326" lon="2.838">
        <ele>280.79998779297</ele>
        <time>2019-10-12T07:26:25Z</time>
      </trkpt>
      <trkpt lat="47.33262" lon="2.83803">
        <ele>281.39999389648</ele>
        <time>2019-10-12T07:26:30Z</time>
      </trkpt>
      <trkpt lat="47.33264" lon="2.83807">
        <ele>281.39999389648</ele>
        <time>2019-10-12T07:26:35Z</time>
      </trkpt>
      <trkpt lat="47.33266" lon="2.83814">
        <ele>281.20001220703</ele>
        <time>2019-10-12T07:26:40Z</time>
      </trkpt>
      <trkpt lat="47.3327" lon="2.83819">
        <ele>281.20001220703</ele>
        <time>2019-10-12T07:26:45Z</time>
      </trkpt>
      <trkpt lat="47.33273" lon="2.83826">
        <ele>281.79998779297</ele>
        <time>2019-10-12T07:26:50Z</time>
      </trkpt>
      <trkpt lat="47.33273" lon="2.83832">
        <ele>282</ele>
        <time>2019-10-12T07:26:55Z</time>
      </trkpt>
      <trkpt lat="47.33268" lon="2.83845">
        <ele>282</ele>
        <time>2019-10-12T07:27:00Z</time>
      </trkpt>
      <trkpt lat="47.33267" lon="2.83852">
        <ele>282</ele>
        <time>2019-10-12T07:27:05Z</time>
      </trkpt>
      <trkpt lat="47.33268" lon="2.83858">
        <ele>282.39999389648</ele>
        <time>2019-10-12T07:27:10Z</time>
      </trkpt>
      <trkpt lat="47.33272" lon="2.83863">
        <ele>282.60000610352</ele>
        <time>2019-10-12T07:27:15Z</time>
      </trkpt>
      <trkpt lat="47.33277" lon="2.83872">
        <ele>283</ele>
        <time>2019-10-12T07:27:20Z</time>
      </trkpt>
      <trkpt lat="47.33281" lon="2.83883">
        <ele>283.20001220703</ele>
        <time>2019-10-12T07:27:25Z</time>
      </trkpt>
      <trkpt lat="47.33284" lon="2.83893">
        <ele>283.39999389648</ele>
        <time>2019-10-12T07:27:30Z</time>
      </trkpt>
      <trkpt lat="47.33284" lon="2.83898">
        <ele>283.79998779297</ele>
        <time>2019-10-12T07:27:35Z</time>
      </trkpt>
      <trkpt lat="47.33282" lon="2.83906">
        <ele>284.39999389648</ele>
        <time>2019-10-12T07:27:40Z</time>
      </trkpt>
      <trkpt lat="47.3328" lon="2.83914">
        <ele>284.39999389648</ele>
        <time>2019-10-12T07:27:45Z</time>
      </trkpt>
      <trkpt lat="47.33274" lon="2.83917">
        <ele>284.60000610352</ele>
        <time>2019-10-12T07:27:50Z</time>
      </trkpt>
      <trkpt lat="47.33268" lon="2.83921">
        <ele>285.39999389648</ele>
        <time>2019-10-12T07:27:55Z</time>
      </trkpt>
      <trkpt lat="47.33264" lon="2.83927">
        <ele>286.20001220703</ele>
        <time>2019-10-12T07:28:00Z</time>
      </trkpt>
      <trkpt lat="47.33269" lon="2.83935">
        <ele>286.60000610352</ele>
        <time>2019-10-12T07:28:05Z</time>
      </trkpt>
      <trkpt lat="47.33275" lon="2.83947">
        <ele>287</ele>
        <time>2019-10-12T07:28:10Z</time>
      </trkpt>
      <trkpt lat="47.3328" lon="2.8396">
        <ele>287.39999389648</ele>
        <time>2019-10-12T07:28:15Z</time>
      </trkpt>
      <trkpt lat="47.33286" lon="2.83969">
        <ele>287.60000610352</ele>
        <time>2019-10-12T07:28:20Z</time>
      </trkpt>
      <trkpt lat="47.33292" lon="2.83975">
        <ele>288.20001220703</ele>
        <time>2019-10-12T07:28:25Z</time>
      </trkpt>
      <trkpt lat="47.33295" lon="2.83984">
        <ele>289.20001220703</ele>
        <time>2019-10-12T07:28:30Z</time>
      </trkpt>
      <trkpt lat="47.33291" lon="2.8399">
        <ele>290</ele>
        <time>2019-10-12T07:28:35Z</time>
      </trkpt>
      <trkpt lat="47.33285" lon="2.83993">
        <ele>290.39999389648</ele>
        <time>2019-10-12T07:28:40Z</time>
      </trkpt>
      <trkpt lat="47.33279" lon="2.83995">
        <ele>290.60000610352</ele>
        <time>2019-10-12T07:28:45Z</time>
      </trkpt>
      <trkpt lat="47.33272" lon="2.83997">
        <ele>290.79998779297</ele>
        <time>2019-10-12T07:28:50Z</time>
      </trkpt>
      <trkpt lat="47.33266" lon="2.84">
        <ele>291</ele>
        <time>2019-10-12T07:28:55Z</time>
      </trkpt>
      <trkpt lat="47.33261" lon="2.84002">
        <ele>291.39999389648</ele>
        <time>2019-10-12T07:29:00Z</time>
      </trkpt>
      <trkpt lat="47.33256" lon="2.84006">
        <ele>291.79998779297</ele>
        <time>2019-10-12T07:29:05Z</time>
      </trkpt>
      <trkpt lat="47.33251" lon="2.84015">
        <ele>292</ele>
        <time>2019-10-12T07:29:10Z</time>
      </trkpt>
      <trkpt lat="47.3325" lon="2.84023">
        <ele>292.20001220703</ele>
        <time>2019-10-12T07:29:15Z</time>
      </trkpt>
      <trkpt lat="47.33253" lon="2.84032">
        <ele>292.20001220703</ele>
        <time>2019-10-12T07:29:20Z</time>
      </trkpt>
      <trkpt lat="47.33255" lon="2.8404">
        <ele>292.79998779297</ele>
        <time>2019-10-12T07:29:25Z</time>
      </trkpt>
      <trkpt lat="47.33258" lon="2.84049">
        <ele>293</ele>
        <time>2019-10-12T07:29:30Z</time>
      </trkpt>
      <trkpt lat="47.3326" lon="2.84056">
        <ele>293</ele>
        <time>2019-10-12T07:29:35Z</time>
      </trkpt>
      <trkpt lat="47.3326" lon="2.84062">
        <ele>293</ele>
        <time>2019-10-12T07:29:40Z</time>
      </trkpt>
      <trkpt lat="47.33263" lon="2.84068">
        <ele>292.60000610352</ele>
        <time>2019-10-12T07:29:45Z</time>
      </trkpt>
      <trkpt lat="47.33265" lon="2.84074">
        <ele>292.20001220703</ele>
        <time>2019-10-12T07:29:50Z</time>
      </trkpt>
      <trkpt lat="47.33267" lon="2.8408">
        <ele>292</ele>
        <time>2019-10-12T07:29:55Z</time>
      </trkpt>
      <trkpt lat="47.3327" lon="2.84086">
        <ele>291.39999389648</ele>
        <time>2019-10-12T07:30:00Z</time>
      </trkpt>
      <trkpt lat="47.33273" lon="2.84093">
        <ele>291</ele>
        <time>2019-10-12T07:30:05Z</time>
      </trkpt>
      <trkpt lat="47.33279" lon="2.84098">
        <ele>290.20001220703</ele>
        <time>2019-10-12T07:30:10Z</time>
      </trkpt>
      <trkpt lat="47.33281" lon="2.84101">
        <ele>290</ele>
        <time>2019-10-12T07:30:15Z</time>
      </trkpt>
      <trkpt lat="47.33288" lon="2.84106">
        <ele>289.79998779297</ele>
        <time>2019-10-12T07:30:20Z</time>
      </trkpt>
      <trkpt lat="47.33292" lon="2.84111">
        <ele>289</ele>
        <time>2019-10-12T07:30:25Z</time>
      </trkpt>
      <trkpt lat="47.33296" lon="2.84114">
        <ele>288.79998779297</ele>
        <time>2019-10-12T07:30:30Z</time>
      </trkpt>
      <trkpt lat="47.33299" lon="2.84118">
        <ele>288.39999389648</ele>
        <time>2019-10-12T07:30:35Z</time>
      </trkpt>
      <trkpt lat="47.33302" lon="2.84121">
        <ele>287.79998779297</ele>
        <time>2019-10-12T07:30:40Z</time>
      </trkpt>
      <trkpt lat="47.33304" lon="2.84121">
        <ele>287.60000610352</ele>
        <time>2019-10-12T07:30:45Z</time>
      </trkpt>
      <trkpt lat="47.33307" lon="2.84119">
        <ele>287.39999389648</ele>
        <time>2019-10-12T07:30:50Z</time>
      </trkpt>
      <trkpt lat="47.33309" lon="2.84117">
        <ele>286.79998779297</ele>
        <time>2019-10-12T07:30:55Z</time>
      </trkpt>
      <trkpt lat="47.33309" lon="2.84116">
        <ele>286.79998779297</ele>
        <time>2019-10-12T07:31:00Z</time>
      </trkpt>
      <trkpt lat="47.33308" lon="2.84116">
        <ele>286.79998779297</ele>
        <time>2019-10-12T07:31:05Z</time>
      </trkpt>
      <trkpt lat="47.3331" lon="2.84115">
        <ele>286.60000610352</ele>
        <time>2019-10-12T07:31:10Z</time>
      </trkpt>
      <trkpt lat="47.33314" lon="2.84111">
        <ele>286.39999389648</ele>
        <time>2019-10-12T07:31:15Z</time>
      </trkpt>
      <trkpt lat="47.33318" lon="2.84105">
        <ele>285.60000610352</ele>
        <time>2019-10-12T07:31:20Z</time>
      </trkpt>
      <trkpt lat="47.33322" lon="2.84102">
        <ele>284.60000610352</ele>
        <time>2019-10-12T07:31:25Z</time>
      </trkpt>
      <trkpt lat="47.33326" lon="2.84098">
        <ele>284</ele>
        <time>2019-10-12T07:31:30Z</time>
      </trkpt>
      <trkpt lat="47.33331" lon="2.84093">
        <ele>283.79998779297</ele>
        <time>2019-10-12T07:31:35Z</time>
      </trkpt>
      <trkpt lat="47.33335" lon="2.84098">
        <ele>283.60000610352</ele>
        <time>2019-10-12T07:31:40Z</time>
      </trkpt>
      <trkpt lat="47.33337" lon="2.84104">
        <ele>283.60000610352</ele>
        <time>2019-10-12T07:31:45Z</time>
      </trkpt>
      <trkpt lat="47.33336" lon="2.84109">
        <ele>284</ele>
        <time>2019-10-12T07:31:50Z</time>
      </trkpt>
      <trkpt lat="47.33334" lon="2.84113">
        <ele>284.20001220703</ele>
        <time>2019-10-12T07:31:55Z</time>
      </trkpt>
      <trkpt lat="47.33331" lon="2.84117">
        <ele>284.79998779297</ele>
        <time>2019-10-12T07:32:00Z</time>
      </trkpt>
      <trkpt lat="47.33326" lon="2.8412">
        <ele>285.20001220703</ele>
        <time>2019-10-12T07:32:05Z</time>
      </trkpt>
      <trkpt lat="47.33322" lon="2.84124">
        <ele>285.79998779297</ele>
        <time>2019-10-12T07:32:10Z</time>
      </trkpt>
      <trkpt lat="47.3332" lon="2.84128">
        <ele>286.60000610352</ele>
        <time>2019-10-12T07:32:15Z</time>
      </trkpt>
      <trkpt lat="47.33312" lon="2.84135">
        <ele>287.20001220703</ele>
        <time>2019-10-12T07:32:20Z</time>
      </trkpt>
      <trkpt lat="47.33305" lon="2.84139">
        <ele>287.39999389648</ele>
        <time>2019-10-12T07:32:25Z</time>
      </trkpt>
      <trkpt lat="47.33301" lon="2.84142">
        <ele>287.60000610352</ele>
        <time>2019-10-12T07:32:30Z</time>
      </trkpt>
      <trkpt lat="47.33298" lon="2.84141">
        <ele>287.79998779297</ele>
        <time>2019-10-12T07:32:35Z</time>
      </trkpt>
      <trkpt lat="47.33297" lon="2.84141">
        <ele>288</ele>
        <time>2019-10-12T07:32:40Z</time>
      </trkpt>
      <trkpt lat="47.33294" lon="2.84145">
        <ele>288.20001220703</ele>
        <time>2019-10-12T07:32:45Z</time>
      </trkpt>
      <trkpt lat="47.33291" lon="2.84149">
        <ele>287.60000610352</ele>
        <time>2019-10-12T07:32:50Z</time>
      </trkpt>
      <trkpt lat="47.33287" lon="2.84152">
        <ele>286.79998779297</ele>
        <time>2019-10-12T07:32:55Z</time>
      </trkpt>
      <trkpt lat="47.33283" lon="2.84155">
        <ele>286.20001220703</ele>
        <time>2019-10-12T07:33:00Z</time>
      </trkpt>
      <trkpt lat="47.33279" lon="2.84158">
        <ele>285.79998779297</ele>
        <time>2019-10-12T07:33:05Z</time>
      </trkpt>
      <trkpt lat="47.33275" lon="2.84163">
        <ele>284.39999389648</ele>
        <time>2019-10-12T07:33:10Z</time>
      </trkpt>
      <trkpt lat="47.33271" lon="2.84167">
        <ele>283</ele>
        <time>2019-10-12T07:33:15Z</time>
      </trkpt>
      <trkpt lat="47.33266" lon="2.84173">
        <ele>281.60000610352</ele>
        <time>2019-10-12T07:33:20Z</time>
      </trkpt>
      <trkpt lat="47.33261" lon="2.84179">
        <ele>280.79998779297</ele>
        <time>2019-10-12T07:33:25Z</time>
      </trkpt>
      <trkpt lat="47.33257" lon="2.84184">
        <ele>280.39999389648</ele>
        <time>2019-10-12T07:33:30Z</time>
      </trkpt>
      <trkpt lat="47.33254" lon="2.84188">
        <ele>279.39999389648</ele>
        <time>2019-10-12T07:33:35Z</time>
      </trkpt>
      <trkpt lat="47.33252" lon="2.84191">
        <ele>278.39999389648</ele>
        <time>2019-10-12T07:33:40Z</time>
      </trkpt>
      <trkpt lat="47.33249" lon="2.84194">
        <ele>277.39999389648</ele>
        <time>2019-10-12T07:33:45Z</time>
      </trkpt>
      <trkpt lat="47.33246" lon="2.84199">
        <ele>276.60000610352</ele>
        <time>2019-10-12T07:33:50Z</time>
      </trkpt>
      <trkpt lat="47.33244" lon="2.84205">
        <ele>275.39999389648</ele>
        <time>2019-10-12T07:33:55Z</time>
      </trkpt>
      <trkpt lat="47.33239" lon="2.84211">
        <ele>274.20001220703</ele>
        <time>2019-10-12T07:34:00Z</time>
      </trkpt>
      <trkpt lat="47.33231" lon="2.84217">
        <ele>273.39999389648</ele>
        <time>2019-10-12T07:34:05Z</time>
      </trkpt>
      <trkpt lat="47.33226" lon="2.84223">
        <ele>272.79998779297</ele>
        <time>2019-10-12T07:34:10Z</time>
      </trkpt>
      <trkpt lat="47.33223" lon="2.84229">
        <ele>272</ele>
        <time>2019-10-12T07:34:15Z</time>
      </trkpt>
      <trkpt lat="47.33222" lon="2.84234">
        <ele>271.20001220703</ele>
        <time>2019-10-12T07:34:20Z</time>
      </trkpt>
      <trkpt lat="47.3322" lon="2.84239">
        <ele>270.39999389648</ele>
        <time>2019-10-12T07:34:25Z</time>
      </trkpt>
      <trkpt lat="47.33214" lon="2.84246">
        <ele>269.60000610352</ele>
        <time>2019-10-12T07:34:30Z</time>
      </trkpt>
      <trkpt lat="47.33208" lon="2.84255">
        <ele>268.60000610352</ele>
        <time>2019-10-12T07:34:35Z</time>
      </trkpt>
      <trkpt lat="47.33204" lon="2.84261">
        <ele>267.79998779297</ele>
        <time>2019-10-12T07:34:40Z</time>
      </trkpt>
      <trkpt lat="47.33199" lon="2.84267">
        <ele>267.20001220703</ele>
        <time>2019-10-12T07:34:45Z</time>
      </trkpt>
      <trkpt lat="47.33196" lon="2.84272">
        <ele>266.60000610352</ele>
        <time>2019-10-12T07:34:50Z</time>
      </trkpt>
      <trkpt lat="47.33192" lon="2.84277">
        <ele>266.20001220703</ele>
        <time>2019-10-12T07:34:55Z</time>
      </trkpt>
      <trkpt lat="47.33186" lon="2.84279">
        <ele>265.79998779297</ele>
        <time>2019-10-12T07:35:00Z</time>
      </trkpt>
      <trkpt lat="47.33182" lon="2.84284">
        <ele>265.20001220703</ele>
        <time>2019-10-12T07:35:05Z</time>
      </trkpt>
      <trkpt lat="47.33179" lon="2.8429">
        <ele>264.60000610352</ele>
        <time>2019-10-12T07:35:10Z</time>
      </trkpt>
      <trkpt lat="47.33176" lon="2.84297">
        <ele>264</ele>
        <time>2019-10-12T07:35:15Z</time>
      </trkpt>
      <trkpt lat="47.33175" lon="2.84305">
        <ele>263.20001220703</ele>
        <time>2019-10-12T07:35:20Z</time>
      </trkpt>
      <trkpt lat="47.33173" lon="2.84313">
        <ele>262.60000610352</ele>
        <time>2019-10-12T07:35:25Z</time>
      </trkpt>
      <trkpt lat="47.33171" lon="2.84321">
        <ele>262</ele>
        <time>2019-10-12T07:35:30Z</time>
      </trkpt>
      <trkpt lat="47.3317" lon="2.84329">
        <ele>261.39999389648</ele>
        <time>2019-10-12T07:35:35Z</time>
      </trkpt>
      <trkpt lat="47.33167" lon="2.84337">
        <ele>260.60000610352</ele>
        <time>2019-10-12T07:35:40Z</time>
      </trkpt>
      <trkpt lat="47.33161" lon="2.84345">
        <ele>259.60000610352</ele>
        <time>2019-10-12T07:35:45Z</time>
      </trkpt>
      <trkpt lat="47.33158" lon="2.84351">
        <ele>258.60000610352</ele>
        <time>2019-10-12T07:35:50Z</time>
      </trkpt>
      <trkpt lat="47.33155" lon="2.84358">
        <ele>257.60000610352</ele>
        <time>2019-10-12T07:35:55Z</time>
      </trkpt>
      <trkpt lat="47.33151" lon="2.84366">
        <ele>257</ele>
        <time>2019-10-12T07:36:00Z</time>
      </trkpt>
      <trkpt lat="47.33148" lon="2.84373">
        <ele>256.20001220703</ele>
        <time>2019-10-12T07:36:05Z</time>
      </trkpt>
      <trkpt lat="47.33144" lon="2.84378">
        <ele>255.60000610352</ele>
        <time>2019-10-12T07:36:10Z</time>
      </trkpt>
      <trkpt lat="47.3314" lon="2.84383">
        <ele>254.60000610352</ele>
        <time>2019-10-12T07:36:15Z</time>
      </trkpt>
      <trkpt lat="47.33135" lon="2.84389">
        <ele>253.80000305176</ele>
        <time>2019-10-12T07:36:20Z</time>
      </trkpt>
      <trkpt lat="47.3313" lon="2.84395">
        <ele>252.19999694824</ele>
        <time>2019-10-12T07:36:25Z</time>
      </trkpt>
      <trkpt lat="47.33125" lon="2.84401">
        <ele>251.39999389648</ele>
        <time>2019-10-12T07:36:30Z</time>
      </trkpt>
      <trkpt lat="47.33122" lon="2.84408">
        <ele>250.39999389648</ele>
        <time>2019-10-12T07:36:35Z</time>
      </trkpt>
      <trkpt lat="47.33118" lon="2.84415">
        <ele>249.60000610352</ele>
        <time>2019-10-12T07:36:40Z</time>
      </trkpt>
      <trkpt lat="47.33111" lon="2.84419">
        <ele>249</ele>
        <time>2019-10-12T07:36:45Z</time>
      </trkpt>
      <trkpt lat="47.33109" lon="2.84419">
        <ele>248.80000305176</ele>
        <time>2019-10-12T07:36:50Z</time>
      </trkpt>
      <trkpt lat="47.33108" lon="2.8442">
        <ele>248.80000305176</ele>
        <time>2019-10-12T07:36:55Z</time>
      </trkpt>
      <trkpt lat="47.33105" lon="2.84424">
        <ele>248.39999389648</ele>
        <time>2019-10-12T07:37:00Z</time>
      </trkpt>
      <trkpt lat="47.33102" lon="2.84431">
        <ele>247.60000610352</ele>
        <time>2019-10-12T07:37:05Z</time>
      </trkpt>
      <trkpt lat="47.33101" lon="2.84435">
        <ele>247.19999694824</ele>
        <time>2019-10-12T07:37:10Z</time>
      </trkpt>
      <trkpt lat="47.33101" lon="2.8444">
        <ele>246.80000305176</ele>
        <time>2019-10-12T07:37:15Z</time>
      </trkpt>
      <trkpt lat="47.331" lon="2.84444">
        <ele>245.80000305176</ele>
        <time>2019-10-12T07:37:20Z</time>
      </trkpt>
      <trkpt lat="47.33099" lon="2.84451">
        <ele>245</ele>
        <time>2019-10-12T07:37:25Z</time>
      </trkpt>
      <trkpt lat="47.33098" lon="2.84457">
        <ele>244</ele>
        <time>2019-10-12T07:37:30Z</time>
      </trkpt>
      <trkpt lat="47.33097" lon="2.84458">
        <ele>243.39999389648</ele>
        <time>2019-10-12T07:37:35Z</time>
      </trkpt>
      <trkpt lat="47.33098" lon="2.84459">
        <ele>243.19999694824</ele>
        <time>2019-10-12T07:37:40Z</time>
      </trkpt>
      <trkpt lat="47.33097" lon="2.84468">
        <ele>243</ele>
        <time>2019-10-12T07:37:45Z</time>
      </trkpt>
      <trkpt lat="47.33097" lon="2.84476">
        <ele>242.19999694824</ele>
        <time>2019-10-12T07:37:50Z</time>
      </trkpt>
      <trkpt lat="47.33097" lon="2.84479">
        <ele>241.60000610352</ele>
        <time>2019-10-12T07:37:55Z</time>
      </trkpt>
      <trkpt lat="47.33098" lon="2.84479">
        <ele>241.39999389648</ele>
        <time>2019-10-12T07:38:00Z</time>
      </trkpt>
      <trkpt lat="47.33098" lon="2.8448">
        <ele>241.39999389648</ele>
        <time>2019-10-12T07:38:05Z</time>
      </trkpt>
      <trkpt lat="47.33098" lon="2.84479">
        <ele>241.19999694824</ele>
        <time>2019-10-12T07:38:10Z</time>
      </trkpt>
      <trkpt lat="47.33097" lon="2.84479">
        <ele>241</ele>
        <time>2019-10-12T07:38:15Z</time>
      </trkpt>
      <trkpt lat="47.33098" lon="2.84477">
        <ele>241.19999694824</ele>
        <time>2019-10-12T07:38:20Z</time>
      </trkpt>
      <trkpt lat="47.33098" lon="2.84477">
        <ele>241.19999694824</ele>
        <time>2019-10-12T07:38:25Z</time>
      </trkpt>
      <trkpt lat="47.33098" lon="2.84478">
        <ele>241.19999694824</ele>
        <time>2019-10-12T07:38:30Z</time>
      </trkpt>
      <trkpt lat="47.33098" lon="2.84477">
        <ele>241.60000610352</ele>
        <time>2019-10-12T07:38:35Z</time>
      </trkpt>
      <trkpt lat="47.33099" lon="2.84478">
        <ele>241.60000610352</ele>
        <time>2019-10-12T07:38:39Z</time>
      </trkpt>
      <trkpt lat="47.33098" lon="2.84477">
        <ele>241.60000610352</ele>
        <time>2019-10-12T07:38:44Z</time>
      </trkpt>
      <trkpt lat="47.33098" lon="2.84477">
        <ele>241.60000610352</ele>
        <time>2019-10-12T07:38:49Z</time>
      </trkpt>
      <trkpt lat="47.33097" lon="2.84477">
        <ele>241.39999389648</ele>
        <time>2019-10-12T07:38:54Z</time>
      </trkpt>
      <trkpt lat="47.33098" lon="2.84477">
        <ele>241.39999389648</ele>
        <time>2019-10-12T07:38:59Z</time>
      </trkpt>
      <trkpt lat="47.33098" lon="2.84478">
        <ele>240.80000305176</ele>
        <time>2019-10-12T07:39:04Z</time>
      </trkpt>
      <trkpt lat="47.33096" lon="2.84484">
        <ele>240.60000610352</ele>
        <time>2019-10-12T07:39:09Z</time>
      </trkpt>
      <trkpt lat="47.33093" lon="2.84492">
        <ele>240.60000610352</ele>
        <time>2019-10-12T07:39:14Z</time>
      </trkpt>
      <trkpt lat="47.33088" lon="2.84498">
        <ele>239.60000610352</ele>
        <time>2019-10-12T07:39:19Z</time>
      </trkpt>
      <trkpt lat="47.33082" lon="2.84501">
        <ele>238.80000305176</ele>
        <time>2019-10-12T07:39:24Z</time>
      </trkpt>
      <trkpt lat="47.33077" lon="2.84504">
        <ele>237.80000305176</ele>
        <time>2019-10-12T07:39:29Z</time>
      </trkpt>
      <trkpt lat="47.33072" lon="2.84506">
        <ele>237.19999694824</ele>
        <time>2019-10-12T07:39:34Z</time>
      </trkpt>
      <trkpt lat="47.33067" lon="2.84506">
        <ele>236.39999389648</ele>
        <time>2019-10-12T07:39:39Z</time>
      </trkpt>
      <trkpt lat="47.33062" lon="2.84507">
        <ele>235.60000610352</ele>
        <time>2019-10-12T07:39:44Z</time>
      </trkpt>
      <trkpt lat="47.33056" lon="2.84508">
        <ele>234.60000610352</ele>
        <time>2019-10-12T07:39:49Z</time>
      </trkpt>
      <trkpt lat="47.33052" lon="2.8451">
        <ele>233.80000305176</ele>
        <time>2019-10-12T07:39:54Z</time>
      </trkpt>
      <trkpt lat="47.33047" lon="2.8451">
        <ele>232.80000305176</ele>
        <time>2019-10-12T07:39:59Z</time>
      </trkpt>
      <trkpt lat="47.3304" lon="2.8451">
        <ele>231.60000610352</ele>
        <time>2019-10-12T07:40:04Z</time>
      </trkpt>
      <trkpt lat="47.33034" lon="2.84512">
        <ele>230.60000610352</ele>
        <time>2019-10-12T07:40:09Z</time>
      </trkpt>
      <trkpt lat="47.33027" lon="2.84515">
        <ele>229.60000610352</ele>
        <time>2019-10-12T07:40:14Z</time>
      </trkpt>
      <trkpt lat="47.33022" lon="2.84517">
        <ele>228.60000610352</ele>
        <time>2019-10-12T07:40:19Z</time>
      </trkpt>
      <trkpt lat="47.33019" lon="2.84518">
        <ele>227.60000610352</ele>
        <time>2019-10-12T07:40:24Z</time>
      </trkpt>
      <trkpt lat="47.33014" lon="2.84521">
        <ele>227</ele>
        <time>2019-10-12T07:40:29Z</time>
      </trkpt>
      <trkpt lat="47.33009" lon="2.84523">
        <ele>226.19999694824</ele>
        <time>2019-10-12T07:40:34Z</time>
      </trkpt>
      <trkpt lat="47.33005" lon="2.84526">
        <ele>225</ele>
        <time>2019-10-12T07:40:39Z</time>
      </trkpt>
      <trkpt lat="47.32999" lon="2.84528">
        <ele>224.39999389648</ele>
        <time>2019-10-12T07:40:44Z</time>
      </trkpt>
      <trkpt lat="47.32992" lon="2.84531">
        <ele>223.39999389648</ele>
        <time>2019-10-12T07:40:49Z</time>
      </trkpt>
      <trkpt lat="47.32986" lon="2.84533">
        <ele>222.60000610352</ele>
        <time>2019-10-12T07:40:54Z</time>
      </trkpt>
      <trkpt lat="47.3298" lon="2.84535">
        <ele>221.80000305176</ele>
        <time>2019-10-12T07:40:59Z</time>
      </trkpt>
      <trkpt lat="47.32975" lon="2.84536">
        <ele>221</ele>
        <time>2019-10-12T07:41:04Z</time>
      </trkpt>
      <trkpt lat="47.3297" lon="2.84537">
        <ele>220.19999694824</ele>
        <time>2019-10-12T07:41:09Z</time>
      </trkpt>
      <trkpt lat="47.32966" lon="2.84538">
        <ele>219.39999389648</ele>
        <time>2019-10-12T07:41:14Z</time>
      </trkpt>
      <trkpt lat="47.32961" lon="2.8454">
        <ele>218.60000610352</ele>
        <time>2019-10-12T07:41:19Z</time>
      </trkpt>
      <trkpt lat="47.32956" lon="2.84543">
        <ele>217.60000610352</ele>
        <time>2019-10-12T07:41:24Z</time>
      </trkpt>
      <trkpt lat="47.32951" lon="2.84546">
        <ele>216.80000305176</ele>
        <time>2019-10-12T07:41:29Z</time>
      </trkpt>
      <trkpt lat="47.32947" lon="2.84547">
        <ele>216.19999694824</ele>
        <time>2019-10-12T07:41:34Z</time>
      </trkpt>
      <trkpt lat="47.32947" lon="2.84547">
        <ele>215.80000305176</ele>
        <time>2019-10-12T07:41:39Z</time>
      </trkpt>
      <trkpt lat="47.32943" lon="2.84549">
        <ele>215.80000305176</ele>
        <time>2019-10-12T07:41:44Z</time>
      </trkpt>
      <trkpt lat="47.3294" lon="2.84551">
        <ele>215.39999389648</ele>
        <time>2019-10-12T07:41:49Z</time>
      </trkpt>
      <trkpt lat="47.32939" lon="2.84551">
        <ele>215</ele>
        <time>2019-10-12T07:41:54Z</time>
      </trkpt>
      <trkpt lat="47.32935" lon="2.84554">
        <ele>215</ele>
        <time>2019-10-12T07:41:59Z</time>
      </trkpt>
      <trkpt lat="47.32929" lon="2.84561">
        <ele>214.39999389648</ele>
        <time>2019-10-12T07:42:04Z</time>
      </trkpt>
      <trkpt lat="47.32921" lon="2.84565">
        <ele>213.80000305176</ele>
        <time>2019-10-12T07:42:09Z</time>
      </trkpt>
      <trkpt lat="47.32917" lon="2.8457">
        <ele>213.19999694824</ele>
        <time>2019-10-12T07:42:14Z</time>
      </trkpt>
      <trkpt lat="47.32914" lon="2.8457">
        <ele>212.39999389648</ele>
        <time>2019-10-12T07:42:19Z</time>
      </trkpt>
      <trkpt lat="47.32913" lon="2.84568">
        <ele>212.19999694824</ele>
        <time>2019-10-12T07:42:24Z</time>
      </trkpt>
      <trkpt lat="47.32913" lon="2.84568">
        <ele>212.19999694824</ele>
        <time>2019-10-12T07:42:29Z</time>
      </trkpt>
      <trkpt lat="47.32912" lon="2.84569">
        <ele>212.19999694824</ele>
        <time>2019-10-12T07:42:34Z</time>
      </trkpt>
      <trkpt lat="47.32912" lon="2.84569">
        <ele>212</ele>
        <time>2019-10-12T07:42:39Z</time>
      </trkpt>
      <trkpt lat="47.32912" lon="2.84568">
        <ele>211.80000305176</ele>
        <time>2019-10-12T07:42:44Z</time>
      </trkpt>
      <trkpt lat="47.3291" lon="2.84569">
        <ele>211.80000305176</ele>
        <time>2019-10-12T07:42:49Z</time>
      </trkpt>
      <trkpt lat="47.32903" lon="2.84575">
        <ele>211.80000305176</ele>
        <time>2019-10-12T07:42:54Z</time>
      </trkpt>
      <trkpt lat="47.32898" lon="2.84583">
        <ele>211.19999694824</ele>
        <time>2019-10-12T07:42:59Z</time>
      </trkpt>
      <trkpt lat="47.32895" lon="2.84589">
        <ele>210.19999694824</ele>
        <time>2019-10-12T07:43:04Z</time>
      </trkpt>
      <trkpt lat="47.32893" lon="2.84592">
        <ele>209.80000305176</ele>
        <time>2019-10-12T07:43:09Z</time>
      </trkpt>
      <trkpt lat="47.32889" lon="2.84596">
        <ele>209.60000610352</ele>
        <time>2019-10-12T07:43:14Z</time>
      </trkpt>
      <trkpt lat="47.32884" lon="2.84602">
        <ele>208.80000305176</ele>
        <time>2019-10-12T07:43:19Z</time>
      </trkpt>
      <trkpt lat="47.32881" lon="2.84608">
        <ele>208.19999694824</ele>
        <time>2019-10-12T07:43:24Z</time>
      </trkpt>
      <trkpt lat="47.32878" lon="2.84616">
        <ele>207.39999389648</ele>
        <time>2019-10-12T07:43:29Z</time>
      </trkpt>
      <trkpt lat="47.32877" lon="2.84622">
        <ele>206.80000305176</ele>
        <time>2019-10-12T07:43:34Z</time>
      </trkpt>
      <trkpt lat="47.32873" lon="2.84628">
        <ele>206.19999694824</ele>
        <time>2019-10-12T07:43:39Z</time>
      </trkpt>
      <trkpt lat="47.32868" lon="2.84633">
        <ele>205.80000305176</ele>
        <time>2019-10-12T07:43:44Z</time>
      </trkpt>
      <trkpt lat="47.32865" lon="2.84637">
        <ele>205.19999694824</ele>
        <time>2019-10-12T07:43:49Z</time>
      </trkpt>
      <trkpt lat="47.32863" lon="2.84639">
        <ele>204.60000610352</ele>
        <time>2019-10-12T07:43:54Z</time>
      </trkpt>
      <trkpt lat="47.32863" lon="2.84639">
        <ele>204.60000610352</ele>
        <time>2019-10-12T07:43:59Z</time>
      </trkpt>
      <trkpt lat="47.3286" lon="2.84645">
        <ele>204.39999389648</ele>
        <time>2019-10-12T07:44:04Z</time>
      </trkpt>
      <trkpt lat="47.32857" lon="2.84651">
        <ele>203.39999389648</ele>
        <time>2019-10-12T07:44:09Z</time>
      </trkpt>
      <trkpt lat="47.32852" lon="2.84659">
        <ele>203.19999694824</ele>
        <time>2019-10-12T07:44:14Z</time>
      </trkpt>
      <trkpt lat="47.3285" lon="2.84664">
        <ele>202.80000305176</ele>
        <time>2019-10-12T07:44:19Z</time>
      </trkpt>
      <trkpt lat="47.32849" lon="2.84668">
        <ele>202.60000610352</ele>
        <time>2019-10-12T07:44:24Z</time>
      </trkpt>
      <trkpt lat="47.32848" lon="2.84669">
        <ele>202.60000610352</ele>
        <time>2019-10-12T07:44:29Z</time>
      </trkpt>
      <trkpt lat="47.32851" lon="2.84673">
        <ele>202.60000610352</ele>
        <time>2019-10-12T07:44:34Z</time>
      </trkpt>
      <trkpt lat="47.32855" lon="2.8468">
        <ele>202.60000610352</ele>
        <time>2019-10-12T07:44:39Z</time>
      </trkpt>
      <trkpt lat="47.32859" lon="2.84687">
        <ele>202.80000305176</ele>
        <time>2019-10-12T07:44:44Z</time>
      </trkpt>
      <trkpt lat="47.32862" lon="2.84693">
        <ele>202.80000305176</ele>
        <time>2019-10-12T07:44:49Z</time>
      </trkpt>
      <trkpt lat="47.32866" lon="2.847">
        <ele>202.80000305176</ele>
        <time>2019-10-12T07:44:54Z</time>
      </trkpt>
      <trkpt lat="47.32868" lon="2.84707">
        <ele>202.80000305176</ele>
        <time>2019-10-12T07:44:59Z</time>
      </trkpt>
      <trkpt lat="47.3287" lon="2.84715">
        <ele>202.60000610352</ele>
        <time>2019-10-12T07:45:04Z</time>
      </trkpt>
      <trkpt lat="47.32873" lon="2.84724">
        <ele>202.60000610352</ele>
        <time>2019-10-12T07:45:09Z</time>
      </trkpt>
      <trkpt lat="47.32872" lon="2.84732">
        <ele>202.39999389648</ele>
        <time>2019-10-12T07:45:14Z</time>
      </trkpt>
      <trkpt lat="47.32868" lon="2.84737">
        <ele>202</ele>
        <time>2019-10-12T07:45:19Z</time>
      </trkpt>
      <trkpt lat="47.32863" lon="2.84742">
        <ele>201.80000305176</ele>
        <time>2019-10-12T07:45:24Z</time>
      </trkpt>
      <trkpt lat="47.3286" lon="2.84748">
        <ele>201.60000610352</ele>
        <time>2019-10-12T07:45:29Z</time>
      </trkpt>
      <trkpt lat="47.32856" lon="2.84752">
        <ele>201.39999389648</ele>
        <time>2019-10-12T07:45:34Z</time>
      </trkpt>
      <trkpt lat="47.32856" lon="2.84753">
        <ele>201.19999694824</ele>
        <time>2019-10-12T07:45:39Z</time>
      </trkpt>
      <trkpt lat="47.32856" lon="2.84753">
        <ele>201.19999694824</ele>
        <time>2019-10-12T07:45:44Z</time>
      </trkpt>
      <trkpt lat="47.32856" lon="2.84754">
        <ele>201.19999694824</ele>
        <time>2019-10-12T07:45:49Z</time>
      </trkpt>
      <trkpt lat="47.32853" lon="2.84759">
        <ele>201.19999694824</ele>
        <time>2019-10-12T07:45:54Z</time>
      </trkpt>
      <trkpt lat="47.32849" lon="2.84765">
        <ele>201</ele>
        <time>2019-10-12T07:45:59Z</time>
      </trkpt>
      <trkpt lat="47.32845" lon="2.84769">
        <ele>200.80000305176</ele>
        <time>2019-10-12T07:46:04Z</time>
      </trkpt>
      <trkpt lat="47.32841" lon="2.84776">
        <ele>200.39999389648</ele>
        <time>2019-10-12T07:46:09Z</time>
      </trkpt>
      <trkpt lat="47.32837" lon="2.84781">
        <ele>200</ele>
        <time>2019-10-12T07:46:14Z</time>
      </trkpt>
      <trkpt lat="47.32834" lon="2.84787">
        <ele>199.60000610352</ele>
        <time>2019-10-12T07:46:19Z</time>
      </trkpt>
      <trkpt lat="47.32831" lon="2.8479">
        <ele>199.39999389648</ele>
        <time>2019-10-12T07:46:24Z</time>
      </trkpt>
      <trkpt lat="47.3283" lon="2.84792">
        <ele>199</ele>
        <time>2019-10-12T07:46:29Z</time>
      </trkpt>
      <trkpt lat="47.32827" lon="2.84799">
        <ele>198.80000305176</ele>
        <time>2019-10-12T07:46:34Z</time>
      </trkpt>
      <trkpt lat="47.32824" lon="2.84804">
        <ele>198.39999389648</ele>
        <time>2019-10-12T07:46:39Z</time>
      </trkpt>
      <trkpt lat="47.32821" lon="2.84809">
        <ele>198</ele>
        <time>2019-10-12T07:46:44Z</time>
      </trkpt>
      <trkpt lat="47.32819" lon="2.84813">
        <ele>197.39999389648</ele>
        <time>2019-10-12T07:46:48Z</time>
      </trkpt>
      <trkpt lat="47.32816" lon="2.8482">
        <ele>196.80000305176</ele>
        <time>2019-10-12T07:46:54Z</time>
      </trkpt>
      <trkpt lat="47.32813" lon="2.84825">
        <ele>196.39999389648</ele>
        <time>2019-10-12T07:46:59Z</time>
      </trkpt>
      <trkpt lat="47.32809" lon="2.84831">
        <ele>195.80000305176</ele>
        <time>2019-10-12T07:47:04Z</time>
      </trkpt>
      <trkpt lat="47.32806" lon="2.84836">
        <ele>195</ele>
        <time>2019-10-12T07:47:09Z</time>
      </trkpt>
      <trkpt lat="47.32802" lon="2.84842">
        <ele>194.39999389648</ele>
        <time>2019-10-12T07:47:14Z</time>
      </trkpt>
      <trkpt lat="47.32799" lon="2.84849">
        <ele>193.80000305176</ele>
        <time>2019-10-12T07:47:19Z</time>
      </trkpt>
      <trkpt lat="47.32795" lon="2.84855">
        <ele>193.19999694824</ele>
        <time>2019-10-12T07:47:24Z</time>
      </trkpt>
      <trkpt lat="47.32791" lon="2.84861">
        <ele>192.60000610352</ele>
        <time>2019-10-12T07:47:29Z</time>
      </trkpt>
      <trkpt lat="47.32788" lon="2.84866">
        <ele>192</ele>
        <time>2019-10-12T07:47:34Z</time>
      </trkpt>
      <trkpt lat="47.32785" lon="2.8487">
        <ele>191.60000610352</ele>
        <time>2019-10-12T07:47:39Z</time>
      </trkpt>
      <trkpt lat="47.32782" lon="2.84875">
        <ele>191</ele>
        <time>2019-10-12T07:47:44Z</time>
      </trkpt>
      <trkpt lat="47.32779" lon="2.84881">
        <ele>190.60000610352</ele>
        <time>2019-10-12T07:47:49Z</time>
      </trkpt>
      <trkpt lat="47.32775" lon="2.84885">
        <ele>189.80000305176</ele>
        <time>2019-10-12T07:47:54Z</time>
      </trkpt>
      <trkpt lat="47.32775" lon="2.84886">
        <ele>189.39999389648</ele>
        <time>2019-10-12T07:47:59Z</time>
      </trkpt>
      <trkpt lat="47.32775" lon="2.84886">
        <ele>189.19999694824</ele>
        <time>2019-10-12T07:48:04Z</time>
      </trkpt>
      <trkpt lat="47.32774" lon="2.84887">
        <ele>189.19999694824</ele>
        <time>2019-10-12T07:48:09Z</time>
      </trkpt>
      <trkpt lat="47.32773" lon="2.84889">
        <ele>189</ele>
        <time>2019-10-12T07:48:14Z</time>
      </trkpt>
      <trkpt lat="47.32773" lon="2.84891">
        <ele>188.60000610352</ele>
        <time>2019-10-12T07:48:19Z</time>
      </trkpt>
      <trkpt lat="47.3277" lon="2.84896">
        <ele>188.39999389648</ele>
        <time>2019-10-12T07:48:24Z</time>
      </trkpt>
      <trkpt lat="47.32766" lon="2.849">
        <ele>187.60000610352</ele>
        <time>2019-10-12T07:48:29Z</time>
      </trkpt>
      <trkpt lat="47.32764" lon="2.84906">
        <ele>187</ele>
        <time>2019-10-12T07:48:34Z</time>
      </trkpt>
      <trkpt lat="47.32761" lon="2.84911">
        <ele>186.39999389648</ele>
        <time>2019-10-12T07:48:39Z</time>
      </trkpt>
      <trkpt lat="47.32757" lon="2.84916">
        <ele>186</ele>
        <time>2019-10-12T07:48:44Z</time>
      </trkpt>
      <trkpt lat="47.32754" lon="2.84922">
        <ele>185.39999389648</ele>
        <time>2019-10-12T07:48:49Z</time>
      </trkpt>
      <trkpt lat="47.32752" lon="2.84927">
        <ele>185</ele>
        <time>2019-10-12T07:48:54Z</time>
      </trkpt>
      <trkpt lat="47.32749" lon="2.84932">
        <ele>184.60000610352</ele>
        <time>2019-10-12T07:48:59Z</time>
      </trkpt>
      <trkpt lat="47.32745" lon="2.84938">
        <ele>184.39999389648</ele>
        <time>2019-10-12T07:49:04Z</time>
      </trkpt>
      <trkpt lat="47.32741" lon="2.84944">
        <ele>184</ele>
        <time>2019-10-12T07:49:09Z</time>
      </trkpt>
      <trkpt lat="47.32737" lon="2.84947">
        <ele>183.60000610352</ele>
        <time>2019-10-12T07:49:14Z</time>
      </trkpt>
      <trkpt lat="47.32734" lon="2.8495">
        <ele>183.39999389648</ele>
        <time>2019-10-12T07:49:19Z</time>
      </trkpt>
      <trkpt lat="47.32731" lon="2.84952">
        <ele>182.60000610352</ele>
        <time>2019-10-12T07:49:24Z</time>
      </trkpt>
      <trkpt lat="47.32727" lon="2.84959">
        <ele>182</ele>
        <time>2019-10-12T07:49:29Z</time>
      </trkpt>
      <trkpt lat="47.32723" lon="2.84961">
        <ele>181.60000610352</ele>
        <time>2019-10-12T07:49:34Z</time>
      </trkpt>
      <trkpt lat="47.32723" lon="2.84963">
        <ele>181.39999389648</ele>
        <time>2019-10-12T07:49:39Z</time>
      </trkpt>
      <trkpt lat="47.32723" lon="2.84964">
        <ele>180.80000305176</ele>
        <time>2019-10-12T07:49:44Z</time>
      </trkpt>
      <trkpt lat="47.32723" lon="2.84963">
        <ele>180.80000305176</ele>
        <time>2019-10-12T07:49:49Z</time>
      </trkpt>
      <trkpt lat="47.32723" lon="2.84962">
        <ele>180.80000305176</ele>
        <time>2019-10-12T07:49:54Z</time>
      </trkpt>
      <trkpt lat="47.32721" lon="2.84964">
        <ele>180.80000305176</ele>
        <time>2019-10-12T07:49:59Z</time>
      </trkpt>
      <trkpt lat="47.32716" lon="2.84972">
        <ele>180.60000610352</ele>
        <time>2019-10-12T07:50:04Z</time>
      </trkpt>
      <trkpt lat="47.32714" lon="2.84982">
        <ele>180.60000610352</ele>
        <time>2019-10-12T07:50:09Z</time>
      </trkpt>
      <trkpt lat="47.32713" lon="2.84991">
        <ele>180.80000305176</ele>
        <time>2019-10-12T07:50:14Z</time>
      </trkpt>
      <trkpt lat="47.32712" lon="2.84999">
        <ele>181</ele>
        <time>2019-10-12T07:50:19Z</time>
      </trkpt>
      <trkpt lat="47.32709" lon="2.85007">
        <ele>181</ele>
        <time>2019-10-12T07:50:24Z</time>
      </trkpt>
      <trkpt lat="47.32705" lon="2.85012">
        <ele>181.39999389648</ele>
        <time>2019-10-12T07:50:29Z</time>
      </trkpt>
      <trkpt lat="47.32701" lon="2.85018">
        <ele>181.60000610352</ele>
        <time>2019-10-12T07:50:34Z</time>
      </trkpt>
      <trkpt lat="47.32697" lon="2.85025">
        <ele>181.80000305176</ele>
        <time>2019-10-12T07:50:39Z</time>
      </trkpt>
      <trkpt lat="47.32693" lon="2.85031">
        <ele>181.80000305176</ele>
        <time>2019-10-12T07:50:44Z</time>
      </trkpt>
      <trkpt lat="47.32687" lon="2.85034">
        <ele>181.80000305176</ele>
        <time>2019-10-12T07:50:49Z</time>
      </trkpt>
      <trkpt lat="47.32682" lon="2.85036">
        <ele>181.80000305176</ele>
        <time>2019-10-12T07:50:54Z</time>
      </trkpt>
      <trkpt lat="47.32677" lon="2.85039">
        <ele>181.80000305176</ele>
        <time>2019-10-12T07:50:59Z</time>
      </trkpt>
      <trkpt lat="47.32675" lon="2.85044">
        <ele>182</ele>
        <time>2019-10-12T07:51:04Z</time>
      </trkpt>
      <trkpt lat="47.32678" lon="2.85052">
        <ele>182.19999694824</ele>
        <time>2019-10-12T07:51:09Z</time>
      </trkpt>
      <trkpt lat="47.32681" lon="2.85059">
        <ele>182.80000305176</ele>
        <time>2019-10-12T07:51:14Z</time>
      </trkpt>
      <trkpt lat="47.32683" lon="2.85064">
        <ele>183.39999389648</ele>
        <time>2019-10-12T07:51:19Z</time>
      </trkpt>
      <trkpt lat="47.32683" lon="2.85068">
        <ele>184</ele>
        <time>2019-10-12T07:51:24Z</time>
      </trkpt>
      <trkpt lat="47.32682" lon="2.85071">
        <ele>184.39999389648</ele>
        <time>2019-10-12T07:51:29Z</time>
      </trkpt>
      <trkpt lat="47.3268" lon="2.85071">
        <ele>185.19999694824</ele>
        <time>2019-10-12T07:51:34Z</time>
      </trkpt>
      <trkpt lat="47.32676" lon="2.85065">
        <ele>185.39999389648</ele>
        <time>2019-10-12T07:51:39Z</time>
      </trkpt>
      <trkpt lat="47.32672" lon="2.85061">
        <ele>185.39999389648</ele>
        <time>2019-10-12T07:51:44Z</time>
      </trkpt>
      <trkpt lat="47.32666" lon="2.85059">
        <ele>185.19999694824</ele>
        <time>2019-10-12T07:51:49Z</time>
      </trkpt>
      <trkpt lat="47.32661" lon="2.85058">
        <ele>185.19999694824</ele>
        <time>2019-10-12T07:51:54Z</time>
      </trkpt>
      <trkpt lat="47.32655" lon="2.85059">
        <ele>185</ele>
        <time>2019-10-12T07:51:59Z</time>
      </trkpt>
      <trkpt lat="47.32653" lon="2.85066">
        <ele>185.19999694824</ele>
        <time>2019-10-12T07:52:04Z</time>
      </trkpt>
      <trkpt lat="47.32652" lon="2.85075">
        <ele>185.39999389648</ele>
        <time>2019-10-12T07:52:09Z</time>
      </trkpt>
      <trkpt lat="47.32652" lon="2.85082">
        <ele>185.80000305176</ele>
        <time>2019-10-12T07:52:14Z</time>
      </trkpt>
      <trkpt lat="47.32652" lon="2.85089">
        <ele>186.19999694824</ele>
        <time>2019-10-12T07:52:19Z</time>
      </trkpt>
      <trkpt lat="47.32651" lon="2.85097">
        <ele>186.80000305176</ele>
        <time>2019-10-12T07:52:24Z</time>
      </trkpt>
      <trkpt lat="47.32651" lon="2.85106">
        <ele>187.39999389648</ele>
        <time>2019-10-12T07:52:29Z</time>
      </trkpt>
      <trkpt lat="47.32651" lon="2.85114">
        <ele>187.39999389648</ele>
        <time>2019-10-12T07:52:34Z</time>
      </trkpt>
      <trkpt lat="47.3265" lon="2.85123">
        <ele>187.60000610352</ele>
        <time>2019-10-12T07:52:39Z</time>
      </trkpt>
      <trkpt lat="47.32649" lon="2.8513">
        <ele>187.39999389648</ele>
        <time>2019-10-12T07:52:44Z</time>
      </trkpt>
      <trkpt lat="47.32649" lon="2.85138">
        <ele>187.39999389648</ele>
        <time>2019-10-12T07:52:49Z</time>
      </trkpt>
      <trkpt lat="47.32648" lon="2.85147">
        <ele>187.39999389648</ele>
        <time>2019-10-12T07:52:54Z</time>
      </trkpt>
      <trkpt lat="47.32648" lon="2.85155">
        <ele>187.19999694824</ele>
        <time>2019-10-12T07:52:59Z</time>
      </trkpt>
      <trkpt lat="47.32647" lon="2.85163">
        <ele>186.80000305176</ele>
        <time>2019-10-12T07:53:04Z</time>
      </trkpt>
      <trkpt lat="47.32648" lon="2.85172">
        <ele>186.60000610352</ele>
        <time>2019-10-12T07:53:09Z</time>
      </trkpt>
      <trkpt lat="47.32649" lon="2.85183">
        <ele>185.80000305176</ele>
        <time>2019-10-12T07:53:14Z</time>
      </trkpt>
      <trkpt lat="47.32653" lon="2.85198">
        <ele>185.39999389648</ele>
        <time>2019-10-12T07:53:19Z</time>
      </trkpt>
      <trkpt lat="47.32653" lon="2.85206">
        <ele>185</ele>
        <time>2019-10-12T07:53:24Z</time>
      </trkpt>
      <trkpt lat="47.32653" lon="2.85208">
        <ele>184.60000610352</ele>
        <time>2019-10-12T07:53:29Z</time>
      </trkpt>
      <trkpt lat="47.32653" lon="2.85209">
        <ele>184.60000610352</ele>
        <time>2019-10-12T07:53:34Z</time>
      </trkpt>
      <trkpt lat="47.32654" lon="2.85213">
        <ele>184.60000610352</ele>
        <time>2019-10-12T07:53:39Z</time>
      </trkpt>
      <trkpt lat="47.32655" lon="2.85215">
        <ele>184.60000610352</ele>
        <time>2019-10-12T07:53:44Z</time>
      </trkpt>
      <trkpt lat="47.32658" lon="2.85216">
        <ele>184.60000610352</ele>
        <time>2019-10-12T07:53:49Z</time>
      </trkpt>
      <trkpt lat="47.32662" lon="2.85215">
        <ele>184.60000610352</ele>
        <time>2019-10-12T07:53:54Z</time>
      </trkpt>
      <trkpt lat="47.32666" lon="2.85215">
        <ele>184.19999694824</ele>
        <time>2019-10-12T07:53:59Z</time>
      </trkpt>
      <trkpt lat="47.32671" lon="2.85214">
        <ele>183.60000610352</ele>
        <time>2019-10-12T07:54:04Z</time>
      </trkpt>
      <trkpt lat="47.32677" lon="2.85219">
        <ele>183.60000610352</ele>
        <time>2019-10-12T07:54:09Z</time>
      </trkpt>
      <trkpt lat="47.32675" lon="2.85227">
        <ele>183.60000610352</ele>
        <time>2019-10-12T07:54:14Z</time>
      </trkpt>
      <trkpt lat="47.32674" lon="2.8523">
        <ele>183.60000610352</ele>
        <time>2019-10-12T07:54:19Z</time>
      </trkpt>
      <trkpt lat="47.32673" lon="2.8523">
        <ele>183.80000305176</ele>
        <time>2019-10-12T07:54:24Z</time>
      </trkpt>
      <trkpt lat="47.32667" lon="2.8523">
        <ele>184</ele>
        <time>2019-10-12T07:54:29Z</time>
      </trkpt>
      <trkpt lat="47.32662" lon="2.85228">
        <ele>184</ele>
        <time>2019-10-12T07:54:34Z</time>
      </trkpt>
      <trkpt lat="47.32658" lon="2.85228">
        <ele>183.80000305176</ele>
        <time>2019-10-12T07:54:39Z</time>
      </trkpt>
      <trkpt lat="47.32653" lon="2.85226">
        <ele>183.60000610352</ele>
        <time>2019-10-12T07:54:44Z</time>
      </trkpt>
      <trkpt lat="47.32648" lon="2.85227">
        <ele>183.19999694824</ele>
        <time>2019-10-12T07:54:49Z</time>
      </trkpt>
      <trkpt lat="47.32642" lon="2.85228">
        <ele>183.19999694824</ele>
        <time>2019-10-12T07:54:54Z</time>
      </trkpt>
      <trkpt lat="47.32638" lon="2.85227">
        <ele>183.19999694824</ele>
        <time>2019-10-12T07:54:59Z</time>
      </trkpt>
      <trkpt lat="47.32633" lon="2.85225">
        <ele>183</ele>
        <time>2019-10-12T07:55:04Z</time>
      </trkpt>
      <trkpt lat="47.32628" lon="2.85225">
        <ele>182.80000305176</ele>
        <time>2019-10-12T07:55:09Z</time>
      </trkpt>
      <trkpt lat="47.3262" lon="2.85226">
        <ele>183</ele>
        <time>2019-10-12T07:55:14Z</time>
      </trkpt>
      <trkpt lat="47.32615" lon="2.85228">
        <ele>183</ele>
        <time>2019-10-12T07:55:19Z</time>
      </trkpt>
      <trkpt lat="47.3261" lon="2.8523">
        <ele>182.80000305176</ele>
        <time>2019-10-12T07:55:24Z</time>
      </trkpt>
      <trkpt lat="47.32606" lon="2.85231">
        <ele>182.80000305176</ele>
        <time>2019-10-12T07:55:29Z</time>
      </trkpt>
      <trkpt lat="47.326" lon="2.85231">
        <ele>182.80000305176</ele>
        <time>2019-10-12T07:55:34Z</time>
      </trkpt>
      <trkpt lat="47.32594" lon="2.85231">
        <ele>182.60000610352</ele>
        <time>2019-10-12T07:55:39Z</time>
      </trkpt>
      <trkpt lat="47.32589" lon="2.8523">
        <ele>182.60000610352</ele>
        <time>2019-10-12T07:55:44Z</time>
      </trkpt>
      <trkpt lat="47.32584" lon="2.85229">
        <ele>182.60000610352</ele>
        <time>2019-10-12T07:55:49Z</time>
      </trkpt>
      <trkpt lat="47.32579" lon="2.85228">
        <ele>182.60000610352</ele>
        <time>2019-10-12T07:55:54Z</time>
      </trkpt>
      <trkpt lat="47.32573" lon="2.85228">
        <ele>182.60000610352</ele>
        <time>2019-10-12T07:55:59Z</time>
      </trkpt>
      <trkpt lat="47.32567" lon="2.85229">
        <ele>182.60000610352</ele>
        <time>2019-10-12T07:56:04Z</time>
      </trkpt>
      <trkpt lat="47.32562" lon="2.85231">
        <ele>182.80000305176</ele>
        <time>2019-10-12T07:56:09Z</time>
      </trkpt>
      <trkpt lat="47.32556" lon="2.8523">
        <ele>183</ele>
        <time>2019-10-12T07:56:14Z</time>
      </trkpt>
      <trkpt lat="47.32552" lon="2.85229">
        <ele>183</ele>
        <time>2019-10-12T07:56:19Z</time>
      </trkpt>
      <trkpt lat="47.32548" lon="2.85231">
        <ele>182.80000305176</ele>
        <time>2019-10-12T07:56:24Z</time>
      </trkpt>
      <trkpt lat="47.32543" lon="2.85231">
        <ele>182.80000305176</ele>
        <time>2019-10-12T07:56:29Z</time>
      </trkpt>
      <trkpt lat="47.32541" lon="2.85231">
        <ele>183</ele>
        <time>2019-10-12T07:56:34Z</time>
      </trkpt>
      <trkpt lat="47.32541" lon="2.85231">
        <ele>183.19999694824</ele>
        <time>2019-10-12T07:56:39Z</time>
      </trkpt>
      <trkpt lat="47.3254" lon="2.85231">
        <ele>183.19999694824</ele>
        <time>2019-10-12T07:56:44Z</time>
      </trkpt>
      <trkpt lat="47.32536" lon="2.85233">
        <ele>183.19999694824</ele>
        <time>2019-10-12T07:56:49Z</time>
      </trkpt>
      <trkpt lat="47.32536" lon="2.85238">
        <ele>183.19999694824</ele>
        <time>2019-10-12T07:56:54Z</time>
      </trkpt>
      <trkpt lat="47.32536" lon="2.85239">
        <ele>183.39999389648</ele>
        <time>2019-10-12T07:56:59Z</time>
      </trkpt>
      <trkpt lat="47.32536" lon="2.85238">
        <ele>183.39999389648</ele>
        <time>2019-10-12T07:57:04Z</time>
      </trkpt>
      <trkpt lat="47.32536" lon="2.85238">
        <ele>183.39999389648</ele>
        <time>2019-10-12T07:57:09Z</time>
      </trkpt>
      <trkpt lat="47.32535" lon="2.85237">
        <ele>183.39999389648</ele>
        <time>2019-10-12T07:57:14Z</time>
      </trkpt>
      <trkpt lat="47.32535" lon="2.85237">
        <ele>183.39999389648</ele>
        <time>2019-10-12T07:57:19Z</time>
      </trkpt>
      <trkpt lat="47.32535" lon="2.85238">
        <ele>183.39999389648</ele>
        <time>2019-10-12T07:57:24Z</time>
      </trkpt>
      <trkpt lat="47.32534" lon="2.85238">
        <ele>183.60000610352</ele>
        <time>2019-10-12T07:57:29Z</time>
      </trkpt>
      <trkpt lat="47.32534" lon="2.85238">
        <ele>183.60000610352</ele>
        <time>2019-10-12T07:57:34Z</time>
      </trkpt>
      <trkpt lat="47.32534" lon="2.85238">
        <ele>183.60000610352</ele>
        <time>2019-10-12T07:57:39Z</time>
      </trkpt>
      <trkpt lat="47.32534" lon="2.85238">
        <ele>183.60000610352</ele>
        <time>2019-10-12T07:57:44Z</time>
      </trkpt>
      <trkpt lat="47.32534" lon="2.85239">
        <ele>183.60000610352</ele>
        <time>2019-10-12T07:57:49Z</time>
      </trkpt>
      <trkpt lat="47.32535" lon="2.85239">
        <ele>183.60000610352</ele>
        <time>2019-10-12T07:57:54Z</time>
      </trkpt>
      <trkpt lat="47.32534" lon="2.85239">
        <ele>183.39999389648</ele>
        <time>2019-10-12T07:57:59Z</time>
      </trkpt>
      <trkpt lat="47.32534" lon="2.85238">
        <ele>183.60000610352</ele>
        <time>2019-10-12T07:58:04Z</time>
      </trkpt>
      <trkpt lat="47.32536" lon="2.85241">
        <ele>183.60000610352</ele>
        <time>2019-10-12T07:58:09Z</time>
      </trkpt>
      <trkpt lat="47.32539" lon="2.8524">
        <ele>183.60000610352</ele>
        <time>2019-10-12T07:58:14Z</time>
      </trkpt>
      <trkpt lat="47.3254" lon="2.85239">
        <ele>183.60000610352</ele>
        <time>2019-10-12T07:58:19Z</time>
      </trkpt>
      <trkpt lat="47.32541" lon="2.85238">
        <ele>183.60000610352</ele>
        <time>2019-10-12T07:58:24Z</time>
      </trkpt>
      <trkpt lat="47.32543" lon="2.85237">
        <ele>183.60000610352</ele>
        <time>2019-10-12T07:58:29Z</time>
      </trkpt>
      <trkpt lat="47.32543" lon="2.85237">
        <ele>183.60000610352</ele>
        <time>2019-10-12T07:58:34Z</time>
      </trkpt>
      <trkpt lat="47.32543" lon="2.85237">
        <ele>183.60000610352</ele>
        <time>2019-10-12T07:58:39Z</time>
      </trkpt>
      <trkpt lat="47.32543" lon="2.85237">
        <ele>183.60000610352</ele>
        <time>2019-10-12T07:58:44Z</time>
      </trkpt>
      <trkpt lat="47.32544" lon="2.85233">
        <ele>183.60000610352</ele>
        <time>2019-10-12T07:58:49Z</time>
      </trkpt>
      <trkpt lat="47.32544" lon="2.85232">
        <ele>183.60000610352</ele>
        <time>2019-10-12T07:58:54Z</time>
      </trkpt>
      <trkpt lat="47.32543" lon="2.85232">
        <ele>183.60000610352</ele>
        <time>2019-10-12T07:58:59Z</time>
      </trkpt>
      <trkpt lat="47.32544" lon="2.85233">
        <ele>183.60000610352</ele>
        <time>2019-10-12T07:59:04Z</time>
      </trkpt>
      <trkpt lat="47.32544" lon="2.85233">
        <ele>183.60000610352</ele>
        <time>2019-10-12T07:59:09Z</time>
      </trkpt>
      <trkpt lat="47.32541" lon="2.85232">
        <ele>183.60000610352</ele>
        <time>2019-10-12T07:59:14Z</time>
      </trkpt>
      <trkpt lat="47.32536" lon="2.85233">
        <ele>183.60000610352</ele>
        <time>2019-10-12T07:59:19Z</time>
      </trkpt>
      <trkpt lat="47.32535" lon="2.85232">
        <ele>183.60000610352</ele>
        <time>2019-10-12T07:59:24Z</time>
      </trkpt>
      <trkpt lat="47.32534" lon="2.85232">
        <ele>183.60000610352</ele>
        <time>2019-10-12T07:59:29Z</time>
      </trkpt>
      <trkpt lat="47.32534" lon="2.85232">
        <ele>183.60000610352</ele>
        <time>2019-10-12T07:59:34Z</time>
      </trkpt>
      <trkpt lat="47.32534" lon="2.85233">
        <ele>183.60000610352</ele>
        <time>2019-10-12T07:59:39Z</time>
      </trkpt>
      <trkpt lat="47.32534" lon="2.85232">
        <ele>183.60000610352</ele>
        <time>2019-10-12T07:59:44Z</time>
      </trkpt>
      <trkpt lat="47.32533" lon="2.85231">
        <ele>183.60000610352</ele>
        <time>2019-10-12T07:59:49Z</time>
      </trkpt>
      <trkpt lat="47.32533" lon="2.85235">
        <ele>183.60000610352</ele>
        <time>2019-10-12T07:59:54Z</time>
      </trkpt>
      <trkpt lat="47.32529" lon="2.85238">
        <ele>183.60000610352</ele>
        <time>2019-10-12T07:59:59Z</time>
      </trkpt>
      <trkpt lat="47.32524" lon="2.85241">
        <ele>183.39999389648</ele>
        <time>2019-10-12T08:00:04Z</time>
      </trkpt>
      <trkpt lat="47.32519" lon="2.8524">
        <ele>183.39999389648</ele>
        <time>2019-10-12T08:00:09Z</time>
      </trkpt>
      <trkpt lat="47.32514" lon="2.8524">
        <ele>183.39999389648</ele>
        <time>2019-10-12T08:00:14Z</time>
      </trkpt>
      <trkpt lat="47.3251" lon="2.8524">
        <ele>183.19999694824</ele>
        <time>2019-10-12T08:00:19Z</time>
      </trkpt>
      <trkpt lat="47.32505" lon="2.85242">
        <ele>183.19999694824</ele>
        <time>2019-10-12T08:00:24Z</time>
      </trkpt>
      <trkpt lat="47.325" lon="2.85243">
        <ele>183</ele>
        <time>2019-10-12T08:00:29Z</time>
      </trkpt>
      <trkpt lat="47.32495" lon="2.85243">
        <ele>183</ele>
        <time>2019-10-12T08:00:34Z</time>
      </trkpt>
      <trkpt lat="47.32491" lon="2.85244">
        <ele>182.80000305176</ele>
        <time>2019-10-12T08:00:39Z</time>
      </trkpt>
      <trkpt lat="47.32485" lon="2.85244">
        <ele>182.60000610352</ele>
        <time>2019-10-12T08:00:44Z</time>
      </trkpt>
      <trkpt lat="47.3248" lon="2.85246">
        <ele>182.60000610352</ele>
        <time>2019-10-12T08:00:49Z</time>
      </trkpt>
      <trkpt lat="47.32475" lon="2.85246">
        <ele>182.39999389648</ele>
        <time>2019-10-12T08:00:54Z</time>
      </trkpt>
      <trkpt lat="47.3247" lon="2.85247">
        <ele>182.39999389648</ele>
        <time>2019-10-12T08:00:59Z</time>
      </trkpt>
      <trkpt lat="47.32465" lon="2.85247">
        <ele>182.19999694824</ele>
        <time>2019-10-12T08:01:04Z</time>
      </trkpt>
      <trkpt lat="47.3246" lon="2.85247">
        <ele>182.19999694824</ele>
        <time>2019-10-12T08:01:09Z</time>
      </trkpt>
      <trkpt lat="47.32454" lon="2.85248">
        <ele>182.39999389648</ele>
        <time>2019-10-12T08:01:14Z</time>
      </trkpt>
      <trkpt lat="47.32448" lon="2.85249">
        <ele>182.60000610352</ele>
        <time>2019-10-12T08:01:19Z</time>
      </trkpt>
      <trkpt lat="47.32443" lon="2.8525">
        <ele>182.60000610352</ele>
        <time>2019-10-12T08:01:24Z</time>
      </trkpt>
      <trkpt lat="47.32438" lon="2.85251">
        <ele>182.60000610352</ele>
        <time>2019-10-12T08:01:29Z</time>
      </trkpt>
      <trkpt lat="47.32433" lon="2.85252">
        <ele>182.80000305176</ele>
        <time>2019-10-12T08:01:34Z</time>
      </trkpt>
      <trkpt lat="47.32428" lon="2.85253">
        <ele>182.80000305176</ele>
        <time>2019-10-12T08:01:39Z</time>
      </trkpt>
      <trkpt lat="47.32423" lon="2.85254">
        <ele>182.60000610352</ele>
        <time>2019-10-12T08:01:44Z</time>
      </trkpt>
      <trkpt lat="47.32419" lon="2.85255">
        <ele>182.60000610352</ele>
        <time>2019-10-12T08:01:49Z</time>
      </trkpt>
      <trkpt lat="47.32414" lon="2.85256">
        <ele>182.60000610352</ele>
        <time>2019-10-12T08:01:54Z</time>
      </trkpt>
      <trkpt lat="47.32409" lon="2.85257">
        <ele>182.60000610352</ele>
        <time>2019-10-12T08:01:59Z</time>
      </trkpt>
      <trkpt lat="47.32404" lon="2.85257">
        <ele>182.60000610352</ele>
        <time>2019-10-12T08:02:04Z</time>
      </trkpt>
      <trkpt lat="47.32399" lon="2.85257">
        <ele>182.39999389648</ele>
        <time>2019-10-12T08:02:09Z</time>
      </trkpt>
      <trkpt lat="47.32394" lon="2.85258">
        <ele>182.39999389648</ele>
        <time>2019-10-12T08:02:14Z</time>
      </trkpt>
      <trkpt lat="47.32389" lon="2.85259">
        <ele>182.39999389648</ele>
        <time>2019-10-12T08:02:19Z</time>
      </trkpt>
      <trkpt lat="47.32384" lon="2.8526">
        <ele>182.39999389648</ele>
        <time>2019-10-12T08:02:24Z</time>
      </trkpt>
      <trkpt lat="47.32379" lon="2.8526">
        <ele>182.39999389648</ele>
        <time>2019-10-12T08:02:29Z</time>
      </trkpt>
      <trkpt lat="47.32374" lon="2.85261">
        <ele>182.39999389648</ele>
        <time>2019-10-12T08:02:34Z</time>
      </trkpt>
      <trkpt lat="47.32369" lon="2.85263">
        <ele>182.39999389648</ele>
        <time>2019-10-12T08:02:39Z</time>
      </trkpt>
      <trkpt lat="47.32363" lon="2.85264">
        <ele>182.39999389648</ele>
        <time>2019-10-12T08:02:44Z</time>
      </trkpt>
      <trkpt lat="47.32357" lon="2.85265">
        <ele>182.39999389648</ele>
        <time>2019-10-12T08:02:49Z</time>
      </trkpt>
      <trkpt lat="47.32352" lon="2.85266">
        <ele>182.60000610352</ele>
        <time>2019-10-12T08:02:54Z</time>
      </trkpt>
      <trkpt lat="47.32347" lon="2.85264">
        <ele>182.19999694824</ele>
        <time>2019-10-12T08:02:59Z</time>
      </trkpt>
      <trkpt lat="47.32343" lon="2.85263">
        <ele>182</ele>
        <time>2019-10-12T08:03:04Z</time>
      </trkpt>
      <trkpt lat="47.32338" lon="2.85264">
        <ele>182</ele>
        <time>2019-10-12T08:03:09Z</time>
      </trkpt>
      <trkpt lat="47.32333" lon="2.85265">
        <ele>182</ele>
        <time>2019-10-12T08:03:14Z</time>
      </trkpt>
      <trkpt lat="47.32328" lon="2.85266">
        <ele>182</ele>
        <time>2019-10-12T08:03:19Z</time>
      </trkpt>
      <trkpt lat="47.32323" lon="2.85267">
        <ele>182</ele>
        <time>2019-10-12T08:03:24Z</time>
      </trkpt>
      <trkpt lat="47.32319" lon="2.85268">
        <ele>182</ele>
        <time>2019-10-12T08:03:29Z</time>
      </trkpt>
      <trkpt lat="47.32314" lon="2.8527">
        <ele>181.80000305176</ele>
        <time>2019-10-12T08:03:34Z</time>
      </trkpt>
      <trkpt lat="47.32309" lon="2.85271">
        <ele>181.60000610352</ele>
        <time>2019-10-12T08:03:39Z</time>
      </trkpt>
      <trkpt lat="47.32303" lon="2.8527">
        <ele>181.60000610352</ele>
        <time>2019-10-12T08:03:44Z</time>
      </trkpt>
      <trkpt lat="47.32298" lon="2.85272">
        <ele>181.60000610352</ele>
        <time>2019-10-12T08:03:49Z</time>
      </trkpt>
      <trkpt lat="47.32292" lon="2.85272">
        <ele>181.60000610352</ele>
        <time>2019-10-12T08:03:54Z</time>
      </trkpt>
      <trkpt lat="47.32287" lon="2.85272">
        <ele>181.60000610352</ele>
        <time>2019-10-12T08:03:59Z</time>
      </trkpt>
      <trkpt lat="47.32282" lon="2.85272">
        <ele>181.60000610352</ele>
        <time>2019-10-12T08:04:04Z</time>
      </trkpt>
      <trkpt lat="47.32277" lon="2.85271">
        <ele>181.60000610352</ele>
        <time>2019-10-12T08:04:09Z</time>
      </trkpt>
      <trkpt lat="47.32271" lon="2.85272">
        <ele>181.60000610352</ele>
        <time>2019-10-12T08:04:14Z</time>
      </trkpt>
      <trkpt lat="47.32266" lon="2.85273">
        <ele>181.60000610352</ele>
        <time>2019-10-12T08:04:19Z</time>
      </trkpt>
      <trkpt lat="47.32261" lon="2.85274">
        <ele>181.80000305176</ele>
        <time>2019-10-12T08:04:24Z</time>
      </trkpt>
      <trkpt lat="47.32256" lon="2.85275">
        <ele>182</ele>
        <time>2019-10-12T08:04:29Z</time>
      </trkpt>
      <trkpt lat="47.32253" lon="2.85276">
        <ele>182</ele>
        <time>2019-10-12T08:04:33Z</time>
      </trkpt>
      <trkpt lat="47.32248" lon="2.85277">
        <ele>182</ele>
        <time>2019-10-12T08:04:39Z</time>
      </trkpt>
      <trkpt lat="47.32243" lon="2.85278">
        <ele>182</ele>
        <time>2019-10-12T08:04:44Z</time>
      </trkpt>
      <trkpt lat="47.32238" lon="2.85281">
        <ele>182</ele>
        <time>2019-10-12T08:04:49Z</time>
      </trkpt>
      <trkpt lat="47.32233" lon="2.85283">
        <ele>181.80000305176</ele>
        <time>2019-10-12T08:04:54Z</time>
      </trkpt>
      <trkpt lat="47.32228" lon="2.85285">
        <ele>181.80000305176</ele>
        <time>2019-10-12T08:04:59Z</time>
      </trkpt>
      <trkpt lat="47.32224" lon="2.85286">
        <ele>181.60000610352</ele>
        <time>2019-10-12T08:05:04Z</time>
      </trkpt>
      <trkpt lat="47.32219" lon="2.85285">
        <ele>181.60000610352</ele>
        <time>2019-10-12T08:05:09Z</time>
      </trkpt>
      <trkpt lat="47.32214" lon="2.85285">
        <ele>181.60000610352</ele>
        <time>2019-10-12T08:05:14Z</time>
      </trkpt>
      <trkpt lat="47.3221" lon="2.85284">
        <ele>181.39999389648</ele>
        <time>2019-10-12T08:05:19Z</time>
      </trkpt>
      <trkpt lat="47.32204" lon="2.85287">
        <ele>181.39999389648</ele>
        <time>2019-10-12T08:05:24Z</time>
      </trkpt>
      <trkpt lat="47.32196" lon="2.85289">
        <ele>181.19999694824</ele>
        <time>2019-10-12T08:05:29Z</time>
      </trkpt>
      <trkpt lat="47.3219" lon="2.85289">
        <ele>181.19999694824</ele>
        <time>2019-10-12T08:05:34Z</time>
      </trkpt>
      <trkpt lat="47.32184" lon="2.85287">
        <ele>181.19999694824</ele>
        <time>2019-10-12T08:05:39Z</time>
      </trkpt>
      <trkpt lat="47.3218" lon="2.85285">
        <ele>181.19999694824</ele>
        <time>2019-10-12T08:05:44Z</time>
      </trkpt>
      <trkpt lat="47.32175" lon="2.85284">
        <ele>181.39999389648</ele>
        <time>2019-10-12T08:05:49Z</time>
      </trkpt>
      <trkpt lat="47.3217" lon="2.85284">
        <ele>181.39999389648</ele>
        <time>2019-10-12T08:05:54Z</time>
      </trkpt>
      <trkpt lat="47.32164" lon="2.85282">
        <ele>181.19999694824</ele>
        <time>2019-10-12T08:05:59Z</time>
      </trkpt>
      <trkpt lat="47.32159" lon="2.85284">
        <ele>181.19999694824</ele>
        <time>2019-10-12T08:06:04Z</time>
      </trkpt>
      <trkpt lat="47.32153" lon="2.85287">
        <ele>181.19999694824</ele>
        <time>2019-10-12T08:06:09Z</time>
      </trkpt>
      <trkpt lat="47.32147" lon="2.85288">
        <ele>181.19999694824</ele>
        <time>2019-10-12T08:06:14Z</time>
      </trkpt>
      <trkpt lat="47.32142" lon="2.8529">
        <ele>181.39999389648</ele>
        <time>2019-10-12T08:06:19Z</time>
      </trkpt>
      <trkpt lat="47.32137" lon="2.85291">
        <ele>181.39999389648</ele>
        <time>2019-10-12T08:06:24Z</time>
      </trkpt>
      <trkpt lat="47.32133" lon="2.85291">
        <ele>181.39999389648</ele>
        <time>2019-10-12T08:06:29Z</time>
      </trkpt>
      <trkpt lat="47.3213" lon="2.85292">
        <ele>181.19999694824</ele>
        <time>2019-10-12T08:06:34Z</time>
      </trkpt>
      <trkpt lat="47.32127" lon="2.85293">
        <ele>181.19999694824</ele>
        <time>2019-10-12T08:06:39Z</time>
      </trkpt>
      <trkpt lat="47.32126" lon="2.85292">
        <ele>181.19999694824</ele>
        <time>2019-10-12T08:06:44Z</time>
      </trkpt>
      <trkpt lat="47.32123" lon="2.85292">
        <ele>181.19999694824</ele>
        <time>2019-10-12T08:06:49Z</time>
      </trkpt>
      <trkpt lat="47.32118" lon="2.85293">
        <ele>181.19999694824</ele>
        <time>2019-10-12T08:06:54Z</time>
      </trkpt>
      <trkpt lat="47.32113" lon="2.85294">
        <ele>181.19999694824</ele>
        <time>2019-10-12T08:06:59Z</time>
      </trkpt>
      <trkpt lat="47.32108" lon="2.85296">
        <ele>181.19999694824</ele>
        <time>2019-10-12T08:07:04Z</time>
      </trkpt>
      <trkpt lat="47.32103" lon="2.85296">
        <ele>181.19999694824</ele>
        <time>2019-10-12T08:07:09Z</time>
      </trkpt>
      <trkpt lat="47.32098" lon="2.85296">
        <ele>181.19999694824</ele>
        <time>2019-10-12T08:07:14Z</time>
      </trkpt>
      <trkpt lat="47.32092" lon="2.85296">
        <ele>181.39999389648</ele>
        <time>2019-10-12T08:07:19Z</time>
      </trkpt>
      <trkpt lat="47.32087" lon="2.85297">
        <ele>181.60000610352</ele>
        <time>2019-10-12T08:07:24Z</time>
      </trkpt>
      <trkpt lat="47.32082" lon="2.85299">
        <ele>181.60000610352</ele>
        <time>2019-10-12T08:07:29Z</time>
      </trkpt>
      <trkpt lat="47.32077" lon="2.85301">
        <ele>181.39999389648</ele>
        <time>2019-10-12T08:07:34Z</time>
      </trkpt>
      <trkpt lat="47.32071" lon="2.85303">
        <ele>181.19999694824</ele>
        <time>2019-10-12T08:07:39Z</time>
      </trkpt>
      <trkpt lat="47.32064" lon="2.85304">
        <ele>181.39999389648</ele>
        <time>2019-10-12T08:07:45Z</time>
      </trkpt>
      <trkpt lat="47.32058" lon="2.85305">
        <ele>181.19999694824</ele>
        <time>2019-10-12T08:07:50Z</time>
      </trkpt>
      <trkpt lat="47.32052" lon="2.85304">
        <ele>181.19999694824</ele>
        <time>2019-10-12T08:07:55Z</time>
      </trkpt>
      <trkpt lat="47.32045" lon="2.85305">
        <ele>181.39999389648</ele>
        <time>2019-10-12T08:08:00Z</time>
      </trkpt>
      <trkpt lat="47.32039" lon="2.85305">
        <ele>181.39999389648</ele>
        <time>2019-10-12T08:08:05Z</time>
      </trkpt>
      <trkpt lat="47.32033" lon="2.85307">
        <ele>181.19999694824</ele>
        <time>2019-10-12T08:08:10Z</time>
      </trkpt>
      <trkpt lat="47.32027" lon="2.85307">
        <ele>181.19999694824</ele>
        <time>2019-10-12T08:08:15Z</time>
      </trkpt>
      <trkpt lat="47.3202" lon="2.85309">
        <ele>181.19999694824</ele>
        <time>2019-10-12T08:08:21Z</time>
      </trkpt>
      <trkpt lat="47.32015" lon="2.85309">
        <ele>181.19999694824</ele>
        <time>2019-10-12T08:08:26Z</time>
      </trkpt>
      <trkpt lat="47.32009" lon="2.85309">
        <ele>181</ele>
        <time>2019-10-12T08:08:31Z</time>
      </trkpt>
      <trkpt lat="47.32004" lon="2.85308">
        <ele>181</ele>
        <time>2019-10-12T08:08:36Z</time>
      </trkpt>
      <trkpt lat="47.31999" lon="2.85308">
        <ele>180.80000305176</ele>
        <time>2019-10-12T08:08:41Z</time>
      </trkpt>
      <trkpt lat="47.31994" lon="2.85307">
        <ele>180.80000305176</ele>
        <time>2019-10-12T08:08:46Z</time>
      </trkpt>
      <trkpt lat="47.31988" lon="2.85308">
        <ele>181</ele>
        <time>2019-10-12T08:08:51Z</time>
      </trkpt>
      <trkpt lat="47.31982" lon="2.85307">
        <ele>181</ele>
        <time>2019-10-12T08:08:56Z</time>
      </trkpt>
      <trkpt lat="47.31976" lon="2.85305">
        <ele>180.80000305176</ele>
        <time>2019-10-12T08:09:01Z</time>
      </trkpt>
      <trkpt lat="47.31971" lon="2.85306">
        <ele>180.80000305176</ele>
        <time>2019-10-12T08:09:06Z</time>
      </trkpt>
      <trkpt lat="47.31966" lon="2.85306">
        <ele>180.80000305176</ele>
        <time>2019-10-12T08:09:11Z</time>
      </trkpt>
      <trkpt lat="47.3196" lon="2.85306">
        <ele>180.80000305176</ele>
        <time>2019-10-12T08:09:16Z</time>
      </trkpt>
      <trkpt lat="47.31955" lon="2.85306">
        <ele>180.80000305176</ele>
        <time>2019-10-12T08:09:21Z</time>
      </trkpt>
      <trkpt lat="47.31949" lon="2.85307">
        <ele>180.60000610352</ele>
        <time>2019-10-12T08:09:26Z</time>
      </trkpt>
      <trkpt lat="47.31944" lon="2.85306">
        <ele>180.60000610352</ele>
        <time>2019-10-12T08:09:31Z</time>
      </trkpt>
      <trkpt lat="47.31939" lon="2.85306">
        <ele>180.60000610352</ele>
        <time>2019-10-12T08:09:36Z</time>
      </trkpt>
      <trkpt lat="47.31933" lon="2.85306">
        <ele>180.60000610352</ele>
        <time>2019-10-12T08:09:41Z</time>
      </trkpt>
      <trkpt lat="47.31927" lon="2.85306">
        <ele>180.39999389648</ele>
        <time>2019-10-12T08:09:46Z</time>
      </trkpt>
      <trkpt lat="47.3192" lon="2.85308">
        <ele>180.39999389648</ele>
        <time>2019-10-12T08:09:51Z</time>
      </trkpt>
      <trkpt lat="47.31914" lon="2.85307">
        <ele>180.60000610352</ele>
        <time>2019-10-12T08:09:56Z</time>
      </trkpt>
      <trkpt lat="47.31908" lon="2.85307">
        <ele>180.60000610352</ele>
        <time>2019-10-12T08:10:01Z</time>
      </trkpt>
      <trkpt lat="47.31902" lon="2.85308">
        <ele>180.39999389648</ele>
        <time>2019-10-12T08:10:06Z</time>
      </trkpt>
      <trkpt lat="47.31897" lon="2.85307">
        <ele>180.60000610352</ele>
        <time>2019-10-12T08:10:11Z</time>
      </trkpt>
      <trkpt lat="47.31892" lon="2.85307">
        <ele>180.60000610352</ele>
        <time>2019-10-12T08:10:16Z</time>
      </trkpt>
      <trkpt lat="47.31887" lon="2.85307">
        <ele>180.60000610352</ele>
        <time>2019-10-12T08:10:21Z</time>
      </trkpt>
      <trkpt lat="47.31882" lon="2.85307">
        <ele>180.80000305176</ele>
        <time>2019-10-12T08:10:27Z</time>
      </trkpt>
      <trkpt lat="47.31876" lon="2.85308">
        <ele>180.80000305176</ele>
        <time>2019-10-12T08:10:32Z</time>
      </trkpt>
      <trkpt lat="47.3187" lon="2.85307">
        <ele>180.80000305176</ele>
        <time>2019-10-12T08:10:37Z</time>
      </trkpt>
      <trkpt lat="47.31865" lon="2.85307">
        <ele>181</ele>
        <time>2019-10-12T08:10:42Z</time>
      </trkpt>
      <trkpt lat="47.3186" lon="2.85308">
        <ele>181</ele>
        <time>2019-10-12T08:10:47Z</time>
      </trkpt>
      <trkpt lat="47.31855" lon="2.85308">
        <ele>180.80000305176</ele>
        <time>2019-10-12T08:10:52Z</time>
      </trkpt>
      <trkpt lat="47.31849" lon="2.85308">
        <ele>180.60000610352</ele>
        <time>2019-10-12T08:10:57Z</time>
      </trkpt>
      <trkpt lat="47.31845" lon="2.85307">
        <ele>180.39999389648</ele>
        <time>2019-10-12T08:11:02Z</time>
      </trkpt>
      <trkpt lat="47.31841" lon="2.85304">
        <ele>180.60000610352</ele>
        <time>2019-10-12T08:11:07Z</time>
      </trkpt>
      <trkpt lat="47.31839" lon="2.85303">
        <ele>180.80000305176</ele>
        <time>2019-10-12T08:11:12Z</time>
      </trkpt>
      <trkpt lat="47.31839" lon="2.85303">
        <ele>180.80000305176</ele>
        <time>2019-10-12T08:11:17Z</time>
      </trkpt>
      <trkpt lat="47.31839" lon="2.85302">
        <ele>180.80000305176</ele>
        <time>2019-10-12T08:11:22Z</time>
      </trkpt>
      <trkpt lat="47.31839" lon="2.85302">
        <ele>180.80000305176</ele>
        <time>2019-10-12T08:11:27Z</time>
      </trkpt>
      <trkpt lat="47.31839" lon="2.85302">
        <ele>180.80000305176</ele>
        <time>2019-10-12T08:11:32Z</time>
      </trkpt>
      <trkpt lat="47.31839" lon="2.85302">
        <ele>180.80000305176</ele>
        <time>2019-10-12T08:11:37Z</time>
      </trkpt>
      <trkpt lat="47.31836" lon="2.85307">
        <ele>180.80000305176</ele>
        <time>2019-10-12T08:11:42Z</time>
      </trkpt>
      <trkpt lat="47.31834" lon="2.85312">
        <ele>180.80000305176</ele>
        <time>2019-10-12T08:11:47Z</time>
      </trkpt>
      <trkpt lat="47.31829" lon="2.85315">
        <ele>180.80000305176</ele>
        <time>2019-10-12T08:11:52Z</time>
      </trkpt>
      <trkpt lat="47.31823" lon="2.85316">
        <ele>181.39999389648</ele>
        <time>2019-10-12T08:11:57Z</time>
      </trkpt>
      <trkpt lat="47.31819" lon="2.85316">
        <ele>181.80000305176</ele>
        <time>2019-10-12T08:12:02Z</time>
      </trkpt>
      <trkpt lat="47.31818" lon="2.85317">
        <ele>181.80000305176</ele>
        <time>2019-10-12T08:12:07Z</time>
      </trkpt>
      <trkpt lat="47.31818" lon="2.85317">
        <ele>181.80000305176</ele>
        <time>2019-10-12T08:12:12Z</time>
      </trkpt>
      <trkpt lat="47.31819" lon="2.85317">
        <ele>182</ele>
        <time>2019-10-12T08:12:17Z</time>
      </trkpt>
      <trkpt lat="47.31819" lon="2.85317">
        <ele>181.80000305176</ele>
        <time>2019-10-12T08:12:22Z</time>
      </trkpt>
      <trkpt lat="47.31818" lon="2.85317">
        <ele>181.80000305176</ele>
        <time>2019-10-12T08:12:27Z</time>
      </trkpt>
      <trkpt lat="47.31819" lon="2.85316">
        <ele>181.80000305176</ele>
        <time>2019-10-12T08:12:32Z</time>
      </trkpt>
      <trkpt lat="47.31819" lon="2.85316">
        <ele>181.60000610352</ele>
        <time>2019-10-12T08:12:37Z</time>
      </trkpt>
      <trkpt lat="47.31819" lon="2.85316">
        <ele>181.60000610352</ele>
        <time>2019-10-12T08:12:42Z</time>
      </trkpt>
      <trkpt lat="47.31817" lon="2.85318">
        <ele>181.60000610352</ele>
        <time>2019-10-12T08:12:47Z</time>
      </trkpt>
      <trkpt lat="47.31811" lon="2.85319">
        <ele>181.80000305176</ele>
        <time>2019-10-12T08:12:52Z</time>
      </trkpt>
      <trkpt lat="47.31808" lon="2.85319">
        <ele>181.80000305176</ele>
        <time>2019-10-12T08:12:57Z</time>
      </trkpt>
      <trkpt lat="47.31808" lon="2.85319">
        <ele>181.60000610352</ele>
        <time>2019-10-12T08:13:02Z</time>
      </trkpt>
      <trkpt lat="47.31808" lon="2.85319">
        <ele>181.60000610352</ele>
        <time>2019-10-12T08:13:07Z</time>
      </trkpt>
      <trkpt lat="47.31808" lon="2.85319">
        <ele>181.60000610352</ele>
        <time>2019-10-12T08:13:12Z</time>
      </trkpt>
      <trkpt lat="47.31806" lon="2.85319">
        <ele>181.60000610352</ele>
        <time>2019-10-12T08:13:17Z</time>
      </trkpt>
      <trkpt lat="47.31801" lon="2.85318">
        <ele>181.60000610352</ele>
        <time>2019-10-12T08:13:22Z</time>
      </trkpt>
      <trkpt lat="47.31795" lon="2.8532">
        <ele>181.60000610352</ele>
        <time>2019-10-12T08:13:27Z</time>
      </trkpt>
      <trkpt lat="47.3179" lon="2.85322">
        <ele>181.60000610352</ele>
        <time>2019-10-12T08:13:32Z</time>
      </trkpt>
      <trkpt lat="47.31787" lon="2.85324">
        <ele>181.60000610352</ele>
        <time>2019-10-12T08:13:37Z</time>
      </trkpt>
      <trkpt lat="47.31786" lon="2.85325">
        <ele>181.60000610352</ele>
        <time>2019-10-12T08:13:42Z</time>
      </trkpt>
      <trkpt lat="47.31786" lon="2.85325">
        <ele>181.60000610352</ele>
        <time>2019-10-12T08:13:47Z</time>
      </trkpt>
      <trkpt lat="47.31785" lon="2.85325">
        <ele>181.39999389648</ele>
        <time>2019-10-12T08:13:52Z</time>
      </trkpt>
      <trkpt lat="47.31785" lon="2.85325">
        <ele>181.19999694824</ele>
        <time>2019-10-12T08:13:57Z</time>
      </trkpt>
      <trkpt lat="47.31785" lon="2.85325">
        <ele>181</ele>
        <time>2019-10-12T08:14:02Z</time>
      </trkpt>
      <trkpt lat="47.31782" lon="2.85324">
        <ele>180.80000305176</ele>
        <time>2019-10-12T08:14:07Z</time>
      </trkpt>
      <trkpt lat="47.31778" lon="2.85324">
        <ele>180.80000305176</ele>
        <time>2019-10-12T08:14:12Z</time>
      </trkpt>
      <trkpt lat="47.31778" lon="2.85324">
        <ele>180.80000305176</ele>
        <time>2019-10-12T08:14:17Z</time>
      </trkpt>
      <trkpt lat="47.31777" lon="2.85326">
        <ele>180.80000305176</ele>
        <time>2019-10-12T08:14:22Z</time>
      </trkpt>
      <trkpt lat="47.31777" lon="2.85328">
        <ele>181</ele>
        <time>2019-10-12T08:14:27Z</time>
      </trkpt>
      <trkpt lat="47.31777" lon="2.85327">
        <ele>181</ele>
        <time>2019-10-12T08:14:32Z</time>
      </trkpt>
      <trkpt lat="47.31777" lon="2.85328">
        <ele>180.80000305176</ele>
        <time>2019-10-12T08:14:37Z</time>
      </trkpt>
      <trkpt lat="47.31777" lon="2.85328">
        <ele>180.80000305176</ele>
        <time>2019-10-12T08:14:42Z</time>
      </trkpt>
      <trkpt lat="47.31777" lon="2.85329">
        <ele>180.80000305176</ele>
        <time>2019-10-12T08:14:47Z</time>
      </trkpt>
      <trkpt lat="47.31772" lon="2.85327">
        <ele>180.39999389648</ele>
        <time>2019-10-12T08:14:52Z</time>
      </trkpt>
      <trkpt lat="47.31767" lon="2.85327">
        <ele>180</ele>
        <time>2019-10-12T08:14:57Z</time>
      </trkpt>
      <trkpt lat="47.31762" lon="2.85329">
        <ele>180</ele>
        <time>2019-10-12T08:15:02Z</time>
      </trkpt>
      <trkpt lat="47.31757" lon="2.85331">
        <ele>179.80000305176</ele>
        <time>2019-10-12T08:15:07Z</time>
      </trkpt>
      <trkpt lat="47.31752" lon="2.85332">
        <ele>180</ele>
        <time>2019-10-12T08:15:12Z</time>
      </trkpt>
      <trkpt lat="47.31749" lon="2.8533">
        <ele>180</ele>
        <time>2019-10-12T08:15:17Z</time>
      </trkpt>
      <trkpt lat="47.31747" lon="2.85329">
        <ele>179.80000305176</ele>
        <time>2019-10-12T08:15:22Z</time>
      </trkpt>
      <trkpt lat="47.31746" lon="2.85328">
        <ele>180</ele>
        <time>2019-10-12T08:15:27Z</time>
      </trkpt>
      <trkpt lat="47.31746" lon="2.85327">
        <ele>180</ele>
        <time>2019-10-12T08:15:32Z</time>
      </trkpt>
      <trkpt lat="47.31745" lon="2.85326">
        <ele>180</ele>
        <time>2019-10-12T08:15:37Z</time>
      </trkpt>
      <trkpt lat="47.31745" lon="2.85326">
        <ele>179.80000305176</ele>
        <time>2019-10-12T08:15:42Z</time>
      </trkpt>
      <trkpt lat="47.31744" lon="2.85325">
        <ele>179.80000305176</ele>
        <time>2019-10-12T08:15:47Z</time>
      </trkpt>
      <trkpt lat="47.31743" lon="2.85326">
        <ele>179.60000610352</ele>
        <time>2019-10-12T08:15:52Z</time>
      </trkpt>
      <trkpt lat="47.31739" lon="2.8533">
        <ele>179.39999389648</ele>
        <time>2019-10-12T08:15:57Z</time>
      </trkpt>
      <trkpt lat="47.31735" lon="2.85334">
        <ele>179.39999389648</ele>
        <time>2019-10-12T08:16:02Z</time>
      </trkpt>
      <trkpt lat="47.31731" lon="2.85338">
        <ele>179.39999389648</ele>
        <time>2019-10-12T08:16:07Z</time>
      </trkpt>
      <trkpt lat="47.31726" lon="2.85339">
        <ele>179.39999389648</ele>
        <time>2019-10-12T08:16:12Z</time>
      </trkpt>
      <trkpt lat="47.31723" lon="2.85339">
        <ele>179.39999389648</ele>
        <time>2019-10-12T08:16:17Z</time>
      </trkpt>
      <trkpt lat="47.31719" lon="2.85343">
        <ele>179.39999389648</ele>
        <time>2019-10-12T08:16:22Z</time>
      </trkpt>
      <trkpt lat="47.31716" lon="2.85346">
        <ele>179.39999389648</ele>
        <time>2019-10-12T08:16:27Z</time>
      </trkpt>
      <trkpt lat="47.31713" lon="2.85348">
        <ele>179.60000610352</ele>
        <time>2019-10-12T08:16:32Z</time>
      </trkpt>
      <trkpt lat="47.31712" lon="2.85349">
        <ele>179.60000610352</ele>
        <time>2019-10-12T08:16:37Z</time>
      </trkpt>
      <trkpt lat="47.31708" lon="2.85349">
        <ele>179.60000610352</ele>
        <time>2019-10-12T08:16:42Z</time>
      </trkpt>
      <trkpt lat="47.31704" lon="2.85351">
        <ele>179.60000610352</ele>
        <time>2019-10-12T08:16:47Z</time>
      </trkpt>
      <trkpt lat="47.31699" lon="2.85352">
        <ele>179.60000610352</ele>
        <time>2019-10-12T08:16:52Z</time>
      </trkpt>
      <trkpt lat="47.31695" lon="2.85354">
        <ele>179.39999389648</ele>
        <time>2019-10-12T08:16:57Z</time>
      </trkpt>
      <trkpt lat="47.31691" lon="2.85356">
        <ele>179.19999694824</ele>
        <time>2019-10-12T08:17:02Z</time>
      </trkpt>
      <trkpt lat="47.31687" lon="2.85357">
        <ele>179.19999694824</ele>
        <time>2019-10-12T08:17:07Z</time>
      </trkpt>
      <trkpt lat="47.31682" lon="2.85358">
        <ele>179.19999694824</ele>
        <time>2019-10-12T08:17:12Z</time>
      </trkpt>
      <trkpt lat="47.31678" lon="2.85359">
        <ele>179.19999694824</ele>
        <time>2019-10-12T08:17:17Z</time>
      </trkpt>
      <trkpt lat="47.31673" lon="2.85362">
        <ele>179</ele>
        <time>2019-10-12T08:17:22Z</time>
      </trkpt>
      <trkpt lat="47.31668" lon="2.85365">
        <ele>179</ele>
        <time>2019-10-12T08:17:27Z</time>
      </trkpt>
      <trkpt lat="47.31664" lon="2.85367">
        <ele>179</ele>
        <time>2019-10-12T08:17:32Z</time>
      </trkpt>
      <trkpt lat="47.31659" lon="2.85369">
        <ele>179</ele>
        <time>2019-10-12T08:17:37Z</time>
      </trkpt>
      <trkpt lat="47.31654" lon="2.85372">
        <ele>179</ele>
        <time>2019-10-12T08:17:42Z</time>
      </trkpt>
      <trkpt lat="47.31649" lon="2.85373">
        <ele>179</ele>
        <time>2019-10-12T08:17:47Z</time>
      </trkpt>
      <trkpt lat="47.31644" lon="2.85376">
        <ele>179.19999694824</ele>
        <time>2019-10-12T08:17:52Z</time>
      </trkpt>
      <trkpt lat="47.31639" lon="2.85378">
        <ele>179.19999694824</ele>
        <time>2019-10-12T08:17:57Z</time>
      </trkpt>
      <trkpt lat="47.31634" lon="2.85381">
        <ele>179.39999389648</ele>
        <time>2019-10-12T08:18:02Z</time>
      </trkpt>
      <trkpt lat="47.31631" lon="2.85383">
        <ele>179.39999389648</ele>
        <time>2019-10-12T08:18:06Z</time>
      </trkpt>
      <trkpt lat="47.31625" lon="2.85385">
        <ele>179.60000610352</ele>
        <time>2019-10-12T08:18:12Z</time>
      </trkpt>
      <trkpt lat="47.3162" lon="2.85387">
        <ele>179.39999389648</ele>
        <time>2019-10-12T08:18:17Z</time>
      </trkpt>
      <trkpt lat="47.31616" lon="2.85389">
        <ele>179.39999389648</ele>
        <time>2019-10-12T08:18:22Z</time>
      </trkpt>
      <trkpt lat="47.31611" lon="2.85391">
        <ele>179.39999389648</ele>
        <time>2019-10-12T08:18:27Z</time>
      </trkpt>
      <trkpt lat="47.31607" lon="2.85395">
        <ele>179.39999389648</ele>
        <time>2019-10-12T08:18:32Z</time>
      </trkpt>
      <trkpt lat="47.31603" lon="2.85397">
        <ele>179.39999389648</ele>
        <time>2019-10-12T08:18:37Z</time>
      </trkpt>
      <trkpt lat="47.31599" lon="2.854">
        <ele>179.39999389648</ele>
        <time>2019-10-12T08:18:42Z</time>
      </trkpt>
      <trkpt lat="47.31593" lon="2.85404">
        <ele>179.39999389648</ele>
        <time>2019-10-12T08:18:48Z</time>
      </trkpt>
      <trkpt lat="47.31588" lon="2.85408">
        <ele>179.39999389648</ele>
        <time>2019-10-12T08:18:54Z</time>
      </trkpt>
      <trkpt lat="47.31583" lon="2.85411">
        <ele>179.60000610352</ele>
        <time>2019-10-12T08:18:59Z</time>
      </trkpt>
      <trkpt lat="47.31578" lon="2.85414">
        <ele>179.60000610352</ele>
        <time>2019-10-12T08:19:04Z</time>
      </trkpt>
      <trkpt lat="47.31573" lon="2.85417">
        <ele>179.39999389648</ele>
        <time>2019-10-12T08:19:09Z</time>
      </trkpt>
      <trkpt lat="47.31569" lon="2.8542">
        <ele>179.60000610352</ele>
        <time>2019-10-12T08:19:14Z</time>
      </trkpt>
      <trkpt lat="47.31564" lon="2.85424">
        <ele>179.60000610352</ele>
        <time>2019-10-12T08:19:19Z</time>
      </trkpt>
      <trkpt lat="47.3156" lon="2.85427">
        <ele>179.60000610352</ele>
        <time>2019-10-12T08:19:24Z</time>
      </trkpt>
      <trkpt lat="47.31555" lon="2.8543">
        <ele>179.60000610352</ele>
        <time>2019-10-12T08:19:29Z</time>
      </trkpt>
      <trkpt lat="47.3155" lon="2.85433">
        <ele>179.39999389648</ele>
        <time>2019-10-12T08:19:34Z</time>
      </trkpt>
      <trkpt lat="47.31546" lon="2.85436">
        <ele>179.60000610352</ele>
        <time>2019-10-12T08:19:39Z</time>
      </trkpt>
      <trkpt lat="47.31541" lon="2.8544">
        <ele>179.60000610352</ele>
        <time>2019-10-12T08:19:44Z</time>
      </trkpt>
      <trkpt lat="47.31536" lon="2.85444">
        <ele>179.60000610352</ele>
        <time>2019-10-12T08:19:49Z</time>
      </trkpt>
      <trkpt lat="47.31533" lon="2.85447">
        <ele>179.60000610352</ele>
        <time>2019-10-12T08:19:54Z</time>
      </trkpt>
      <trkpt lat="47.31527" lon="2.8545">
        <ele>179.60000610352</ele>
        <time>2019-10-12T08:19:59Z</time>
      </trkpt>
      <trkpt lat="47.31522" lon="2.85454">
        <ele>179.60000610352</ele>
        <time>2019-10-12T08:20:04Z</time>
      </trkpt>
      <trkpt lat="47.31517" lon="2.85457">
        <ele>179.60000610352</ele>
        <time>2019-10-12T08:20:09Z</time>
      </trkpt>
      <trkpt lat="47.31512" lon="2.85461">
        <ele>179.80000305176</ele>
        <time>2019-10-12T08:20:14Z</time>
      </trkpt>
      <trkpt lat="47.31507" lon="2.85465">
        <ele>179.80000305176</ele>
        <time>2019-10-12T08:20:19Z</time>
      </trkpt>
      <trkpt lat="47.31503" lon="2.8547">
        <ele>179.80000305176</ele>
        <time>2019-10-12T08:20:24Z</time>
      </trkpt>
      <trkpt lat="47.31498" lon="2.85474">
        <ele>179.80000305176</ele>
        <time>2019-10-12T08:20:29Z</time>
      </trkpt>
      <trkpt lat="47.31494" lon="2.85478">
        <ele>179.80000305176</ele>
        <time>2019-10-12T08:20:34Z</time>
      </trkpt>
      <trkpt lat="47.31489" lon="2.85483">
        <ele>180</ele>
        <time>2019-10-12T08:20:39Z</time>
      </trkpt>
      <trkpt lat="47.31483" lon="2.85487">
        <ele>180</ele>
        <time>2019-10-12T08:20:44Z</time>
      </trkpt>
      <trkpt lat="47.31479" lon="2.85492">
        <ele>180.19999694824</ele>
        <time>2019-10-12T08:20:49Z</time>
      </trkpt>
      <trkpt lat="47.31473" lon="2.85496">
        <ele>180.19999694824</ele>
        <time>2019-10-12T08:20:54Z</time>
      </trkpt>
      <trkpt lat="47.31469" lon="2.855">
        <ele>180.19999694824</ele>
        <time>2019-10-12T08:20:59Z</time>
      </trkpt>
      <trkpt lat="47.31464" lon="2.85504">
        <ele>180.39999389648</ele>
        <time>2019-10-12T08:21:04Z</time>
      </trkpt>
      <trkpt lat="47.31459" lon="2.85508">
        <ele>180.39999389648</ele>
        <time>2019-10-12T08:21:09Z</time>
      </trkpt>
      <trkpt lat="47.31455" lon="2.85512">
        <ele>180.60000610352</ele>
        <time>2019-10-12T08:21:14Z</time>
      </trkpt>
      <trkpt lat="47.3145" lon="2.85514">
        <ele>180.60000610352</ele>
        <time>2019-10-12T08:21:19Z</time>
      </trkpt>
      <trkpt lat="47.31445" lon="2.85517">
        <ele>180.80000305176</ele>
        <time>2019-10-12T08:21:24Z</time>
      </trkpt>
      <trkpt lat="47.31441" lon="2.85521">
        <ele>180.80000305176</ele>
        <time>2019-10-12T08:21:29Z</time>
      </trkpt>
      <trkpt lat="47.31439" lon="2.85524">
        <ele>181</ele>
        <time>2019-10-12T08:21:34Z</time>
      </trkpt>
      <trkpt lat="47.31439" lon="2.85526">
        <ele>181</ele>
        <time>2019-10-12T08:21:39Z</time>
      </trkpt>
      <trkpt lat="47.3144" lon="2.85532">
        <ele>181</ele>
        <time>2019-10-12T08:21:44Z</time>
      </trkpt>
      <trkpt lat="47.31441" lon="2.85534">
        <ele>181.19999694824</ele>
        <time>2019-10-12T08:21:49Z</time>
      </trkpt>
      <trkpt lat="47.31442" lon="2.85536">
        <ele>181</ele>
        <time>2019-10-12T08:21:54Z</time>
      </trkpt>
      <trkpt lat="47.31446" lon="2.85541">
        <ele>181</ele>
        <time>2019-10-12T08:21:59Z</time>
      </trkpt>
      <trkpt lat="47.31451" lon="2.85543">
        <ele>180.80000305176</ele>
        <time>2019-10-12T08:22:04Z</time>
      </trkpt>
      <trkpt lat="47.31455" lon="2.85545">
        <ele>180.19999694824</ele>
        <time>2019-10-12T08:22:09Z</time>
      </trkpt>
      <trkpt lat="47.3146" lon="2.85544">
        <ele>179.39999389648</ele>
        <time>2019-10-12T08:22:14Z</time>
      </trkpt>
      <trkpt lat="47.31465" lon="2.85542">
        <ele>179</ele>
        <time>2019-10-12T08:22:19Z</time>
      </trkpt>
      <trkpt lat="47.3147" lon="2.85539">
        <ele>178.60000610352</ele>
        <time>2019-10-12T08:22:24Z</time>
      </trkpt>
      <trkpt lat="47.31475" lon="2.85536">
        <ele>178</ele>
        <time>2019-10-12T08:22:29Z</time>
      </trkpt>
      <trkpt lat="47.31479" lon="2.85531">
        <ele>177.39999389648</ele>
        <time>2019-10-12T08:22:34Z</time>
      </trkpt>
      <trkpt lat="47.31484" lon="2.85527">
        <ele>176.80000305176</ele>
        <time>2019-10-12T08:22:39Z</time>
      </trkpt>
      <trkpt lat="47.31489" lon="2.85523">
        <ele>176.19999694824</ele>
        <time>2019-10-12T08:22:44Z</time>
      </trkpt>
      <trkpt lat="47.31493" lon="2.85519">
        <ele>175.80000305176</ele>
        <time>2019-10-12T08:22:49Z</time>
      </trkpt>
      <trkpt lat="47.31499" lon="2.85515">
        <ele>175.60000610352</ele>
        <time>2019-10-12T08:22:54Z</time>
      </trkpt>
      <trkpt lat="47.31503" lon="2.85511">
        <ele>175</ele>
        <time>2019-10-12T08:22:59Z</time>
      </trkpt>
      <trkpt lat="47.31508" lon="2.85508">
        <ele>174.19999694824</ele>
        <time>2019-10-12T08:23:04Z</time>
      </trkpt>
      <trkpt lat="47.31513" lon="2.85506">
        <ele>173.80000305176</ele>
        <time>2019-10-12T08:23:09Z</time>
      </trkpt>
      <trkpt lat="47.31518" lon="2.85505">
        <ele>173.39999389648</ele>
        <time>2019-10-12T08:23:14Z</time>
      </trkpt>
      <trkpt lat="47.31523" lon="2.85504">
        <ele>173</ele>
        <time>2019-10-12T08:23:19Z</time>
      </trkpt>
      <trkpt lat="47.31529" lon="2.85502">
        <ele>172.60000610352</ele>
        <time>2019-10-12T08:23:24Z</time>
      </trkpt>
      <trkpt lat="47.31531" lon="2.85503">
        <ele>172.39999389648</ele>
        <time>2019-10-12T08:23:29Z</time>
      </trkpt>
      <trkpt lat="47.31531" lon="2.85503">
        <ele>172.39999389648</ele>
        <time>2019-10-12T08:23:34Z</time>
      </trkpt>
      <trkpt lat="47.31531" lon="2.85503">
        <ele>172.39999389648</ele>
        <time>2019-10-12T08:23:39Z</time>
      </trkpt>
      <trkpt lat="47.31531" lon="2.85503">
        <ele>172.39999389648</ele>
        <time>2019-10-12T08:23:44Z</time>
      </trkpt>
      <trkpt lat="47.31531" lon="2.85502">
        <ele>172.39999389648</ele>
        <time>2019-10-12T08:23:49Z</time>
      </trkpt>
      <trkpt lat="47.31534" lon="2.855">
        <ele>172.39999389648</ele>
        <time>2019-10-12T08:23:54Z</time>
      </trkpt>
      <trkpt lat="47.31535" lon="2.855">
        <ele>172.19999694824</ele>
        <time>2019-10-12T08:23:59Z</time>
      </trkpt>
      <trkpt lat="47.31538" lon="2.85498">
        <ele>172</ele>
        <time>2019-10-12T08:24:04Z</time>
      </trkpt>
      <trkpt lat="47.31544" lon="2.85495">
        <ele>171.80000305176</ele>
        <time>2019-10-12T08:24:09Z</time>
      </trkpt>
      <trkpt lat="47.31548" lon="2.85492">
        <ele>171.39999389648</ele>
        <time>2019-10-12T08:24:14Z</time>
      </trkpt>
      <trkpt lat="47.31553" lon="2.85489">
        <ele>171.19999694824</ele>
        <time>2019-10-12T08:24:19Z</time>
      </trkpt>
      <trkpt lat="47.31557" lon="2.85485">
        <ele>170.80000305176</ele>
        <time>2019-10-12T08:24:24Z</time>
      </trkpt>
      <trkpt lat="47.3156" lon="2.8548">
        <ele>170.60000610352</ele>
        <time>2019-10-12T08:24:29Z</time>
      </trkpt>
      <trkpt lat="47.31565" lon="2.85477">
        <ele>170.19999694824</ele>
        <time>2019-10-12T08:24:34Z</time>
      </trkpt>
      <trkpt lat="47.31571" lon="2.85475">
        <ele>169.60000610352</ele>
        <time>2019-10-12T08:24:39Z</time>
      </trkpt>
      <trkpt lat="47.31576" lon="2.85472">
        <ele>169.19999694824</ele>
        <time>2019-10-12T08:24:44Z</time>
      </trkpt>
      <trkpt lat="47.31582" lon="2.8547">
        <ele>168.60000610352</ele>
        <time>2019-10-12T08:24:49Z</time>
      </trkpt>
      <trkpt lat="47.3159" lon="2.85469">
        <ele>168.19999694824</ele>
        <time>2019-10-12T08:24:55Z</time>
      </trkpt>
      <trkpt lat="47.31596" lon="2.85468">
        <ele>167.60000610352</ele>
        <time>2019-10-12T08:25:01Z</time>
      </trkpt>
      <trkpt lat="47.31601" lon="2.85468">
        <ele>167</ele>
        <time>2019-10-12T08:25:06Z</time>
      </trkpt>
      <trkpt lat="47.31605" lon="2.85467">
        <ele>166.39999389648</ele>
        <time>2019-10-12T08:25:11Z</time>
      </trkpt>
      <trkpt lat="47.31611" lon="2.85466">
        <ele>166.19999694824</ele>
        <time>2019-10-12T08:25:17Z</time>
      </trkpt>
      <trkpt lat="47.31616" lon="2.85464">
        <ele>165.80000305176</ele>
        <time>2019-10-12T08:25:22Z</time>
      </trkpt>
      <trkpt lat="47.31622" lon="2.85464">
        <ele>165.19999694824</ele>
        <time>2019-10-12T08:25:27Z</time>
      </trkpt>
      <trkpt lat="47.31627" lon="2.85463">
        <ele>165</ele>
        <time>2019-10-12T08:25:32Z</time>
      </trkpt>
      <trkpt lat="47.31633" lon="2.85461">
        <ele>164.60000610352</ele>
        <time>2019-10-12T08:25:37Z</time>
      </trkpt>
      <trkpt lat="47.31638" lon="2.85458">
        <ele>164.19999694824</ele>
        <time>2019-10-12T08:25:42Z</time>
      </trkpt>
      <trkpt lat="47.31644" lon="2.85456">
        <ele>163.60000610352</ele>
        <time>2019-10-12T08:25:47Z</time>
      </trkpt>
      <trkpt lat="47.31649" lon="2.85454">
        <ele>163.19999694824</ele>
        <time>2019-10-12T08:25:52Z</time>
      </trkpt>
      <trkpt lat="47.31654" lon="2.85453">
        <ele>162.80000305176</ele>
        <time>2019-10-12T08:25:57Z</time>
      </trkpt>
      <trkpt lat="47.31659" lon="2.85451">
        <ele>162.39999389648</ele>
        <time>2019-10-12T08:26:02Z</time>
      </trkpt>
      <trkpt lat="47.31665" lon="2.8545">
        <ele>162</ele>
        <time>2019-10-12T08:26:07Z</time>
      </trkpt>
      <trkpt lat="47.31669" lon="2.85449">
        <ele>161.60000610352</ele>
        <time>2019-10-12T08:26:12Z</time>
      </trkpt>
      <trkpt lat="47.3167" lon="2.85446">
        <ele>161.19999694824</ele>
        <time>2019-10-12T08:26:17Z</time>
      </trkpt>
      <trkpt lat="47.31671" lon="2.85446">
        <ele>161</ele>
        <time>2019-10-12T08:26:22Z</time>
      </trkpt>
      <trkpt lat="47.31671" lon="2.85446">
        <ele>161</ele>
        <time>2019-10-12T08:26:27Z</time>
      </trkpt>
      <trkpt lat="47.31674" lon="2.85446">
        <ele>160.80000305176</ele>
        <time>2019-10-12T08:26:32Z</time>
      </trkpt>
      <trkpt lat="47.31679" lon="2.85445">
        <ele>160.39999389648</ele>
        <time>2019-10-12T08:26:37Z</time>
      </trkpt>
      <trkpt lat="47.31684" lon="2.85445">
        <ele>160</ele>
        <time>2019-10-12T08:26:42Z</time>
      </trkpt>
      <trkpt lat="47.31688" lon="2.85446">
        <ele>159.39999389648</ele>
        <time>2019-10-12T08:26:47Z</time>
      </trkpt>
      <trkpt lat="47.31693" lon="2.85445">
        <ele>159</ele>
        <time>2019-10-12T08:26:52Z</time>
      </trkpt>
      <trkpt lat="47.31701" lon="2.85448">
        <ele>158.60000610352</ele>
        <time>2019-10-12T08:26:57Z</time>
      </trkpt>
      <trkpt lat="47.31706" lon="2.85447">
        <ele>158.19999694824</ele>
        <time>2019-10-12T08:27:02Z</time>
      </trkpt>
      <trkpt lat="47.31709" lon="2.85445">
        <ele>157.80000305176</ele>
        <time>2019-10-12T08:27:07Z</time>
      </trkpt>
      <trkpt lat="47.31714" lon="2.85441">
        <ele>157.60000610352</ele>
        <time>2019-10-12T08:27:12Z</time>
      </trkpt>
      <trkpt lat="47.31718" lon="2.85437">
        <ele>157.39999389648</ele>
        <time>2019-10-12T08:27:17Z</time>
      </trkpt>
      <trkpt lat="47.31722" lon="2.85433">
        <ele>157.39999389648</ele>
        <time>2019-10-12T08:27:22Z</time>
      </trkpt>
      <trkpt lat="47.31728" lon="2.85429">
        <ele>156.80000305176</ele>
        <time>2019-10-12T08:27:28Z</time>
      </trkpt>
      <trkpt lat="47.31732" lon="2.85427">
        <ele>156.60000610352</ele>
        <time>2019-10-12T08:27:33Z</time>
      </trkpt>
      <trkpt lat="47.31736" lon="2.85428">
        <ele>156.39999389648</ele>
        <time>2019-10-12T08:27:38Z</time>
      </trkpt>
      <trkpt lat="47.31742" lon="2.8543">
        <ele>156.19999694824</ele>
        <time>2019-10-12T08:27:43Z</time>
      </trkpt>
      <trkpt lat="47.31747" lon="2.85433">
        <ele>156</ele>
        <time>2019-10-12T08:27:48Z</time>
      </trkpt>
      <trkpt lat="47.31753" lon="2.85437">
        <ele>155.80000305176</ele>
        <time>2019-10-12T08:27:53Z</time>
      </trkpt>
      <trkpt lat="47.31759" lon="2.85441">
        <ele>155.39999389648</ele>
        <time>2019-10-12T08:27:58Z</time>
      </trkpt>
      <trkpt lat="47.31765" lon="2.85444">
        <ele>155.19999694824</ele>
        <time>2019-10-12T08:28:03Z</time>
      </trkpt>
      <trkpt lat="47.31769" lon="2.85448">
        <ele>155.19999694824</ele>
        <time>2019-10-12T08:28:08Z</time>
      </trkpt>
      <trkpt lat="47.31769" lon="2.85449">
        <ele>155</ele>
        <time>2019-10-12T08:28:13Z</time>
      </trkpt>
      <trkpt lat="47.3177" lon="2.85451">
        <ele>154.60000610352</ele>
        <time>2019-10-12T08:28:18Z</time>
      </trkpt>
      <trkpt lat="47.31771" lon="2.85458">
        <ele>154.60000610352</ele>
        <time>2019-10-12T08:28:23Z</time>
      </trkpt>
      <trkpt lat="47.31772" lon="2.85466">
        <ele>154.39999389648</ele>
        <time>2019-10-12T08:28:28Z</time>
      </trkpt>
      <trkpt lat="47.31772" lon="2.8547">
        <ele>154</ele>
        <time>2019-10-12T08:28:33Z</time>
      </trkpt>
      <trkpt lat="47.31772" lon="2.85474">
        <ele>153.80000305176</ele>
        <time>2019-10-12T08:28:38Z</time>
      </trkpt>
      <trkpt lat="47.31771" lon="2.85483">
        <ele>153.60000610352</ele>
        <time>2019-10-12T08:28:43Z</time>
      </trkpt>
      <trkpt lat="47.31771" lon="2.85492">
        <ele>153.39999389648</ele>
        <time>2019-10-12T08:28:48Z</time>
      </trkpt>
      <trkpt lat="47.31771" lon="2.855">
        <ele>153.19999694824</ele>
        <time>2019-10-12T08:28:53Z</time>
      </trkpt>
      <trkpt lat="47.3177" lon="2.85508">
        <ele>153.19999694824</ele>
        <time>2019-10-12T08:28:58Z</time>
      </trkpt>
      <trkpt lat="47.31768" lon="2.85513">
        <ele>153</ele>
        <time>2019-10-12T08:29:03Z</time>
      </trkpt>
      <trkpt lat="47.31766" lon="2.8552">
        <ele>153</ele>
        <time>2019-10-12T08:29:08Z</time>
      </trkpt>
      <trkpt lat="47.31764" lon="2.85527">
        <ele>153</ele>
        <time>2019-10-12T08:29:13Z</time>
      </trkpt>
      <trkpt lat="47.31761" lon="2.85535">
        <ele>153</ele>
        <time>2019-10-12T08:29:18Z</time>
      </trkpt>
      <trkpt lat="47.3176" lon="2.85544">
        <ele>152.60000610352</ele>
        <time>2019-10-12T08:29:23Z</time>
      </trkpt>
      <trkpt lat="47.3176" lon="2.85553">
        <ele>151.80000305176</ele>
        <time>2019-10-12T08:29:28Z</time>
      </trkpt>
      <trkpt lat="47.31761" lon="2.85562">
        <ele>151.39999389648</ele>
        <time>2019-10-12T08:29:33Z</time>
      </trkpt>
      <trkpt lat="47.31762" lon="2.8557">
        <ele>150.80000305176</ele>
        <time>2019-10-12T08:29:38Z</time>
      </trkpt>
      <trkpt lat="47.3176" lon="2.85574">
        <ele>150.39999389648</ele>
        <time>2019-10-12T08:29:43Z</time>
      </trkpt>
      <trkpt lat="47.31762" lon="2.85583">
        <ele>150.19999694824</ele>
        <time>2019-10-12T08:29:48Z</time>
      </trkpt>
      <trkpt lat="47.31763" lon="2.85591">
        <ele>149.80000305176</ele>
        <time>2019-10-12T08:29:53Z</time>
      </trkpt>
      <trkpt lat="47.31763" lon="2.85598">
        <ele>149</ele>
        <time>2019-10-12T08:29:58Z</time>
      </trkpt>
      <trkpt lat="47.31762" lon="2.85606">
        <ele>148.19999694824</ele>
        <time>2019-10-12T08:30:03Z</time>
      </trkpt>
      <trkpt lat="47.31763" lon="2.85613">
        <ele>147.60000610352</ele>
        <time>2019-10-12T08:30:08Z</time>
      </trkpt>
      <trkpt lat="47.31764" lon="2.8562">
        <ele>147.19999694824</ele>
        <time>2019-10-12T08:30:13Z</time>
      </trkpt>
      <trkpt lat="47.31766" lon="2.85626">
        <ele>146.60000610352</ele>
        <time>2019-10-12T08:30:18Z</time>
      </trkpt>
      <trkpt lat="47.31767" lon="2.85634">
        <ele>146.19999694824</ele>
        <time>2019-10-12T08:30:23Z</time>
      </trkpt>
      <trkpt lat="47.31768" lon="2.85641">
        <ele>145.60000610352</ele>
        <time>2019-10-12T08:30:28Z</time>
      </trkpt>
      <trkpt lat="47.3177" lon="2.85648">
        <ele>145.19999694824</ele>
        <time>2019-10-12T08:30:33Z</time>
      </trkpt>
      <trkpt lat="47.31771" lon="2.85656">
        <ele>144.60000610352</ele>
        <time>2019-10-12T08:30:38Z</time>
      </trkpt>
      <trkpt lat="47.31772" lon="2.85663">
        <ele>144.19999694824</ele>
        <time>2019-10-12T08:30:43Z</time>
      </trkpt>
      <trkpt lat="47.31772" lon="2.85669">
        <ele>143.80000305176</ele>
        <time>2019-10-12T08:30:48Z</time>
      </trkpt>
      <trkpt lat="47.31772" lon="2.85675">
        <ele>143.60000610352</ele>
        <time>2019-10-12T08:30:53Z</time>
      </trkpt>
      <trkpt lat="47.31771" lon="2.85682">
        <ele>143.60000610352</ele>
        <time>2019-10-12T08:30:58Z</time>
      </trkpt>
      <trkpt lat="47.31771" lon="2.8569">
        <ele>144</ele>
        <time>2019-10-12T08:31:03Z</time>
      </trkpt>
      <trkpt lat="47.3177" lon="2.85698">
        <ele>144.80000305176</ele>
        <time>2019-10-12T08:31:08Z</time>
      </trkpt>
      <trkpt lat="47.31769" lon="2.85704">
        <ele>145.39999389648</ele>
        <time>2019-10-12T08:31:13Z</time>
      </trkpt>
      <trkpt lat="47.31768" lon="2.85707">
        <ele>145.80000305176</ele>
        <time>2019-10-12T08:31:18Z</time>
      </trkpt>
      <trkpt lat="47.31767" lon="2.85708">
        <ele>146</ele>
        <time>2019-10-12T08:31:23Z</time>
      </trkpt>
      <trkpt lat="47.31767" lon="2.85709">
        <ele>146</ele>
        <time>2019-10-12T08:31:28Z</time>
      </trkpt>
      <trkpt lat="47.31767" lon="2.85709">
        <ele>146</ele>
        <time>2019-10-12T08:31:33Z</time>
      </trkpt>
      <trkpt lat="47.31768" lon="2.85709">
        <ele>146</ele>
        <time>2019-10-12T08:31:38Z</time>
      </trkpt>
      <trkpt lat="47.31767" lon="2.8571">
        <ele>146.19999694824</ele>
        <time>2019-10-12T08:31:43Z</time>
      </trkpt>
      <trkpt lat="47.31767" lon="2.8571">
        <ele>146.19999694824</ele>
        <time>2019-10-12T08:31:48Z</time>
      </trkpt>
      <trkpt lat="47.31767" lon="2.85711">
        <ele>146.39999389648</ele>
        <time>2019-10-12T08:31:53Z</time>
      </trkpt>
      <trkpt lat="47.31767" lon="2.85711">
        <ele>146.19999694824</ele>
        <time>2019-10-12T08:31:58Z</time>
      </trkpt>
      <trkpt lat="47.31766" lon="2.85711">
        <ele>145.80000305176</ele>
        <time>2019-10-12T08:32:03Z</time>
      </trkpt>
      <trkpt lat="47.31766" lon="2.85711">
        <ele>145.39999389648</ele>
        <time>2019-10-12T08:32:08Z</time>
      </trkpt>
      <trkpt lat="47.31766" lon="2.85711">
        <ele>145.19999694824</ele>
        <time>2019-10-12T08:32:13Z</time>
      </trkpt>
      <trkpt lat="47.31765" lon="2.85711">
        <ele>144.80000305176</ele>
        <time>2019-10-12T08:32:18Z</time>
      </trkpt>
      <trkpt lat="47.31765" lon="2.85712">
        <ele>144.39999389648</ele>
        <time>2019-10-12T08:32:23Z</time>
      </trkpt>
      <trkpt lat="47.31765" lon="2.85712">
        <ele>144.39999389648</ele>
        <time>2019-10-12T08:32:28Z</time>
      </trkpt>
      <trkpt lat="47.31765" lon="2.85712">
        <ele>144.19999694824</ele>
        <time>2019-10-12T08:32:33Z</time>
      </trkpt>
      <trkpt lat="47.31765" lon="2.85711">
        <ele>144</ele>
        <time>2019-10-12T08:32:38Z</time>
      </trkpt>
      <trkpt lat="47.31765" lon="2.85711">
        <ele>144</ele>
        <time>2019-10-12T08:32:43Z</time>
      </trkpt>
      <trkpt lat="47.31765" lon="2.85711">
        <ele>144</ele>
        <time>2019-10-12T08:32:48Z</time>
      </trkpt>
      <trkpt lat="47.31766" lon="2.85711">
        <ele>143.80000305176</ele>
        <time>2019-10-12T08:32:53Z</time>
      </trkpt>
      <trkpt lat="47.31766" lon="2.85711">
        <ele>143.80000305176</ele>
        <time>2019-10-12T08:32:58Z</time>
      </trkpt>
      <trkpt lat="47.31766" lon="2.85711">
        <ele>143.80000305176</ele>
        <time>2019-10-12T08:33:03Z</time>
      </trkpt>
      <trkpt lat="47.31765" lon="2.85711">
        <ele>143.80000305176</ele>
        <time>2019-10-12T08:33:08Z</time>
      </trkpt>
      <trkpt lat="47.31763" lon="2.85713">
        <ele>144</ele>
        <time>2019-10-12T08:33:13Z</time>
      </trkpt>
      <trkpt lat="47.31757" lon="2.85718">
        <ele>144</ele>
        <time>2019-10-12T08:33:18Z</time>
      </trkpt>
      <trkpt lat="47.31757" lon="2.85722">
        <ele>143.80000305176</ele>
        <time>2019-10-12T08:33:23Z</time>
      </trkpt>
      <trkpt lat="47.31761" lon="2.85726">
        <ele>144</ele>
        <time>2019-10-12T08:33:28Z</time>
      </trkpt>
      <trkpt lat="47.31765" lon="2.85727">
        <ele>144.60000610352</ele>
        <time>2019-10-12T08:33:33Z</time>
      </trkpt>
      <trkpt lat="47.31768" lon="2.85729">
        <ele>145</ele>
        <time>2019-10-12T08:33:38Z</time>
      </trkpt>
      <trkpt lat="47.31768" lon="2.85732">
        <ele>145.39999389648</ele>
        <time>2019-10-12T08:33:43Z</time>
      </trkpt>
      <trkpt lat="47.31769" lon="2.85731">
        <ele>145.80000305176</ele>
        <time>2019-10-12T08:33:48Z</time>
      </trkpt>
      <trkpt lat="47.3177" lon="2.85736">
        <ele>145.80000305176</ele>
        <time>2019-10-12T08:33:53Z</time>
      </trkpt>
      <trkpt lat="47.3177" lon="2.85747">
        <ele>146</ele>
        <time>2019-10-12T08:33:58Z</time>
      </trkpt>
      <trkpt lat="47.31769" lon="2.85755">
        <ele>146.19999694824</ele>
        <time>2019-10-12T08:34:03Z</time>
      </trkpt>
      <trkpt lat="47.3177" lon="2.85762">
        <ele>146.19999694824</ele>
        <time>2019-10-12T08:34:08Z</time>
      </trkpt>
      <trkpt lat="47.31769" lon="2.85771">
        <ele>146</ele>
        <time>2019-10-12T08:34:13Z</time>
      </trkpt>
      <trkpt lat="47.31769" lon="2.85779">
        <ele>146.19999694824</ele>
        <time>2019-10-12T08:34:18Z</time>
      </trkpt>
      <trkpt lat="47.31769" lon="2.85787">
        <ele>145.80000305176</ele>
        <time>2019-10-12T08:34:23Z</time>
      </trkpt>
      <trkpt lat="47.3177" lon="2.85794">
        <ele>145.39999389648</ele>
        <time>2019-10-12T08:34:28Z</time>
      </trkpt>
      <trkpt lat="47.3177" lon="2.85801">
        <ele>145.19999694824</ele>
        <time>2019-10-12T08:34:33Z</time>
      </trkpt>
      <trkpt lat="47.31771" lon="2.85809">
        <ele>145</ele>
        <time>2019-10-12T08:34:38Z</time>
      </trkpt>
      <trkpt lat="47.3177" lon="2.85817">
        <ele>144.80000305176</ele>
        <time>2019-10-12T08:34:43Z</time>
      </trkpt>
      <trkpt lat="47.31772" lon="2.85826">
        <ele>144.60000610352</ele>
        <time>2019-10-12T08:34:48Z</time>
      </trkpt>
      <trkpt lat="47.31773" lon="2.85833">
        <ele>144.39999389648</ele>
        <time>2019-10-12T08:34:53Z</time>
      </trkpt>
      <trkpt lat="47.31773" lon="2.85838">
        <ele>144.39999389648</ele>
        <time>2019-10-12T08:34:58Z</time>
      </trkpt>
      <trkpt lat="47.31774" lon="2.8584">
        <ele>144.19999694824</ele>
        <time>2019-10-12T08:35:03Z</time>
      </trkpt>
      <trkpt lat="47.31773" lon="2.85842">
        <ele>144.19999694824</ele>
        <time>2019-10-12T08:35:08Z</time>
      </trkpt>
      <trkpt lat="47.31772" lon="2.85845">
        <ele>144.19999694824</ele>
        <time>2019-10-12T08:35:13Z</time>
      </trkpt>
      <trkpt lat="47.31773" lon="2.85847">
        <ele>144.19999694824</ele>
        <time>2019-10-12T08:35:18Z</time>
      </trkpt>
      <trkpt lat="47.31776" lon="2.85854">
        <ele>144.19999694824</ele>
        <time>2019-10-12T08:35:23Z</time>
      </trkpt>
      <trkpt lat="47.31777" lon="2.85862">
        <ele>144.19999694824</ele>
        <time>2019-10-12T08:35:28Z</time>
      </trkpt>
      <trkpt lat="47.31778" lon="2.8587">
        <ele>144.19999694824</ele>
        <time>2019-10-12T08:35:33Z</time>
      </trkpt>
      <trkpt lat="47.31777" lon="2.85878">
        <ele>143.80000305176</ele>
        <time>2019-10-12T08:35:38Z</time>
      </trkpt>
      <trkpt lat="47.31778" lon="2.85887">
        <ele>143.60000610352</ele>
        <time>2019-10-12T08:35:43Z</time>
      </trkpt>
      <trkpt lat="47.31779" lon="2.85895">
        <ele>143.39999389648</ele>
        <time>2019-10-12T08:35:48Z</time>
      </trkpt>
      <trkpt lat="47.31781" lon="2.85903">
        <ele>143.19999694824</ele>
        <time>2019-10-12T08:35:53Z</time>
      </trkpt>
      <trkpt lat="47.31783" lon="2.85913">
        <ele>143.19999694824</ele>
        <time>2019-10-12T08:35:58Z</time>
      </trkpt>
      <trkpt lat="47.31784" lon="2.85922">
        <ele>143</ele>
        <time>2019-10-12T08:36:03Z</time>
      </trkpt>
      <trkpt lat="47.31786" lon="2.85929">
        <ele>143</ele>
        <time>2019-10-12T08:36:07Z</time>
      </trkpt>
      <trkpt lat="47.31787" lon="2.85939">
        <ele>143</ele>
        <time>2019-10-12T08:36:13Z</time>
      </trkpt>
      <trkpt lat="47.31788" lon="2.85945">
        <ele>143.19999694824</ele>
        <time>2019-10-12T08:36:18Z</time>
      </trkpt>
      <trkpt lat="47.31789" lon="2.85953">
        <ele>143.19999694824</ele>
        <time>2019-10-12T08:36:23Z</time>
      </trkpt>
      <trkpt lat="47.3179" lon="2.85961">
        <ele>143.39999389648</ele>
        <time>2019-10-12T08:36:28Z</time>
      </trkpt>
      <trkpt lat="47.31791" lon="2.85969">
        <ele>143.19999694824</ele>
        <time>2019-10-12T08:36:33Z</time>
      </trkpt>
      <trkpt lat="47.31793" lon="2.85978">
        <ele>143.19999694824</ele>
        <time>2019-10-12T08:36:38Z</time>
      </trkpt>
      <trkpt lat="47.31792" lon="2.85987">
        <ele>143.39999389648</ele>
        <time>2019-10-12T08:36:43Z</time>
      </trkpt>
      <trkpt lat="47.31793" lon="2.85995">
        <ele>143.39999389648</ele>
        <time>2019-10-12T08:36:48Z</time>
      </trkpt>
      <trkpt lat="47.31795" lon="2.86003">
        <ele>143.39999389648</ele>
        <time>2019-10-12T08:36:53Z</time>
      </trkpt>
      <trkpt lat="47.31797" lon="2.8601">
        <ele>143.39999389648</ele>
        <time>2019-10-12T08:36:58Z</time>
      </trkpt>
      <trkpt lat="47.31796" lon="2.86016">
        <ele>143.60000610352</ele>
        <time>2019-10-12T08:37:03Z</time>
      </trkpt>
      <trkpt lat="47.31796" lon="2.86024">
        <ele>143.80000305176</ele>
        <time>2019-10-12T08:37:08Z</time>
      </trkpt>
      <trkpt lat="47.31797" lon="2.8603">
        <ele>143.60000610352</ele>
        <time>2019-10-12T08:37:13Z</time>
      </trkpt>
      <trkpt lat="47.31798" lon="2.86038">
        <ele>143.60000610352</ele>
        <time>2019-10-12T08:37:18Z</time>
      </trkpt>
      <trkpt lat="47.31799" lon="2.86047">
        <ele>143.60000610352</ele>
        <time>2019-10-12T08:37:23Z</time>
      </trkpt>
      <trkpt lat="47.31799" lon="2.86055">
        <ele>143.80000305176</ele>
        <time>2019-10-12T08:37:28Z</time>
      </trkpt>
      <trkpt lat="47.318" lon="2.86063">
        <ele>143.80000305176</ele>
        <time>2019-10-12T08:37:33Z</time>
      </trkpt>
      <trkpt lat="47.31801" lon="2.86072">
        <ele>143.80000305176</ele>
        <time>2019-10-12T08:37:38Z</time>
      </trkpt>
      <trkpt lat="47.31803" lon="2.86082">
        <ele>143.80000305176</ele>
        <time>2019-10-12T08:37:43Z</time>
      </trkpt>
      <trkpt lat="47.31807" lon="2.86089">
        <ele>144</ele>
        <time>2019-10-12T08:37:48Z</time>
      </trkpt>
      <trkpt lat="47.31811" lon="2.86096">
        <ele>144</ele>
        <time>2019-10-12T08:37:53Z</time>
      </trkpt>
      <trkpt lat="47.31815" lon="2.86099">
        <ele>144</ele>
        <time>2019-10-12T08:37:58Z</time>
      </trkpt>
      <trkpt lat="47.31819" lon="2.86101">
        <ele>143.80000305176</ele>
        <time>2019-10-12T08:38:03Z</time>
      </trkpt>
      <trkpt lat="47.31825" lon="2.86102">
        <ele>143.80000305176</ele>
        <time>2019-10-12T08:38:08Z</time>
      </trkpt>
      <trkpt lat="47.3183" lon="2.86103">
        <ele>143.60000610352</ele>
        <time>2019-10-12T08:38:13Z</time>
      </trkpt>
      <trkpt lat="47.31837" lon="2.86104">
        <ele>143.60000610352</ele>
        <time>2019-10-12T08:38:18Z</time>
      </trkpt>
      <trkpt lat="47.31842" lon="2.86105">
        <ele>143.60000610352</ele>
        <time>2019-10-12T08:38:23Z</time>
      </trkpt>
      <trkpt lat="47.3185" lon="2.86106">
        <ele>143.60000610352</ele>
        <time>2019-10-12T08:38:28Z</time>
      </trkpt>
      <trkpt lat="47.31856" lon="2.86106">
        <ele>143.60000610352</ele>
        <time>2019-10-12T08:38:33Z</time>
      </trkpt>
      <trkpt lat="47.31861" lon="2.86109">
        <ele>143.60000610352</ele>
        <time>2019-10-12T08:38:38Z</time>
      </trkpt>
      <trkpt lat="47.31867" lon="2.8611">
        <ele>143.60000610352</ele>
        <time>2019-10-12T08:38:43Z</time>
      </trkpt>
      <trkpt lat="47.31872" lon="2.86114">
        <ele>143.60000610352</ele>
        <time>2019-10-12T08:38:48Z</time>
      </trkpt>
      <trkpt lat="47.31878" lon="2.86119">
        <ele>143.60000610352</ele>
        <time>2019-10-12T08:38:53Z</time>
      </trkpt>
      <trkpt lat="47.31883" lon="2.86126">
        <ele>143.60000610352</ele>
        <time>2019-10-12T08:38:58Z</time>
      </trkpt>
      <trkpt lat="47.31887" lon="2.86133">
        <ele>144</ele>
        <time>2019-10-12T08:39:03Z</time>
      </trkpt>
      <trkpt lat="47.31891" lon="2.86139">
        <ele>144</ele>
        <time>2019-10-12T08:39:08Z</time>
      </trkpt>
      <trkpt lat="47.31894" lon="2.86146">
        <ele>144</ele>
        <time>2019-10-12T08:39:13Z</time>
      </trkpt>
      <trkpt lat="47.31897" lon="2.86153">
        <ele>144</ele>
        <time>2019-10-12T08:39:18Z</time>
      </trkpt>
      <trkpt lat="47.31901" lon="2.8616">
        <ele>144.19999694824</ele>
        <time>2019-10-12T08:39:23Z</time>
      </trkpt>
      <trkpt lat="47.31903" lon="2.86167">
        <ele>144.19999694824</ele>
        <time>2019-10-12T08:39:28Z</time>
      </trkpt>
      <trkpt lat="47.31905" lon="2.86175">
        <ele>144</ele>
        <time>2019-10-12T08:39:33Z</time>
      </trkpt>
      <trkpt lat="47.31908" lon="2.86182">
        <ele>144</ele>
        <time>2019-10-12T08:39:38Z</time>
      </trkpt>
      <trkpt lat="47.3191" lon="2.86189">
        <ele>144</ele>
        <time>2019-10-12T08:39:43Z</time>
      </trkpt>
      <trkpt lat="47.31913" lon="2.86198">
        <ele>144</ele>
        <time>2019-10-12T08:39:48Z</time>
      </trkpt>
      <trkpt lat="47.31916" lon="2.86206">
        <ele>144</ele>
        <time>2019-10-12T08:39:53Z</time>
      </trkpt>
      <trkpt lat="47.31919" lon="2.86214">
        <ele>144</ele>
        <time>2019-10-12T08:39:58Z</time>
      </trkpt>
      <trkpt lat="47.31922" lon="2.86221">
        <ele>144</ele>
        <time>2019-10-12T08:40:03Z</time>
      </trkpt>
      <trkpt lat="47.31925" lon="2.86228">
        <ele>144</ele>
        <time>2019-10-12T08:40:08Z</time>
      </trkpt>
      <trkpt lat="47.31928" lon="2.86235">
        <ele>144</ele>
        <time>2019-10-12T08:40:13Z</time>
      </trkpt>
      <trkpt lat="47.31932" lon="2.86242">
        <ele>144.19999694824</ele>
        <time>2019-10-12T08:40:18Z</time>
      </trkpt>
      <trkpt lat="47.31936" lon="2.8625">
        <ele>144.19999694824</ele>
        <time>2019-10-12T08:40:23Z</time>
      </trkpt>
      <trkpt lat="47.31939" lon="2.86258">
        <ele>144.19999694824</ele>
        <time>2019-10-12T08:40:28Z</time>
      </trkpt>
      <trkpt lat="47.31943" lon="2.86265">
        <ele>144.19999694824</ele>
        <time>2019-10-12T08:40:33Z</time>
      </trkpt>
      <trkpt lat="47.31946" lon="2.86272">
        <ele>144.19999694824</ele>
        <time>2019-10-12T08:40:38Z</time>
      </trkpt>
      <trkpt lat="47.31949" lon="2.86278">
        <ele>144.19999694824</ele>
        <time>2019-10-12T08:40:43Z</time>
      </trkpt>
      <trkpt lat="47.31953" lon="2.86285">
        <ele>144.39999389648</ele>
        <time>2019-10-12T08:40:48Z</time>
      </trkpt>
      <trkpt lat="47.31956" lon="2.86292">
        <ele>144.39999389648</ele>
        <time>2019-10-12T08:40:53Z</time>
      </trkpt>
      <trkpt lat="47.31959" lon="2.86298">
        <ele>144.60000610352</ele>
        <time>2019-10-12T08:40:58Z</time>
      </trkpt>
      <trkpt lat="47.31963" lon="2.86304">
        <ele>144.60000610352</ele>
        <time>2019-10-12T08:41:03Z</time>
      </trkpt>
      <trkpt lat="47.31966" lon="2.8631">
        <ele>144.60000610352</ele>
        <time>2019-10-12T08:41:08Z</time>
      </trkpt>
      <trkpt lat="47.3197" lon="2.86318">
        <ele>144.60000610352</ele>
        <time>2019-10-12T08:41:13Z</time>
      </trkpt>
      <trkpt lat="47.31974" lon="2.86325">
        <ele>144.60000610352</ele>
        <time>2019-10-12T08:41:18Z</time>
      </trkpt>
      <trkpt lat="47.31977" lon="2.86333">
        <ele>144.39999389648</ele>
        <time>2019-10-12T08:41:23Z</time>
      </trkpt>
      <trkpt lat="47.3198" lon="2.86341">
        <ele>144.39999389648</ele>
        <time>2019-10-12T08:41:28Z</time>
      </trkpt>
      <trkpt lat="47.31983" lon="2.8635">
        <ele>144.39999389648</ele>
        <time>2019-10-12T08:41:33Z</time>
      </trkpt>
      <trkpt lat="47.31989" lon="2.86357">
        <ele>144.39999389648</ele>
        <time>2019-10-12T08:41:38Z</time>
      </trkpt>
      <trkpt lat="47.31992" lon="2.86365">
        <ele>144.60000610352</ele>
        <time>2019-10-12T08:41:43Z</time>
      </trkpt>
      <trkpt lat="47.31994" lon="2.86372">
        <ele>144.60000610352</ele>
        <time>2019-10-12T08:41:48Z</time>
      </trkpt>
      <trkpt lat="47.31997" lon="2.86379">
        <ele>144.39999389648</ele>
        <time>2019-10-12T08:41:53Z</time>
      </trkpt>
      <trkpt lat="47.32" lon="2.86387">
        <ele>144.39999389648</ele>
        <time>2019-10-12T08:41:58Z</time>
      </trkpt>
      <trkpt lat="47.32003" lon="2.86394">
        <ele>144.39999389648</ele>
        <time>2019-10-12T08:42:03Z</time>
      </trkpt>
      <trkpt lat="47.32006" lon="2.86401">
        <ele>144.19999694824</ele>
        <time>2019-10-12T08:42:08Z</time>
      </trkpt>
      <trkpt lat="47.32009" lon="2.86408">
        <ele>144.19999694824</ele>
        <time>2019-10-12T08:42:13Z</time>
      </trkpt>
      <trkpt lat="47.3201" lon="2.86415">
        <ele>144.19999694824</ele>
        <time>2019-10-12T08:42:18Z</time>
      </trkpt>
      <trkpt lat="47.32012" lon="2.86421">
        <ele>144.39999389648</ele>
        <time>2019-10-12T08:42:23Z</time>
      </trkpt>
      <trkpt lat="47.32014" lon="2.86429">
        <ele>144.19999694824</ele>
        <time>2019-10-12T08:42:28Z</time>
      </trkpt>
      <trkpt lat="47.32017" lon="2.86438">
        <ele>144.19999694824</ele>
        <time>2019-10-12T08:42:33Z</time>
      </trkpt>
      <trkpt lat="47.3202" lon="2.86446">
        <ele>144.19999694824</ele>
        <time>2019-10-12T08:42:38Z</time>
      </trkpt>
      <trkpt lat="47.32022" lon="2.86454">
        <ele>144</ele>
        <time>2019-10-12T08:42:43Z</time>
      </trkpt>
      <trkpt lat="47.32025" lon="2.86462">
        <ele>143.80000305176</ele>
        <time>2019-10-12T08:42:48Z</time>
      </trkpt>
      <trkpt lat="47.32027" lon="2.86469">
        <ele>143.80000305176</ele>
        <time>2019-10-12T08:42:53Z</time>
      </trkpt>
      <trkpt lat="47.32029" lon="2.86478">
        <ele>143.80000305176</ele>
        <time>2019-10-12T08:42:58Z</time>
      </trkpt>
      <trkpt lat="47.32031" lon="2.86487">
        <ele>143.80000305176</ele>
        <time>2019-10-12T08:43:03Z</time>
      </trkpt>
      <trkpt lat="47.32034" lon="2.86494">
        <ele>143.60000610352</ele>
        <time>2019-10-12T08:43:08Z</time>
      </trkpt>
      <trkpt lat="47.32035" lon="2.86502">
        <ele>143.60000610352</ele>
        <time>2019-10-12T08:43:13Z</time>
      </trkpt>
      <trkpt lat="47.32036" lon="2.86511">
        <ele>143.80000305176</ele>
        <time>2019-10-12T08:43:18Z</time>
      </trkpt>
      <trkpt lat="47.32039" lon="2.86518">
        <ele>143.80000305176</ele>
        <time>2019-10-12T08:43:23Z</time>
      </trkpt>
      <trkpt lat="47.32041" lon="2.86526">
        <ele>143.80000305176</ele>
        <time>2019-10-12T08:43:28Z</time>
      </trkpt>
      <trkpt lat="47.32043" lon="2.86535">
        <ele>143.60000610352</ele>
        <time>2019-10-12T08:43:33Z</time>
      </trkpt>
      <trkpt lat="47.32045" lon="2.86545">
        <ele>143.39999389648</ele>
        <time>2019-10-12T08:43:38Z</time>
      </trkpt>
      <trkpt lat="47.32048" lon="2.86553">
        <ele>143.39999389648</ele>
        <time>2019-10-12T08:43:43Z</time>
      </trkpt>
      <trkpt lat="47.32051" lon="2.8656">
        <ele>143.39999389648</ele>
        <time>2019-10-12T08:43:48Z</time>
      </trkpt>
      <trkpt lat="47.32055" lon="2.86567">
        <ele>143.60000610352</ele>
        <time>2019-10-12T08:43:53Z</time>
      </trkpt>
      <trkpt lat="47.32058" lon="2.86573">
        <ele>143.60000610352</ele>
        <time>2019-10-12T08:43:58Z</time>
      </trkpt>
      <trkpt lat="47.32062" lon="2.86579">
        <ele>143.60000610352</ele>
        <time>2019-10-12T08:44:03Z</time>
      </trkpt>
      <trkpt lat="47.32066" lon="2.86585">
        <ele>143.60000610352</ele>
        <time>2019-10-12T08:44:08Z</time>
      </trkpt>
      <trkpt lat="47.32069" lon="2.8659">
        <ele>143.60000610352</ele>
        <time>2019-10-12T08:44:13Z</time>
      </trkpt>
      <trkpt lat="47.32073" lon="2.86596">
        <ele>143.39999389648</ele>
        <time>2019-10-12T08:44:18Z</time>
      </trkpt>
      <trkpt lat="47.32077" lon="2.86601">
        <ele>143.39999389648</ele>
        <time>2019-10-12T08:44:23Z</time>
      </trkpt>
      <trkpt lat="47.32082" lon="2.86606">
        <ele>143.60000610352</ele>
        <time>2019-10-12T08:44:28Z</time>
      </trkpt>
      <trkpt lat="47.32087" lon="2.86609">
        <ele>143.60000610352</ele>
        <time>2019-10-12T08:44:33Z</time>
      </trkpt>
      <trkpt lat="47.32091" lon="2.86614">
        <ele>143.60000610352</ele>
        <time>2019-10-12T08:44:38Z</time>
      </trkpt>
      <trkpt lat="47.32096" lon="2.86619">
        <ele>143.60000610352</ele>
        <time>2019-10-12T08:44:43Z</time>
      </trkpt>
      <trkpt lat="47.32101" lon="2.86624">
        <ele>143.60000610352</ele>
        <time>2019-10-12T08:44:48Z</time>
      </trkpt>
      <trkpt lat="47.32105" lon="2.86627">
        <ele>143.80000305176</ele>
        <time>2019-10-12T08:44:53Z</time>
      </trkpt>
      <trkpt lat="47.3211" lon="2.86633">
        <ele>143.60000610352</ele>
        <time>2019-10-12T08:44:58Z</time>
      </trkpt>
      <trkpt lat="47.32114" lon="2.86637">
        <ele>143.80000305176</ele>
        <time>2019-10-12T08:45:03Z</time>
      </trkpt>
      <trkpt lat="47.32119" lon="2.86642">
        <ele>143.80000305176</ele>
        <time>2019-10-12T08:45:08Z</time>
      </trkpt>
      <trkpt lat="47.32123" lon="2.86647">
        <ele>143.80000305176</ele>
        <time>2019-10-12T08:45:13Z</time>
      </trkpt>
      <trkpt lat="47.32128" lon="2.86651">
        <ele>143.80000305176</ele>
        <time>2019-10-12T08:45:18Z</time>
      </trkpt>
      <trkpt lat="47.32133" lon="2.86656">
        <ele>143.80000305176</ele>
        <time>2019-10-12T08:45:23Z</time>
      </trkpt>
      <trkpt lat="47.32138" lon="2.86662">
        <ele>143.80000305176</ele>
        <time>2019-10-12T08:45:28Z</time>
      </trkpt>
      <trkpt lat="47.32142" lon="2.86666">
        <ele>143.80000305176</ele>
        <time>2019-10-12T08:45:33Z</time>
      </trkpt>
      <trkpt lat="47.32145" lon="2.8667">
        <ele>144</ele>
        <time>2019-10-12T08:45:38Z</time>
      </trkpt>
      <trkpt lat="47.32149" lon="2.86675">
        <ele>143.80000305176</ele>
        <time>2019-10-12T08:45:43Z</time>
      </trkpt>
      <trkpt lat="47.32153" lon="2.8668">
        <ele>143.80000305176</ele>
        <time>2019-10-12T08:45:48Z</time>
      </trkpt>
      <trkpt lat="47.32157" lon="2.86684">
        <ele>143.80000305176</ele>
        <time>2019-10-12T08:45:53Z</time>
      </trkpt>
      <trkpt lat="47.32161" lon="2.86689">
        <ele>143.80000305176</ele>
        <time>2019-10-12T08:45:58Z</time>
      </trkpt>
      <trkpt lat="47.32165" lon="2.86694">
        <ele>143.80000305176</ele>
        <time>2019-10-12T08:46:03Z</time>
      </trkpt>
      <trkpt lat="47.3217" lon="2.867">
        <ele>143.80000305176</ele>
        <time>2019-10-12T08:46:08Z</time>
      </trkpt>
      <trkpt lat="47.32174" lon="2.86706">
        <ele>143.80000305176</ele>
        <time>2019-10-12T08:46:13Z</time>
      </trkpt>
      <trkpt lat="47.32178" lon="2.86711">
        <ele>143.80000305176</ele>
        <time>2019-10-12T08:46:18Z</time>
      </trkpt>
      <trkpt lat="47.32182" lon="2.86716">
        <ele>143.80000305176</ele>
        <time>2019-10-12T08:46:23Z</time>
      </trkpt>
      <trkpt lat="47.32186" lon="2.86722">
        <ele>143.80000305176</ele>
        <time>2019-10-12T08:46:28Z</time>
      </trkpt>
      <trkpt lat="47.3219" lon="2.86728">
        <ele>143.60000610352</ele>
        <time>2019-10-12T08:46:33Z</time>
      </trkpt>
      <trkpt lat="47.32194" lon="2.86735">
        <ele>143.60000610352</ele>
        <time>2019-10-12T08:46:38Z</time>
      </trkpt>
      <trkpt lat="47.32197" lon="2.86741">
        <ele>143.60000610352</ele>
        <time>2019-10-12T08:46:43Z</time>
      </trkpt>
      <trkpt lat="47.32201" lon="2.86747">
        <ele>143.60000610352</ele>
        <time>2019-10-12T08:46:48Z</time>
      </trkpt>
      <trkpt lat="47.32204" lon="2.86754">
        <ele>143.39999389648</ele>
        <time>2019-10-12T08:46:53Z</time>
      </trkpt>
      <trkpt lat="47.32205" lon="2.86757">
        <ele>143.39999389648</ele>
        <time>2019-10-12T08:46:58Z</time>
      </trkpt>
      <trkpt lat="47.32203" lon="2.86759">
        <ele>143.39999389648</ele>
        <time>2019-10-12T08:47:03Z</time>
      </trkpt>
      <trkpt lat="47.32203" lon="2.86759">
        <ele>143.39999389648</ele>
        <time>2019-10-12T08:47:08Z</time>
      </trkpt>
      <trkpt lat="47.32204" lon="2.8676">
        <ele>143.39999389648</ele>
        <time>2019-10-12T08:47:13Z</time>
      </trkpt>
      <trkpt lat="47.32208" lon="2.86763">
        <ele>143.39999389648</ele>
        <time>2019-10-12T08:47:18Z</time>
      </trkpt>
      <trkpt lat="47.32211" lon="2.86762">
        <ele>143.39999389648</ele>
        <time>2019-10-12T08:47:23Z</time>
      </trkpt>
      <trkpt lat="47.32211" lon="2.86762">
        <ele>143.39999389648</ele>
        <time>2019-10-12T08:47:28Z</time>
      </trkpt>
      <trkpt lat="47.32211" lon="2.86762">
        <ele>143.39999389648</ele>
        <time>2019-10-12T08:47:33Z</time>
      </trkpt>
      <trkpt lat="47.32212" lon="2.86763">
        <ele>143.39999389648</ele>
        <time>2019-10-12T08:47:38Z</time>
      </trkpt>
      <trkpt lat="47.32212" lon="2.86763">
        <ele>143.39999389648</ele>
        <time>2019-10-12T08:47:43Z</time>
      </trkpt>
      <trkpt lat="47.32213" lon="2.86763">
        <ele>143.39999389648</ele>
        <time>2019-10-12T08:47:48Z</time>
      </trkpt>
      <trkpt lat="47.32213" lon="2.86763">
        <ele>143.39999389648</ele>
        <time>2019-10-12T08:47:53Z</time>
      </trkpt>
      <trkpt lat="47.32213" lon="2.86762">
        <ele>143.39999389648</ele>
        <time>2019-10-12T08:47:58Z</time>
      </trkpt>
      <trkpt lat="47.32215" lon="2.86762">
        <ele>143.39999389648</ele>
        <time>2019-10-12T08:48:03Z</time>
      </trkpt>
      <trkpt lat="47.32215" lon="2.86763">
        <ele>143.39999389648</ele>
        <time>2019-10-12T08:48:08Z</time>
      </trkpt>
      <trkpt lat="47.32215" lon="2.86762">
        <ele>143.39999389648</ele>
        <time>2019-10-12T08:48:13Z</time>
      </trkpt>
      <trkpt lat="47.32216" lon="2.86763">
        <ele>143.39999389648</ele>
        <time>2019-10-12T08:48:18Z</time>
      </trkpt>
      <trkpt lat="47.32216" lon="2.86763">
        <ele>143.39999389648</ele>
        <time>2019-10-12T08:48:23Z</time>
      </trkpt>
      <trkpt lat="47.32216" lon="2.86764">
        <ele>143.39999389648</ele>
        <time>2019-10-12T08:48:28Z</time>
      </trkpt>
      <trkpt lat="47.32216" lon="2.86764">
        <ele>143.39999389648</ele>
        <time>2019-10-12T08:48:33Z</time>
      </trkpt>
      <trkpt lat="47.32216" lon="2.86764">
        <ele>143.39999389648</ele>
        <time>2019-10-12T08:48:38Z</time>
      </trkpt>
      <trkpt lat="47.32215" lon="2.86764">
        <ele>143.39999389648</ele>
        <time>2019-10-12T08:48:43Z</time>
      </trkpt>
      <trkpt lat="47.32215" lon="2.86764">
        <ele>143.39999389648</ele>
        <time>2019-10-12T08:48:48Z</time>
      </trkpt>
      <trkpt lat="47.32215" lon="2.86764">
        <ele>143.39999389648</ele>
        <time>2019-10-12T08:48:53Z</time>
      </trkpt>
      <trkpt lat="47.32215" lon="2.86763">
        <ele>143.39999389648</ele>
        <time>2019-10-12T08:48:58Z</time>
      </trkpt>
      <trkpt lat="47.32215" lon="2.86763">
        <ele>143.39999389648</ele>
        <time>2019-10-12T08:49:03Z</time>
      </trkpt>
      <trkpt lat="47.32215" lon="2.86763">
        <ele>143.39999389648</ele>
        <time>2019-10-12T08:49:08Z</time>
      </trkpt>
      <trkpt lat="47.32214" lon="2.86763">
        <ele>143.39999389648</ele>
        <time>2019-10-12T08:49:13Z</time>
      </trkpt>
      <trkpt lat="47.32214" lon="2.86763">
        <ele>143.39999389648</ele>
        <time>2019-10-12T08:49:18Z</time>
      </trkpt>
      <trkpt lat="47.32215" lon="2.86763">
        <ele>143.39999389648</ele>
        <time>2019-10-12T08:49:23Z</time>
      </trkpt>
      <trkpt lat="47.32216" lon="2.86763">
        <ele>143.39999389648</ele>
        <time>2019-10-12T08:49:28Z</time>
      </trkpt>
      <trkpt lat="47.32216" lon="2.86762">
        <ele>143.39999389648</ele>
        <time>2019-10-12T08:49:33Z</time>
      </trkpt>
      <trkpt lat="47.32216" lon="2.86762">
        <ele>143.39999389648</ele>
        <time>2019-10-12T08:49:38Z</time>
      </trkpt>
      <trkpt lat="47.32216" lon="2.86762">
        <ele>143.39999389648</ele>
        <time>2019-10-12T08:49:43Z</time>
      </trkpt>
      <trkpt lat="47.32216" lon="2.86762">
        <ele>143.39999389648</ele>
        <time>2019-10-12T08:49:48Z</time>
      </trkpt>
      <trkpt lat="47.32217" lon="2.86763">
        <ele>143.39999389648</ele>
        <time>2019-10-12T08:49:53Z</time>
      </trkpt>
      <trkpt lat="47.32217" lon="2.86763">
        <ele>143.39999389648</ele>
        <time>2019-10-12T08:49:58Z</time>
      </trkpt>
      <trkpt lat="47.32218" lon="2.86763">
        <ele>143.39999389648</ele>
        <time>2019-10-12T08:50:03Z</time>
      </trkpt>
      <trkpt lat="47.32218" lon="2.86763">
        <ele>143.39999389648</ele>
        <time>2019-10-12T08:50:08Z</time>
      </trkpt>
      <trkpt lat="47.32218" lon="2.86763">
        <ele>143.39999389648</ele>
        <time>2019-10-12T08:50:13Z</time>
      </trkpt>
      <trkpt lat="47.32218" lon="2.86764">
        <ele>143.39999389648</ele>
        <time>2019-10-12T08:50:18Z</time>
      </trkpt>
      <trkpt lat="47.32219" lon="2.86763">
        <ele>143.39999389648</ele>
        <time>2019-10-12T08:50:23Z</time>
      </trkpt>
      <trkpt lat="47.32219" lon="2.86763">
        <ele>143.39999389648</ele>
        <time>2019-10-12T08:50:28Z</time>
      </trkpt>
      <trkpt lat="47.32219" lon="2.86764">
        <ele>143.39999389648</ele>
        <time>2019-10-12T08:50:33Z</time>
      </trkpt>
      <trkpt lat="47.32218" lon="2.86763">
        <ele>143.39999389648</ele>
        <time>2019-10-12T08:50:38Z</time>
      </trkpt>
      <trkpt lat="47.3222" lon="2.86761">
        <ele>143.39999389648</ele>
        <time>2019-10-12T08:50:43Z</time>
      </trkpt>
      <trkpt lat="47.32224" lon="2.86759">
        <ele>143.39999389648</ele>
        <time>2019-10-12T08:50:48Z</time>
      </trkpt>
      <trkpt lat="47.32228" lon="2.86758">
        <ele>141.80000305176</ele>
        <time>2019-10-12T08:50:53Z</time>
      </trkpt>
      <trkpt lat="47.32232" lon="2.86754">
        <ele>141.39999389648</ele>
        <time>2019-10-12T08:50:58Z</time>
      </trkpt>
      <trkpt lat="47.32237" lon="2.8675">
        <ele>141.39999389648</ele>
        <time>2019-10-12T08:51:03Z</time>
      </trkpt>
      <trkpt lat="47.32241" lon="2.86747">
        <ele>141.39999389648</ele>
        <time>2019-10-12T08:51:08Z</time>
      </trkpt>
      <trkpt lat="47.32244" lon="2.86745">
        <ele>141.39999389648</ele>
        <time>2019-10-12T08:51:13Z</time>
      </trkpt>
      <trkpt lat="47.32248" lon="2.86742">
        <ele>141.39999389648</ele>
        <time>2019-10-12T08:51:18Z</time>
      </trkpt>
      <trkpt lat="47.32252" lon="2.86741">
        <ele>141.19999694824</ele>
        <time>2019-10-12T08:51:23Z</time>
      </trkpt>
      <trkpt lat="47.32256" lon="2.8674">
        <ele>141.19999694824</ele>
        <time>2019-10-12T08:51:28Z</time>
      </trkpt>
      <trkpt lat="47.32261" lon="2.86739">
        <ele>141.19999694824</ele>
        <time>2019-10-12T08:51:33Z</time>
      </trkpt>
      <trkpt lat="47.32266" lon="2.86738">
        <ele>141.39999389648</ele>
        <time>2019-10-12T08:51:38Z</time>
      </trkpt>
      <trkpt lat="47.32271" lon="2.86738">
        <ele>141.60000610352</ele>
        <time>2019-10-12T08:51:43Z</time>
      </trkpt>
      <trkpt lat="47.32276" lon="2.86736">
        <ele>141.39999389648</ele>
        <time>2019-10-12T08:51:48Z</time>
      </trkpt>
      <trkpt lat="47.3228" lon="2.86733">
        <ele>141.39999389648</ele>
        <time>2019-10-12T08:51:53Z</time>
      </trkpt>
      <trkpt lat="47.32284" lon="2.86731">
        <ele>141.39999389648</ele>
        <time>2019-10-12T08:51:58Z</time>
      </trkpt>
      <trkpt lat="47.32288" lon="2.86728">
        <ele>141.19999694824</ele>
        <time>2019-10-12T08:52:03Z</time>
      </trkpt>
      <trkpt lat="47.32294" lon="2.86726">
        <ele>141.19999694824</ele>
        <time>2019-10-12T08:52:08Z</time>
      </trkpt>
      <trkpt lat="47.32299" lon="2.86724">
        <ele>141.19999694824</ele>
        <time>2019-10-12T08:52:13Z</time>
      </trkpt>
      <trkpt lat="47.32304" lon="2.86722">
        <ele>141.19999694824</ele>
        <time>2019-10-12T08:52:18Z</time>
      </trkpt>
      <trkpt lat="47.32307" lon="2.86721">
        <ele>141</ele>
        <time>2019-10-12T08:52:23Z</time>
      </trkpt>
      <trkpt lat="47.32311" lon="2.86718">
        <ele>141</ele>
        <time>2019-10-12T08:52:28Z</time>
      </trkpt>
      <trkpt lat="47.32316" lon="2.86717">
        <ele>141.19999694824</ele>
        <time>2019-10-12T08:52:33Z</time>
      </trkpt>
      <trkpt lat="47.32322" lon="2.86716">
        <ele>141.19999694824</ele>
        <time>2019-10-12T08:52:38Z</time>
      </trkpt>
      <trkpt lat="47.32328" lon="2.86715">
        <ele>141.19999694824</ele>
        <time>2019-10-12T08:52:43Z</time>
      </trkpt>
      <trkpt lat="47.32332" lon="2.86713">
        <ele>141.19999694824</ele>
        <time>2019-10-12T08:52:48Z</time>
      </trkpt>
      <trkpt lat="47.32338" lon="2.8671">
        <ele>141.39999389648</ele>
        <time>2019-10-12T08:52:53Z</time>
      </trkpt>
      <trkpt lat="47.32342" lon="2.86706">
        <ele>141.19999694824</ele>
        <time>2019-10-12T08:52:58Z</time>
      </trkpt>
      <trkpt lat="47.32348" lon="2.86702">
        <ele>141.19999694824</ele>
        <time>2019-10-12T08:53:03Z</time>
      </trkpt>
      <trkpt lat="47.32353" lon="2.86699">
        <ele>141.19999694824</ele>
        <time>2019-10-12T08:53:08Z</time>
      </trkpt>
      <trkpt lat="47.32359" lon="2.86697">
        <ele>141.19999694824</ele>
        <time>2019-10-12T08:53:13Z</time>
      </trkpt>
      <trkpt lat="47.32364" lon="2.86695">
        <ele>141</ele>
        <time>2019-10-12T08:53:18Z</time>
      </trkpt>
      <trkpt lat="47.32369" lon="2.86692">
        <ele>141.19999694824</ele>
        <time>2019-10-12T08:53:23Z</time>
      </trkpt>
      <trkpt lat="47.32374" lon="2.86689">
        <ele>141</ele>
        <time>2019-10-12T08:53:28Z</time>
      </trkpt>
      <trkpt lat="47.3238" lon="2.86687">
        <ele>141</ele>
        <time>2019-10-12T08:53:33Z</time>
      </trkpt>
      <trkpt lat="47.32385" lon="2.86684">
        <ele>141</ele>
        <time>2019-10-12T08:53:38Z</time>
      </trkpt>
      <trkpt lat="47.32388" lon="2.86682">
        <ele>141</ele>
        <time>2019-10-12T08:53:43Z</time>
      </trkpt>
      <trkpt lat="47.32393" lon="2.86678">
        <ele>140.80000305176</ele>
        <time>2019-10-12T08:53:48Z</time>
      </trkpt>
      <trkpt lat="47.32398" lon="2.86675">
        <ele>140.80000305176</ele>
        <time>2019-10-12T08:53:53Z</time>
      </trkpt>
      <trkpt lat="47.32403" lon="2.86672">
        <ele>140.80000305176</ele>
        <time>2019-10-12T08:53:58Z</time>
      </trkpt>
      <trkpt lat="47.32408" lon="2.86669">
        <ele>140.80000305176</ele>
        <time>2019-10-12T08:54:03Z</time>
      </trkpt>
      <trkpt lat="47.32413" lon="2.86665">
        <ele>140.60000610352</ele>
        <time>2019-10-12T08:54:08Z</time>
      </trkpt>
      <trkpt lat="47.32418" lon="2.86663">
        <ele>140.60000610352</ele>
        <time>2019-10-12T08:54:13Z</time>
      </trkpt>
      <trkpt lat="47.32422" lon="2.86659">
        <ele>140.60000610352</ele>
        <time>2019-10-12T08:54:18Z</time>
      </trkpt>
      <trkpt lat="47.32427" lon="2.86655">
        <ele>140.60000610352</ele>
        <time>2019-10-12T08:54:23Z</time>
      </trkpt>
      <trkpt lat="47.32431" lon="2.86652">
        <ele>140.60000610352</ele>
        <time>2019-10-12T08:54:28Z</time>
      </trkpt>
      <trkpt lat="47.32436" lon="2.86648">
        <ele>140.60000610352</ele>
        <time>2019-10-12T08:54:33Z</time>
      </trkpt>
      <trkpt lat="47.3244" lon="2.86643">
        <ele>140.60000610352</ele>
        <time>2019-10-12T08:54:38Z</time>
      </trkpt>
      <trkpt lat="47.32445" lon="2.86639">
        <ele>140.60000610352</ele>
        <time>2019-10-12T08:54:43Z</time>
      </trkpt>
      <trkpt lat="47.32451" lon="2.86634">
        <ele>140.60000610352</ele>
        <time>2019-10-12T08:54:48Z</time>
      </trkpt>
      <trkpt lat="47.32455" lon="2.8663">
        <ele>140.60000610352</ele>
        <time>2019-10-12T08:54:53Z</time>
      </trkpt>
      <trkpt lat="47.32461" lon="2.86626">
        <ele>140.60000610352</ele>
        <time>2019-10-12T08:54:58Z</time>
      </trkpt>
      <trkpt lat="47.32466" lon="2.8662">
        <ele>140.60000610352</ele>
        <time>2019-10-12T08:55:03Z</time>
      </trkpt>
      <trkpt lat="47.3247" lon="2.86615">
        <ele>140.60000610352</ele>
        <time>2019-10-12T08:55:08Z</time>
      </trkpt>
      <trkpt lat="47.32475" lon="2.86611">
        <ele>140.60000610352</ele>
        <time>2019-10-12T08:55:13Z</time>
      </trkpt>
      <trkpt lat="47.3248" lon="2.86609">
        <ele>140.60000610352</ele>
        <time>2019-10-12T08:55:18Z</time>
      </trkpt>
      <trkpt lat="47.32485" lon="2.86606">
        <ele>140.60000610352</ele>
        <time>2019-10-12T08:55:23Z</time>
      </trkpt>
      <trkpt lat="47.32491" lon="2.86602">
        <ele>140.60000610352</ele>
        <time>2019-10-12T08:55:28Z</time>
      </trkpt>
      <trkpt lat="47.32497" lon="2.86599">
        <ele>140.60000610352</ele>
        <time>2019-10-12T08:55:33Z</time>
      </trkpt>
      <trkpt lat="47.32502" lon="2.86594">
        <ele>140.60000610352</ele>
        <time>2019-10-12T08:55:38Z</time>
      </trkpt>
      <trkpt lat="47.32507" lon="2.8659">
        <ele>140.60000610352</ele>
        <time>2019-10-12T08:55:43Z</time>
      </trkpt>
      <trkpt lat="47.32513" lon="2.86588">
        <ele>140.60000610352</ele>
        <time>2019-10-12T08:55:48Z</time>
      </trkpt>
      <trkpt lat="47.32519" lon="2.86585">
        <ele>140.39999389648</ele>
        <time>2019-10-12T08:55:53Z</time>
      </trkpt>
      <trkpt lat="47.32524" lon="2.86581">
        <ele>140.39999389648</ele>
        <time>2019-10-12T08:55:58Z</time>
      </trkpt>
      <trkpt lat="47.32529" lon="2.86576">
        <ele>140.39999389648</ele>
        <time>2019-10-12T08:56:03Z</time>
      </trkpt>
      <trkpt lat="47.32534" lon="2.86572">
        <ele>140.39999389648</ele>
        <time>2019-10-12T08:56:08Z</time>
      </trkpt>
      <trkpt lat="47.3254" lon="2.86569">
        <ele>140.39999389648</ele>
        <time>2019-10-12T08:56:13Z</time>
      </trkpt>
      <trkpt lat="47.32545" lon="2.86565">
        <ele>140.39999389648</ele>
        <time>2019-10-12T08:56:18Z</time>
      </trkpt>
      <trkpt lat="47.3255" lon="2.86561">
        <ele>140.39999389648</ele>
        <time>2019-10-12T08:56:23Z</time>
      </trkpt>
      <trkpt lat="47.32554" lon="2.86557">
        <ele>140.39999389648</ele>
        <time>2019-10-12T08:56:28Z</time>
      </trkpt>
      <trkpt lat="47.32561" lon="2.86554">
        <ele>140.39999389648</ele>
        <time>2019-10-12T08:56:33Z</time>
      </trkpt>
      <trkpt lat="47.32567" lon="2.8655">
        <ele>140.19999694824</ele>
        <time>2019-10-12T08:56:38Z</time>
      </trkpt>
      <trkpt lat="47.32572" lon="2.86546">
        <ele>140</ele>
        <time>2019-10-12T08:56:43Z</time>
      </trkpt>
      <trkpt lat="47.32577" lon="2.8654">
        <ele>140</ele>
        <time>2019-10-12T08:56:48Z</time>
      </trkpt>
      <trkpt lat="47.32581" lon="2.86535">
        <ele>139.80000305176</ele>
        <time>2019-10-12T08:56:53Z</time>
      </trkpt>
      <trkpt lat="47.32585" lon="2.86528">
        <ele>139.80000305176</ele>
        <time>2019-10-12T08:56:58Z</time>
      </trkpt>
      <trkpt lat="47.32588" lon="2.86521">
        <ele>139.60000610352</ele>
        <time>2019-10-12T08:57:03Z</time>
      </trkpt>
      <trkpt lat="47.32591" lon="2.86514">
        <ele>139.39999389648</ele>
        <time>2019-10-12T08:57:08Z</time>
      </trkpt>
      <trkpt lat="47.32595" lon="2.86507">
        <ele>139.19999694824</ele>
        <time>2019-10-12T08:57:13Z</time>
      </trkpt>
      <trkpt lat="47.326" lon="2.86502">
        <ele>139.19999694824</ele>
        <time>2019-10-12T08:57:18Z</time>
      </trkpt>
      <trkpt lat="47.32603" lon="2.86497">
        <ele>139</ele>
        <time>2019-10-12T08:57:23Z</time>
      </trkpt>
      <trkpt lat="47.32606" lon="2.8649">
        <ele>139</ele>
        <time>2019-10-12T08:57:28Z</time>
      </trkpt>
      <trkpt lat="47.3261" lon="2.86484">
        <ele>138.80000305176</ele>
        <time>2019-10-12T08:57:33Z</time>
      </trkpt>
      <trkpt lat="47.32614" lon="2.86478">
        <ele>138.60000610352</ele>
        <time>2019-10-12T08:57:38Z</time>
      </trkpt>
      <trkpt lat="47.32619" lon="2.86472">
        <ele>138.39999389648</ele>
        <time>2019-10-12T08:57:43Z</time>
      </trkpt>
      <trkpt lat="47.32622" lon="2.86464">
        <ele>138.39999389648</ele>
        <time>2019-10-12T08:57:48Z</time>
      </trkpt>
      <trkpt lat="47.32625" lon="2.86457">
        <ele>138.39999389648</ele>
        <time>2019-10-12T08:57:53Z</time>
      </trkpt>
      <trkpt lat="47.32629" lon="2.8645">
        <ele>138.39999389648</ele>
        <time>2019-10-12T08:57:58Z</time>
      </trkpt>
      <trkpt lat="47.32633" lon="2.86444">
        <ele>138.19999694824</ele>
        <time>2019-10-12T08:58:03Z</time>
      </trkpt>
      <trkpt lat="47.32636" lon="2.86438">
        <ele>138.19999694824</ele>
        <time>2019-10-12T08:58:08Z</time>
      </trkpt>
      <trkpt lat="47.32639" lon="2.86431">
        <ele>138.19999694824</ele>
        <time>2019-10-12T08:58:13Z</time>
      </trkpt>
      <trkpt lat="47.32642" lon="2.86423">
        <ele>138</ele>
        <time>2019-10-12T08:58:18Z</time>
      </trkpt>
      <trkpt lat="47.32645" lon="2.86417">
        <ele>138</ele>
        <time>2019-10-12T08:58:23Z</time>
      </trkpt>
      <trkpt lat="47.32649" lon="2.86411">
        <ele>137.80000305176</ele>
        <time>2019-10-12T08:58:28Z</time>
      </trkpt>
      <trkpt lat="47.32654" lon="2.86405">
        <ele>137.80000305176</ele>
        <time>2019-10-12T08:58:33Z</time>
      </trkpt>
      <trkpt lat="47.32657" lon="2.86399">
        <ele>137.80000305176</ele>
        <time>2019-10-12T08:58:38Z</time>
      </trkpt>
      <trkpt lat="47.32661" lon="2.86392">
        <ele>137.60000610352</ele>
        <time>2019-10-12T08:58:43Z</time>
      </trkpt>
      <trkpt lat="47.32664" lon="2.86387">
        <ele>137.60000610352</ele>
        <time>2019-10-12T08:58:48Z</time>
      </trkpt>
      <trkpt lat="47.32667" lon="2.8638">
        <ele>137.39999389648</ele>
        <time>2019-10-12T08:58:53Z</time>
      </trkpt>
      <trkpt lat="47.3267" lon="2.86373">
        <ele>137.39999389648</ele>
        <time>2019-10-12T08:58:58Z</time>
      </trkpt>
      <trkpt lat="47.32674" lon="2.86366">
        <ele>137.39999389648</ele>
        <time>2019-10-12T08:59:03Z</time>
      </trkpt>
      <trkpt lat="47.32679" lon="2.8636">
        <ele>137.39999389648</ele>
        <time>2019-10-12T08:59:08Z</time>
      </trkpt>
      <trkpt lat="47.32683" lon="2.86354">
        <ele>137.19999694824</ele>
        <time>2019-10-12T08:59:13Z</time>
      </trkpt>
      <trkpt lat="47.32686" lon="2.86346">
        <ele>137.19999694824</ele>
        <time>2019-10-12T08:59:18Z</time>
      </trkpt>
      <trkpt lat="47.3269" lon="2.8634">
        <ele>137.19999694824</ele>
        <time>2019-10-12T08:59:23Z</time>
      </trkpt>
      <trkpt lat="47.32694" lon="2.86335">
        <ele>137.39999389648</ele>
        <time>2019-10-12T08:59:28Z</time>
      </trkpt>
      <trkpt lat="47.32698" lon="2.8633">
        <ele>137.60000610352</ele>
        <time>2019-10-12T08:59:33Z</time>
      </trkpt>
      <trkpt lat="47.32701" lon="2.86325">
        <ele>137.80000305176</ele>
        <time>2019-10-12T08:59:38Z</time>
      </trkpt>
      <trkpt lat="47.32704" lon="2.86323">
        <ele>138</ele>
        <time>2019-10-12T08:59:43Z</time>
      </trkpt>
      <trkpt lat="47.32707" lon="2.86319">
        <ele>137.80000305176</ele>
        <time>2019-10-12T08:59:48Z</time>
      </trkpt>
      <trkpt lat="47.32712" lon="2.86313">
        <ele>137.39999389648</ele>
        <time>2019-10-12T08:59:53Z</time>
      </trkpt>
      <trkpt lat="47.32716" lon="2.86307">
        <ele>137.19999694824</ele>
        <time>2019-10-12T08:59:58Z</time>
      </trkpt>
      <trkpt lat="47.32719" lon="2.86301">
        <ele>136.80000305176</ele>
        <time>2019-10-12T09:00:03Z</time>
      </trkpt>
      <trkpt lat="47.32723" lon="2.86295">
        <ele>136.80000305176</ele>
        <time>2019-10-12T09:00:08Z</time>
      </trkpt>
      <trkpt lat="47.32727" lon="2.86289">
        <ele>136.80000305176</ele>
        <time>2019-10-12T09:00:13Z</time>
      </trkpt>
      <trkpt lat="47.32732" lon="2.86285">
        <ele>136.60000610352</ele>
        <time>2019-10-12T09:00:18Z</time>
      </trkpt>
      <trkpt lat="47.32737" lon="2.86279">
        <ele>136.60000610352</ele>
        <time>2019-10-12T09:00:23Z</time>
      </trkpt>
      <trkpt lat="47.32741" lon="2.86274">
        <ele>136.39999389648</ele>
        <time>2019-10-12T09:00:28Z</time>
      </trkpt>
      <trkpt lat="47.32745" lon="2.86268">
        <ele>136.19999694824</ele>
        <time>2019-10-12T09:00:33Z</time>
      </trkpt>
      <trkpt lat="47.32749" lon="2.86265">
        <ele>136.19999694824</ele>
        <time>2019-10-12T09:00:38Z</time>
      </trkpt>
      <trkpt lat="47.32753" lon="2.8626">
        <ele>136.19999694824</ele>
        <time>2019-10-12T09:00:43Z</time>
      </trkpt>
      <trkpt lat="47.32758" lon="2.86254">
        <ele>136.19999694824</ele>
        <time>2019-10-12T09:00:48Z</time>
      </trkpt>
      <trkpt lat="47.32762" lon="2.86253">
        <ele>136.19999694824</ele>
        <time>2019-10-12T09:00:53Z</time>
      </trkpt>
      <trkpt lat="47.32765" lon="2.86253">
        <ele>136.60000610352</ele>
        <time>2019-10-12T09:00:58Z</time>
      </trkpt>
      <trkpt lat="47.32767" lon="2.86254">
        <ele>136.60000610352</ele>
        <time>2019-10-12T09:01:03Z</time>
      </trkpt>
      <trkpt lat="47.32767" lon="2.86255">
        <ele>136.80000305176</ele>
        <time>2019-10-12T09:01:08Z</time>
      </trkpt>
      <trkpt lat="47.32767" lon="2.86258">
        <ele>136.80000305176</ele>
        <time>2019-10-12T09:01:13Z</time>
      </trkpt>
      <trkpt lat="47.32767" lon="2.86259">
        <ele>136.80000305176</ele>
        <time>2019-10-12T09:01:18Z</time>
      </trkpt>
      <trkpt lat="47.32768" lon="2.8626">
        <ele>136.80000305176</ele>
        <time>2019-10-12T09:01:23Z</time>
      </trkpt>
      <trkpt lat="47.32768" lon="2.8626">
        <ele>136.80000305176</ele>
        <time>2019-10-12T09:01:28Z</time>
      </trkpt>
      <trkpt lat="47.32767" lon="2.8626">
        <ele>136.80000305176</ele>
        <time>2019-10-12T09:01:33Z</time>
      </trkpt>
      <trkpt lat="47.32766" lon="2.8626">
        <ele>136.80000305176</ele>
        <time>2019-10-12T09:01:38Z</time>
      </trkpt>
      <trkpt lat="47.32766" lon="2.86259">
        <ele>136.80000305176</ele>
        <time>2019-10-12T09:01:43Z</time>
      </trkpt>
      <trkpt lat="47.32765" lon="2.86258">
        <ele>136.80000305176</ele>
        <time>2019-10-12T09:01:48Z</time>
      </trkpt>
      <trkpt lat="47.32764" lon="2.86257">
        <ele>136.80000305176</ele>
        <time>2019-10-12T09:01:53Z</time>
      </trkpt>
      <trkpt lat="47.32763" lon="2.86257">
        <ele>136.80000305176</ele>
        <time>2019-10-12T09:01:58Z</time>
      </trkpt>
      <trkpt lat="47.32764" lon="2.86255">
        <ele>137</ele>
        <time>2019-10-12T09:02:03Z</time>
      </trkpt>
      <trkpt lat="47.32763" lon="2.86255">
        <ele>137</ele>
        <time>2019-10-12T09:02:08Z</time>
      </trkpt>
      <trkpt lat="47.32763" lon="2.86254">
        <ele>137</ele>
        <time>2019-10-12T09:02:13Z</time>
      </trkpt>
      <trkpt lat="47.32764" lon="2.86254">
        <ele>137</ele>
        <time>2019-10-12T09:02:18Z</time>
      </trkpt>
      <trkpt lat="47.32765" lon="2.86253">
        <ele>137</ele>
        <time>2019-10-12T09:02:23Z</time>
      </trkpt>
      <trkpt lat="47.32766" lon="2.86253">
        <ele>137</ele>
        <time>2019-10-12T09:02:28Z</time>
      </trkpt>
      <trkpt lat="47.32766" lon="2.86254">
        <ele>137</ele>
        <time>2019-10-12T09:02:33Z</time>
      </trkpt>
      <trkpt lat="47.32767" lon="2.86254">
        <ele>137</ele>
        <time>2019-10-12T09:02:38Z</time>
      </trkpt>
      <trkpt lat="47.32767" lon="2.86254">
        <ele>137</ele>
        <time>2019-10-12T09:02:43Z</time>
      </trkpt>
      <trkpt lat="47.32767" lon="2.86254">
        <ele>137</ele>
        <time>2019-10-12T09:02:48Z</time>
      </trkpt>
      <trkpt lat="47.32768" lon="2.86254">
        <ele>137</ele>
        <time>2019-10-12T09:02:53Z</time>
      </trkpt>
      <trkpt lat="47.32768" lon="2.86254">
        <ele>137</ele>
        <time>2019-10-12T09:02:58Z</time>
      </trkpt>
      <trkpt lat="47.32768" lon="2.86255">
        <ele>137</ele>
        <time>2019-10-12T09:03:03Z</time>
      </trkpt>
      <trkpt lat="47.32768" lon="2.86255">
        <ele>137</ele>
        <time>2019-10-12T09:03:08Z</time>
      </trkpt>
      <trkpt lat="47.32768" lon="2.86255">
        <ele>137</ele>
        <time>2019-10-12T09:03:13Z</time>
      </trkpt>
      <trkpt lat="47.32767" lon="2.86255">
        <ele>137</ele>
        <time>2019-10-12T09:03:18Z</time>
      </trkpt>
      <trkpt lat="47.32767" lon="2.86255">
        <ele>137</ele>
        <time>2019-10-12T09:03:23Z</time>
      </trkpt>
      <trkpt lat="47.32767" lon="2.86255">
        <ele>137</ele>
        <time>2019-10-12T09:03:28Z</time>
      </trkpt>
      <trkpt lat="47.32767" lon="2.86255">
        <ele>137</ele>
        <time>2019-10-12T09:03:33Z</time>
      </trkpt>
      <trkpt lat="47.32767" lon="2.86256">
        <ele>137</ele>
        <time>2019-10-12T09:03:38Z</time>
      </trkpt>
      <trkpt lat="47.32767" lon="2.86255">
        <ele>137</ele>
        <time>2019-10-12T09:03:43Z</time>
      </trkpt>
      <trkpt lat="47.32767" lon="2.86256">
        <ele>137</ele>
        <time>2019-10-12T09:03:48Z</time>
      </trkpt>
      <trkpt lat="47.32767" lon="2.86255">
        <ele>137</ele>
        <time>2019-10-12T09:03:53Z</time>
      </trkpt>
      <trkpt lat="47.32767" lon="2.86255">
        <ele>137</ele>
        <time>2019-10-12T09:03:58Z</time>
      </trkpt>
      <trkpt lat="47.32767" lon="2.86255">
        <ele>137</ele>
        <time>2019-10-12T09:04:02Z</time>
      </trkpt>
      <trkpt lat="47.32767" lon="2.86255">
        <ele>137</ele>
        <time>2019-10-12T09:04:08Z</time>
      </trkpt>
      <trkpt lat="47.32767" lon="2.86256">
        <ele>137</ele>
        <time>2019-10-12T09:04:13Z</time>
      </trkpt>
      <trkpt lat="47.32769" lon="2.86257">
        <ele>137</ele>
        <time>2019-10-12T09:04:18Z</time>
      </trkpt>
      <trkpt lat="47.32775" lon="2.86261">
        <ele>137.19999694824</ele>
        <time>2019-10-12T09:04:23Z</time>
      </trkpt>
      <trkpt lat="47.3278" lon="2.86266">
        <ele>139.39999389648</ele>
        <time>2019-10-12T09:04:28Z</time>
      </trkpt>
      <trkpt lat="47.32784" lon="2.86272">
        <ele>139.80000305176</ele>
        <time>2019-10-12T09:04:33Z</time>
      </trkpt>
      <trkpt lat="47.32789" lon="2.86278">
        <ele>139.80000305176</ele>
        <time>2019-10-12T09:04:38Z</time>
      </trkpt>
      <trkpt lat="47.32793" lon="2.86283">
        <ele>140.19999694824</ele>
        <time>2019-10-12T09:04:43Z</time>
      </trkpt>
      <trkpt lat="47.32796" lon="2.8629">
        <ele>140.39999389648</ele>
        <time>2019-10-12T09:04:48Z</time>
      </trkpt>
      <trkpt lat="47.328" lon="2.86296">
        <ele>140.80000305176</ele>
        <time>2019-10-12T09:04:53Z</time>
      </trkpt>
      <trkpt lat="47.32804" lon="2.86302">
        <ele>141</ele>
        <time>2019-10-12T09:04:58Z</time>
      </trkpt>
      <trkpt lat="47.32808" lon="2.86309">
        <ele>141.19999694824</ele>
        <time>2019-10-12T09:05:03Z</time>
      </trkpt>
      <trkpt lat="47.32812" lon="2.86315">
        <ele>141.39999389648</ele>
        <time>2019-10-12T09:05:08Z</time>
      </trkpt>
      <trkpt lat="47.32816" lon="2.86321">
        <ele>141.19999694824</ele>
        <time>2019-10-12T09:05:13Z</time>
      </trkpt>
      <trkpt lat="47.32821" lon="2.86325">
        <ele>140.80000305176</ele>
        <time>2019-10-12T09:05:18Z</time>
      </trkpt>
      <trkpt lat="47.32827" lon="2.86328">
        <ele>140.80000305176</ele>
        <time>2019-10-12T09:05:23Z</time>
      </trkpt>
      <trkpt lat="47.32833" lon="2.8633">
        <ele>140.80000305176</ele>
        <time>2019-10-12T09:05:28Z</time>
      </trkpt>
      <trkpt lat="47.32839" lon="2.8633">
        <ele>140.80000305176</ele>
        <time>2019-10-12T09:05:33Z</time>
      </trkpt>
      <trkpt lat="47.32845" lon="2.86331">
        <ele>141</ele>
        <time>2019-10-12T09:05:38Z</time>
      </trkpt>
      <trkpt lat="47.32851" lon="2.86331">
        <ele>141</ele>
        <time>2019-10-12T09:05:43Z</time>
      </trkpt>
      <trkpt lat="47.32857" lon="2.86332">
        <ele>141.19999694824</ele>
        <time>2019-10-12T09:05:48Z</time>
      </trkpt>
      <trkpt lat="47.32863" lon="2.8633">
        <ele>141.19999694824</ele>
        <time>2019-10-12T09:05:53Z</time>
      </trkpt>
      <trkpt lat="47.32869" lon="2.8633">
        <ele>141.19999694824</ele>
        <time>2019-10-12T09:05:58Z</time>
      </trkpt>
      <trkpt lat="47.32875" lon="2.8633">
        <ele>141.19999694824</ele>
        <time>2019-10-12T09:06:03Z</time>
      </trkpt>
      <trkpt lat="47.32882" lon="2.86332">
        <ele>141.39999389648</ele>
        <time>2019-10-12T09:06:08Z</time>
      </trkpt>
      <trkpt lat="47.32888" lon="2.86333">
        <ele>141.39999389648</ele>
        <time>2019-10-12T09:06:13Z</time>
      </trkpt>
      <trkpt lat="47.32894" lon="2.86334">
        <ele>141.39999389648</ele>
        <time>2019-10-12T09:06:18Z</time>
      </trkpt>
      <trkpt lat="47.329" lon="2.86334">
        <ele>141.19999694824</ele>
        <time>2019-10-12T09:06:23Z</time>
      </trkpt>
      <trkpt lat="47.32907" lon="2.86333">
        <ele>141.19999694824</ele>
        <time>2019-10-12T09:06:28Z</time>
      </trkpt>
      <trkpt lat="47.32913" lon="2.86332">
        <ele>141.39999389648</ele>
        <time>2019-10-12T09:06:33Z</time>
      </trkpt>
      <trkpt lat="47.32919" lon="2.86331">
        <ele>141.39999389648</ele>
        <time>2019-10-12T09:06:38Z</time>
      </trkpt>
      <trkpt lat="47.32926" lon="2.8633">
        <ele>141.19999694824</ele>
        <time>2019-10-12T09:06:43Z</time>
      </trkpt>
      <trkpt lat="47.32933" lon="2.86329">
        <ele>141.19999694824</ele>
        <time>2019-10-12T09:06:48Z</time>
      </trkpt>
      <trkpt lat="47.32939" lon="2.86328">
        <ele>141</ele>
        <time>2019-10-12T09:06:53Z</time>
      </trkpt>
      <trkpt lat="47.32945" lon="2.86327">
        <ele>140.80000305176</ele>
        <time>2019-10-12T09:06:58Z</time>
      </trkpt>
      <trkpt lat="47.32951" lon="2.86325">
        <ele>140.60000610352</ele>
        <time>2019-10-12T09:07:03Z</time>
      </trkpt>
      <trkpt lat="47.32957" lon="2.86324">
        <ele>140.39999389648</ele>
        <time>2019-10-12T09:07:08Z</time>
      </trkpt>
      <trkpt lat="47.32963" lon="2.86322">
        <ele>140.39999389648</ele>
        <time>2019-10-12T09:07:13Z</time>
      </trkpt>
      <trkpt lat="47.32969" lon="2.86321">
        <ele>140.39999389648</ele>
        <time>2019-10-12T09:07:18Z</time>
      </trkpt>
      <trkpt lat="47.32975" lon="2.86319">
        <ele>140.19999694824</ele>
        <time>2019-10-12T09:07:23Z</time>
      </trkpt>
      <trkpt lat="47.32982" lon="2.86318">
        <ele>140.19999694824</ele>
        <time>2019-10-12T09:07:28Z</time>
      </trkpt>
      <trkpt lat="47.32987" lon="2.86318">
        <ele>140.19999694824</ele>
        <time>2019-10-12T09:07:33Z</time>
      </trkpt>
      <trkpt lat="47.32994" lon="2.86318">
        <ele>140.19999694824</ele>
        <time>2019-10-12T09:07:38Z</time>
      </trkpt>
      <trkpt lat="47.33" lon="2.86317">
        <ele>140.19999694824</ele>
        <time>2019-10-12T09:07:43Z</time>
      </trkpt>
      <trkpt lat="47.33007" lon="2.86317">
        <ele>140.19999694824</ele>
        <time>2019-10-12T09:07:48Z</time>
      </trkpt>
      <trkpt lat="47.33013" lon="2.86316">
        <ele>140</ele>
        <time>2019-10-12T09:07:53Z</time>
      </trkpt>
      <trkpt lat="47.33019" lon="2.86314">
        <ele>140</ele>
        <time>2019-10-12T09:07:58Z</time>
      </trkpt>
      <trkpt lat="47.33023" lon="2.86313">
        <ele>140</ele>
        <time>2019-10-12T09:08:03Z</time>
      </trkpt>
      <trkpt lat="47.33028" lon="2.86312">
        <ele>140</ele>
        <time>2019-10-12T09:08:08Z</time>
      </trkpt>
      <trkpt lat="47.33034" lon="2.86312">
        <ele>140</ele>
        <time>2019-10-12T09:08:13Z</time>
      </trkpt>
      <trkpt lat="47.33041" lon="2.86311">
        <ele>140</ele>
        <time>2019-10-12T09:08:18Z</time>
      </trkpt>
      <trkpt lat="47.33048" lon="2.8631">
        <ele>140</ele>
        <time>2019-10-12T09:08:23Z</time>
      </trkpt>
      <trkpt lat="47.33055" lon="2.86309">
        <ele>140</ele>
        <time>2019-10-12T09:08:28Z</time>
      </trkpt>
      <trkpt lat="47.3306" lon="2.86309">
        <ele>140</ele>
        <time>2019-10-12T09:08:33Z</time>
      </trkpt>
      <trkpt lat="47.33065" lon="2.8631">
        <ele>140</ele>
        <time>2019-10-12T09:08:38Z</time>
      </trkpt>
      <trkpt lat="47.33072" lon="2.86313">
        <ele>140</ele>
        <time>2019-10-12T09:08:43Z</time>
      </trkpt>
      <trkpt lat="47.33078" lon="2.86313">
        <ele>140</ele>
        <time>2019-10-12T09:08:48Z</time>
      </trkpt>
      <trkpt lat="47.33083" lon="2.86311">
        <ele>140</ele>
        <time>2019-10-12T09:08:53Z</time>
      </trkpt>
      <trkpt lat="47.3309" lon="2.86308">
        <ele>140</ele>
        <time>2019-10-12T09:08:58Z</time>
      </trkpt>
      <trkpt lat="47.33095" lon="2.86308">
        <ele>140.19999694824</ele>
        <time>2019-10-12T09:09:03Z</time>
      </trkpt>
      <trkpt lat="47.33101" lon="2.86309">
        <ele>140.19999694824</ele>
        <time>2019-10-12T09:09:08Z</time>
      </trkpt>
      <trkpt lat="47.33106" lon="2.86311">
        <ele>140.19999694824</ele>
        <time>2019-10-12T09:09:13Z</time>
      </trkpt>
      <trkpt lat="47.33112" lon="2.86312">
        <ele>140</ele>
        <time>2019-10-12T09:09:18Z</time>
      </trkpt>
      <trkpt lat="47.33118" lon="2.86311">
        <ele>140</ele>
        <time>2019-10-12T09:09:23Z</time>
      </trkpt>
      <trkpt lat="47.33123" lon="2.86311">
        <ele>140</ele>
        <time>2019-10-12T09:09:28Z</time>
      </trkpt>
      <trkpt lat="47.33129" lon="2.8631">
        <ele>140.19999694824</ele>
        <time>2019-10-12T09:09:33Z</time>
      </trkpt>
      <trkpt lat="47.33136" lon="2.86309">
        <ele>140.19999694824</ele>
        <time>2019-10-12T09:09:38Z</time>
      </trkpt>
      <trkpt lat="47.33142" lon="2.8631">
        <ele>140</ele>
        <time>2019-10-12T09:09:43Z</time>
      </trkpt>
      <trkpt lat="47.33148" lon="2.86311">
        <ele>140.19999694824</ele>
        <time>2019-10-12T09:09:48Z</time>
      </trkpt>
      <trkpt lat="47.33154" lon="2.86313">
        <ele>140.39999389648</ele>
        <time>2019-10-12T09:09:53Z</time>
      </trkpt>
      <trkpt lat="47.33158" lon="2.86313">
        <ele>140.80000305176</ele>
        <time>2019-10-12T09:09:58Z</time>
      </trkpt>
      <trkpt lat="47.33165" lon="2.86312">
        <ele>141</ele>
        <time>2019-10-12T09:10:03Z</time>
      </trkpt>
      <trkpt lat="47.33171" lon="2.86311">
        <ele>140.60000610352</ele>
        <time>2019-10-12T09:10:08Z</time>
      </trkpt>
      <trkpt lat="47.33178" lon="2.86308">
        <ele>140.39999389648</ele>
        <time>2019-10-12T09:10:13Z</time>
      </trkpt>
      <trkpt lat="47.33184" lon="2.86306">
        <ele>140.60000610352</ele>
        <time>2019-10-12T09:10:18Z</time>
      </trkpt>
      <trkpt lat="47.3319" lon="2.86305">
        <ele>140.60000610352</ele>
        <time>2019-10-12T09:10:23Z</time>
      </trkpt>
      <trkpt lat="47.33197" lon="2.86305">
        <ele>140.80000305176</ele>
        <time>2019-10-12T09:10:28Z</time>
      </trkpt>
      <trkpt lat="47.33203" lon="2.86302">
        <ele>140.80000305176</ele>
        <time>2019-10-12T09:10:33Z</time>
      </trkpt>
      <trkpt lat="47.33208" lon="2.86299">
        <ele>140.60000610352</ele>
        <time>2019-10-12T09:10:38Z</time>
      </trkpt>
      <trkpt lat="47.33214" lon="2.86297">
        <ele>140.80000305176</ele>
        <time>2019-10-12T09:10:43Z</time>
      </trkpt>
      <trkpt lat="47.3322" lon="2.86295">
        <ele>140.80000305176</ele>
        <time>2019-10-12T09:10:48Z</time>
      </trkpt>
      <trkpt lat="47.33225" lon="2.86292">
        <ele>140.80000305176</ele>
        <time>2019-10-12T09:10:53Z</time>
      </trkpt>
      <trkpt lat="47.33231" lon="2.8629">
        <ele>140.60000610352</ele>
        <time>2019-10-12T09:10:58Z</time>
      </trkpt>
      <trkpt lat="47.33238" lon="2.86286">
        <ele>140.39999389648</ele>
        <time>2019-10-12T09:11:03Z</time>
      </trkpt>
      <trkpt lat="47.33243" lon="2.86284">
        <ele>140.19999694824</ele>
        <time>2019-10-12T09:11:08Z</time>
      </trkpt>
      <trkpt lat="47.33249" lon="2.86282">
        <ele>140.19999694824</ele>
        <time>2019-10-12T09:11:13Z</time>
      </trkpt>
      <trkpt lat="47.33254" lon="2.8628">
        <ele>140</ele>
        <time>2019-10-12T09:11:18Z</time>
      </trkpt>
      <trkpt lat="47.3326" lon="2.86277">
        <ele>140</ele>
        <time>2019-10-12T09:11:23Z</time>
      </trkpt>
      <trkpt lat="47.33266" lon="2.86275">
        <ele>140</ele>
        <time>2019-10-12T09:11:28Z</time>
      </trkpt>
      <trkpt lat="47.33271" lon="2.86272">
        <ele>140</ele>
        <time>2019-10-12T09:11:33Z</time>
      </trkpt>
      <trkpt lat="47.33277" lon="2.8627">
        <ele>140</ele>
        <time>2019-10-12T09:11:38Z</time>
      </trkpt>
      <trkpt lat="47.33284" lon="2.86268">
        <ele>140</ele>
        <time>2019-10-12T09:11:43Z</time>
      </trkpt>
      <trkpt lat="47.3329" lon="2.86268">
        <ele>139.80000305176</ele>
        <time>2019-10-12T09:11:48Z</time>
      </trkpt>
      <trkpt lat="47.33296" lon="2.86267">
        <ele>139.80000305176</ele>
        <time>2019-10-12T09:11:53Z</time>
      </trkpt>
      <trkpt lat="47.33303" lon="2.86266">
        <ele>139.80000305176</ele>
        <time>2019-10-12T09:11:58Z</time>
      </trkpt>
      <trkpt lat="47.33309" lon="2.86263">
        <ele>139.80000305176</ele>
        <time>2019-10-12T09:12:03Z</time>
      </trkpt>
      <trkpt lat="47.33315" lon="2.86261">
        <ele>139.80000305176</ele>
        <time>2019-10-12T09:12:08Z</time>
      </trkpt>
      <trkpt lat="47.3332" lon="2.8626">
        <ele>139.80000305176</ele>
        <time>2019-10-12T09:12:13Z</time>
      </trkpt>
      <trkpt lat="47.33327" lon="2.86259">
        <ele>139.80000305176</ele>
        <time>2019-10-12T09:12:18Z</time>
      </trkpt>
      <trkpt lat="47.33332" lon="2.86257">
        <ele>140</ele>
        <time>2019-10-12T09:12:23Z</time>
      </trkpt>
      <trkpt lat="47.33338" lon="2.86255">
        <ele>140</ele>
        <time>2019-10-12T09:12:28Z</time>
      </trkpt>
      <trkpt lat="47.33344" lon="2.86255">
        <ele>140.19999694824</ele>
        <time>2019-10-12T09:12:33Z</time>
      </trkpt>
      <trkpt lat="47.3335" lon="2.86255">
        <ele>140.39999389648</ele>
        <time>2019-10-12T09:12:38Z</time>
      </trkpt>
      <trkpt lat="47.33356" lon="2.86254">
        <ele>140.39999389648</ele>
        <time>2019-10-12T09:12:43Z</time>
      </trkpt>
      <trkpt lat="47.33362" lon="2.86254">
        <ele>140.39999389648</ele>
        <time>2019-10-12T09:12:48Z</time>
      </trkpt>
      <trkpt lat="47.33369" lon="2.86254">
        <ele>140.39999389648</ele>
        <time>2019-10-12T09:12:53Z</time>
      </trkpt>
      <trkpt lat="47.33375" lon="2.86254">
        <ele>140.39999389648</ele>
        <time>2019-10-12T09:12:58Z</time>
      </trkpt>
      <trkpt lat="47.3338" lon="2.86253">
        <ele>140.19999694824</ele>
        <time>2019-10-12T09:13:03Z</time>
      </trkpt>
      <trkpt lat="47.33386" lon="2.86252">
        <ele>140.19999694824</ele>
        <time>2019-10-12T09:13:08Z</time>
      </trkpt>
      <trkpt lat="47.33393" lon="2.86252">
        <ele>140.19999694824</ele>
        <time>2019-10-12T09:13:13Z</time>
      </trkpt>
      <trkpt lat="47.33399" lon="2.86253">
        <ele>140.19999694824</ele>
        <time>2019-10-12T09:13:18Z</time>
      </trkpt>
      <trkpt lat="47.33405" lon="2.86255">
        <ele>140.19999694824</ele>
        <time>2019-10-12T09:13:23Z</time>
      </trkpt>
      <trkpt lat="47.33412" lon="2.86256">
        <ele>140.19999694824</ele>
        <time>2019-10-12T09:13:28Z</time>
      </trkpt>
      <trkpt lat="47.33418" lon="2.86257">
        <ele>140.19999694824</ele>
        <time>2019-10-12T09:13:33Z</time>
      </trkpt>
      <trkpt lat="47.33423" lon="2.86259">
        <ele>140.39999389648</ele>
        <time>2019-10-12T09:13:38Z</time>
      </trkpt>
      <trkpt lat="47.33428" lon="2.86263">
        <ele>140.39999389648</ele>
        <time>2019-10-12T09:13:43Z</time>
      </trkpt>
      <trkpt lat="47.33435" lon="2.86265">
        <ele>140.19999694824</ele>
        <time>2019-10-12T09:13:48Z</time>
      </trkpt>
      <trkpt lat="47.33441" lon="2.86268">
        <ele>140.19999694824</ele>
        <time>2019-10-12T09:13:53Z</time>
      </trkpt>
      <trkpt lat="47.33446" lon="2.86271">
        <ele>140.19999694824</ele>
        <time>2019-10-12T09:13:58Z</time>
      </trkpt>
      <trkpt lat="47.33451" lon="2.86273">
        <ele>140.19999694824</ele>
        <time>2019-10-12T09:14:03Z</time>
      </trkpt>
      <trkpt lat="47.33456" lon="2.86276">
        <ele>140.19999694824</ele>
        <time>2019-10-12T09:14:08Z</time>
      </trkpt>
      <trkpt lat="47.33462" lon="2.86277">
        <ele>140.19999694824</ele>
        <time>2019-10-12T09:14:13Z</time>
      </trkpt>
      <trkpt lat="47.33468" lon="2.86278">
        <ele>140.19999694824</ele>
        <time>2019-10-12T09:14:18Z</time>
      </trkpt>
      <trkpt lat="47.33472" lon="2.86281">
        <ele>140.19999694824</ele>
        <time>2019-10-12T09:14:23Z</time>
      </trkpt>
      <trkpt lat="47.33477" lon="2.86283">
        <ele>140.19999694824</ele>
        <time>2019-10-12T09:14:28Z</time>
      </trkpt>
      <trkpt lat="47.33481" lon="2.86286">
        <ele>140.39999389648</ele>
        <time>2019-10-12T09:14:33Z</time>
      </trkpt>
      <trkpt lat="47.33487" lon="2.86291">
        <ele>140.39999389648</ele>
        <time>2019-10-12T09:14:38Z</time>
      </trkpt>
      <trkpt lat="47.33492" lon="2.86297">
        <ele>140.39999389648</ele>
        <time>2019-10-12T09:14:43Z</time>
      </trkpt>
      <trkpt lat="47.33497" lon="2.86302">
        <ele>140.39999389648</ele>
        <time>2019-10-12T09:14:48Z</time>
      </trkpt>
      <trkpt lat="47.33502" lon="2.86308">
        <ele>140.39999389648</ele>
        <time>2019-10-12T09:14:53Z</time>
      </trkpt>
      <trkpt lat="47.33508" lon="2.86312">
        <ele>140.39999389648</ele>
        <time>2019-10-12T09:14:58Z</time>
      </trkpt>
      <trkpt lat="47.33512" lon="2.86318">
        <ele>140.39999389648</ele>
        <time>2019-10-12T09:15:03Z</time>
      </trkpt>
      <trkpt lat="47.33516" lon="2.86325">
        <ele>140.39999389648</ele>
        <time>2019-10-12T09:15:08Z</time>
      </trkpt>
      <trkpt lat="47.33518" lon="2.86332">
        <ele>140.60000610352</ele>
        <time>2019-10-12T09:15:13Z</time>
      </trkpt>
      <trkpt lat="47.3352" lon="2.86339">
        <ele>140.60000610352</ele>
        <time>2019-10-12T09:15:18Z</time>
      </trkpt>
      <trkpt lat="47.33522" lon="2.86345">
        <ele>140.60000610352</ele>
        <time>2019-10-12T09:15:23Z</time>
      </trkpt>
      <trkpt lat="47.33524" lon="2.86352">
        <ele>140.60000610352</ele>
        <time>2019-10-12T09:15:28Z</time>
      </trkpt>
      <trkpt lat="47.33526" lon="2.86359">
        <ele>140.60000610352</ele>
        <time>2019-10-12T09:15:33Z</time>
      </trkpt>
      <trkpt lat="47.33529" lon="2.86366">
        <ele>140.80000305176</ele>
        <time>2019-10-12T09:15:38Z</time>
      </trkpt>
      <trkpt lat="47.33531" lon="2.86372">
        <ele>140.80000305176</ele>
        <time>2019-10-12T09:15:43Z</time>
      </trkpt>
      <trkpt lat="47.33534" lon="2.8638">
        <ele>140.80000305176</ele>
        <time>2019-10-12T09:15:48Z</time>
      </trkpt>
      <trkpt lat="47.33538" lon="2.86386">
        <ele>141</ele>
        <time>2019-10-12T09:15:53Z</time>
      </trkpt>
      <trkpt lat="47.33541" lon="2.86392">
        <ele>141.19999694824</ele>
        <time>2019-10-12T09:15:58Z</time>
      </trkpt>
      <trkpt lat="47.33544" lon="2.86399">
        <ele>141.19999694824</ele>
        <time>2019-10-12T09:16:03Z</time>
      </trkpt>
      <trkpt lat="47.33548" lon="2.86405">
        <ele>141.39999389648</ele>
        <time>2019-10-12T09:16:08Z</time>
      </trkpt>
      <trkpt lat="47.33551" lon="2.86408">
        <ele>141.60000610352</ele>
        <time>2019-10-12T09:16:13Z</time>
      </trkpt>
      <trkpt lat="47.33553" lon="2.86412">
        <ele>141.80000305176</ele>
        <time>2019-10-12T09:16:18Z</time>
      </trkpt>
      <trkpt lat="47.33554" lon="2.86417">
        <ele>141.60000610352</ele>
        <time>2019-10-12T09:16:23Z</time>
      </trkpt>
      <trkpt lat="47.33556" lon="2.86421">
        <ele>141.60000610352</ele>
        <time>2019-10-12T09:16:28Z</time>
      </trkpt>
      <trkpt lat="47.33558" lon="2.86426">
        <ele>141.60000610352</ele>
        <time>2019-10-12T09:16:33Z</time>
      </trkpt>
      <trkpt lat="47.3356" lon="2.8643">
        <ele>141.60000610352</ele>
        <time>2019-10-12T09:16:38Z</time>
      </trkpt>
      <trkpt lat="47.33562" lon="2.86434">
        <ele>141.39999389648</ele>
        <time>2019-10-12T09:16:43Z</time>
      </trkpt>
      <trkpt lat="47.33564" lon="2.86437">
        <ele>141.39999389648</ele>
        <time>2019-10-12T09:16:48Z</time>
      </trkpt>
      <trkpt lat="47.33567" lon="2.8644">
        <ele>141.39999389648</ele>
        <time>2019-10-12T09:16:53Z</time>
      </trkpt>
      <trkpt lat="47.33569" lon="2.86444">
        <ele>141.39999389648</ele>
        <time>2019-10-12T09:16:58Z</time>
      </trkpt>
      <trkpt lat="47.33573" lon="2.86448">
        <ele>141.39999389648</ele>
        <time>2019-10-12T09:17:03Z</time>
      </trkpt>
      <trkpt lat="47.33577" lon="2.86455">
        <ele>141.60000610352</ele>
        <time>2019-10-12T09:17:08Z</time>
      </trkpt>
      <trkpt lat="47.3358" lon="2.86462">
        <ele>141.60000610352</ele>
        <time>2019-10-12T09:17:13Z</time>
      </trkpt>
      <trkpt lat="47.33583" lon="2.86469">
        <ele>141.39999389648</ele>
        <time>2019-10-12T09:17:18Z</time>
      </trkpt>
      <trkpt lat="47.33585" lon="2.86475">
        <ele>141.19999694824</ele>
        <time>2019-10-12T09:17:23Z</time>
      </trkpt>
      <trkpt lat="47.33588" lon="2.8648">
        <ele>141.19999694824</ele>
        <time>2019-10-12T09:17:28Z</time>
      </trkpt>
      <trkpt lat="47.3359" lon="2.86485">
        <ele>141.19999694824</ele>
        <time>2019-10-12T09:17:33Z</time>
      </trkpt>
      <trkpt lat="47.33592" lon="2.86492">
        <ele>141.19999694824</ele>
        <time>2019-10-12T09:17:38Z</time>
      </trkpt>
      <trkpt lat="47.33593" lon="2.865">
        <ele>141</ele>
        <time>2019-10-12T09:17:43Z</time>
      </trkpt>
      <trkpt lat="47.33596" lon="2.86505">
        <ele>141</ele>
        <time>2019-10-12T09:17:48Z</time>
      </trkpt>
      <trkpt lat="47.33599" lon="2.8651">
        <ele>140.60000610352</ele>
        <time>2019-10-12T09:17:53Z</time>
      </trkpt>
      <trkpt lat="47.33602" lon="2.86516">
        <ele>140.60000610352</ele>
        <time>2019-10-12T09:17:58Z</time>
      </trkpt>
      <trkpt lat="47.33606" lon="2.86521">
        <ele>140.80000305176</ele>
        <time>2019-10-12T09:18:03Z</time>
      </trkpt>
      <trkpt lat="47.33608" lon="2.86527">
        <ele>140.80000305176</ele>
        <time>2019-10-12T09:18:08Z</time>
      </trkpt>
      <trkpt lat="47.33612" lon="2.86533">
        <ele>140.80000305176</ele>
        <time>2019-10-12T09:18:13Z</time>
      </trkpt>
      <trkpt lat="47.33614" lon="2.86539">
        <ele>140.80000305176</ele>
        <time>2019-10-12T09:18:17Z</time>
      </trkpt>
      <trkpt lat="47.33618" lon="2.86546">
        <ele>141</ele>
        <time>2019-10-12T09:18:23Z</time>
      </trkpt>
      <trkpt lat="47.3362" lon="2.86551">
        <ele>141</ele>
        <time>2019-10-12T09:18:28Z</time>
      </trkpt>
      <trkpt lat="47.33624" lon="2.86557">
        <ele>140.80000305176</ele>
        <time>2019-10-12T09:18:33Z</time>
      </trkpt>
      <trkpt lat="47.33626" lon="2.86561">
        <ele>140.80000305176</ele>
        <time>2019-10-12T09:18:38Z</time>
      </trkpt>
      <trkpt lat="47.33629" lon="2.86564">
        <ele>140.80000305176</ele>
        <time>2019-10-12T09:18:43Z</time>
      </trkpt>
      <trkpt lat="47.33631" lon="2.86569">
        <ele>140.60000610352</ele>
        <time>2019-10-12T09:18:48Z</time>
      </trkpt>
      <trkpt lat="47.33633" lon="2.86573">
        <ele>140.80000305176</ele>
        <time>2019-10-12T09:18:53Z</time>
      </trkpt>
      <trkpt lat="47.33637" lon="2.86577">
        <ele>140.80000305176</ele>
        <time>2019-10-12T09:18:58Z</time>
      </trkpt>
      <trkpt lat="47.33641" lon="2.86581">
        <ele>140.80000305176</ele>
        <time>2019-10-12T09:19:03Z</time>
      </trkpt>
      <trkpt lat="47.33644" lon="2.86586">
        <ele>140.80000305176</ele>
        <time>2019-10-12T09:19:08Z</time>
      </trkpt>
      <trkpt lat="47.33648" lon="2.8659">
        <ele>140.80000305176</ele>
        <time>2019-10-12T09:19:13Z</time>
      </trkpt>
      <trkpt lat="47.33651" lon="2.86595">
        <ele>140.80000305176</ele>
        <time>2019-10-12T09:19:18Z</time>
      </trkpt>
      <trkpt lat="47.33656" lon="2.86599">
        <ele>140.80000305176</ele>
        <time>2019-10-12T09:19:23Z</time>
      </trkpt>
      <trkpt lat="47.33659" lon="2.86604">
        <ele>140.80000305176</ele>
        <time>2019-10-12T09:19:28Z</time>
      </trkpt>
      <trkpt lat="47.33663" lon="2.86607">
        <ele>141</ele>
        <time>2019-10-12T09:19:33Z</time>
      </trkpt>
      <trkpt lat="47.33668" lon="2.86608">
        <ele>140.80000305176</ele>
        <time>2019-10-12T09:19:38Z</time>
      </trkpt>
      <trkpt lat="47.33672" lon="2.86611">
        <ele>140.80000305176</ele>
        <time>2019-10-12T09:19:43Z</time>
      </trkpt>
      <trkpt lat="47.33673" lon="2.86612">
        <ele>140.80000305176</ele>
        <time>2019-10-12T09:19:48Z</time>
      </trkpt>
      <trkpt lat="47.33676" lon="2.86615">
        <ele>140.80000305176</ele>
        <time>2019-10-12T09:19:53Z</time>
      </trkpt>
      <trkpt lat="47.33679" lon="2.8662">
        <ele>140.80000305176</ele>
        <time>2019-10-12T09:19:58Z</time>
      </trkpt>
      <trkpt lat="47.33681" lon="2.86622">
        <ele>140.80000305176</ele>
        <time>2019-10-12T09:20:03Z</time>
      </trkpt>
      <trkpt lat="47.33683" lon="2.86621">
        <ele>140.80000305176</ele>
        <time>2019-10-12T09:20:08Z</time>
      </trkpt>
      <trkpt lat="47.33686" lon="2.86623">
        <ele>140.80000305176</ele>
        <time>2019-10-12T09:20:13Z</time>
      </trkpt>
      <trkpt lat="47.3369" lon="2.86628">
        <ele>140.80000305176</ele>
        <time>2019-10-12T09:20:18Z</time>
      </trkpt>
      <trkpt lat="47.33695" lon="2.86631">
        <ele>140.80000305176</ele>
        <time>2019-10-12T09:20:23Z</time>
      </trkpt>
      <trkpt lat="47.337" lon="2.86634">
        <ele>140.60000610352</ele>
        <time>2019-10-12T09:20:28Z</time>
      </trkpt>
      <trkpt lat="47.33704" lon="2.86637">
        <ele>140.60000610352</ele>
        <time>2019-10-12T09:20:33Z</time>
      </trkpt>
      <trkpt lat="47.33709" lon="2.86642">
        <ele>140.60000610352</ele>
        <time>2019-10-12T09:20:38Z</time>
      </trkpt>
      <trkpt lat="47.33713" lon="2.86647">
        <ele>140.60000610352</ele>
        <time>2019-10-12T09:20:43Z</time>
      </trkpt>
      <trkpt lat="47.33719" lon="2.8665">
        <ele>140.60000610352</ele>
        <time>2019-10-12T09:20:48Z</time>
      </trkpt>
      <trkpt lat="47.33724" lon="2.86653">
        <ele>140.60000610352</ele>
        <time>2019-10-12T09:20:53Z</time>
      </trkpt>
      <trkpt lat="47.33729" lon="2.86657">
        <ele>140.80000305176</ele>
        <time>2019-10-12T09:20:58Z</time>
      </trkpt>
      <trkpt lat="47.33734" lon="2.86657">
        <ele>140.80000305176</ele>
        <time>2019-10-12T09:21:03Z</time>
      </trkpt>
      <trkpt lat="47.33739" lon="2.86657">
        <ele>140.60000610352</ele>
        <time>2019-10-12T09:21:08Z</time>
      </trkpt>
      <trkpt lat="47.33744" lon="2.86659">
        <ele>140.60000610352</ele>
        <time>2019-10-12T09:21:13Z</time>
      </trkpt>
      <trkpt lat="47.33748" lon="2.86661">
        <ele>140.60000610352</ele>
        <time>2019-10-12T09:21:18Z</time>
      </trkpt>
      <trkpt lat="47.33753" lon="2.86661">
        <ele>140.60000610352</ele>
        <time>2019-10-12T09:21:23Z</time>
      </trkpt>
      <trkpt lat="47.33757" lon="2.86658">
        <ele>140.60000610352</ele>
        <time>2019-10-12T09:21:28Z</time>
      </trkpt>
      <trkpt lat="47.33762" lon="2.86658">
        <ele>140.60000610352</ele>
        <time>2019-10-12T09:21:33Z</time>
      </trkpt>
      <trkpt lat="47.33767" lon="2.86658">
        <ele>140.60000610352</ele>
        <time>2019-10-12T09:21:38Z</time>
      </trkpt>
      <trkpt lat="47.33772" lon="2.8666">
        <ele>140.60000610352</ele>
        <time>2019-10-12T09:21:43Z</time>
      </trkpt>
      <trkpt lat="47.33777" lon="2.8666">
        <ele>140.60000610352</ele>
        <time>2019-10-12T09:21:48Z</time>
      </trkpt>
      <trkpt lat="47.33782" lon="2.86659">
        <ele>140.60000610352</ele>
        <time>2019-10-12T09:21:53Z</time>
      </trkpt>
      <trkpt lat="47.33787" lon="2.86658">
        <ele>140.60000610352</ele>
        <time>2019-10-12T09:21:58Z</time>
      </trkpt>
      <trkpt lat="47.33793" lon="2.86657">
        <ele>140.60000610352</ele>
        <time>2019-10-12T09:22:03Z</time>
      </trkpt>
      <trkpt lat="47.33798" lon="2.86657">
        <ele>140.60000610352</ele>
        <time>2019-10-12T09:22:08Z</time>
      </trkpt>
      <trkpt lat="47.33803" lon="2.86656">
        <ele>140.39999389648</ele>
        <time>2019-10-12T09:22:13Z</time>
      </trkpt>
      <trkpt lat="47.33809" lon="2.86658">
        <ele>140.39999389648</ele>
        <time>2019-10-12T09:22:18Z</time>
      </trkpt>
      <trkpt lat="47.33813" lon="2.8666">
        <ele>140.39999389648</ele>
        <time>2019-10-12T09:22:23Z</time>
      </trkpt>
      <trkpt lat="47.33816" lon="2.86661">
        <ele>140.60000610352</ele>
        <time>2019-10-12T09:22:28Z</time>
      </trkpt>
      <trkpt lat="47.33816" lon="2.86661">
        <ele>140.60000610352</ele>
        <time>2019-10-12T09:22:33Z</time>
      </trkpt>
      <trkpt lat="47.33817" lon="2.86662">
        <ele>140.60000610352</ele>
        <time>2019-10-12T09:22:38Z</time>
      </trkpt>
      <trkpt lat="47.33817" lon="2.86663">
        <ele>140.60000610352</ele>
        <time>2019-10-12T09:22:43Z</time>
      </trkpt>
      <trkpt lat="47.33817" lon="2.86663">
        <ele>140.60000610352</ele>
        <time>2019-10-12T09:22:48Z</time>
      </trkpt>
      <trkpt lat="47.33817" lon="2.86663">
        <ele>140.60000610352</ele>
        <time>2019-10-12T09:22:53Z</time>
      </trkpt>
      <trkpt lat="47.33817" lon="2.86664">
        <ele>140.60000610352</ele>
        <time>2019-10-12T09:22:58Z</time>
      </trkpt>
      <trkpt lat="47.33817" lon="2.86664">
        <ele>140.60000610352</ele>
        <time>2019-10-12T09:23:03Z</time>
      </trkpt>
      <trkpt lat="47.33818" lon="2.86665">
        <ele>140.60000610352</ele>
        <time>2019-10-12T09:23:08Z</time>
      </trkpt>
      <trkpt lat="47.33818" lon="2.86666">
        <ele>140.60000610352</ele>
        <time>2019-10-12T09:23:13Z</time>
      </trkpt>
      <trkpt lat="47.33821" lon="2.8667">
        <ele>140.60000610352</ele>
        <time>2019-10-12T09:23:18Z</time>
      </trkpt>
      <trkpt lat="47.33825" lon="2.86672">
        <ele>140.60000610352</ele>
        <time>2019-10-12T09:23:23Z</time>
      </trkpt>
      <trkpt lat="47.33825" lon="2.86673">
        <ele>140.60000610352</ele>
        <time>2019-10-12T09:23:28Z</time>
      </trkpt>
      <trkpt lat="47.33826" lon="2.86673">
        <ele>140.60000610352</ele>
        <time>2019-10-12T09:23:33Z</time>
      </trkpt>
      <trkpt lat="47.33826" lon="2.86673">
        <ele>140.60000610352</ele>
        <time>2019-10-12T09:23:38Z</time>
      </trkpt>
      <trkpt lat="47.33826" lon="2.86673">
        <ele>140.60000610352</ele>
        <time>2019-10-12T09:23:43Z</time>
      </trkpt>
      <trkpt lat="47.33826" lon="2.86673">
        <ele>140.60000610352</ele>
        <time>2019-10-12T09:23:48Z</time>
      </trkpt>
      <trkpt lat="47.33826" lon="2.86673">
        <ele>140.60000610352</ele>
        <time>2019-10-12T09:23:53Z</time>
      </trkpt>
      <trkpt lat="47.33826" lon="2.86672">
        <ele>140.60000610352</ele>
        <time>2019-10-12T09:23:58Z</time>
      </trkpt>
      <trkpt lat="47.33827" lon="2.86672">
        <ele>140.60000610352</ele>
        <time>2019-10-12T09:24:03Z</time>
      </trkpt>
      <trkpt lat="47.33827" lon="2.86672">
        <ele>140.60000610352</ele>
        <time>2019-10-12T09:24:08Z</time>
      </trkpt>
      <trkpt lat="47.33828" lon="2.86673">
        <ele>140.60000610352</ele>
        <time>2019-10-12T09:24:13Z</time>
      </trkpt>
      <trkpt lat="47.33828" lon="2.86673">
        <ele>140.60000610352</ele>
        <time>2019-10-12T09:24:18Z</time>
      </trkpt>
      <trkpt lat="47.33828" lon="2.86672">
        <ele>140.60000610352</ele>
        <time>2019-10-12T09:24:23Z</time>
      </trkpt>
      <trkpt lat="47.33828" lon="2.86671">
        <ele>140.60000610352</ele>
        <time>2019-10-12T09:24:28Z</time>
      </trkpt>
      <trkpt lat="47.33829" lon="2.86671">
        <ele>140.60000610352</ele>
        <time>2019-10-12T09:24:33Z</time>
      </trkpt>
      <trkpt lat="47.33828" lon="2.86672">
        <ele>140.60000610352</ele>
        <time>2019-10-12T09:24:38Z</time>
      </trkpt>
      <trkpt lat="47.33828" lon="2.86673">
        <ele>140.60000610352</ele>
        <time>2019-10-12T09:24:43Z</time>
      </trkpt>
      <trkpt lat="47.33828" lon="2.86674">
        <ele>140.60000610352</ele>
        <time>2019-10-12T09:24:48Z</time>
      </trkpt>
      <trkpt lat="47.33828" lon="2.86674">
        <ele>140.60000610352</ele>
        <time>2019-10-12T09:24:53Z</time>
      </trkpt>
      <trkpt lat="47.33828" lon="2.86675">
        <ele>140.60000610352</ele>
        <time>2019-10-12T09:24:58Z</time>
      </trkpt>
      <trkpt lat="47.33828" lon="2.86675">
        <ele>140.60000610352</ele>
        <time>2019-10-12T09:25:03Z</time>
      </trkpt>
      <trkpt lat="47.33829" lon="2.86675">
        <ele>140.60000610352</ele>
        <time>2019-10-12T09:25:08Z</time>
      </trkpt>
      <trkpt lat="47.33829" lon="2.86675">
        <ele>140.60000610352</ele>
        <time>2019-10-12T09:25:13Z</time>
      </trkpt>
      <trkpt lat="47.3383" lon="2.86675">
        <ele>140.60000610352</ele>
        <time>2019-10-12T09:25:18Z</time>
      </trkpt>
      <trkpt lat="47.33832" lon="2.86671">
        <ele>140.60000610352</ele>
        <time>2019-10-12T09:25:23Z</time>
      </trkpt>
      <trkpt lat="47.33832" lon="2.86665">
        <ele>140.80000305176</ele>
        <time>2019-10-12T09:25:28Z</time>
      </trkpt>
      <trkpt lat="47.33833" lon="2.8666">
        <ele>141.19999694824</ele>
        <time>2019-10-12T09:25:33Z</time>
      </trkpt>
      <trkpt lat="47.33833" lon="2.86657">
        <ele>141.19999694824</ele>
        <time>2019-10-12T09:25:38Z</time>
      </trkpt>
      <trkpt lat="47.33834" lon="2.86651">
        <ele>141</ele>
        <time>2019-10-12T09:25:43Z</time>
      </trkpt>
      <trkpt lat="47.33834" lon="2.86644">
        <ele>140.80000305176</ele>
        <time>2019-10-12T09:25:48Z</time>
      </trkpt>
      <trkpt lat="47.33835" lon="2.86638">
        <ele>140.80000305176</ele>
        <time>2019-10-12T09:25:53Z</time>
      </trkpt>
      <trkpt lat="47.33836" lon="2.86633">
        <ele>140.80000305176</ele>
        <time>2019-10-12T09:25:58Z</time>
      </trkpt>
      <trkpt lat="47.33835" lon="2.86629">
        <ele>140.80000305176</ele>
        <time>2019-10-12T09:26:03Z</time>
      </trkpt>
      <trkpt lat="47.33835" lon="2.86624">
        <ele>140.80000305176</ele>
        <time>2019-10-12T09:26:08Z</time>
      </trkpt>
      <trkpt lat="47.33834" lon="2.86618">
        <ele>140.80000305176</ele>
        <time>2019-10-12T09:26:13Z</time>
      </trkpt>
      <trkpt lat="47.33831" lon="2.8661">
        <ele>141</ele>
        <time>2019-10-12T09:26:18Z</time>
      </trkpt>
      <trkpt lat="47.33829" lon="2.86603">
        <ele>141</ele>
        <time>2019-10-12T09:26:23Z</time>
      </trkpt>
      <trkpt lat="47.3383" lon="2.86596">
        <ele>141</ele>
        <time>2019-10-12T09:26:28Z</time>
      </trkpt>
      <trkpt lat="47.33832" lon="2.86589">
        <ele>141.19999694824</ele>
        <time>2019-10-12T09:26:33Z</time>
      </trkpt>
      <trkpt lat="47.33832" lon="2.86583">
        <ele>141.19999694824</ele>
        <time>2019-10-12T09:26:38Z</time>
      </trkpt>
      <trkpt lat="47.33832" lon="2.86581">
        <ele>141.19999694824</ele>
        <time>2019-10-12T09:26:43Z</time>
      </trkpt>
      <trkpt lat="47.33833" lon="2.86581">
        <ele>141.19999694824</ele>
        <time>2019-10-12T09:26:48Z</time>
      </trkpt>
      <trkpt lat="47.33833" lon="2.86582">
        <ele>141.19999694824</ele>
        <time>2019-10-12T09:26:53Z</time>
      </trkpt>
      <trkpt lat="47.33834" lon="2.86579">
        <ele>141.39999389648</ele>
        <time>2019-10-12T09:26:58Z</time>
      </trkpt>
      <trkpt lat="47.3384" lon="2.86574">
        <ele>141.39999389648</ele>
        <time>2019-10-12T09:27:03Z</time>
      </trkpt>
      <trkpt lat="47.33843" lon="2.8658">
        <ele>141.39999389648</ele>
        <time>2019-10-12T09:27:08Z</time>
      </trkpt>
      <trkpt lat="47.33844" lon="2.86587">
        <ele>141.39999389648</ele>
        <time>2019-10-12T09:27:13Z</time>
      </trkpt>
      <trkpt lat="47.33844" lon="2.86594">
        <ele>141</ele>
        <time>2019-10-12T09:27:18Z</time>
      </trkpt>
      <trkpt lat="47.33844" lon="2.86601">
        <ele>141</ele>
        <time>2019-10-12T09:27:23Z</time>
      </trkpt>
      <trkpt lat="47.33844" lon="2.86608">
        <ele>141</ele>
        <time>2019-10-12T09:27:28Z</time>
      </trkpt>
      <trkpt lat="47.33844" lon="2.86615">
        <ele>140.80000305176</ele>
        <time>2019-10-12T09:27:33Z</time>
      </trkpt>
      <trkpt lat="47.33844" lon="2.86622">
        <ele>140.80000305176</ele>
        <time>2019-10-12T09:27:38Z</time>
      </trkpt>
      <trkpt lat="47.33845" lon="2.86631">
        <ele>140.60000610352</ele>
        <time>2019-10-12T09:27:43Z</time>
      </trkpt>
      <trkpt lat="47.33845" lon="2.8664">
        <ele>140.60000610352</ele>
        <time>2019-10-12T09:27:48Z</time>
      </trkpt>
      <trkpt lat="47.33844" lon="2.86649">
        <ele>140.60000610352</ele>
        <time>2019-10-12T09:27:53Z</time>
      </trkpt>
      <trkpt lat="47.33843" lon="2.86658">
        <ele>140.80000305176</ele>
        <time>2019-10-12T09:27:58Z</time>
      </trkpt>
      <trkpt lat="47.33844" lon="2.86662">
        <ele>141</ele>
        <time>2019-10-12T09:28:03Z</time>
      </trkpt>
      <trkpt lat="47.33849" lon="2.86663">
        <ele>141</ele>
        <time>2019-10-12T09:28:08Z</time>
      </trkpt>
      <trkpt lat="47.33854" lon="2.86665">
        <ele>141</ele>
        <time>2019-10-12T09:28:13Z</time>
      </trkpt>
      <trkpt lat="47.33859" lon="2.86666">
        <ele>140.60000610352</ele>
        <time>2019-10-12T09:28:18Z</time>
      </trkpt>
      <trkpt lat="47.33863" lon="2.86669">
        <ele>140.39999389648</ele>
        <time>2019-10-12T09:28:23Z</time>
      </trkpt>
      <trkpt lat="47.33868" lon="2.8667">
        <ele>140.39999389648</ele>
        <time>2019-10-12T09:28:28Z</time>
      </trkpt>
      <trkpt lat="47.33872" lon="2.86669">
        <ele>140.39999389648</ele>
        <time>2019-10-12T09:28:33Z</time>
      </trkpt>
      <trkpt lat="47.33878" lon="2.8667">
        <ele>140.19999694824</ele>
        <time>2019-10-12T09:28:38Z</time>
      </trkpt>
      <trkpt lat="47.33883" lon="2.86669">
        <ele>140</ele>
        <time>2019-10-12T09:28:43Z</time>
      </trkpt>
      <trkpt lat="47.33886" lon="2.86669">
        <ele>140</ele>
        <time>2019-10-12T09:28:48Z</time>
      </trkpt>
      <trkpt lat="47.33892" lon="2.8667">
        <ele>140</ele>
        <time>2019-10-12T09:28:54Z</time>
      </trkpt>
      <trkpt lat="47.33899" lon="2.86668">
        <ele>140</ele>
        <time>2019-10-12T09:28:59Z</time>
      </trkpt>
      <trkpt lat="47.33904" lon="2.86668">
        <ele>140</ele>
        <time>2019-10-12T09:29:04Z</time>
      </trkpt>
      <trkpt lat="47.33909" lon="2.86666">
        <ele>140</ele>
        <time>2019-10-12T09:29:09Z</time>
      </trkpt>
      <trkpt lat="47.33914" lon="2.86665">
        <ele>140</ele>
        <time>2019-10-12T09:29:14Z</time>
      </trkpt>
      <trkpt lat="47.33918" lon="2.86665">
        <ele>140</ele>
        <time>2019-10-12T09:29:19Z</time>
      </trkpt>
      <trkpt lat="47.33922" lon="2.86664">
        <ele>140</ele>
        <time>2019-10-12T09:29:24Z</time>
      </trkpt>
      <trkpt lat="47.33927" lon="2.86663">
        <ele>140</ele>
        <time>2019-10-12T09:29:29Z</time>
      </trkpt>
      <trkpt lat="47.33934" lon="2.86662">
        <ele>140.19999694824</ele>
        <time>2019-10-12T09:29:34Z</time>
      </trkpt>
      <trkpt lat="47.33939" lon="2.86662">
        <ele>140.19999694824</ele>
        <time>2019-10-12T09:29:39Z</time>
      </trkpt>
      <trkpt lat="47.33943" lon="2.86662">
        <ele>140.19999694824</ele>
        <time>2019-10-12T09:29:44Z</time>
      </trkpt>
      <trkpt lat="47.33948" lon="2.86661">
        <ele>140.39999389648</ele>
        <time>2019-10-12T09:29:49Z</time>
      </trkpt>
      <trkpt lat="47.33956" lon="2.86659">
        <ele>140.39999389648</ele>
        <time>2019-10-12T09:29:54Z</time>
      </trkpt>
      <trkpt lat="47.33962" lon="2.86656">
        <ele>140.39999389648</ele>
        <time>2019-10-12T09:29:59Z</time>
      </trkpt>
      <trkpt lat="47.33968" lon="2.86653">
        <ele>140.60000610352</ele>
        <time>2019-10-12T09:30:04Z</time>
      </trkpt>
      <trkpt lat="47.33973" lon="2.86652">
        <ele>140.60000610352</ele>
        <time>2019-10-12T09:30:09Z</time>
      </trkpt>
      <trkpt lat="47.33974" lon="2.86651">
        <ele>140.60000610352</ele>
        <time>2019-10-12T09:30:14Z</time>
      </trkpt>
      <trkpt lat="47.33979" lon="2.8665">
        <ele>140.60000610352</ele>
        <time>2019-10-12T09:30:19Z</time>
      </trkpt>
      <trkpt lat="47.33984" lon="2.86651">
        <ele>140.60000610352</ele>
        <time>2019-10-12T09:30:24Z</time>
      </trkpt>
      <trkpt lat="47.3399" lon="2.86654">
        <ele>140.60000610352</ele>
        <time>2019-10-12T09:30:29Z</time>
      </trkpt>
      <trkpt lat="47.33995" lon="2.86652">
        <ele>140.60000610352</ele>
        <time>2019-10-12T09:30:34Z</time>
      </trkpt>
      <trkpt lat="47.33999" lon="2.8665">
        <ele>140.60000610352</ele>
        <time>2019-10-12T09:30:39Z</time>
      </trkpt>
      <trkpt lat="47.34005" lon="2.86647">
        <ele>141</ele>
        <time>2019-10-12T09:30:45Z</time>
      </trkpt>
      <trkpt lat="47.34011" lon="2.86645">
        <ele>141</ele>
        <time>2019-10-12T09:30:50Z</time>
      </trkpt>
      <trkpt lat="47.34015" lon="2.86643">
        <ele>141</ele>
        <time>2019-10-12T09:30:55Z</time>
      </trkpt>
      <trkpt lat="47.34019" lon="2.86637">
        <ele>141</ele>
        <time>2019-10-12T09:31:00Z</time>
      </trkpt>
      <trkpt lat="47.34024" lon="2.86632">
        <ele>141.19999694824</ele>
        <time>2019-10-12T09:31:05Z</time>
      </trkpt>
      <trkpt lat="47.34027" lon="2.86625">
        <ele>141.19999694824</ele>
        <time>2019-10-12T09:31:10Z</time>
      </trkpt>
      <trkpt lat="47.34029" lon="2.8662">
        <ele>141.19999694824</ele>
        <time>2019-10-12T09:31:15Z</time>
      </trkpt>
      <trkpt lat="47.34032" lon="2.86613">
        <ele>141.19999694824</ele>
        <time>2019-10-12T09:31:20Z</time>
      </trkpt>
      <trkpt lat="47.34035" lon="2.86605">
        <ele>141.39999389648</ele>
        <time>2019-10-12T09:31:25Z</time>
      </trkpt>
      <trkpt lat="47.34038" lon="2.86599">
        <ele>141.60000610352</ele>
        <time>2019-10-12T09:31:30Z</time>
      </trkpt>
      <trkpt lat="47.34039" lon="2.86595">
        <ele>141.39999389648</ele>
        <time>2019-10-12T09:31:35Z</time>
      </trkpt>
      <trkpt lat="47.34039" lon="2.86589">
        <ele>141.39999389648</ele>
        <time>2019-10-12T09:31:40Z</time>
      </trkpt>
      <trkpt lat="47.34038" lon="2.86583">
        <ele>141.19999694824</ele>
        <time>2019-10-12T09:31:45Z</time>
      </trkpt>
      <trkpt lat="47.34037" lon="2.86576">
        <ele>141.19999694824</ele>
        <time>2019-10-12T09:31:50Z</time>
      </trkpt>
      <trkpt lat="47.34035" lon="2.86572">
        <ele>141.19999694824</ele>
        <time>2019-10-12T09:31:55Z</time>
      </trkpt>
      <trkpt lat="47.34032" lon="2.86567">
        <ele>141.19999694824</ele>
        <time>2019-10-12T09:32:00Z</time>
      </trkpt>
      <trkpt lat="47.34029" lon="2.86562">
        <ele>141.19999694824</ele>
        <time>2019-10-12T09:32:05Z</time>
      </trkpt>
      <trkpt lat="47.34025" lon="2.86556">
        <ele>141.39999389648</ele>
        <time>2019-10-12T09:32:10Z</time>
      </trkpt>
      <trkpt lat="47.34022" lon="2.8655">
        <ele>141.39999389648</ele>
        <time>2019-10-12T09:32:15Z</time>
      </trkpt>
      <trkpt lat="47.34018" lon="2.86543">
        <ele>141.39999389648</ele>
        <time>2019-10-12T09:32:20Z</time>
      </trkpt>
      <trkpt lat="47.34016" lon="2.86536">
        <ele>141.39999389648</ele>
        <time>2019-10-12T09:32:25Z</time>
      </trkpt>
      <trkpt lat="47.34014" lon="2.8653">
        <ele>141.39999389648</ele>
        <time>2019-10-12T09:32:30Z</time>
      </trkpt>
      <trkpt lat="47.34011" lon="2.86522">
        <ele>141.39999389648</ele>
        <time>2019-10-12T09:32:35Z</time>
      </trkpt>
      <trkpt lat="47.34008" lon="2.86515">
        <ele>141.39999389648</ele>
        <time>2019-10-12T09:32:40Z</time>
      </trkpt>
      <trkpt lat="47.34004" lon="2.86509">
        <ele>141.60000610352</ele>
        <time>2019-10-12T09:32:45Z</time>
      </trkpt>
      <trkpt lat="47.34" lon="2.86502">
        <ele>141.39999389648</ele>
        <time>2019-10-12T09:32:50Z</time>
      </trkpt>
      <trkpt lat="47.33997" lon="2.86495">
        <ele>141.39999389648</ele>
        <time>2019-10-12T09:32:55Z</time>
      </trkpt>
      <trkpt lat="47.33994" lon="2.86489">
        <ele>141.39999389648</ele>
        <time>2019-10-12T09:33:00Z</time>
      </trkpt>
      <trkpt lat="47.3399" lon="2.86484">
        <ele>141.39999389648</ele>
        <time>2019-10-12T09:33:05Z</time>
      </trkpt>
      <trkpt lat="47.33986" lon="2.86476">
        <ele>141.39999389648</ele>
        <time>2019-10-12T09:33:10Z</time>
      </trkpt>
      <trkpt lat="47.33983" lon="2.86468">
        <ele>141.19999694824</ele>
        <time>2019-10-12T09:33:15Z</time>
      </trkpt>
      <trkpt lat="47.3398" lon="2.86461">
        <ele>141.19999694824</ele>
        <time>2019-10-12T09:33:20Z</time>
      </trkpt>
      <trkpt lat="47.33976" lon="2.86454">
        <ele>141.19999694824</ele>
        <time>2019-10-12T09:33:25Z</time>
      </trkpt>
      <trkpt lat="47.33973" lon="2.86449">
        <ele>141.19999694824</ele>
        <time>2019-10-12T09:33:30Z</time>
      </trkpt>
      <trkpt lat="47.3397" lon="2.86443">
        <ele>141</ele>
        <time>2019-10-12T09:33:35Z</time>
      </trkpt>
      <trkpt lat="47.33967" lon="2.86435">
        <ele>140.80000305176</ele>
        <time>2019-10-12T09:33:40Z</time>
      </trkpt>
      <trkpt lat="47.33963" lon="2.8643">
        <ele>140.80000305176</ele>
        <time>2019-10-12T09:33:45Z</time>
      </trkpt>
      <trkpt lat="47.33959" lon="2.86425">
        <ele>140.60000610352</ele>
        <time>2019-10-12T09:33:50Z</time>
      </trkpt>
      <trkpt lat="47.33956" lon="2.86418">
        <ele>140.60000610352</ele>
        <time>2019-10-12T09:33:55Z</time>
      </trkpt>
      <trkpt lat="47.33953" lon="2.86412">
        <ele>140.60000610352</ele>
        <time>2019-10-12T09:34:00Z</time>
      </trkpt>
      <trkpt lat="47.3395" lon="2.86407">
        <ele>140.39999389648</ele>
        <time>2019-10-12T09:34:05Z</time>
      </trkpt>
      <trkpt lat="47.33946" lon="2.86399">
        <ele>140.19999694824</ele>
        <time>2019-10-12T09:34:10Z</time>
      </trkpt>
      <trkpt lat="47.33942" lon="2.86394">
        <ele>140</ele>
        <time>2019-10-12T09:34:15Z</time>
      </trkpt>
      <trkpt lat="47.33938" lon="2.86387">
        <ele>139.80000305176</ele>
        <time>2019-10-12T09:34:20Z</time>
      </trkpt>
      <trkpt lat="47.33934" lon="2.86382">
        <ele>139.80000305176</ele>
        <time>2019-10-12T09:34:25Z</time>
      </trkpt>
      <trkpt lat="47.33931" lon="2.86376">
        <ele>139.80000305176</ele>
        <time>2019-10-12T09:34:30Z</time>
      </trkpt>
      <trkpt lat="47.33928" lon="2.86368">
        <ele>140</ele>
        <time>2019-10-12T09:34:35Z</time>
      </trkpt>
      <trkpt lat="47.33925" lon="2.86362">
        <ele>140</ele>
        <time>2019-10-12T09:34:40Z</time>
      </trkpt>
      <trkpt lat="47.33921" lon="2.86356">
        <ele>139.80000305176</ele>
        <time>2019-10-12T09:34:45Z</time>
      </trkpt>
      <trkpt lat="47.33916" lon="2.86348">
        <ele>139.80000305176</ele>
        <time>2019-10-12T09:34:50Z</time>
      </trkpt>
      <trkpt lat="47.33912" lon="2.8634">
        <ele>140</ele>
        <time>2019-10-12T09:34:55Z</time>
      </trkpt>
      <trkpt lat="47.33909" lon="2.86333">
        <ele>139.80000305176</ele>
        <time>2019-10-12T09:35:00Z</time>
      </trkpt>
      <trkpt lat="47.33909" lon="2.86324">
        <ele>140.19999694824</ele>
        <time>2019-10-12T09:35:05Z</time>
      </trkpt>
      <trkpt lat="47.3391" lon="2.86318">
        <ele>140.39999389648</ele>
        <time>2019-10-12T09:35:10Z</time>
      </trkpt>
      <trkpt lat="47.33911" lon="2.86312">
        <ele>140.60000610352</ele>
        <time>2019-10-12T09:35:15Z</time>
      </trkpt>
      <trkpt lat="47.33911" lon="2.86303">
        <ele>140.80000305176</ele>
        <time>2019-10-12T09:35:20Z</time>
      </trkpt>
      <trkpt lat="47.33912" lon="2.86297">
        <ele>140.80000305176</ele>
        <time>2019-10-12T09:35:25Z</time>
      </trkpt>
      <trkpt lat="47.33914" lon="2.8629">
        <ele>140.80000305176</ele>
        <time>2019-10-12T09:35:30Z</time>
      </trkpt>
      <trkpt lat="47.33914" lon="2.86283">
        <ele>140.80000305176</ele>
        <time>2019-10-12T09:35:35Z</time>
      </trkpt>
      <trkpt lat="47.33915" lon="2.86276">
        <ele>140.80000305176</ele>
        <time>2019-10-12T09:35:40Z</time>
      </trkpt>
      <trkpt lat="47.33916" lon="2.86267">
        <ele>140.60000610352</ele>
        <time>2019-10-12T09:35:45Z</time>
      </trkpt>
      <trkpt lat="47.33917" lon="2.86259">
        <ele>140.60000610352</ele>
        <time>2019-10-12T09:35:50Z</time>
      </trkpt>
      <trkpt lat="47.33917" lon="2.8625">
        <ele>140.60000610352</ele>
        <time>2019-10-12T09:35:55Z</time>
      </trkpt>
      <trkpt lat="47.33917" lon="2.86242">
        <ele>140.19999694824</ele>
        <time>2019-10-12T09:36:00Z</time>
      </trkpt>
      <trkpt lat="47.33919" lon="2.86233">
        <ele>140</ele>
        <time>2019-10-12T09:36:05Z</time>
      </trkpt>
      <trkpt lat="47.33919" lon="2.86225">
        <ele>140</ele>
        <time>2019-10-12T09:36:10Z</time>
      </trkpt>
      <trkpt lat="47.33919" lon="2.86218">
        <ele>139.80000305176</ele>
        <time>2019-10-12T09:36:15Z</time>
      </trkpt>
      <trkpt lat="47.3392" lon="2.86211">
        <ele>139.60000610352</ele>
        <time>2019-10-12T09:36:20Z</time>
      </trkpt>
      <trkpt lat="47.3392" lon="2.86203">
        <ele>139.60000610352</ele>
        <time>2019-10-12T09:36:25Z</time>
      </trkpt>
      <trkpt lat="47.3392" lon="2.86194">
        <ele>139.60000610352</ele>
        <time>2019-10-12T09:36:30Z</time>
      </trkpt>
      <trkpt lat="47.33921" lon="2.86185">
        <ele>139.39999389648</ele>
        <time>2019-10-12T09:36:35Z</time>
      </trkpt>
      <trkpt lat="47.3392" lon="2.86176">
        <ele>139.39999389648</ele>
        <time>2019-10-12T09:36:40Z</time>
      </trkpt>
      <trkpt lat="47.3392" lon="2.86167">
        <ele>139.39999389648</ele>
        <time>2019-10-12T09:36:45Z</time>
      </trkpt>
      <trkpt lat="47.33921" lon="2.86159">
        <ele>139.39999389648</ele>
        <time>2019-10-12T09:36:50Z</time>
      </trkpt>
      <trkpt lat="47.33921" lon="2.86152">
        <ele>139.39999389648</ele>
        <time>2019-10-12T09:36:55Z</time>
      </trkpt>
      <trkpt lat="47.33922" lon="2.86142">
        <ele>139.39999389648</ele>
        <time>2019-10-12T09:37:01Z</time>
      </trkpt>
      <trkpt lat="47.33923" lon="2.86133">
        <ele>139.60000610352</ele>
        <time>2019-10-12T09:37:07Z</time>
      </trkpt>
      <trkpt lat="47.33923" lon="2.86123">
        <ele>139.60000610352</ele>
        <time>2019-10-12T09:37:13Z</time>
      </trkpt>
      <trkpt lat="47.33923" lon="2.86116">
        <ele>139.60000610352</ele>
        <time>2019-10-12T09:37:18Z</time>
      </trkpt>
      <trkpt lat="47.33924" lon="2.86109">
        <ele>139.80000305176</ele>
        <time>2019-10-12T09:37:23Z</time>
      </trkpt>
      <trkpt lat="47.33924" lon="2.861">
        <ele>139.80000305176</ele>
        <time>2019-10-12T09:37:28Z</time>
      </trkpt>
      <trkpt lat="47.33925" lon="2.86092">
        <ele>139.60000610352</ele>
        <time>2019-10-12T09:37:33Z</time>
      </trkpt>
      <trkpt lat="47.33925" lon="2.86083">
        <ele>139.60000610352</ele>
        <time>2019-10-12T09:37:38Z</time>
      </trkpt>
      <trkpt lat="47.33925" lon="2.86079">
        <ele>139.60000610352</ele>
        <time>2019-10-12T09:37:42Z</time>
      </trkpt>
      <trkpt lat="47.33927" lon="2.86068">
        <ele>139.60000610352</ele>
        <time>2019-10-12T09:37:48Z</time>
      </trkpt>
      <trkpt lat="47.33928" lon="2.86059">
        <ele>139.60000610352</ele>
        <time>2019-10-12T09:37:53Z</time>
      </trkpt>
      <trkpt lat="47.33927" lon="2.86052">
        <ele>139.60000610352</ele>
        <time>2019-10-12T09:37:58Z</time>
      </trkpt>
      <trkpt lat="47.33927" lon="2.86045">
        <ele>139.60000610352</ele>
        <time>2019-10-12T09:38:03Z</time>
      </trkpt>
      <trkpt lat="47.33928" lon="2.86037">
        <ele>139.60000610352</ele>
        <time>2019-10-12T09:38:08Z</time>
      </trkpt>
      <trkpt lat="47.33928" lon="2.86029">
        <ele>139.60000610352</ele>
        <time>2019-10-12T09:38:12Z</time>
      </trkpt>
      <trkpt lat="47.3393" lon="2.86022">
        <ele>139.39999389648</ele>
        <time>2019-10-12T09:38:17Z</time>
      </trkpt>
      <trkpt lat="47.33931" lon="2.86013">
        <ele>139.39999389648</ele>
        <time>2019-10-12T09:38:22Z</time>
      </trkpt>
      <trkpt lat="47.33931" lon="2.86004">
        <ele>139.39999389648</ele>
        <time>2019-10-12T09:38:27Z</time>
      </trkpt>
      <trkpt lat="47.33932" lon="2.85995">
        <ele>139.39999389648</ele>
        <time>2019-10-12T09:38:32Z</time>
      </trkpt>
      <trkpt lat="47.33933" lon="2.85984">
        <ele>139.60000610352</ele>
        <time>2019-10-12T09:38:37Z</time>
      </trkpt>
      <trkpt lat="47.33934" lon="2.85975">
        <ele>139.60000610352</ele>
        <time>2019-10-12T09:38:42Z</time>
      </trkpt>
      <trkpt lat="47.33935" lon="2.85967">
        <ele>139.60000610352</ele>
        <time>2019-10-12T09:38:47Z</time>
      </trkpt>
      <trkpt lat="47.33936" lon="2.85959">
        <ele>139.80000305176</ele>
        <time>2019-10-12T09:38:52Z</time>
      </trkpt>
      <trkpt lat="47.33936" lon="2.85951">
        <ele>139.80000305176</ele>
        <time>2019-10-12T09:38:57Z</time>
      </trkpt>
      <trkpt lat="47.33935" lon="2.85944">
        <ele>140.19999694824</ele>
        <time>2019-10-12T09:39:02Z</time>
      </trkpt>
      <trkpt lat="47.33933" lon="2.85939">
        <ele>140.80000305176</ele>
        <time>2019-10-12T09:39:07Z</time>
      </trkpt>
      <trkpt lat="47.33931" lon="2.85936">
        <ele>141.60000610352</ele>
        <time>2019-10-12T09:39:12Z</time>
      </trkpt>
      <trkpt lat="47.33927" lon="2.85935">
        <ele>142.39999389648</ele>
        <time>2019-10-12T09:39:17Z</time>
      </trkpt>
      <trkpt lat="47.33921" lon="2.85933">
        <ele>142.39999389648</ele>
        <time>2019-10-12T09:39:22Z</time>
      </trkpt>
      <trkpt lat="47.33916" lon="2.85932">
        <ele>142.39999389648</ele>
        <time>2019-10-12T09:39:27Z</time>
      </trkpt>
      <trkpt lat="47.33909" lon="2.85932">
        <ele>142.39999389648</ele>
        <time>2019-10-12T09:39:32Z</time>
      </trkpt>
      <trkpt lat="47.33905" lon="2.85931">
        <ele>142.39999389648</ele>
        <time>2019-10-12T09:39:37Z</time>
      </trkpt>
      <trkpt lat="47.33901" lon="2.8593">
        <ele>142.19999694824</ele>
        <time>2019-10-12T09:39:42Z</time>
      </trkpt>
      <trkpt lat="47.33895" lon="2.85931">
        <ele>142.19999694824</ele>
        <time>2019-10-12T09:39:47Z</time>
      </trkpt>
      <trkpt lat="47.33889" lon="2.8593">
        <ele>142.19999694824</ele>
        <time>2019-10-12T09:39:52Z</time>
      </trkpt>
      <trkpt lat="47.33885" lon="2.85929">
        <ele>142.19999694824</ele>
        <time>2019-10-12T09:39:57Z</time>
      </trkpt>
      <trkpt lat="47.33883" lon="2.85929">
        <ele>142.19999694824</ele>
        <time>2019-10-12T09:40:02Z</time>
      </trkpt>
      <trkpt lat="47.33881" lon="2.85929">
        <ele>142.19999694824</ele>
        <time>2019-10-12T09:40:07Z</time>
      </trkpt>
      <trkpt lat="47.33882" lon="2.85929">
        <ele>142.39999389648</ele>
        <time>2019-10-12T09:40:12Z</time>
      </trkpt>
      <trkpt lat="47.33882" lon="2.85928">
        <ele>142.39999389648</ele>
        <time>2019-10-12T09:40:17Z</time>
      </trkpt>
      <trkpt lat="47.33882" lon="2.85928">
        <ele>142.39999389648</ele>
        <time>2019-10-12T09:40:22Z</time>
      </trkpt>
      <trkpt lat="47.33883" lon="2.85928">
        <ele>142.60000610352</ele>
        <time>2019-10-12T09:40:27Z</time>
      </trkpt>
      <trkpt lat="47.33883" lon="2.85927">
        <ele>142.60000610352</ele>
        <time>2019-10-12T09:40:32Z</time>
      </trkpt>
      <trkpt lat="47.33883" lon="2.85927">
        <ele>142.60000610352</ele>
        <time>2019-10-12T09:40:37Z</time>
      </trkpt>
      <trkpt lat="47.33882" lon="2.85927">
        <ele>142.80000305176</ele>
        <time>2019-10-12T09:40:42Z</time>
      </trkpt>
      <trkpt lat="47.33882" lon="2.85927">
        <ele>142.80000305176</ele>
        <time>2019-10-12T09:40:47Z</time>
      </trkpt>
      <trkpt lat="47.33882" lon="2.85927">
        <ele>142.80000305176</ele>
        <time>2019-10-12T09:40:52Z</time>
      </trkpt>
      <trkpt lat="47.33882" lon="2.85927">
        <ele>142.80000305176</ele>
        <time>2019-10-12T09:40:57Z</time>
      </trkpt>
      <trkpt lat="47.33882" lon="2.85927">
        <ele>142.80000305176</ele>
        <time>2019-10-12T09:41:02Z</time>
      </trkpt>
      <trkpt lat="47.33882" lon="2.85927">
        <ele>142.80000305176</ele>
        <time>2019-10-12T09:41:07Z</time>
      </trkpt>
      <trkpt lat="47.33881" lon="2.85927">
        <ele>142.80000305176</ele>
        <time>2019-10-12T09:41:12Z</time>
      </trkpt>
      <trkpt lat="47.33881" lon="2.85927">
        <ele>142.80000305176</ele>
        <time>2019-10-12T09:41:17Z</time>
      </trkpt>
      <trkpt lat="47.33881" lon="2.85927">
        <ele>142.80000305176</ele>
        <time>2019-10-12T09:41:22Z</time>
      </trkpt>
      <trkpt lat="47.33881" lon="2.85927">
        <ele>142.80000305176</ele>
        <time>2019-10-12T09:41:27Z</time>
      </trkpt>
      <trkpt lat="47.33881" lon="2.85927">
        <ele>143</ele>
        <time>2019-10-12T09:41:32Z</time>
      </trkpt>
      <trkpt lat="47.33881" lon="2.85926">
        <ele>143.19999694824</ele>
        <time>2019-10-12T09:41:37Z</time>
      </trkpt>
      <trkpt lat="47.33882" lon="2.85926">
        <ele>143.19999694824</ele>
        <time>2019-10-12T09:41:42Z</time>
      </trkpt>
      <trkpt lat="47.33882" lon="2.85926">
        <ele>143.19999694824</ele>
        <time>2019-10-12T09:41:47Z</time>
      </trkpt>
      <trkpt lat="47.33881" lon="2.85926">
        <ele>143.19999694824</ele>
        <time>2019-10-12T09:41:52Z</time>
      </trkpt>
      <trkpt lat="47.33881" lon="2.85927">
        <ele>143.19999694824</ele>
        <time>2019-10-12T09:41:57Z</time>
      </trkpt>
      <trkpt lat="47.3388" lon="2.85927">
        <ele>143.19999694824</ele>
        <time>2019-10-12T09:42:02Z</time>
      </trkpt>
      <trkpt lat="47.3388" lon="2.85928">
        <ele>143</ele>
        <time>2019-10-12T09:42:07Z</time>
      </trkpt>
      <trkpt lat="47.3388" lon="2.85928">
        <ele>143</ele>
        <time>2019-10-12T09:42:12Z</time>
      </trkpt>
      <trkpt lat="47.33879" lon="2.85929">
        <ele>143</ele>
        <time>2019-10-12T09:42:17Z</time>
      </trkpt>
      <trkpt lat="47.33878" lon="2.85928">
        <ele>143</ele>
        <time>2019-10-12T09:42:22Z</time>
      </trkpt>
      <trkpt lat="47.33876" lon="2.85928">
        <ele>143</ele>
        <time>2019-10-12T09:42:27Z</time>
      </trkpt>
      <trkpt lat="47.33874" lon="2.85927">
        <ele>143</ele>
        <time>2019-10-12T09:42:32Z</time>
      </trkpt>
      <trkpt lat="47.33872" lon="2.85927">
        <ele>143</ele>
        <time>2019-10-12T09:42:37Z</time>
      </trkpt>
      <trkpt lat="47.33872" lon="2.85926">
        <ele>143</ele>
        <time>2019-10-12T09:42:42Z</time>
      </trkpt>
      <trkpt lat="47.33871" lon="2.85926">
        <ele>143</ele>
        <time>2019-10-12T09:42:47Z</time>
      </trkpt>
      <trkpt lat="47.33871" lon="2.8592">
        <ele>143</ele>
        <time>2019-10-12T09:42:52Z</time>
      </trkpt>
      <trkpt lat="47.33871" lon="2.85913">
        <ele>143</ele>
        <time>2019-10-12T09:42:57Z</time>
      </trkpt>
      <trkpt lat="47.33872" lon="2.85905">
        <ele>143.39999389648</ele>
        <time>2019-10-12T09:43:02Z</time>
      </trkpt>
      <trkpt lat="47.33872" lon="2.85896">
        <ele>143.80000305176</ele>
        <time>2019-10-12T09:43:07Z</time>
      </trkpt>
      <trkpt lat="47.33873" lon="2.85888">
        <ele>143.80000305176</ele>
        <time>2019-10-12T09:43:12Z</time>
      </trkpt>
      <trkpt lat="47.33874" lon="2.85882">
        <ele>143.80000305176</ele>
        <time>2019-10-12T09:43:17Z</time>
      </trkpt>
      <trkpt lat="47.33874" lon="2.85874">
        <ele>143.60000610352</ele>
        <time>2019-10-12T09:43:22Z</time>
      </trkpt>
      <trkpt lat="47.33874" lon="2.85866">
        <ele>143.39999389648</ele>
        <time>2019-10-12T09:43:27Z</time>
      </trkpt>
      <trkpt lat="47.33874" lon="2.85858">
        <ele>142.80000305176</ele>
        <time>2019-10-12T09:43:32Z</time>
      </trkpt>
      <trkpt lat="47.33873" lon="2.85848">
        <ele>142.19999694824</ele>
        <time>2019-10-12T09:43:37Z</time>
      </trkpt>
      <trkpt lat="47.33874" lon="2.85839">
        <ele>141.80000305176</ele>
        <time>2019-10-12T09:43:42Z</time>
      </trkpt>
      <trkpt lat="47.33874" lon="2.85831">
        <ele>141.60000610352</ele>
        <time>2019-10-12T09:43:47Z</time>
      </trkpt>
      <trkpt lat="47.33875" lon="2.85825">
        <ele>141.19999694824</ele>
        <time>2019-10-12T09:43:52Z</time>
      </trkpt>
      <trkpt lat="47.33876" lon="2.85824">
        <ele>140.80000305176</ele>
        <time>2019-10-12T09:43:57Z</time>
      </trkpt>
      <trkpt lat="47.33877" lon="2.85822">
        <ele>140.39999389648</ele>
        <time>2019-10-12T09:44:02Z</time>
      </trkpt>
      <trkpt lat="47.33877" lon="2.85821">
        <ele>140.39999389648</ele>
        <time>2019-10-12T09:44:07Z</time>
      </trkpt>
      <trkpt lat="47.33877" lon="2.85821">
        <ele>140.39999389648</ele>
        <time>2019-10-12T09:44:12Z</time>
      </trkpt>
      <trkpt lat="47.33877" lon="2.85822">
        <ele>140.19999694824</ele>
        <time>2019-10-12T09:44:17Z</time>
      </trkpt>
      <trkpt lat="47.33876" lon="2.85821">
        <ele>140.39999389648</ele>
        <time>2019-10-12T09:44:22Z</time>
      </trkpt>
      <trkpt lat="47.33876" lon="2.8582">
        <ele>140.60000610352</ele>
        <time>2019-10-12T09:44:27Z</time>
      </trkpt>
      <trkpt lat="47.33876" lon="2.85819">
        <ele>140.60000610352</ele>
        <time>2019-10-12T09:44:32Z</time>
      </trkpt>
      <trkpt lat="47.33876" lon="2.85818">
        <ele>140.80000305176</ele>
        <time>2019-10-12T09:44:37Z</time>
      </trkpt>
      <trkpt lat="47.33877" lon="2.85817">
        <ele>140.60000610352</ele>
        <time>2019-10-12T09:44:42Z</time>
      </trkpt>
      <trkpt lat="47.33877" lon="2.85817">
        <ele>140.60000610352</ele>
        <time>2019-10-12T09:44:47Z</time>
      </trkpt>
      <trkpt lat="47.33877" lon="2.85817">
        <ele>140.60000610352</ele>
        <time>2019-10-12T09:44:52Z</time>
      </trkpt>
      <trkpt lat="47.33878" lon="2.85813">
        <ele>140.60000610352</ele>
        <time>2019-10-12T09:44:57Z</time>
      </trkpt>
      <trkpt lat="47.33877" lon="2.85804">
        <ele>140.39999389648</ele>
        <time>2019-10-12T09:45:02Z</time>
      </trkpt>
      <trkpt lat="47.33876" lon="2.85797">
        <ele>140.60000610352</ele>
        <time>2019-10-12T09:45:07Z</time>
      </trkpt>
      <trkpt lat="47.33876" lon="2.85788">
        <ele>140.60000610352</ele>
        <time>2019-10-12T09:45:12Z</time>
      </trkpt>
      <trkpt lat="47.33876" lon="2.85779">
        <ele>140.60000610352</ele>
        <time>2019-10-12T09:45:17Z</time>
      </trkpt>
      <trkpt lat="47.33877" lon="2.8577">
        <ele>140.60000610352</ele>
        <time>2019-10-12T09:45:22Z</time>
      </trkpt>
      <trkpt lat="47.33876" lon="2.85761">
        <ele>140.39999389648</ele>
        <time>2019-10-12T09:45:27Z</time>
      </trkpt>
      <trkpt lat="47.33875" lon="2.85755">
        <ele>140.19999694824</ele>
        <time>2019-10-12T09:45:32Z</time>
      </trkpt>
      <trkpt lat="47.33876" lon="2.85748">
        <ele>140</ele>
        <time>2019-10-12T09:45:37Z</time>
      </trkpt>
      <trkpt lat="47.33879" lon="2.85739">
        <ele>140</ele>
        <time>2019-10-12T09:45:42Z</time>
      </trkpt>
      <trkpt lat="47.33881" lon="2.85729">
        <ele>140</ele>
        <time>2019-10-12T09:45:47Z</time>
      </trkpt>
      <trkpt lat="47.33884" lon="2.8572">
        <ele>139.80000305176</ele>
        <time>2019-10-12T09:45:52Z</time>
      </trkpt>
      <trkpt lat="47.33887" lon="2.85712">
        <ele>139.80000305176</ele>
        <time>2019-10-12T09:45:57Z</time>
      </trkpt>
      <trkpt lat="47.33891" lon="2.85703">
        <ele>140</ele>
        <time>2019-10-12T09:46:02Z</time>
      </trkpt>
      <trkpt lat="47.33897" lon="2.85698">
        <ele>140.39999389648</ele>
        <time>2019-10-12T09:46:07Z</time>
      </trkpt>
      <trkpt lat="47.33903" lon="2.85698">
        <ele>140.60000610352</ele>
        <time>2019-10-12T09:46:12Z</time>
      </trkpt>
      <trkpt lat="47.33909" lon="2.85697">
        <ele>140.80000305176</ele>
        <time>2019-10-12T09:46:17Z</time>
      </trkpt>
      <trkpt lat="47.33913" lon="2.85697">
        <ele>140.80000305176</ele>
        <time>2019-10-12T09:46:22Z</time>
      </trkpt>
      <trkpt lat="47.33914" lon="2.85698">
        <ele>140.80000305176</ele>
        <time>2019-10-12T09:46:27Z</time>
      </trkpt>
      <trkpt lat="47.33913" lon="2.85698">
        <ele>140.80000305176</ele>
        <time>2019-10-12T09:46:32Z</time>
      </trkpt>
      <trkpt lat="47.33913" lon="2.85698">
        <ele>140.60000610352</ele>
        <time>2019-10-12T09:46:37Z</time>
      </trkpt>
      <trkpt lat="47.33913" lon="2.85698">
        <ele>140.39999389648</ele>
        <time>2019-10-12T09:46:42Z</time>
      </trkpt>
      <trkpt lat="47.33913" lon="2.85698">
        <ele>140.39999389648</ele>
        <time>2019-10-12T09:46:47Z</time>
      </trkpt>
      <trkpt lat="47.33913" lon="2.85697">
        <ele>140.39999389648</ele>
        <time>2019-10-12T09:46:52Z</time>
      </trkpt>
      <trkpt lat="47.33913" lon="2.85697">
        <ele>140.39999389648</ele>
        <time>2019-10-12T09:46:57Z</time>
      </trkpt>
      <trkpt lat="47.33914" lon="2.85697">
        <ele>140.39999389648</ele>
        <time>2019-10-12T09:47:02Z</time>
      </trkpt>
      <trkpt lat="47.33914" lon="2.85697">
        <ele>140.39999389648</ele>
        <time>2019-10-12T09:47:07Z</time>
      </trkpt>
      <trkpt lat="47.33914" lon="2.85697">
        <ele>140.39999389648</ele>
        <time>2019-10-12T09:47:12Z</time>
      </trkpt>
      <trkpt lat="47.33913" lon="2.85696">
        <ele>140.39999389648</ele>
        <time>2019-10-12T09:47:17Z</time>
      </trkpt>
      <trkpt lat="47.33913" lon="2.85696">
        <ele>140.39999389648</ele>
        <time>2019-10-12T09:47:22Z</time>
      </trkpt>
      <trkpt lat="47.33913" lon="2.85695">
        <ele>140.39999389648</ele>
        <time>2019-10-12T09:47:27Z</time>
      </trkpt>
      <trkpt lat="47.33913" lon="2.85695">
        <ele>140.39999389648</ele>
        <time>2019-10-12T09:47:32Z</time>
      </trkpt>
      <trkpt lat="47.33913" lon="2.85691">
        <ele>140.39999389648</ele>
        <time>2019-10-12T09:47:37Z</time>
      </trkpt>
      <trkpt lat="47.33913" lon="2.85683">
        <ele>140.60000610352</ele>
        <time>2019-10-12T09:47:42Z</time>
      </trkpt>
      <trkpt lat="47.33913" lon="2.85675">
        <ele>140.80000305176</ele>
        <time>2019-10-12T09:47:47Z</time>
      </trkpt>
      <trkpt lat="47.33917" lon="2.85667">
        <ele>141</ele>
        <time>2019-10-12T09:47:52Z</time>
      </trkpt>
      <trkpt lat="47.33922" lon="2.85661">
        <ele>141.39999389648</ele>
        <time>2019-10-12T09:47:57Z</time>
      </trkpt>
      <trkpt lat="47.33927" lon="2.85656">
        <ele>141.60000610352</ele>
        <time>2019-10-12T09:48:02Z</time>
      </trkpt>
      <trkpt lat="47.33932" lon="2.85651">
        <ele>141.80000305176</ele>
        <time>2019-10-12T09:48:07Z</time>
      </trkpt>
      <trkpt lat="47.33936" lon="2.85644">
        <ele>142.19999694824</ele>
        <time>2019-10-12T09:48:12Z</time>
      </trkpt>
      <trkpt lat="47.33941" lon="2.85637">
        <ele>142.39999389648</ele>
        <time>2019-10-12T09:48:17Z</time>
      </trkpt>
      <trkpt lat="47.33944" lon="2.85629">
        <ele>143</ele>
        <time>2019-10-12T09:48:22Z</time>
      </trkpt>
      <trkpt lat="47.33948" lon="2.85623">
        <ele>143.19999694824</ele>
        <time>2019-10-12T09:48:27Z</time>
      </trkpt>
      <trkpt lat="47.33952" lon="2.85618">
        <ele>144</ele>
        <time>2019-10-12T09:48:32Z</time>
      </trkpt>
      <trkpt lat="47.33956" lon="2.85616">
        <ele>144.19999694824</ele>
        <time>2019-10-12T09:48:37Z</time>
      </trkpt>
      <trkpt lat="47.3396" lon="2.8561">
        <ele>144.39999389648</ele>
        <time>2019-10-12T09:48:42Z</time>
      </trkpt>
      <trkpt lat="47.33966" lon="2.85604">
        <ele>145</ele>
        <time>2019-10-12T09:48:47Z</time>
      </trkpt>
      <trkpt lat="47.33971" lon="2.856">
        <ele>145.39999389648</ele>
        <time>2019-10-12T09:48:52Z</time>
      </trkpt>
      <trkpt lat="47.33975" lon="2.85595">
        <ele>145.80000305176</ele>
        <time>2019-10-12T09:48:57Z</time>
      </trkpt>
      <trkpt lat="47.33978" lon="2.8559">
        <ele>146.19999694824</ele>
        <time>2019-10-12T09:49:02Z</time>
      </trkpt>
      <trkpt lat="47.33982" lon="2.85584">
        <ele>146.39999389648</ele>
        <time>2019-10-12T09:49:07Z</time>
      </trkpt>
      <trkpt lat="47.33985" lon="2.85577">
        <ele>146.80000305176</ele>
        <time>2019-10-12T09:49:12Z</time>
      </trkpt>
      <trkpt lat="47.3399" lon="2.8557">
        <ele>147.19999694824</ele>
        <time>2019-10-12T09:49:17Z</time>
      </trkpt>
      <trkpt lat="47.33994" lon="2.85567">
        <ele>147.60000610352</ele>
        <time>2019-10-12T09:49:22Z</time>
      </trkpt>
      <trkpt lat="47.33999" lon="2.85563">
        <ele>148</ele>
        <time>2019-10-12T09:49:27Z</time>
      </trkpt>
      <trkpt lat="47.34003" lon="2.85556">
        <ele>148.80000305176</ele>
        <time>2019-10-12T09:49:32Z</time>
      </trkpt>
      <trkpt lat="47.34008" lon="2.8555">
        <ele>149.39999389648</ele>
        <time>2019-10-12T09:49:37Z</time>
      </trkpt>
      <trkpt lat="47.34011" lon="2.85543">
        <ele>149.80000305176</ele>
        <time>2019-10-12T09:49:42Z</time>
      </trkpt>
      <trkpt lat="47.34015" lon="2.85536">
        <ele>149.80000305176</ele>
        <time>2019-10-12T09:49:47Z</time>
      </trkpt>
      <trkpt lat="47.3402" lon="2.85532">
        <ele>150</ele>
        <time>2019-10-12T09:49:52Z</time>
      </trkpt>
      <trkpt lat="47.34023" lon="2.85529">
        <ele>150</ele>
        <time>2019-10-12T09:49:57Z</time>
      </trkpt>
      <trkpt lat="47.34024" lon="2.85528">
        <ele>150</ele>
        <time>2019-10-12T09:50:02Z</time>
      </trkpt>
      <trkpt lat="47.34024" lon="2.85527">
        <ele>149.80000305176</ele>
        <time>2019-10-12T09:50:07Z</time>
      </trkpt>
      <trkpt lat="47.34025" lon="2.85525">
        <ele>149.60000610352</ele>
        <time>2019-10-12T09:50:12Z</time>
      </trkpt>
      <trkpt lat="47.34024" lon="2.85525">
        <ele>149.60000610352</ele>
        <time>2019-10-12T09:50:17Z</time>
      </trkpt>
      <trkpt lat="47.34025" lon="2.85525">
        <ele>149.39999389648</ele>
        <time>2019-10-12T09:50:22Z</time>
      </trkpt>
      <trkpt lat="47.34025" lon="2.85524">
        <ele>149.39999389648</ele>
        <time>2019-10-12T09:50:27Z</time>
      </trkpt>
      <trkpt lat="47.34025" lon="2.85525">
        <ele>149.39999389648</ele>
        <time>2019-10-12T09:50:32Z</time>
      </trkpt>
      <trkpt lat="47.34025" lon="2.85525">
        <ele>149.39999389648</ele>
        <time>2019-10-12T09:50:37Z</time>
      </trkpt>
      <trkpt lat="47.34025" lon="2.85524">
        <ele>149.19999694824</ele>
        <time>2019-10-12T09:50:42Z</time>
      </trkpt>
      <trkpt lat="47.34026" lon="2.85524">
        <ele>149.19999694824</ele>
        <time>2019-10-12T09:50:47Z</time>
      </trkpt>
      <trkpt lat="47.34027" lon="2.85525">
        <ele>149.19999694824</ele>
        <time>2019-10-12T09:50:52Z</time>
      </trkpt>
      <trkpt lat="47.34026" lon="2.85525">
        <ele>149.19999694824</ele>
        <time>2019-10-12T09:50:57Z</time>
      </trkpt>
      <trkpt lat="47.34026" lon="2.85522">
        <ele>149</ele>
        <time>2019-10-12T09:51:02Z</time>
      </trkpt>
      <trkpt lat="47.34026" lon="2.8552">
        <ele>149</ele>
        <time>2019-10-12T09:51:07Z</time>
      </trkpt>
      <trkpt lat="47.34026" lon="2.8552">
        <ele>148.80000305176</ele>
        <time>2019-10-12T09:51:12Z</time>
      </trkpt>
      <trkpt lat="47.34026" lon="2.8552">
        <ele>148.80000305176</ele>
        <time>2019-10-12T09:51:17Z</time>
      </trkpt>
      <trkpt lat="47.34027" lon="2.85522">
        <ele>148.80000305176</ele>
        <time>2019-10-12T09:51:22Z</time>
      </trkpt>
      <trkpt lat="47.34026" lon="2.85519">
        <ele>148.60000610352</ele>
        <time>2019-10-12T09:51:27Z</time>
      </trkpt>
      <trkpt lat="47.34025" lon="2.8551">
        <ele>148.60000610352</ele>
        <time>2019-10-12T09:51:32Z</time>
      </trkpt>
      <trkpt lat="47.3403" lon="2.85504">
        <ele>148.60000610352</ele>
        <time>2019-10-12T09:51:37Z</time>
      </trkpt>
      <trkpt lat="47.34033" lon="2.85499">
        <ele>148.60000610352</ele>
        <time>2019-10-12T09:51:42Z</time>
      </trkpt>
      <trkpt lat="47.34036" lon="2.85491">
        <ele>149</ele>
        <time>2019-10-12T09:51:47Z</time>
      </trkpt>
      <trkpt lat="47.34041" lon="2.85487">
        <ele>149</ele>
        <time>2019-10-12T09:51:52Z</time>
      </trkpt>
      <trkpt lat="47.34045" lon="2.85482">
        <ele>149.19999694824</ele>
        <time>2019-10-12T09:51:57Z</time>
      </trkpt>
      <trkpt lat="47.3405" lon="2.85478">
        <ele>149.39999389648</ele>
        <time>2019-10-12T09:52:02Z</time>
      </trkpt>
      <trkpt lat="47.34055" lon="2.85472">
        <ele>149.39999389648</ele>
        <time>2019-10-12T09:52:07Z</time>
      </trkpt>
      <trkpt lat="47.3406" lon="2.85467">
        <ele>149.60000610352</ele>
        <time>2019-10-12T09:52:12Z</time>
      </trkpt>
      <trkpt lat="47.34064" lon="2.85466">
        <ele>150</ele>
        <time>2019-10-12T09:52:17Z</time>
      </trkpt>
      <trkpt lat="47.34069" lon="2.85464">
        <ele>150.39999389648</ele>
        <time>2019-10-12T09:52:22Z</time>
      </trkpt>
      <trkpt lat="47.34075" lon="2.85465">
        <ele>151</ele>
        <time>2019-10-12T09:52:27Z</time>
      </trkpt>
      <trkpt lat="47.3408" lon="2.85463">
        <ele>151.19999694824</ele>
        <time>2019-10-12T09:52:32Z</time>
      </trkpt>
      <trkpt lat="47.34086" lon="2.85461">
        <ele>151.60000610352</ele>
        <time>2019-10-12T09:52:37Z</time>
      </trkpt>
      <trkpt lat="47.34092" lon="2.8546">
        <ele>151.80000305176</ele>
        <time>2019-10-12T09:52:42Z</time>
      </trkpt>
      <trkpt lat="47.34097" lon="2.85459">
        <ele>152</ele>
        <time>2019-10-12T09:52:47Z</time>
      </trkpt>
      <trkpt lat="47.34104" lon="2.85457">
        <ele>152.39999389648</ele>
        <time>2019-10-12T09:52:52Z</time>
      </trkpt>
      <trkpt lat="47.3411" lon="2.85455">
        <ele>152.60000610352</ele>
        <time>2019-10-12T09:52:57Z</time>
      </trkpt>
      <trkpt lat="47.34116" lon="2.85453">
        <ele>153</ele>
        <time>2019-10-12T09:53:02Z</time>
      </trkpt>
      <trkpt lat="47.34121" lon="2.85449">
        <ele>153.19999694824</ele>
        <time>2019-10-12T09:53:07Z</time>
      </trkpt>
      <trkpt lat="47.34125" lon="2.85444">
        <ele>153.39999389648</ele>
        <time>2019-10-12T09:53:12Z</time>
      </trkpt>
      <trkpt lat="47.3413" lon="2.8544">
        <ele>153.80000305176</ele>
        <time>2019-10-12T09:53:17Z</time>
      </trkpt>
      <trkpt lat="47.34135" lon="2.85436">
        <ele>154</ele>
        <time>2019-10-12T09:53:22Z</time>
      </trkpt>
      <trkpt lat="47.34139" lon="2.85431">
        <ele>154.39999389648</ele>
        <time>2019-10-12T09:53:27Z</time>
      </trkpt>
      <trkpt lat="47.34145" lon="2.85428">
        <ele>154.80000305176</ele>
        <time>2019-10-12T09:53:32Z</time>
      </trkpt>
      <trkpt lat="47.34149" lon="2.85426">
        <ele>155.19999694824</ele>
        <time>2019-10-12T09:53:37Z</time>
      </trkpt>
      <trkpt lat="47.34153" lon="2.85423">
        <ele>155.80000305176</ele>
        <time>2019-10-12T09:53:42Z</time>
      </trkpt>
      <trkpt lat="47.34159" lon="2.85423">
        <ele>156.19999694824</ele>
        <time>2019-10-12T09:53:47Z</time>
      </trkpt>
      <trkpt lat="47.34165" lon="2.85423">
        <ele>156.80000305176</ele>
        <time>2019-10-12T09:53:52Z</time>
      </trkpt>
      <trkpt lat="47.3417" lon="2.85423">
        <ele>157.60000610352</ele>
        <time>2019-10-12T09:53:57Z</time>
      </trkpt>
      <trkpt lat="47.34177" lon="2.85422">
        <ele>158.19999694824</ele>
        <time>2019-10-12T09:54:02Z</time>
      </trkpt>
      <trkpt lat="47.34183" lon="2.8542">
        <ele>158.80000305176</ele>
        <time>2019-10-12T09:54:07Z</time>
      </trkpt>
      <trkpt lat="47.34189" lon="2.85419">
        <ele>159.19999694824</ele>
        <time>2019-10-12T09:54:12Z</time>
      </trkpt>
      <trkpt lat="47.34194" lon="2.85418">
        <ele>159.80000305176</ele>
        <time>2019-10-12T09:54:17Z</time>
      </trkpt>
      <trkpt lat="47.34199" lon="2.85417">
        <ele>160.60000610352</ele>
        <time>2019-10-12T09:54:22Z</time>
      </trkpt>
      <trkpt lat="47.34202" lon="2.85418">
        <ele>161.19999694824</ele>
        <time>2019-10-12T09:54:27Z</time>
      </trkpt>
      <trkpt lat="47.34208" lon="2.8542">
        <ele>161.80000305176</ele>
        <time>2019-10-12T09:54:32Z</time>
      </trkpt>
      <trkpt lat="47.34214" lon="2.85421">
        <ele>162.60000610352</ele>
        <time>2019-10-12T09:54:37Z</time>
      </trkpt>
      <trkpt lat="47.34221" lon="2.85422">
        <ele>163</ele>
        <time>2019-10-12T09:54:42Z</time>
      </trkpt>
      <trkpt lat="47.34228" lon="2.85422">
        <ele>163.39999389648</ele>
        <time>2019-10-12T09:54:47Z</time>
      </trkpt>
      <trkpt lat="47.34234" lon="2.85423">
        <ele>164</ele>
        <time>2019-10-12T09:54:52Z</time>
      </trkpt>
      <trkpt lat="47.3424" lon="2.85426">
        <ele>164.39999389648</ele>
        <time>2019-10-12T09:54:57Z</time>
      </trkpt>
      <trkpt lat="47.34245" lon="2.8543">
        <ele>165</ele>
        <time>2019-10-12T09:55:02Z</time>
      </trkpt>
      <trkpt lat="47.34251" lon="2.85434">
        <ele>165.39999389648</ele>
        <time>2019-10-12T09:55:07Z</time>
      </trkpt>
      <trkpt lat="47.34256" lon="2.85439">
        <ele>165.80000305176</ele>
        <time>2019-10-12T09:55:12Z</time>
      </trkpt>
      <trkpt lat="47.34261" lon="2.85444">
        <ele>166</ele>
        <time>2019-10-12T09:55:17Z</time>
      </trkpt>
      <trkpt lat="47.34267" lon="2.85444">
        <ele>166.39999389648</ele>
        <time>2019-10-12T09:55:22Z</time>
      </trkpt>
      <trkpt lat="47.34272" lon="2.85442">
        <ele>167</ele>
        <time>2019-10-12T09:55:27Z</time>
      </trkpt>
      <trkpt lat="47.34278" lon="2.85438">
        <ele>167.19999694824</ele>
        <time>2019-10-12T09:55:32Z</time>
      </trkpt>
      <trkpt lat="47.34282" lon="2.85433">
        <ele>167.60000610352</ele>
        <time>2019-10-12T09:55:37Z</time>
      </trkpt>
      <trkpt lat="47.34286" lon="2.85427">
        <ele>167.80000305176</ele>
        <time>2019-10-12T09:55:42Z</time>
      </trkpt>
      <trkpt lat="47.3429" lon="2.8542">
        <ele>168.39999389648</ele>
        <time>2019-10-12T09:55:47Z</time>
      </trkpt>
      <trkpt lat="47.34295" lon="2.85415">
        <ele>168.80000305176</ele>
        <time>2019-10-12T09:55:52Z</time>
      </trkpt>
      <trkpt lat="47.34298" lon="2.85407">
        <ele>169.19999694824</ele>
        <time>2019-10-12T09:55:57Z</time>
      </trkpt>
      <trkpt lat="47.34301" lon="2.85402">
        <ele>169.39999389648</ele>
        <time>2019-10-12T09:56:02Z</time>
      </trkpt>
      <trkpt lat="47.34304" lon="2.854">
        <ele>169.19999694824</ele>
        <time>2019-10-12T09:56:07Z</time>
      </trkpt>
      <trkpt lat="47.34305" lon="2.85397">
        <ele>169.39999389648</ele>
        <time>2019-10-12T09:56:12Z</time>
      </trkpt>
      <trkpt lat="47.34305" lon="2.85395">
        <ele>169.39999389648</ele>
        <time>2019-10-12T09:56:17Z</time>
      </trkpt>
      <trkpt lat="47.34305" lon="2.85395">
        <ele>169.39999389648</ele>
        <time>2019-10-12T09:56:22Z</time>
      </trkpt>
      <trkpt lat="47.34306" lon="2.85395">
        <ele>169.60000610352</ele>
        <time>2019-10-12T09:56:27Z</time>
      </trkpt>
      <trkpt lat="47.34305" lon="2.85394">
        <ele>169.60000610352</ele>
        <time>2019-10-12T09:56:32Z</time>
      </trkpt>
      <trkpt lat="47.34305" lon="2.85395">
        <ele>169.60000610352</ele>
        <time>2019-10-12T09:56:37Z</time>
      </trkpt>
      <trkpt lat="47.34305" lon="2.85394">
        <ele>169.39999389648</ele>
        <time>2019-10-12T09:56:42Z</time>
      </trkpt>
      <trkpt lat="47.34305" lon="2.85394">
        <ele>169.39999389648</ele>
        <time>2019-10-12T09:56:47Z</time>
      </trkpt>
      <trkpt lat="47.34305" lon="2.85394">
        <ele>169.19999694824</ele>
        <time>2019-10-12T09:56:52Z</time>
      </trkpt>
      <trkpt lat="47.34305" lon="2.85394">
        <ele>169</ele>
        <time>2019-10-12T09:56:57Z</time>
      </trkpt>
      <trkpt lat="47.34305" lon="2.85394">
        <ele>168.80000305176</ele>
        <time>2019-10-12T09:57:02Z</time>
      </trkpt>
      <trkpt lat="47.34305" lon="2.85394">
        <ele>168.80000305176</ele>
        <time>2019-10-12T09:57:07Z</time>
      </trkpt>
      <trkpt lat="47.34304" lon="2.85394">
        <ele>168.80000305176</ele>
        <time>2019-10-12T09:57:12Z</time>
      </trkpt>
      <trkpt lat="47.34305" lon="2.85394">
        <ele>168.80000305176</ele>
        <time>2019-10-12T09:57:17Z</time>
      </trkpt>
      <trkpt lat="47.34305" lon="2.85394">
        <ele>168.80000305176</ele>
        <time>2019-10-12T09:57:22Z</time>
      </trkpt>
      <trkpt lat="47.34304" lon="2.85394">
        <ele>168.80000305176</ele>
        <time>2019-10-12T09:57:27Z</time>
      </trkpt>
      <trkpt lat="47.34304" lon="2.85395">
        <ele>169</ele>
        <time>2019-10-12T09:57:32Z</time>
      </trkpt>
      <trkpt lat="47.34304" lon="2.85396">
        <ele>169</ele>
        <time>2019-10-12T09:57:37Z</time>
      </trkpt>
      <trkpt lat="47.34303" lon="2.85397">
        <ele>169</ele>
        <time>2019-10-12T09:57:42Z</time>
      </trkpt>
      <trkpt lat="47.34304" lon="2.85397">
        <ele>169</ele>
        <time>2019-10-12T09:57:47Z</time>
      </trkpt>
      <trkpt lat="47.34304" lon="2.85397">
        <ele>169.19999694824</ele>
        <time>2019-10-12T09:57:52Z</time>
      </trkpt>
      <trkpt lat="47.34304" lon="2.85397">
        <ele>169.19999694824</ele>
        <time>2019-10-12T09:57:57Z</time>
      </trkpt>
      <trkpt lat="47.34304" lon="2.85397">
        <ele>169.19999694824</ele>
        <time>2019-10-12T09:58:02Z</time>
      </trkpt>
      <trkpt lat="47.34303" lon="2.85397">
        <ele>169</ele>
        <time>2019-10-12T09:58:07Z</time>
      </trkpt>
      <trkpt lat="47.34304" lon="2.85398">
        <ele>169</ele>
        <time>2019-10-12T09:58:12Z</time>
      </trkpt>
      <trkpt lat="47.34304" lon="2.85398">
        <ele>169</ele>
        <time>2019-10-12T09:58:17Z</time>
      </trkpt>
      <trkpt lat="47.34302" lon="2.85394">
        <ele>169</ele>
        <time>2019-10-12T09:58:22Z</time>
      </trkpt>
      <trkpt lat="47.34298" lon="2.85387">
        <ele>169</ele>
        <time>2019-10-12T09:58:27Z</time>
      </trkpt>
      <trkpt lat="47.34294" lon="2.85382">
        <ele>169</ele>
        <time>2019-10-12T09:58:32Z</time>
      </trkpt>
      <trkpt lat="47.34289" lon="2.85375">
        <ele>168.80000305176</ele>
        <time>2019-10-12T09:58:37Z</time>
      </trkpt>
      <trkpt lat="47.34284" lon="2.85368">
        <ele>168.80000305176</ele>
        <time>2019-10-12T09:58:42Z</time>
      </trkpt>
      <trkpt lat="47.34279" lon="2.85362">
        <ele>168.80000305176</ele>
        <time>2019-10-12T09:58:47Z</time>
      </trkpt>
      <trkpt lat="47.34274" lon="2.85355">
        <ele>168.80000305176</ele>
        <time>2019-10-12T09:58:52Z</time>
      </trkpt>
      <trkpt lat="47.3427" lon="2.85349">
        <ele>168.80000305176</ele>
        <time>2019-10-12T09:58:57Z</time>
      </trkpt>
      <trkpt lat="47.34265" lon="2.85342">
        <ele>168.80000305176</ele>
        <time>2019-10-12T09:59:02Z</time>
      </trkpt>
      <trkpt lat="47.34261" lon="2.85337">
        <ele>168.80000305176</ele>
        <time>2019-10-12T09:59:07Z</time>
      </trkpt>
      <trkpt lat="47.34255" lon="2.85331">
        <ele>168.80000305176</ele>
        <time>2019-10-12T09:59:12Z</time>
      </trkpt>
      <trkpt lat="47.34252" lon="2.85325">
        <ele>168.80000305176</ele>
        <time>2019-10-12T09:59:17Z</time>
      </trkpt>
      <trkpt lat="47.34247" lon="2.85318">
        <ele>168.80000305176</ele>
        <time>2019-10-12T09:59:22Z</time>
      </trkpt>
      <trkpt lat="47.34243" lon="2.85313">
        <ele>168.80000305176</ele>
        <time>2019-10-12T09:59:27Z</time>
      </trkpt>
      <trkpt lat="47.34239" lon="2.85306">
        <ele>169</ele>
        <time>2019-10-12T09:59:32Z</time>
      </trkpt>
      <trkpt lat="47.34235" lon="2.85299">
        <ele>169.19999694824</ele>
        <time>2019-10-12T09:59:37Z</time>
      </trkpt>
      <trkpt lat="47.34233" lon="2.85291">
        <ele>169.19999694824</ele>
        <time>2019-10-12T09:59:42Z</time>
      </trkpt>
      <trkpt lat="47.34229" lon="2.85284">
        <ele>169.19999694824</ele>
        <time>2019-10-12T09:59:47Z</time>
      </trkpt>
      <trkpt lat="47.34225" lon="2.85277">
        <ele>169.39999389648</ele>
        <time>2019-10-12T09:59:52Z</time>
      </trkpt>
      <trkpt lat="47.34221" lon="2.8527">
        <ele>169.39999389648</ele>
        <time>2019-10-12T09:59:57Z</time>
      </trkpt>
      <trkpt lat="47.34217" lon="2.85264">
        <ele>169.39999389648</ele>
        <time>2019-10-12T10:00:02Z</time>
      </trkpt>
      <trkpt lat="47.34213" lon="2.85256">
        <ele>169.60000610352</ele>
        <time>2019-10-12T10:00:07Z</time>
      </trkpt>
      <trkpt lat="47.3421" lon="2.85249">
        <ele>169.60000610352</ele>
        <time>2019-10-12T10:00:12Z</time>
      </trkpt>
      <trkpt lat="47.34207" lon="2.85243">
        <ele>169.39999389648</ele>
        <time>2019-10-12T10:00:16Z</time>
      </trkpt>
      <trkpt lat="47.342" lon="2.85228">
        <ele>169.60000610352</ele>
        <time>2019-10-12T10:00:26Z</time>
      </trkpt>
      <trkpt lat="47.34196" lon="2.8522">
        <ele>169.60000610352</ele>
        <time>2019-10-12T10:00:32Z</time>
      </trkpt>
      <trkpt lat="47.34192" lon="2.85212">
        <ele>169.60000610352</ele>
        <time>2019-10-12T10:00:37Z</time>
      </trkpt>
      <trkpt lat="47.34189" lon="2.85205">
        <ele>169.60000610352</ele>
        <time>2019-10-12T10:00:42Z</time>
      </trkpt>
      <trkpt lat="47.34186" lon="2.85197">
        <ele>169.60000610352</ele>
        <time>2019-10-12T10:00:47Z</time>
      </trkpt>
      <trkpt lat="47.34181" lon="2.85185">
        <ele>169.60000610352</ele>
        <time>2019-10-12T10:00:55Z</time>
      </trkpt>
      <trkpt lat="47.34178" lon="2.85178">
        <ele>169.80000305176</ele>
        <time>2019-10-12T10:01:00Z</time>
      </trkpt>
      <trkpt lat="47.34175" lon="2.85171">
        <ele>169.80000305176</ele>
        <time>2019-10-12T10:01:05Z</time>
      </trkpt>
      <trkpt lat="47.34171" lon="2.85163">
        <ele>170</ele>
        <time>2019-10-12T10:01:10Z</time>
      </trkpt>
      <trkpt lat="47.34167" lon="2.85156">
        <ele>169.80000305176</ele>
        <time>2019-10-12T10:01:15Z</time>
      </trkpt>
      <trkpt lat="47.34164" lon="2.85148">
        <ele>170</ele>
        <time>2019-10-12T10:01:20Z</time>
      </trkpt>
      <trkpt lat="47.34162" lon="2.8514">
        <ele>170.19999694824</ele>
        <time>2019-10-12T10:01:25Z</time>
      </trkpt>
      <trkpt lat="47.34159" lon="2.85132">
        <ele>170.19999694824</ele>
        <time>2019-10-12T10:01:30Z</time>
      </trkpt>
      <trkpt lat="47.34156" lon="2.85124">
        <ele>170.39999389648</ele>
        <time>2019-10-12T10:01:35Z</time>
      </trkpt>
      <trkpt lat="47.34153" lon="2.85116">
        <ele>170.39999389648</ele>
        <time>2019-10-12T10:01:40Z</time>
      </trkpt>
      <trkpt lat="47.34151" lon="2.8511">
        <ele>170.39999389648</ele>
        <time>2019-10-12T10:01:45Z</time>
      </trkpt>
      <trkpt lat="47.34147" lon="2.85104">
        <ele>170.39999389648</ele>
        <time>2019-10-12T10:01:50Z</time>
      </trkpt>
      <trkpt lat="47.34144" lon="2.85096">
        <ele>170.60000610352</ele>
        <time>2019-10-12T10:01:55Z</time>
      </trkpt>
      <trkpt lat="47.34141" lon="2.85088">
        <ele>170.80000305176</ele>
        <time>2019-10-12T10:02:00Z</time>
      </trkpt>
      <trkpt lat="47.34137" lon="2.85079">
        <ele>171</ele>
        <time>2019-10-12T10:02:05Z</time>
      </trkpt>
      <trkpt lat="47.34134" lon="2.85071">
        <ele>171.19999694824</ele>
        <time>2019-10-12T10:02:10Z</time>
      </trkpt>
      <trkpt lat="47.3413" lon="2.85064">
        <ele>171.19999694824</ele>
        <time>2019-10-12T10:02:15Z</time>
      </trkpt>
      <trkpt lat="47.34126" lon="2.85056">
        <ele>171.19999694824</ele>
        <time>2019-10-12T10:02:20Z</time>
      </trkpt>
      <trkpt lat="47.34122" lon="2.85046">
        <ele>171.39999389648</ele>
        <time>2019-10-12T10:02:26Z</time>
      </trkpt>
      <trkpt lat="47.34119" lon="2.85039">
        <ele>171.60000610352</ele>
        <time>2019-10-12T10:02:31Z</time>
      </trkpt>
      <trkpt lat="47.34115" lon="2.85031">
        <ele>171.60000610352</ele>
        <time>2019-10-12T10:02:36Z</time>
      </trkpt>
      <trkpt lat="47.34111" lon="2.85023">
        <ele>171.60000610352</ele>
        <time>2019-10-12T10:02:41Z</time>
      </trkpt>
      <trkpt lat="47.34108" lon="2.85016">
        <ele>171.80000305176</ele>
        <time>2019-10-12T10:02:46Z</time>
      </trkpt>
      <trkpt lat="47.34104" lon="2.85009">
        <ele>171.80000305176</ele>
        <time>2019-10-12T10:02:51Z</time>
      </trkpt>
      <trkpt lat="47.341" lon="2.85002">
        <ele>171.80000305176</ele>
        <time>2019-10-12T10:02:56Z</time>
      </trkpt>
      <trkpt lat="47.34097" lon="2.84996">
        <ele>171.60000610352</ele>
        <time>2019-10-12T10:03:01Z</time>
      </trkpt>
      <trkpt lat="47.34093" lon="2.84989">
        <ele>171.60000610352</ele>
        <time>2019-10-12T10:03:06Z</time>
      </trkpt>
      <trkpt lat="47.34088" lon="2.84981">
        <ele>171.60000610352</ele>
        <time>2019-10-12T10:03:11Z</time>
      </trkpt>
      <trkpt lat="47.34084" lon="2.84974">
        <ele>171.80000305176</ele>
        <time>2019-10-12T10:03:16Z</time>
      </trkpt>
      <trkpt lat="47.34081" lon="2.84968">
        <ele>171.80000305176</ele>
        <time>2019-10-12T10:03:21Z</time>
      </trkpt>
      <trkpt lat="47.34075" lon="2.84963">
        <ele>171.60000610352</ele>
        <time>2019-10-12T10:03:26Z</time>
      </trkpt>
      <trkpt lat="47.34071" lon="2.84957">
        <ele>171.60000610352</ele>
        <time>2019-10-12T10:03:31Z</time>
      </trkpt>
      <trkpt lat="47.34068" lon="2.8495">
        <ele>171.60000610352</ele>
        <time>2019-10-12T10:03:36Z</time>
      </trkpt>
      <trkpt lat="47.34064" lon="2.84943">
        <ele>171.60000610352</ele>
        <time>2019-10-12T10:03:41Z</time>
      </trkpt>
      <trkpt lat="47.3406" lon="2.8494">
        <ele>171.60000610352</ele>
        <time>2019-10-12T10:03:46Z</time>
      </trkpt>
      <trkpt lat="47.34056" lon="2.84935">
        <ele>171.60000610352</ele>
        <time>2019-10-12T10:03:51Z</time>
      </trkpt>
      <trkpt lat="47.34052" lon="2.84929">
        <ele>171.60000610352</ele>
        <time>2019-10-12T10:03:56Z</time>
      </trkpt>
      <trkpt lat="47.34048" lon="2.84923">
        <ele>172</ele>
        <time>2019-10-12T10:04:01Z</time>
      </trkpt>
      <trkpt lat="47.34041" lon="2.84918">
        <ele>172</ele>
        <time>2019-10-12T10:04:06Z</time>
      </trkpt>
      <trkpt lat="47.34036" lon="2.84913">
        <ele>172</ele>
        <time>2019-10-12T10:04:11Z</time>
      </trkpt>
      <trkpt lat="47.34032" lon="2.84908">
        <ele>172.19999694824</ele>
        <time>2019-10-12T10:04:16Z</time>
      </trkpt>
      <trkpt lat="47.34027" lon="2.84902">
        <ele>172.19999694824</ele>
        <time>2019-10-12T10:04:21Z</time>
      </trkpt>
      <trkpt lat="47.34024" lon="2.84898">
        <ele>172.39999389648</ele>
        <time>2019-10-12T10:04:26Z</time>
      </trkpt>
      <trkpt lat="47.34018" lon="2.84892">
        <ele>172.39999389648</ele>
        <time>2019-10-12T10:04:31Z</time>
      </trkpt>
      <trkpt lat="47.34013" lon="2.84887">
        <ele>172.60000610352</ele>
        <time>2019-10-12T10:04:36Z</time>
      </trkpt>
      <trkpt lat="47.34009" lon="2.84883">
        <ele>172.60000610352</ele>
        <time>2019-10-12T10:04:41Z</time>
      </trkpt>
      <trkpt lat="47.34003" lon="2.84878">
        <ele>172.60000610352</ele>
        <time>2019-10-12T10:04:46Z</time>
      </trkpt>
      <trkpt lat="47.33998" lon="2.84874">
        <ele>172.80000305176</ele>
        <time>2019-10-12T10:04:51Z</time>
      </trkpt>
      <trkpt lat="47.33994" lon="2.8487">
        <ele>173</ele>
        <time>2019-10-12T10:04:56Z</time>
      </trkpt>
      <trkpt lat="47.33989" lon="2.84865">
        <ele>173</ele>
        <time>2019-10-12T10:05:01Z</time>
      </trkpt>
      <trkpt lat="47.33984" lon="2.84861">
        <ele>173</ele>
        <time>2019-10-12T10:05:06Z</time>
      </trkpt>
      <trkpt lat="47.33979" lon="2.84857">
        <ele>173</ele>
        <time>2019-10-12T10:05:11Z</time>
      </trkpt>
      <trkpt lat="47.33973" lon="2.84852">
        <ele>173</ele>
        <time>2019-10-12T10:05:16Z</time>
      </trkpt>
      <trkpt lat="47.33968" lon="2.84848">
        <ele>173</ele>
        <time>2019-10-12T10:05:21Z</time>
      </trkpt>
      <trkpt lat="47.33962" lon="2.84844">
        <ele>173.19999694824</ele>
        <time>2019-10-12T10:05:26Z</time>
      </trkpt>
      <trkpt lat="47.33957" lon="2.8484">
        <ele>173.39999389648</ele>
        <time>2019-10-12T10:05:31Z</time>
      </trkpt>
      <trkpt lat="47.33952" lon="2.84837">
        <ele>173.60000610352</ele>
        <time>2019-10-12T10:05:36Z</time>
      </trkpt>
      <trkpt lat="47.33948" lon="2.84833">
        <ele>173.60000610352</ele>
        <time>2019-10-12T10:05:41Z</time>
      </trkpt>
      <trkpt lat="47.33943" lon="2.84828">
        <ele>173.60000610352</ele>
        <time>2019-10-12T10:05:46Z</time>
      </trkpt>
      <trkpt lat="47.33938" lon="2.84825">
        <ele>173.80000305176</ele>
        <time>2019-10-12T10:05:51Z</time>
      </trkpt>
      <trkpt lat="47.33933" lon="2.84821">
        <ele>174</ele>
        <time>2019-10-12T10:05:56Z</time>
      </trkpt>
      <trkpt lat="47.33929" lon="2.84818">
        <ele>173.80000305176</ele>
        <time>2019-10-12T10:06:01Z</time>
      </trkpt>
      <trkpt lat="47.33923" lon="2.84815">
        <ele>173.80000305176</ele>
        <time>2019-10-12T10:06:06Z</time>
      </trkpt>
      <trkpt lat="47.33917" lon="2.84811">
        <ele>173.80000305176</ele>
        <time>2019-10-12T10:06:11Z</time>
      </trkpt>
      <trkpt lat="47.33912" lon="2.84809">
        <ele>173.80000305176</ele>
        <time>2019-10-12T10:06:16Z</time>
      </trkpt>
      <trkpt lat="47.33907" lon="2.84806">
        <ele>173.80000305176</ele>
        <time>2019-10-12T10:06:21Z</time>
      </trkpt>
      <trkpt lat="47.339" lon="2.84802">
        <ele>173.80000305176</ele>
        <time>2019-10-12T10:06:26Z</time>
      </trkpt>
      <trkpt lat="47.33894" lon="2.848">
        <ele>174</ele>
        <time>2019-10-12T10:06:31Z</time>
      </trkpt>
      <trkpt lat="47.33887" lon="2.84798">
        <ele>174</ele>
        <time>2019-10-12T10:06:36Z</time>
      </trkpt>
      <trkpt lat="47.33882" lon="2.84795">
        <ele>174</ele>
        <time>2019-10-12T10:06:41Z</time>
      </trkpt>
      <trkpt lat="47.33876" lon="2.84792">
        <ele>174</ele>
        <time>2019-10-12T10:06:46Z</time>
      </trkpt>
      <trkpt lat="47.3387" lon="2.84789">
        <ele>174</ele>
        <time>2019-10-12T10:06:51Z</time>
      </trkpt>
      <trkpt lat="47.33865" lon="2.84786">
        <ele>174</ele>
        <time>2019-10-12T10:06:56Z</time>
      </trkpt>
      <trkpt lat="47.3386" lon="2.84782">
        <ele>174</ele>
        <time>2019-10-12T10:07:01Z</time>
      </trkpt>
      <trkpt lat="47.33854" lon="2.8478">
        <ele>174</ele>
        <time>2019-10-12T10:07:06Z</time>
      </trkpt>
      <trkpt lat="47.33848" lon="2.84781">
        <ele>174</ele>
        <time>2019-10-12T10:07:11Z</time>
      </trkpt>
      <trkpt lat="47.33842" lon="2.8478">
        <ele>174</ele>
        <time>2019-10-12T10:07:16Z</time>
      </trkpt>
      <trkpt lat="47.33836" lon="2.84779">
        <ele>174</ele>
        <time>2019-10-12T10:07:21Z</time>
      </trkpt>
      <trkpt lat="47.3383" lon="2.84778">
        <ele>174.19999694824</ele>
        <time>2019-10-12T10:07:26Z</time>
      </trkpt>
      <trkpt lat="47.33824" lon="2.84776">
        <ele>174</ele>
        <time>2019-10-12T10:07:31Z</time>
      </trkpt>
      <trkpt lat="47.33819" lon="2.84774">
        <ele>174</ele>
        <time>2019-10-12T10:07:36Z</time>
      </trkpt>
      <trkpt lat="47.33814" lon="2.8477">
        <ele>174</ele>
        <time>2019-10-12T10:07:41Z</time>
      </trkpt>
      <trkpt lat="47.33808" lon="2.84767">
        <ele>174.19999694824</ele>
        <time>2019-10-12T10:07:46Z</time>
      </trkpt>
      <trkpt lat="47.338" lon="2.84768">
        <ele>174.39999389648</ele>
        <time>2019-10-12T10:07:51Z</time>
      </trkpt>
      <trkpt lat="47.33793" lon="2.84768">
        <ele>174.39999389648</ele>
        <time>2019-10-12T10:07:56Z</time>
      </trkpt>
      <trkpt lat="47.33788" lon="2.84768">
        <ele>174.39999389648</ele>
        <time>2019-10-12T10:08:01Z</time>
      </trkpt>
      <trkpt lat="47.33782" lon="2.84768">
        <ele>174.39999389648</ele>
        <time>2019-10-12T10:08:06Z</time>
      </trkpt>
      <trkpt lat="47.33776" lon="2.84767">
        <ele>174.39999389648</ele>
        <time>2019-10-12T10:08:11Z</time>
      </trkpt>
      <trkpt lat="47.33769" lon="2.84767">
        <ele>174.19999694824</ele>
        <time>2019-10-12T10:08:16Z</time>
      </trkpt>
      <trkpt lat="47.33763" lon="2.84767">
        <ele>174.19999694824</ele>
        <time>2019-10-12T10:08:21Z</time>
      </trkpt>
      <trkpt lat="47.33757" lon="2.84768">
        <ele>174.19999694824</ele>
        <time>2019-10-12T10:08:26Z</time>
      </trkpt>
      <trkpt lat="47.33751" lon="2.84768">
        <ele>174.19999694824</ele>
        <time>2019-10-12T10:08:31Z</time>
      </trkpt>
      <trkpt lat="47.33746" lon="2.84768">
        <ele>174.19999694824</ele>
        <time>2019-10-12T10:08:35Z</time>
      </trkpt>
      <trkpt lat="47.3374" lon="2.84768">
        <ele>174.19999694824</ele>
        <time>2019-10-12T10:08:41Z</time>
      </trkpt>
      <trkpt lat="47.33734" lon="2.84768">
        <ele>174.19999694824</ele>
        <time>2019-10-12T10:08:46Z</time>
      </trkpt>
      <trkpt lat="47.33728" lon="2.84768">
        <ele>173.80000305176</ele>
        <time>2019-10-12T10:08:51Z</time>
      </trkpt>
      <trkpt lat="47.33722" lon="2.84769">
        <ele>173.80000305176</ele>
        <time>2019-10-12T10:08:56Z</time>
      </trkpt>
      <trkpt lat="47.33716" lon="2.84769">
        <ele>173.80000305176</ele>
        <time>2019-10-12T10:09:01Z</time>
      </trkpt>
      <trkpt lat="47.33711" lon="2.8477">
        <ele>173.80000305176</ele>
        <time>2019-10-12T10:09:06Z</time>
      </trkpt>
      <trkpt lat="47.33705" lon="2.84769">
        <ele>173.60000610352</ele>
        <time>2019-10-12T10:09:11Z</time>
      </trkpt>
      <trkpt lat="47.33698" lon="2.84769">
        <ele>173.60000610352</ele>
        <time>2019-10-12T10:09:16Z</time>
      </trkpt>
      <trkpt lat="47.33694" lon="2.84768">
        <ele>173.39999389648</ele>
        <time>2019-10-12T10:09:21Z</time>
      </trkpt>
      <trkpt lat="47.33689" lon="2.84769">
        <ele>173.39999389648</ele>
        <time>2019-10-12T10:09:26Z</time>
      </trkpt>
      <trkpt lat="47.33686" lon="2.84772">
        <ele>172.80000305176</ele>
        <time>2019-10-12T10:09:31Z</time>
      </trkpt>
      <trkpt lat="47.33682" lon="2.84773">
        <ele>172.80000305176</ele>
        <time>2019-10-12T10:09:36Z</time>
      </trkpt>
      <trkpt lat="47.33677" lon="2.84774">
        <ele>172.60000610352</ele>
        <time>2019-10-12T10:09:41Z</time>
      </trkpt>
      <trkpt lat="47.33672" lon="2.84774">
        <ele>172.19999694824</ele>
        <time>2019-10-12T10:09:46Z</time>
      </trkpt>
      <trkpt lat="47.33666" lon="2.84775">
        <ele>172</ele>
        <time>2019-10-12T10:09:51Z</time>
      </trkpt>
      <trkpt lat="47.3366" lon="2.84778">
        <ele>172</ele>
        <time>2019-10-12T10:09:56Z</time>
      </trkpt>
      <trkpt lat="47.33653" lon="2.84784">
        <ele>172</ele>
        <time>2019-10-12T10:10:01Z</time>
      </trkpt>
      <trkpt lat="47.33646" lon="2.84788">
        <ele>172.19999694824</ele>
        <time>2019-10-12T10:10:06Z</time>
      </trkpt>
      <trkpt lat="47.33638" lon="2.84793">
        <ele>172.19999694824</ele>
        <time>2019-10-12T10:10:11Z</time>
      </trkpt>
      <trkpt lat="47.33631" lon="2.84795">
        <ele>172.19999694824</ele>
        <time>2019-10-12T10:10:16Z</time>
      </trkpt>
      <trkpt lat="47.33624" lon="2.84798">
        <ele>172.39999389648</ele>
        <time>2019-10-12T10:10:21Z</time>
      </trkpt>
      <trkpt lat="47.33619" lon="2.848">
        <ele>172.39999389648</ele>
        <time>2019-10-12T10:10:26Z</time>
      </trkpt>
      <trkpt lat="47.33612" lon="2.84804">
        <ele>172.19999694824</ele>
        <time>2019-10-12T10:10:31Z</time>
      </trkpt>
      <trkpt lat="47.33606" lon="2.84808">
        <ele>172.19999694824</ele>
        <time>2019-10-12T10:10:36Z</time>
      </trkpt>
      <trkpt lat="47.336" lon="2.84811">
        <ele>172.39999389648</ele>
        <time>2019-10-12T10:10:41Z</time>
      </trkpt>
      <trkpt lat="47.33595" lon="2.84814">
        <ele>172.39999389648</ele>
        <time>2019-10-12T10:10:46Z</time>
      </trkpt>
      <trkpt lat="47.33589" lon="2.84816">
        <ele>172.39999389648</ele>
        <time>2019-10-12T10:10:51Z</time>
      </trkpt>
      <trkpt lat="47.33585" lon="2.84811">
        <ele>172.39999389648</ele>
        <time>2019-10-12T10:10:56Z</time>
      </trkpt>
      <trkpt lat="47.33581" lon="2.84808">
        <ele>171.60000610352</ele>
        <time>2019-10-12T10:11:01Z</time>
      </trkpt>
      <trkpt lat="47.33576" lon="2.84804">
        <ele>171.19999694824</ele>
        <time>2019-10-12T10:11:06Z</time>
      </trkpt>
      <trkpt lat="47.3357" lon="2.84801">
        <ele>171.39999389648</ele>
        <time>2019-10-12T10:11:11Z</time>
      </trkpt>
      <trkpt lat="47.33565" lon="2.84799">
        <ele>171.39999389648</ele>
        <time>2019-10-12T10:11:16Z</time>
      </trkpt>
      <trkpt lat="47.3356" lon="2.84798">
        <ele>171</ele>
        <time>2019-10-12T10:11:21Z</time>
      </trkpt>
      <trkpt lat="47.33556" lon="2.84802">
        <ele>170.39999389648</ele>
        <time>2019-10-12T10:11:26Z</time>
      </trkpt>
      <trkpt lat="47.3355" lon="2.84807">
        <ele>169.80000305176</ele>
        <time>2019-10-12T10:11:31Z</time>
      </trkpt>
      <trkpt lat="47.33544" lon="2.84809">
        <ele>169.39999389648</ele>
        <time>2019-10-12T10:11:36Z</time>
      </trkpt>
      <trkpt lat="47.33537" lon="2.84808">
        <ele>169.39999389648</ele>
        <time>2019-10-12T10:11:41Z</time>
      </trkpt>
      <trkpt lat="47.33531" lon="2.84808">
        <ele>169.80000305176</ele>
        <time>2019-10-12T10:11:46Z</time>
      </trkpt>
      <trkpt lat="47.33526" lon="2.84808">
        <ele>170.39999389648</ele>
        <time>2019-10-12T10:11:51Z</time>
      </trkpt>
      <trkpt lat="47.3352" lon="2.84807">
        <ele>170.80000305176</ele>
        <time>2019-10-12T10:11:56Z</time>
      </trkpt>
      <trkpt lat="47.33516" lon="2.84804">
        <ele>171.19999694824</ele>
        <time>2019-10-12T10:12:00Z</time>
      </trkpt>
      <trkpt lat="47.3351" lon="2.84802">
        <ele>171.39999389648</ele>
        <time>2019-10-12T10:12:06Z</time>
      </trkpt>
      <trkpt lat="47.33505" lon="2.848">
        <ele>171.80000305176</ele>
        <time>2019-10-12T10:12:11Z</time>
      </trkpt>
      <trkpt lat="47.33501" lon="2.84798">
        <ele>172</ele>
        <time>2019-10-12T10:12:16Z</time>
      </trkpt>
      <trkpt lat="47.33498" lon="2.84796">
        <ele>172.19999694824</ele>
        <time>2019-10-12T10:12:21Z</time>
      </trkpt>
      <trkpt lat="47.33498" lon="2.84796">
        <ele>172.39999389648</ele>
        <time>2019-10-12T10:12:26Z</time>
      </trkpt>
      <trkpt lat="47.33498" lon="2.84795">
        <ele>172.39999389648</ele>
        <time>2019-10-12T10:12:31Z</time>
      </trkpt>
      <trkpt lat="47.33498" lon="2.84796">
        <ele>172.39999389648</ele>
        <time>2019-10-12T10:12:36Z</time>
      </trkpt>
      <trkpt lat="47.33498" lon="2.84795">
        <ele>172.39999389648</ele>
        <time>2019-10-12T10:12:41Z</time>
      </trkpt>
      <trkpt lat="47.33499" lon="2.84794">
        <ele>172.39999389648</ele>
        <time>2019-10-12T10:12:46Z</time>
      </trkpt>
      <trkpt lat="47.33499" lon="2.84793">
        <ele>172.39999389648</ele>
        <time>2019-10-12T10:12:51Z</time>
      </trkpt>
      <trkpt lat="47.33499" lon="2.84793">
        <ele>172.39999389648</ele>
        <time>2019-10-12T10:12:56Z</time>
      </trkpt>
      <trkpt lat="47.33499" lon="2.84793">
        <ele>172.39999389648</ele>
        <time>2019-10-12T10:13:01Z</time>
      </trkpt>
      <trkpt lat="47.33499" lon="2.84792">
        <ele>172.39999389648</ele>
        <time>2019-10-12T10:13:06Z</time>
      </trkpt>
      <trkpt lat="47.33497" lon="2.84792">
        <ele>172.39999389648</ele>
        <time>2019-10-12T10:13:11Z</time>
      </trkpt>
      <trkpt lat="47.33496" lon="2.84793">
        <ele>172.39999389648</ele>
        <time>2019-10-12T10:13:16Z</time>
      </trkpt>
      <trkpt lat="47.33495" lon="2.84794">
        <ele>172.39999389648</ele>
        <time>2019-10-12T10:13:21Z</time>
      </trkpt>
      <trkpt lat="47.33495" lon="2.84795">
        <ele>172.39999389648</ele>
        <time>2019-10-12T10:13:26Z</time>
      </trkpt>
      <trkpt lat="47.33494" lon="2.84796">
        <ele>172.39999389648</ele>
        <time>2019-10-12T10:13:31Z</time>
      </trkpt>
      <trkpt lat="47.33494" lon="2.84797">
        <ele>172.39999389648</ele>
        <time>2019-10-12T10:13:36Z</time>
      </trkpt>
      <trkpt lat="47.33494" lon="2.84797">
        <ele>172.39999389648</ele>
        <time>2019-10-12T10:13:41Z</time>
      </trkpt>
      <trkpt lat="47.33494" lon="2.84797">
        <ele>172.39999389648</ele>
        <time>2019-10-12T10:13:46Z</time>
      </trkpt>
      <trkpt lat="47.33494" lon="2.84797">
        <ele>172.39999389648</ele>
        <time>2019-10-12T10:13:51Z</time>
      </trkpt>
      <trkpt lat="47.33495" lon="2.84798">
        <ele>172.39999389648</ele>
        <time>2019-10-12T10:13:56Z</time>
      </trkpt>
      <trkpt lat="47.33495" lon="2.84796">
        <ele>172.39999389648</ele>
        <time>2019-10-12T10:14:01Z</time>
      </trkpt>
      <trkpt lat="47.33496" lon="2.84796">
        <ele>172.39999389648</ele>
        <time>2019-10-12T10:14:06Z</time>
      </trkpt>
      <trkpt lat="47.33494" lon="2.84795">
        <ele>172.39999389648</ele>
        <time>2019-10-12T10:14:11Z</time>
      </trkpt>
      <trkpt lat="47.33495" lon="2.84795">
        <ele>172.39999389648</ele>
        <time>2019-10-12T10:14:16Z</time>
      </trkpt>
      <trkpt lat="47.33495" lon="2.84795">
        <ele>172.39999389648</ele>
        <time>2019-10-12T10:14:21Z</time>
      </trkpt>
      <trkpt lat="47.33496" lon="2.84795">
        <ele>172.39999389648</ele>
        <time>2019-10-12T10:14:26Z</time>
      </trkpt>
      <trkpt lat="47.33497" lon="2.84793">
        <ele>172.39999389648</ele>
        <time>2019-10-12T10:14:31Z</time>
      </trkpt>
      <trkpt lat="47.33498" lon="2.84793">
        <ele>172.39999389648</ele>
        <time>2019-10-12T10:14:36Z</time>
      </trkpt>
      <trkpt lat="47.33496" lon="2.84794">
        <ele>172.39999389648</ele>
        <time>2019-10-12T10:14:41Z</time>
      </trkpt>
      <trkpt lat="47.33495" lon="2.84793">
        <ele>172.39999389648</ele>
        <time>2019-10-12T10:14:46Z</time>
      </trkpt>
      <trkpt lat="47.33495" lon="2.84792">
        <ele>172.39999389648</ele>
        <time>2019-10-12T10:14:51Z</time>
      </trkpt>
      <trkpt lat="47.33495" lon="2.84793">
        <ele>172.39999389648</ele>
        <time>2019-10-12T10:14:56Z</time>
      </trkpt>
      <trkpt lat="47.33495" lon="2.84794">
        <ele>172.39999389648</ele>
        <time>2019-10-12T10:15:01Z</time>
      </trkpt>
      <trkpt lat="47.33495" lon="2.84794">
        <ele>172.39999389648</ele>
        <time>2019-10-12T10:15:06Z</time>
      </trkpt>
      <trkpt lat="47.33494" lon="2.84794">
        <ele>172.39999389648</ele>
        <time>2019-10-12T10:15:11Z</time>
      </trkpt>
      <trkpt lat="47.33494" lon="2.84794">
        <ele>172.39999389648</ele>
        <time>2019-10-12T10:15:16Z</time>
      </trkpt>
      <trkpt lat="47.33493" lon="2.84795">
        <ele>172.39999389648</ele>
        <time>2019-10-12T10:15:21Z</time>
      </trkpt>
      <trkpt lat="47.33493" lon="2.84795">
        <ele>172.39999389648</ele>
        <time>2019-10-12T10:15:26Z</time>
      </trkpt>
      <trkpt lat="47.33493" lon="2.84794">
        <ele>172.39999389648</ele>
        <time>2019-10-12T10:15:31Z</time>
      </trkpt>
      <trkpt lat="47.33493" lon="2.84794">
        <ele>172.39999389648</ele>
        <time>2019-10-12T10:15:36Z</time>
      </trkpt>
      <trkpt lat="47.33493" lon="2.84794">
        <ele>172.39999389648</ele>
        <time>2019-10-12T10:15:41Z</time>
      </trkpt>
      <trkpt lat="47.33492" lon="2.84794">
        <ele>172.39999389648</ele>
        <time>2019-10-12T10:15:46Z</time>
      </trkpt>
      <trkpt lat="47.33492" lon="2.84795">
        <ele>172.39999389648</ele>
        <time>2019-10-12T10:15:51Z</time>
      </trkpt>
      <trkpt lat="47.33492" lon="2.84795">
        <ele>172.39999389648</ele>
        <time>2019-10-12T10:15:56Z</time>
      </trkpt>
      <trkpt lat="47.33492" lon="2.84796">
        <ele>172.39999389648</ele>
        <time>2019-10-12T10:16:01Z</time>
      </trkpt>
      <trkpt lat="47.33492" lon="2.84795">
        <ele>172.39999389648</ele>
        <time>2019-10-12T10:16:06Z</time>
      </trkpt>
      <trkpt lat="47.33492" lon="2.84796">
        <ele>172.39999389648</ele>
        <time>2019-10-12T10:16:11Z</time>
      </trkpt>
      <trkpt lat="47.33492" lon="2.84795">
        <ele>172.39999389648</ele>
        <time>2019-10-12T10:16:16Z</time>
      </trkpt>
      <trkpt lat="47.33492" lon="2.84796">
        <ele>172.39999389648</ele>
        <time>2019-10-12T10:16:21Z</time>
      </trkpt>
      <trkpt lat="47.33491" lon="2.84797">
        <ele>172.39999389648</ele>
        <time>2019-10-12T10:16:26Z</time>
      </trkpt>
      <trkpt lat="47.3349" lon="2.84798">
        <ele>175.80000305176</ele>
        <time>2019-10-12T10:16:31Z</time>
      </trkpt>
      <trkpt lat="47.3349" lon="2.84798">
        <ele>175.80000305176</ele>
        <time>2019-10-12T10:16:36Z</time>
      </trkpt>
      <trkpt lat="47.33489" lon="2.84798">
        <ele>175.80000305176</ele>
        <time>2019-10-12T10:16:41Z</time>
      </trkpt>
      <trkpt lat="47.33487" lon="2.84798">
        <ele>175.80000305176</ele>
        <time>2019-10-12T10:16:46Z</time>
      </trkpt>
      <trkpt lat="47.33485" lon="2.84798">
        <ele>176</ele>
        <time>2019-10-12T10:16:51Z</time>
      </trkpt>
      <trkpt lat="47.33486" lon="2.84798">
        <ele>176.39999389648</ele>
        <time>2019-10-12T10:16:56Z</time>
      </trkpt>
      <trkpt lat="47.33487" lon="2.84797">
        <ele>176.39999389648</ele>
        <time>2019-10-12T10:17:01Z</time>
      </trkpt>
      <trkpt lat="47.33485" lon="2.84793">
        <ele>176.39999389648</ele>
        <time>2019-10-12T10:17:06Z</time>
      </trkpt>
      <trkpt lat="47.33481" lon="2.84789">
        <ele>176.60000610352</ele>
        <time>2019-10-12T10:17:11Z</time>
      </trkpt>
      <trkpt lat="47.33477" lon="2.84786">
        <ele>176.80000305176</ele>
        <time>2019-10-12T10:17:16Z</time>
      </trkpt>
      <trkpt lat="47.33474" lon="2.84784">
        <ele>177</ele>
        <time>2019-10-12T10:17:21Z</time>
      </trkpt>
      <trkpt lat="47.3347" lon="2.84781">
        <ele>177.19999694824</ele>
        <time>2019-10-12T10:17:26Z</time>
      </trkpt>
      <trkpt lat="47.33465" lon="2.84777">
        <ele>177.39999389648</ele>
        <time>2019-10-12T10:17:31Z</time>
      </trkpt>
      <trkpt lat="47.33462" lon="2.84773">
        <ele>177.60000610352</ele>
        <time>2019-10-12T10:17:36Z</time>
      </trkpt>
      <trkpt lat="47.33459" lon="2.84768">
        <ele>177.80000305176</ele>
        <time>2019-10-12T10:17:41Z</time>
      </trkpt>
      <trkpt lat="47.33454" lon="2.84764">
        <ele>178.39999389648</ele>
        <time>2019-10-12T10:17:46Z</time>
      </trkpt>
      <trkpt lat="47.3345" lon="2.8476">
        <ele>178.80000305176</ele>
        <time>2019-10-12T10:17:51Z</time>
      </trkpt>
      <trkpt lat="47.33446" lon="2.84756">
        <ele>179</ele>
        <time>2019-10-12T10:17:56Z</time>
      </trkpt>
      <trkpt lat="47.33442" lon="2.84751">
        <ele>179.19999694824</ele>
        <time>2019-10-12T10:18:01Z</time>
      </trkpt>
      <trkpt lat="47.33438" lon="2.84748">
        <ele>179.60000610352</ele>
        <time>2019-10-12T10:18:06Z</time>
      </trkpt>
      <trkpt lat="47.33432" lon="2.84743">
        <ele>179.80000305176</ele>
        <time>2019-10-12T10:18:11Z</time>
      </trkpt>
      <trkpt lat="47.33426" lon="2.84738">
        <ele>180.19999694824</ele>
        <time>2019-10-12T10:18:16Z</time>
      </trkpt>
      <trkpt lat="47.3342" lon="2.84734">
        <ele>180.60000610352</ele>
        <time>2019-10-12T10:18:21Z</time>
      </trkpt>
      <trkpt lat="47.33415" lon="2.84729">
        <ele>180.60000610352</ele>
        <time>2019-10-12T10:18:26Z</time>
      </trkpt>
      <trkpt lat="47.3341" lon="2.84726">
        <ele>181.19999694824</ele>
        <time>2019-10-12T10:18:31Z</time>
      </trkpt>
      <trkpt lat="47.33405" lon="2.84721">
        <ele>181.80000305176</ele>
        <time>2019-10-12T10:18:36Z</time>
      </trkpt>
      <trkpt lat="47.33401" lon="2.84717">
        <ele>182.19999694824</ele>
        <time>2019-10-12T10:18:41Z</time>
      </trkpt>
      <trkpt lat="47.33397" lon="2.84712">
        <ele>182.39999389648</ele>
        <time>2019-10-12T10:18:46Z</time>
      </trkpt>
      <trkpt lat="47.33393" lon="2.84706">
        <ele>183.19999694824</ele>
        <time>2019-10-12T10:18:51Z</time>
      </trkpt>
      <trkpt lat="47.33389" lon="2.84701">
        <ele>183.60000610352</ele>
        <time>2019-10-12T10:18:56Z</time>
      </trkpt>
      <trkpt lat="47.33387" lon="2.84694">
        <ele>184.19999694824</ele>
        <time>2019-10-12T10:19:01Z</time>
      </trkpt>
      <trkpt lat="47.33384" lon="2.84687">
        <ele>184.60000610352</ele>
        <time>2019-10-12T10:19:06Z</time>
      </trkpt>
      <trkpt lat="47.33383" lon="2.84679">
        <ele>185.19999694824</ele>
        <time>2019-10-12T10:19:11Z</time>
      </trkpt>
      <trkpt lat="47.33381" lon="2.84671">
        <ele>185.60000610352</ele>
        <time>2019-10-12T10:19:16Z</time>
      </trkpt>
      <trkpt lat="47.33379" lon="2.84665">
        <ele>186</ele>
        <time>2019-10-12T10:19:21Z</time>
      </trkpt>
      <trkpt lat="47.33375" lon="2.8466">
        <ele>186.39999389648</ele>
        <time>2019-10-12T10:19:26Z</time>
      </trkpt>
      <trkpt lat="47.33372" lon="2.84654">
        <ele>187</ele>
        <time>2019-10-12T10:19:31Z</time>
      </trkpt>
      <trkpt lat="47.33369" lon="2.84648">
        <ele>187.80000305176</ele>
        <time>2019-10-12T10:19:36Z</time>
      </trkpt>
      <trkpt lat="47.33367" lon="2.84641">
        <ele>188.39999389648</ele>
        <time>2019-10-12T10:19:41Z</time>
      </trkpt>
      <trkpt lat="47.33365" lon="2.84635">
        <ele>189</ele>
        <time>2019-10-12T10:19:46Z</time>
      </trkpt>
      <trkpt lat="47.33361" lon="2.84628">
        <ele>189.60000610352</ele>
        <time>2019-10-12T10:19:51Z</time>
      </trkpt>
      <trkpt lat="47.33359" lon="2.84621">
        <ele>190.19999694824</ele>
        <time>2019-10-12T10:19:56Z</time>
      </trkpt>
      <trkpt lat="47.33355" lon="2.84614">
        <ele>191</ele>
        <time>2019-10-12T10:20:01Z</time>
      </trkpt>
      <trkpt lat="47.33352" lon="2.84607">
        <ele>191.60000610352</ele>
        <time>2019-10-12T10:20:06Z</time>
      </trkpt>
      <trkpt lat="47.3335" lon="2.84601">
        <ele>192.19999694824</ele>
        <time>2019-10-12T10:20:11Z</time>
      </trkpt>
      <trkpt lat="47.33348" lon="2.84594">
        <ele>192.80000305176</ele>
        <time>2019-10-12T10:20:16Z</time>
      </trkpt>
      <trkpt lat="47.33345" lon="2.84589">
        <ele>193.39999389648</ele>
        <time>2019-10-12T10:20:21Z</time>
      </trkpt>
      <trkpt lat="47.33342" lon="2.84583">
        <ele>194</ele>
        <time>2019-10-12T10:20:26Z</time>
      </trkpt>
      <trkpt lat="47.33339" lon="2.84577">
        <ele>194.60000610352</ele>
        <time>2019-10-12T10:20:31Z</time>
      </trkpt>
      <trkpt lat="47.33336" lon="2.84572">
        <ele>195.19999694824</ele>
        <time>2019-10-12T10:20:36Z</time>
      </trkpt>
      <trkpt lat="47.33333" lon="2.84567">
        <ele>195.60000610352</ele>
        <time>2019-10-12T10:20:41Z</time>
      </trkpt>
      <trkpt lat="47.33332" lon="2.84562">
        <ele>196.19999694824</ele>
        <time>2019-10-12T10:20:46Z</time>
      </trkpt>
      <trkpt lat="47.3333" lon="2.84559">
        <ele>197</ele>
        <time>2019-10-12T10:20:51Z</time>
      </trkpt>
      <trkpt lat="47.33328" lon="2.84556">
        <ele>197.60000610352</ele>
        <time>2019-10-12T10:20:56Z</time>
      </trkpt>
      <trkpt lat="47.33327" lon="2.84556">
        <ele>197.80000305176</ele>
        <time>2019-10-12T10:21:01Z</time>
      </trkpt>
      <trkpt lat="47.33326" lon="2.84555">
        <ele>198.39999389648</ele>
        <time>2019-10-12T10:21:06Z</time>
      </trkpt>
      <trkpt lat="47.33326" lon="2.84555">
        <ele>198.39999389648</ele>
        <time>2019-10-12T10:21:11Z</time>
      </trkpt>
      <trkpt lat="47.33325" lon="2.84555">
        <ele>198.39999389648</ele>
        <time>2019-10-12T10:21:16Z</time>
      </trkpt>
      <trkpt lat="47.33325" lon="2.84553">
        <ele>198.19999694824</ele>
        <time>2019-10-12T10:21:21Z</time>
      </trkpt>
      <trkpt lat="47.33325" lon="2.84553">
        <ele>198.39999389648</ele>
        <time>2019-10-12T10:21:26Z</time>
      </trkpt>
      <trkpt lat="47.33325" lon="2.84551">
        <ele>198.39999389648</ele>
        <time>2019-10-12T10:21:31Z</time>
      </trkpt>
      <trkpt lat="47.33325" lon="2.84551">
        <ele>198.39999389648</ele>
        <time>2019-10-12T10:21:36Z</time>
      </trkpt>
      <trkpt lat="47.33324" lon="2.84551">
        <ele>198.19999694824</ele>
        <time>2019-10-12T10:21:41Z</time>
      </trkpt>
      <trkpt lat="47.33324" lon="2.84551">
        <ele>198.39999389648</ele>
        <time>2019-10-12T10:21:46Z</time>
      </trkpt>
      <trkpt lat="47.33321" lon="2.84547">
        <ele>198.60000610352</ele>
        <time>2019-10-12T10:21:51Z</time>
      </trkpt>
      <trkpt lat="47.33319" lon="2.84546">
        <ele>199</ele>
        <time>2019-10-12T10:21:56Z</time>
      </trkpt>
      <trkpt lat="47.33318" lon="2.84546">
        <ele>199.19999694824</ele>
        <time>2019-10-12T10:22:01Z</time>
      </trkpt>
      <trkpt lat="47.33318" lon="2.84546">
        <ele>199.19999694824</ele>
        <time>2019-10-12T10:22:06Z</time>
      </trkpt>
      <trkpt lat="47.33318" lon="2.84546">
        <ele>199.19999694824</ele>
        <time>2019-10-12T10:22:11Z</time>
      </trkpt>
      <trkpt lat="47.33318" lon="2.84547">
        <ele>199</ele>
        <time>2019-10-12T10:22:16Z</time>
      </trkpt>
      <trkpt lat="47.33318" lon="2.84547">
        <ele>199.19999694824</ele>
        <time>2019-10-12T10:22:21Z</time>
      </trkpt>
      <trkpt lat="47.33319" lon="2.84546">
        <ele>199.39999389648</ele>
        <time>2019-10-12T10:22:26Z</time>
      </trkpt>
      <trkpt lat="47.33319" lon="2.84546">
        <ele>199.39999389648</ele>
        <time>2019-10-12T10:22:31Z</time>
      </trkpt>
      <trkpt lat="47.33319" lon="2.84546">
        <ele>199.39999389648</ele>
        <time>2019-10-12T10:22:36Z</time>
      </trkpt>
      <trkpt lat="47.3332" lon="2.84545">
        <ele>199.19999694824</ele>
        <time>2019-10-12T10:22:41Z</time>
      </trkpt>
      <trkpt lat="47.33319" lon="2.84539">
        <ele>199</ele>
        <time>2019-10-12T10:22:46Z</time>
      </trkpt>
      <trkpt lat="47.33315" lon="2.84531">
        <ele>199.19999694824</ele>
        <time>2019-10-12T10:22:51Z</time>
      </trkpt>
      <trkpt lat="47.33311" lon="2.84523">
        <ele>200</ele>
        <time>2019-10-12T10:22:56Z</time>
      </trkpt>
      <trkpt lat="47.33308" lon="2.84516">
        <ele>200.60000610352</ele>
        <time>2019-10-12T10:23:01Z</time>
      </trkpt>
      <trkpt lat="47.33306" lon="2.84509">
        <ele>201.60000610352</ele>
        <time>2019-10-12T10:23:06Z</time>
      </trkpt>
      <trkpt lat="47.33303" lon="2.84504">
        <ele>202.39999389648</ele>
        <time>2019-10-12T10:23:11Z</time>
      </trkpt>
      <trkpt lat="47.33299" lon="2.84499">
        <ele>203.19999694824</ele>
        <time>2019-10-12T10:23:16Z</time>
      </trkpt>
      <trkpt lat="47.33295" lon="2.84494">
        <ele>203.80000305176</ele>
        <time>2019-10-12T10:23:21Z</time>
      </trkpt>
      <trkpt lat="47.33292" lon="2.84488">
        <ele>204.60000610352</ele>
        <time>2019-10-12T10:23:26Z</time>
      </trkpt>
      <trkpt lat="47.33289" lon="2.84484">
        <ele>205.39999389648</ele>
        <time>2019-10-12T10:23:31Z</time>
      </trkpt>
      <trkpt lat="47.33285" lon="2.84479">
        <ele>206</ele>
        <time>2019-10-12T10:23:36Z</time>
      </trkpt>
      <trkpt lat="47.33281" lon="2.84476">
        <ele>206.80000305176</ele>
        <time>2019-10-12T10:23:41Z</time>
      </trkpt>
      <trkpt lat="47.33277" lon="2.84471">
        <ele>207.60000610352</ele>
        <time>2019-10-12T10:23:46Z</time>
      </trkpt>
      <trkpt lat="47.33274" lon="2.84466">
        <ele>208.60000610352</ele>
        <time>2019-10-12T10:23:51Z</time>
      </trkpt>
      <trkpt lat="47.33271" lon="2.84462">
        <ele>209.39999389648</ele>
        <time>2019-10-12T10:23:56Z</time>
      </trkpt>
      <trkpt lat="47.33268" lon="2.84457">
        <ele>210.39999389648</ele>
        <time>2019-10-12T10:24:01Z</time>
      </trkpt>
      <trkpt lat="47.33265" lon="2.84453">
        <ele>211.19999694824</ele>
        <time>2019-10-12T10:24:06Z</time>
      </trkpt>
      <trkpt lat="47.33263" lon="2.84451">
        <ele>212</ele>
        <time>2019-10-12T10:24:11Z</time>
      </trkpt>
      <trkpt lat="47.3326" lon="2.8445">
        <ele>212.80000305176</ele>
        <time>2019-10-12T10:24:16Z</time>
      </trkpt>
      <trkpt lat="47.33257" lon="2.84449">
        <ele>213.60000610352</ele>
        <time>2019-10-12T10:24:21Z</time>
      </trkpt>
      <trkpt lat="47.33254" lon="2.84449">
        <ele>214.39999389648</ele>
        <time>2019-10-12T10:24:26Z</time>
      </trkpt>
      <trkpt lat="47.33249" lon="2.8445">
        <ele>215.19999694824</ele>
        <time>2019-10-12T10:24:31Z</time>
      </trkpt>
      <trkpt lat="47.33245" lon="2.84453">
        <ele>216</ele>
        <time>2019-10-12T10:24:36Z</time>
      </trkpt>
      <trkpt lat="47.33242" lon="2.84457">
        <ele>216.80000305176</ele>
        <time>2019-10-12T10:24:41Z</time>
      </trkpt>
      <trkpt lat="47.3324" lon="2.84462">
        <ele>217.60000610352</ele>
        <time>2019-10-12T10:24:46Z</time>
      </trkpt>
      <trkpt lat="47.33238" lon="2.84466">
        <ele>218.80000305176</ele>
        <time>2019-10-12T10:24:51Z</time>
      </trkpt>
      <trkpt lat="47.33235" lon="2.84471">
        <ele>219.39999389648</ele>
        <time>2019-10-12T10:24:56Z</time>
      </trkpt>
      <trkpt lat="47.3323" lon="2.84477">
        <ele>219.60000610352</ele>
        <time>2019-10-12T10:25:01Z</time>
      </trkpt>
      <trkpt lat="47.33226" lon="2.84482">
        <ele>220.39999389648</ele>
        <time>2019-10-12T10:25:06Z</time>
      </trkpt>
      <trkpt lat="47.33221" lon="2.84487">
        <ele>221</ele>
        <time>2019-10-12T10:25:11Z</time>
      </trkpt>
      <trkpt lat="47.33216" lon="2.84491">
        <ele>221.60000610352</ele>
        <time>2019-10-12T10:25:16Z</time>
      </trkpt>
      <trkpt lat="47.33212" lon="2.84496">
        <ele>222.19999694824</ele>
        <time>2019-10-12T10:25:21Z</time>
      </trkpt>
      <trkpt lat="47.33206" lon="2.845">
        <ele>222.60000610352</ele>
        <time>2019-10-12T10:25:26Z</time>
      </trkpt>
      <trkpt lat="47.33201" lon="2.84505">
        <ele>223.19999694824</ele>
        <time>2019-10-12T10:25:31Z</time>
      </trkpt>
      <trkpt lat="47.33197" lon="2.84509">
        <ele>223.60000610352</ele>
        <time>2019-10-12T10:25:36Z</time>
      </trkpt>
      <trkpt lat="47.33193" lon="2.84513">
        <ele>224.39999389648</ele>
        <time>2019-10-12T10:25:41Z</time>
      </trkpt>
      <trkpt lat="47.3319" lon="2.84515">
        <ele>224.80000305176</ele>
        <time>2019-10-12T10:25:46Z</time>
      </trkpt>
      <trkpt lat="47.33186" lon="2.84518">
        <ele>225.39999389648</ele>
        <time>2019-10-12T10:25:51Z</time>
      </trkpt>
      <trkpt lat="47.3318" lon="2.84521">
        <ele>225.80000305176</ele>
        <time>2019-10-12T10:25:56Z</time>
      </trkpt>
      <trkpt lat="47.33174" lon="2.84522">
        <ele>226.60000610352</ele>
        <time>2019-10-12T10:26:01Z</time>
      </trkpt>
      <trkpt lat="47.33169" lon="2.84522">
        <ele>227.19999694824</ele>
        <time>2019-10-12T10:26:06Z</time>
      </trkpt>
      <trkpt lat="47.33162" lon="2.84522">
        <ele>227.80000305176</ele>
        <time>2019-10-12T10:26:11Z</time>
      </trkpt>
      <trkpt lat="47.33157" lon="2.84522">
        <ele>228.39999389648</ele>
        <time>2019-10-12T10:26:16Z</time>
      </trkpt>
      <trkpt lat="47.33151" lon="2.84522">
        <ele>228.80000305176</ele>
        <time>2019-10-12T10:26:21Z</time>
      </trkpt>
      <trkpt lat="47.33145" lon="2.84522">
        <ele>229.19999694824</ele>
        <time>2019-10-12T10:26:26Z</time>
      </trkpt>
      <trkpt lat="47.33138" lon="2.84524">
        <ele>229.60000610352</ele>
        <time>2019-10-12T10:26:31Z</time>
      </trkpt>
      <trkpt lat="47.33132" lon="2.84526">
        <ele>230</ele>
        <time>2019-10-12T10:26:36Z</time>
      </trkpt>
      <trkpt lat="47.33126" lon="2.84525">
        <ele>230.19999694824</ele>
        <time>2019-10-12T10:26:41Z</time>
      </trkpt>
      <trkpt lat="47.3312" lon="2.84524">
        <ele>230.60000610352</ele>
        <time>2019-10-12T10:26:46Z</time>
      </trkpt>
      <trkpt lat="47.33114" lon="2.84521">
        <ele>231.19999694824</ele>
        <time>2019-10-12T10:26:51Z</time>
      </trkpt>
      <trkpt lat="47.33108" lon="2.84516">
        <ele>231.60000610352</ele>
        <time>2019-10-12T10:26:56Z</time>
      </trkpt>
      <trkpt lat="47.33104" lon="2.84511">
        <ele>232.19999694824</ele>
        <time>2019-10-12T10:27:01Z</time>
      </trkpt>
      <trkpt lat="47.33101" lon="2.84505">
        <ele>232.80000305176</ele>
        <time>2019-10-12T10:27:06Z</time>
      </trkpt>
      <trkpt lat="47.33099" lon="2.84498">
        <ele>233.39999389648</ele>
        <time>2019-10-12T10:27:11Z</time>
      </trkpt>
      <trkpt lat="47.331" lon="2.84497">
        <ele>234</ele>
        <time>2019-10-12T10:27:16Z</time>
      </trkpt>
      <trkpt lat="47.331" lon="2.84496">
        <ele>234</ele>
        <time>2019-10-12T10:27:21Z</time>
      </trkpt>
      <trkpt lat="47.33101" lon="2.84496">
        <ele>234</ele>
        <time>2019-10-12T10:27:26Z</time>
      </trkpt>
      <trkpt lat="47.331" lon="2.84495">
        <ele>234.19999694824</ele>
        <time>2019-10-12T10:27:31Z</time>
      </trkpt>
      <trkpt lat="47.331" lon="2.84495">
        <ele>234.19999694824</ele>
        <time>2019-10-12T10:27:36Z</time>
      </trkpt>
      <trkpt lat="47.331" lon="2.84494">
        <ele>234.39999389648</ele>
        <time>2019-10-12T10:27:41Z</time>
      </trkpt>
      <trkpt lat="47.331" lon="2.84494">
        <ele>234.39999389648</ele>
        <time>2019-10-12T10:27:46Z</time>
      </trkpt>
      <trkpt lat="47.331" lon="2.84496">
        <ele>234.60000610352</ele>
        <time>2019-10-12T10:27:51Z</time>
      </trkpt>
      <trkpt lat="47.331" lon="2.84496">
        <ele>234.60000610352</ele>
        <time>2019-10-12T10:27:56Z</time>
      </trkpt>
      <trkpt lat="47.331" lon="2.84496">
        <ele>234.60000610352</ele>
        <time>2019-10-12T10:28:01Z</time>
      </trkpt>
      <trkpt lat="47.33101" lon="2.84497">
        <ele>234.80000305176</ele>
        <time>2019-10-12T10:28:06Z</time>
      </trkpt>
      <trkpt lat="47.33101" lon="2.84497">
        <ele>234.80000305176</ele>
        <time>2019-10-12T10:28:11Z</time>
      </trkpt>
      <trkpt lat="47.33101" lon="2.84498">
        <ele>234.80000305176</ele>
        <time>2019-10-12T10:28:16Z</time>
      </trkpt>
      <trkpt lat="47.33102" lon="2.84497">
        <ele>235</ele>
        <time>2019-10-12T10:28:21Z</time>
      </trkpt>
      <trkpt lat="47.33102" lon="2.84497">
        <ele>235</ele>
        <time>2019-10-12T10:28:26Z</time>
      </trkpt>
      <trkpt lat="47.33103" lon="2.84495">
        <ele>235</ele>
        <time>2019-10-12T10:28:31Z</time>
      </trkpt>
      <trkpt lat="47.33103" lon="2.84494">
        <ele>235.19999694824</ele>
        <time>2019-10-12T10:28:36Z</time>
      </trkpt>
      <trkpt lat="47.33104" lon="2.84494">
        <ele>235.19999694824</ele>
        <time>2019-10-12T10:28:41Z</time>
      </trkpt>
      <trkpt lat="47.33104" lon="2.84493">
        <ele>235.19999694824</ele>
        <time>2019-10-12T10:28:46Z</time>
      </trkpt>
      <trkpt lat="47.33104" lon="2.84494">
        <ele>235.19999694824</ele>
        <time>2019-10-12T10:28:51Z</time>
      </trkpt>
      <trkpt lat="47.33103" lon="2.84494">
        <ele>235.19999694824</ele>
        <time>2019-10-12T10:28:56Z</time>
      </trkpt>
      <trkpt lat="47.33102" lon="2.84496">
        <ele>235.39999389648</ele>
        <time>2019-10-12T10:29:01Z</time>
      </trkpt>
      <trkpt lat="47.33101" lon="2.84496">
        <ele>235.39999389648</ele>
        <time>2019-10-12T10:29:06Z</time>
      </trkpt>
      <trkpt lat="47.331" lon="2.84497">
        <ele>235.60000610352</ele>
        <time>2019-10-12T10:29:11Z</time>
      </trkpt>
      <trkpt lat="47.331" lon="2.84497">
        <ele>235.60000610352</ele>
        <time>2019-10-12T10:29:16Z</time>
      </trkpt>
      <trkpt lat="47.331" lon="2.84497">
        <ele>235.60000610352</ele>
        <time>2019-10-12T10:29:21Z</time>
      </trkpt>
      <trkpt lat="47.331" lon="2.84496">
        <ele>235.60000610352</ele>
        <time>2019-10-12T10:29:26Z</time>
      </trkpt>
      <trkpt lat="47.33101" lon="2.84495">
        <ele>235.39999389648</ele>
        <time>2019-10-12T10:29:31Z</time>
      </trkpt>
      <trkpt lat="47.33101" lon="2.84494">
        <ele>235.39999389648</ele>
        <time>2019-10-12T10:29:36Z</time>
      </trkpt>
      <trkpt lat="47.33102" lon="2.84493">
        <ele>235.39999389648</ele>
        <time>2019-10-12T10:29:41Z</time>
      </trkpt>
      <trkpt lat="47.33102" lon="2.84493">
        <ele>235.39999389648</ele>
        <time>2019-10-12T10:29:46Z</time>
      </trkpt>
      <trkpt lat="47.33103" lon="2.84493">
        <ele>235.39999389648</ele>
        <time>2019-10-12T10:29:51Z</time>
      </trkpt>
      <trkpt lat="47.33104" lon="2.84492">
        <ele>235.39999389648</ele>
        <time>2019-10-12T10:29:56Z</time>
      </trkpt>
      <trkpt lat="47.33104" lon="2.84491">
        <ele>235.39999389648</ele>
        <time>2019-10-12T10:30:01Z</time>
      </trkpt>
      <trkpt lat="47.331" lon="2.84485">
        <ele>235.39999389648</ele>
        <time>2019-10-12T10:30:06Z</time>
      </trkpt>
      <trkpt lat="47.33098" lon="2.84476">
        <ele>235.19999694824</ele>
        <time>2019-10-12T10:30:11Z</time>
      </trkpt>
      <trkpt lat="47.33098" lon="2.84473">
        <ele>236</ele>
        <time>2019-10-12T10:30:16Z</time>
      </trkpt>
      <trkpt lat="47.33099" lon="2.84466">
        <ele>237</ele>
        <time>2019-10-12T10:30:21Z</time>
      </trkpt>
      <trkpt lat="47.331" lon="2.84456">
        <ele>237.80000305176</ele>
        <time>2019-10-12T10:30:26Z</time>
      </trkpt>
      <trkpt lat="47.33102" lon="2.84449">
        <ele>238.60000610352</ele>
        <time>2019-10-12T10:30:31Z</time>
      </trkpt>
      <trkpt lat="47.33103" lon="2.84442">
        <ele>239.60000610352</ele>
        <time>2019-10-12T10:30:36Z</time>
      </trkpt>
      <trkpt lat="47.33105" lon="2.84435">
        <ele>241</ele>
        <time>2019-10-12T10:30:41Z</time>
      </trkpt>
      <trkpt lat="47.33107" lon="2.84428">
        <ele>241.60000610352</ele>
        <time>2019-10-12T10:30:46Z</time>
      </trkpt>
      <trkpt lat="47.33104" lon="2.8442">
        <ele>241.80000305176</ele>
        <time>2019-10-12T10:30:51Z</time>
      </trkpt>
      <trkpt lat="47.33101" lon="2.84413">
        <ele>242.60000610352</ele>
        <time>2019-10-12T10:30:56Z</time>
      </trkpt>
      <trkpt lat="47.33098" lon="2.84407">
        <ele>243.39999389648</ele>
        <time>2019-10-12T10:31:01Z</time>
      </trkpt>
      <trkpt lat="47.33096" lon="2.84401">
        <ele>244</ele>
        <time>2019-10-12T10:31:06Z</time>
      </trkpt>
      <trkpt lat="47.33094" lon="2.84396">
        <ele>244.60000610352</ele>
        <time>2019-10-12T10:31:11Z</time>
      </trkpt>
      <trkpt lat="47.33092" lon="2.8439">
        <ele>245.19999694824</ele>
        <time>2019-10-12T10:31:16Z</time>
      </trkpt>
      <trkpt lat="47.33089" lon="2.84381">
        <ele>246.19999694824</ele>
        <time>2019-10-12T10:31:21Z</time>
      </trkpt>
      <trkpt lat="47.33087" lon="2.84374">
        <ele>246.80000305176</ele>
        <time>2019-10-12T10:31:26Z</time>
      </trkpt>
      <trkpt lat="47.33084" lon="2.84367">
        <ele>247.39999389648</ele>
        <time>2019-10-12T10:31:31Z</time>
      </trkpt>
      <trkpt lat="47.33082" lon="2.84358">
        <ele>248.19999694824</ele>
        <time>2019-10-12T10:31:36Z</time>
      </trkpt>
      <trkpt lat="47.33081" lon="2.84348">
        <ele>249</ele>
        <time>2019-10-12T10:31:41Z</time>
      </trkpt>
      <trkpt lat="47.33079" lon="2.84343">
        <ele>249.80000305176</ele>
        <time>2019-10-12T10:31:46Z</time>
      </trkpt>
      <trkpt lat="47.33078" lon="2.84332">
        <ele>250.80000305176</ele>
        <time>2019-10-12T10:31:51Z</time>
      </trkpt>
      <trkpt lat="47.33076" lon="2.84324">
        <ele>251.19999694824</ele>
        <time>2019-10-12T10:31:56Z</time>
      </trkpt>
      <trkpt lat="47.33074" lon="2.84317">
        <ele>252</ele>
        <time>2019-10-12T10:32:01Z</time>
      </trkpt>
      <trkpt lat="47.33073" lon="2.84309">
        <ele>252.80000305176</ele>
        <time>2019-10-12T10:32:06Z</time>
      </trkpt>
      <trkpt lat="47.33071" lon="2.84301">
        <ele>253.60000610352</ele>
        <time>2019-10-12T10:32:11Z</time>
      </trkpt>
      <trkpt lat="47.33071" lon="2.84294">
        <ele>254.39999389648</ele>
        <time>2019-10-12T10:32:16Z</time>
      </trkpt>
      <trkpt lat="47.3307" lon="2.84286">
        <ele>254.80000305176</ele>
        <time>2019-10-12T10:32:21Z</time>
      </trkpt>
      <trkpt lat="47.3307" lon="2.84279">
        <ele>255.80000305176</ele>
        <time>2019-10-12T10:32:26Z</time>
      </trkpt>
      <trkpt lat="47.33067" lon="2.84272">
        <ele>256.39999389648</ele>
        <time>2019-10-12T10:32:31Z</time>
      </trkpt>
      <trkpt lat="47.33064" lon="2.84264">
        <ele>257.20001220703</ele>
        <time>2019-10-12T10:32:36Z</time>
      </trkpt>
      <trkpt lat="47.3306" lon="2.84257">
        <ele>257.79998779297</ele>
        <time>2019-10-12T10:32:41Z</time>
      </trkpt>
      <trkpt lat="47.33057" lon="2.84247">
        <ele>258.79998779297</ele>
        <time>2019-10-12T10:32:46Z</time>
      </trkpt>
      <trkpt lat="47.33054" lon="2.84238">
        <ele>259.60000610352</ele>
        <time>2019-10-12T10:32:51Z</time>
      </trkpt>
      <trkpt lat="47.33052" lon="2.84229">
        <ele>260.39999389648</ele>
        <time>2019-10-12T10:32:56Z</time>
      </trkpt>
      <trkpt lat="47.3305" lon="2.84222">
        <ele>261.20001220703</ele>
        <time>2019-10-12T10:33:01Z</time>
      </trkpt>
      <trkpt lat="47.33047" lon="2.84217">
        <ele>262</ele>
        <time>2019-10-12T10:33:06Z</time>
      </trkpt>
      <trkpt lat="47.33044" lon="2.84209">
        <ele>262.39999389648</ele>
        <time>2019-10-12T10:33:11Z</time>
      </trkpt>
      <trkpt lat="47.33042" lon="2.842">
        <ele>263.20001220703</ele>
        <time>2019-10-12T10:33:16Z</time>
      </trkpt>
      <trkpt lat="47.33042" lon="2.84193">
        <ele>264</ele>
        <time>2019-10-12T10:33:21Z</time>
      </trkpt>
      <trkpt lat="47.3304" lon="2.84184">
        <ele>264.79998779297</ele>
        <time>2019-10-12T10:33:26Z</time>
      </trkpt>
      <trkpt lat="47.33036" lon="2.84174">
        <ele>265.60000610352</ele>
        <time>2019-10-12T10:33:31Z</time>
      </trkpt>
      <trkpt lat="47.33033" lon="2.84163">
        <ele>266.39999389648</ele>
        <time>2019-10-12T10:33:36Z</time>
      </trkpt>
      <trkpt lat="47.3303" lon="2.84158">
        <ele>267</ele>
        <time>2019-10-12T10:33:41Z</time>
      </trkpt>
      <trkpt lat="47.33029" lon="2.84153">
        <ele>267.79998779297</ele>
        <time>2019-10-12T10:33:46Z</time>
      </trkpt>
      <trkpt lat="47.33027" lon="2.84146">
        <ele>268.60000610352</ele>
        <time>2019-10-12T10:33:51Z</time>
      </trkpt>
      <trkpt lat="47.33026" lon="2.84137">
        <ele>269.39999389648</ele>
        <time>2019-10-12T10:33:56Z</time>
      </trkpt>
      <trkpt lat="47.33025" lon="2.84128">
        <ele>270.20001220703</ele>
        <time>2019-10-12T10:34:01Z</time>
      </trkpt>
      <trkpt lat="47.33019" lon="2.84117">
        <ele>270.79998779297</ele>
        <time>2019-10-12T10:34:06Z</time>
      </trkpt>
      <trkpt lat="47.33014" lon="2.84111">
        <ele>271.39999389648</ele>
        <time>2019-10-12T10:34:11Z</time>
      </trkpt>
      <trkpt lat="47.3301" lon="2.84104">
        <ele>272.20001220703</ele>
        <time>2019-10-12T10:34:16Z</time>
      </trkpt>
      <trkpt lat="47.33008" lon="2.84097">
        <ele>272.60000610352</ele>
        <time>2019-10-12T10:34:21Z</time>
      </trkpt>
      <trkpt lat="47.33005" lon="2.84091">
        <ele>273.39999389648</ele>
        <time>2019-10-12T10:34:26Z</time>
      </trkpt>
      <trkpt lat="47.33005" lon="2.84086">
        <ele>274.20001220703</ele>
        <time>2019-10-12T10:34:31Z</time>
      </trkpt>
      <trkpt lat="47.33002" lon="2.84078">
        <ele>274.39999389648</ele>
        <time>2019-10-12T10:34:36Z</time>
      </trkpt>
      <trkpt lat="47.32997" lon="2.84073">
        <ele>274.60000610352</ele>
        <time>2019-10-12T10:34:41Z</time>
      </trkpt>
      <trkpt lat="47.32993" lon="2.8407">
        <ele>275.20001220703</ele>
        <time>2019-10-12T10:34:46Z</time>
      </trkpt>
      <trkpt lat="47.32989" lon="2.84067">
        <ele>275.20001220703</ele>
        <time>2019-10-12T10:34:51Z</time>
      </trkpt>
      <trkpt lat="47.32983" lon="2.84063">
        <ele>275.39999389648</ele>
        <time>2019-10-12T10:34:56Z</time>
      </trkpt>
      <trkpt lat="47.32979" lon="2.84059">
        <ele>276</ele>
        <time>2019-10-12T10:35:01Z</time>
      </trkpt>
      <trkpt lat="47.32975" lon="2.84056">
        <ele>276</ele>
        <time>2019-10-12T10:35:06Z</time>
      </trkpt>
      <trkpt lat="47.32972" lon="2.84051">
        <ele>276</ele>
        <time>2019-10-12T10:35:11Z</time>
      </trkpt>
      <trkpt lat="47.32969" lon="2.84047">
        <ele>276.20001220703</ele>
        <time>2019-10-12T10:35:16Z</time>
      </trkpt>
      <trkpt lat="47.32965" lon="2.84044">
        <ele>276.79998779297</ele>
        <time>2019-10-12T10:35:21Z</time>
      </trkpt>
      <trkpt lat="47.32962" lon="2.84042">
        <ele>277</ele>
        <time>2019-10-12T10:35:26Z</time>
      </trkpt>
      <trkpt lat="47.32959" lon="2.84039">
        <ele>277.39999389648</ele>
        <time>2019-10-12T10:35:31Z</time>
      </trkpt>
      <trkpt lat="47.32958" lon="2.84037">
        <ele>277.79998779297</ele>
        <time>2019-10-12T10:35:36Z</time>
      </trkpt>
      <trkpt lat="47.32954" lon="2.84035">
        <ele>277.79998779297</ele>
        <time>2019-10-12T10:35:41Z</time>
      </trkpt>
      <trkpt lat="47.32952" lon="2.84033">
        <ele>278.20001220703</ele>
        <time>2019-10-12T10:35:46Z</time>
      </trkpt>
      <trkpt lat="47.32949" lon="2.84028">
        <ele>278.20001220703</ele>
        <time>2019-10-12T10:35:51Z</time>
      </trkpt>
      <trkpt lat="47.32945" lon="2.84025">
        <ele>278.60000610352</ele>
        <time>2019-10-12T10:35:56Z</time>
      </trkpt>
      <trkpt lat="47.32941" lon="2.84022">
        <ele>278.39999389648</ele>
        <time>2019-10-12T10:36:01Z</time>
      </trkpt>
      <trkpt lat="47.32935" lon="2.84017">
        <ele>278.39999389648</ele>
        <time>2019-10-12T10:36:06Z</time>
      </trkpt>
      <trkpt lat="47.3293" lon="2.84014">
        <ele>278.60000610352</ele>
        <time>2019-10-12T10:36:11Z</time>
      </trkpt>
      <trkpt lat="47.32922" lon="2.84008">
        <ele>278.60000610352</ele>
        <time>2019-10-12T10:36:16Z</time>
      </trkpt>
      <trkpt lat="47.32915" lon="2.84001">
        <ele>278.60000610352</ele>
        <time>2019-10-12T10:36:21Z</time>
      </trkpt>
      <trkpt lat="47.32909" lon="2.83995">
        <ele>279</ele>
        <time>2019-10-12T10:36:26Z</time>
      </trkpt>
      <trkpt lat="47.32903" lon="2.8399">
        <ele>279</ele>
        <time>2019-10-12T10:36:31Z</time>
      </trkpt>
      <trkpt lat="47.32899" lon="2.83983">
        <ele>279.39999389648</ele>
        <time>2019-10-12T10:36:36Z</time>
      </trkpt>
      <trkpt lat="47.329" lon="2.83975">
        <ele>279.60000610352</ele>
        <time>2019-10-12T10:36:41Z</time>
      </trkpt>
      <trkpt lat="47.32902" lon="2.83968">
        <ele>280</ele>
        <time>2019-10-12T10:36:46Z</time>
      </trkpt>
      <trkpt lat="47.32903" lon="2.83962">
        <ele>280.60000610352</ele>
        <time>2019-10-12T10:36:51Z</time>
      </trkpt>
      <trkpt lat="47.32901" lon="2.83956">
        <ele>281</ele>
        <time>2019-10-12T10:36:56Z</time>
      </trkpt>
      <trkpt lat="47.329" lon="2.83956">
        <ele>281</ele>
        <time>2019-10-12T10:37:01Z</time>
      </trkpt>
      <trkpt lat="47.32897" lon="2.83958">
        <ele>280.39999389648</ele>
        <time>2019-10-12T10:37:06Z</time>
      </trkpt>
      <trkpt lat="47.32895" lon="2.8396">
        <ele>280</ele>
        <time>2019-10-12T10:37:11Z</time>
      </trkpt>
      <trkpt lat="47.32895" lon="2.83959">
        <ele>280</ele>
        <time>2019-10-12T10:37:16Z</time>
      </trkpt>
      <trkpt lat="47.32896" lon="2.8396">
        <ele>280</ele>
        <time>2019-10-12T10:37:21Z</time>
      </trkpt>
      <trkpt lat="47.32897" lon="2.8396">
        <ele>280</ele>
        <time>2019-10-12T10:37:26Z</time>
      </trkpt>
      <trkpt lat="47.32897" lon="2.83958">
        <ele>280</ele>
        <time>2019-10-12T10:37:31Z</time>
      </trkpt>
      <trkpt lat="47.32898" lon="2.83956">
        <ele>280.20001220703</ele>
        <time>2019-10-12T10:37:36Z</time>
      </trkpt>
      <trkpt lat="47.32899" lon="2.83958">
        <ele>280.39999389648</ele>
        <time>2019-10-12T10:37:41Z</time>
      </trkpt>
      <trkpt lat="47.329" lon="2.83959">
        <ele>280.20001220703</ele>
        <time>2019-10-12T10:37:46Z</time>
      </trkpt>
      <trkpt lat="47.32904" lon="2.83958">
        <ele>280</ele>
        <time>2019-10-12T10:37:51Z</time>
      </trkpt>
      <trkpt lat="47.32906" lon="2.83957">
        <ele>279.60000610352</ele>
        <time>2019-10-12T10:37:56Z</time>
      </trkpt>
      <trkpt lat="47.32907" lon="2.83959">
        <ele>279.60000610352</ele>
        <time>2019-10-12T10:38:01Z</time>
      </trkpt>
      <trkpt lat="47.32907" lon="2.83961">
        <ele>279.60000610352</ele>
        <time>2019-10-12T10:38:06Z</time>
      </trkpt>
      <trkpt lat="47.32908" lon="2.8396">
        <ele>279.79998779297</ele>
        <time>2019-10-12T10:38:11Z</time>
      </trkpt>
      <trkpt lat="47.32909" lon="2.83962">
        <ele>279.79998779297</ele>
        <time>2019-10-12T10:38:16Z</time>
      </trkpt>
      <trkpt lat="47.32909" lon="2.83961">
        <ele>279.79998779297</ele>
        <time>2019-10-12T10:38:21Z</time>
      </trkpt>
      <trkpt lat="47.32909" lon="2.83961">
        <ele>279.79998779297</ele>
        <time>2019-10-12T10:38:26Z</time>
      </trkpt>
      <trkpt lat="47.32909" lon="2.8396">
        <ele>279.79998779297</ele>
        <time>2019-10-12T10:38:31Z</time>
      </trkpt>
      <trkpt lat="47.32909" lon="2.83958">
        <ele>279.79998779297</ele>
        <time>2019-10-12T10:38:36Z</time>
      </trkpt>
      <trkpt lat="47.32908" lon="2.83954">
        <ele>280</ele>
        <time>2019-10-12T10:38:41Z</time>
      </trkpt>
      <trkpt lat="47.32909" lon="2.8395">
        <ele>280</ele>
        <time>2019-10-12T10:38:46Z</time>
      </trkpt>
      <trkpt lat="47.32908" lon="2.83949">
        <ele>280</ele>
        <time>2019-10-12T10:38:51Z</time>
      </trkpt>
      <trkpt lat="47.32908" lon="2.8395">
        <ele>280</ele>
        <time>2019-10-12T10:38:56Z</time>
      </trkpt>
      <trkpt lat="47.32907" lon="2.83949">
        <ele>279.79998779297</ele>
        <time>2019-10-12T10:39:01Z</time>
      </trkpt>
      <trkpt lat="47.32906" lon="2.83953">
        <ele>279.79998779297</ele>
        <time>2019-10-12T10:39:06Z</time>
      </trkpt>
      <trkpt lat="47.32906" lon="2.83955">
        <ele>279.79998779297</ele>
        <time>2019-10-12T10:39:11Z</time>
      </trkpt>
      <trkpt lat="47.32906" lon="2.83955">
        <ele>279.79998779297</ele>
        <time>2019-10-12T10:39:16Z</time>
      </trkpt>
      <trkpt lat="47.32906" lon="2.83953">
        <ele>279.79998779297</ele>
        <time>2019-10-12T10:39:21Z</time>
      </trkpt>
      <trkpt lat="47.32907" lon="2.83955">
        <ele>279.79998779297</ele>
        <time>2019-10-12T10:39:26Z</time>
      </trkpt>
      <trkpt lat="47.32907" lon="2.83956">
        <ele>279.79998779297</ele>
        <time>2019-10-12T10:39:31Z</time>
      </trkpt>
      <trkpt lat="47.32907" lon="2.83956">
        <ele>279.79998779297</ele>
        <time>2019-10-12T10:39:36Z</time>
      </trkpt>
      <trkpt lat="47.32907" lon="2.83953">
        <ele>279.79998779297</ele>
        <time>2019-10-12T10:39:41Z</time>
      </trkpt>
      <trkpt lat="47.32908" lon="2.83948">
        <ele>279.79998779297</ele>
        <time>2019-10-12T10:39:46Z</time>
      </trkpt>
      <trkpt lat="47.32911" lon="2.83943">
        <ele>279.79998779297</ele>
        <time>2019-10-12T10:39:51Z</time>
      </trkpt>
      <trkpt lat="47.32913" lon="2.83938">
        <ele>280</ele>
        <time>2019-10-12T10:39:56Z</time>
      </trkpt>
      <trkpt lat="47.32917" lon="2.83931">
        <ele>279.60000610352</ele>
        <time>2019-10-12T10:40:01Z</time>
      </trkpt>
      <trkpt lat="47.3291" lon="2.83927">
        <ele>279.39999389648</ele>
        <time>2019-10-12T10:40:06Z</time>
      </trkpt>
      <trkpt lat="47.32895" lon="2.83933">
        <ele>279.20001220703</ele>
        <time>2019-10-12T10:40:11Z</time>
      </trkpt>
      <trkpt lat="47.32887" lon="2.83926">
        <ele>279</ele>
        <time>2019-10-12T10:40:16Z</time>
      </trkpt>
      <trkpt lat="47.32876" lon="2.83923">
        <ele>278.60000610352</ele>
        <time>2019-10-12T10:40:21Z</time>
      </trkpt>
      <trkpt lat="47.32868" lon="2.83925">
        <ele>278.39999389648</ele>
        <time>2019-10-12T10:40:26Z</time>
      </trkpt>
      <trkpt lat="47.32861" lon="2.83927">
        <ele>277.60000610352</ele>
        <time>2019-10-12T10:40:31Z</time>
      </trkpt>
      <trkpt lat="47.32855" lon="2.83919">
        <ele>276.60000610352</ele>
        <time>2019-10-12T10:40:36Z</time>
      </trkpt>
      <trkpt lat="47.32849" lon="2.83917">
        <ele>275.79998779297</ele>
        <time>2019-10-12T10:40:41Z</time>
      </trkpt>
      <trkpt lat="47.32845" lon="2.83914">
        <ele>275.20001220703</ele>
        <time>2019-10-12T10:40:46Z</time>
      </trkpt>
      <trkpt lat="47.32839" lon="2.8391">
        <ele>274.79998779297</ele>
        <time>2019-10-12T10:40:51Z</time>
      </trkpt>
      <trkpt lat="47.32835" lon="2.83904">
        <ele>274.60000610352</ele>
        <time>2019-10-12T10:40:56Z</time>
      </trkpt>
      <trkpt lat="47.32829" lon="2.839">
        <ele>273.79998779297</ele>
        <time>2019-10-12T10:41:01Z</time>
      </trkpt>
      <trkpt lat="47.32824" lon="2.83895">
        <ele>273.79998779297</ele>
        <time>2019-10-12T10:41:06Z</time>
      </trkpt>
      <trkpt lat="47.32819" lon="2.83891">
        <ele>273.39999389648</ele>
        <time>2019-10-12T10:41:11Z</time>
      </trkpt>
      <trkpt lat="47.32815" lon="2.83888">
        <ele>272.60000610352</ele>
        <time>2019-10-12T10:41:16Z</time>
      </trkpt>
      <trkpt lat="47.32811" lon="2.83883">
        <ele>272.39999389648</ele>
        <time>2019-10-12T10:41:21Z</time>
      </trkpt>
      <trkpt lat="47.32807" lon="2.8388">
        <ele>271.79998779297</ele>
        <time>2019-10-12T10:41:26Z</time>
      </trkpt>
      <trkpt lat="47.32801" lon="2.83875">
        <ele>271.39999389648</ele>
        <time>2019-10-12T10:41:31Z</time>
      </trkpt>
      <trkpt lat="47.32795" lon="2.83871">
        <ele>271.20001220703</ele>
        <time>2019-10-12T10:41:36Z</time>
      </trkpt>
      <trkpt lat="47.32791" lon="2.83866">
        <ele>270.79998779297</ele>
        <time>2019-10-12T10:41:41Z</time>
      </trkpt>
      <trkpt lat="47.32787" lon="2.83863">
        <ele>270.60000610352</ele>
        <time>2019-10-12T10:41:46Z</time>
      </trkpt>
      <trkpt lat="47.32783" lon="2.83858">
        <ele>270</ele>
        <time>2019-10-12T10:41:51Z</time>
      </trkpt>
      <trkpt lat="47.32778" lon="2.83853">
        <ele>269.79998779297</ele>
        <time>2019-10-12T10:41:56Z</time>
      </trkpt>
      <trkpt lat="47.32774" lon="2.83846">
        <ele>269.79998779297</ele>
        <time>2019-10-12T10:42:01Z</time>
      </trkpt>
      <trkpt lat="47.32776" lon="2.83837">
        <ele>269.79998779297</ele>
        <time>2019-10-12T10:42:06Z</time>
      </trkpt>
      <trkpt lat="47.32779" lon="2.83829">
        <ele>270.20001220703</ele>
        <time>2019-10-12T10:42:11Z</time>
      </trkpt>
      <trkpt lat="47.32784" lon="2.83824">
        <ele>269.79998779297</ele>
        <time>2019-10-12T10:42:16Z</time>
      </trkpt>
      <trkpt lat="47.32788" lon="2.83818">
        <ele>270</ele>
        <time>2019-10-12T10:42:21Z</time>
      </trkpt>
      <trkpt lat="47.32792" lon="2.83812">
        <ele>270</ele>
        <time>2019-10-12T10:42:26Z</time>
      </trkpt>
      <trkpt lat="47.32797" lon="2.83806">
        <ele>269.20001220703</ele>
        <time>2019-10-12T10:42:31Z</time>
      </trkpt>
      <trkpt lat="47.32801" lon="2.83803">
        <ele>269</ele>
        <time>2019-10-12T10:42:36Z</time>
      </trkpt>
      <trkpt lat="47.32806" lon="2.83801">
        <ele>268.60000610352</ele>
        <time>2019-10-12T10:42:41Z</time>
      </trkpt>
      <trkpt lat="47.32811" lon="2.83798">
        <ele>268.20001220703</ele>
        <time>2019-10-12T10:42:46Z</time>
      </trkpt>
      <trkpt lat="47.32812" lon="2.83797">
        <ele>268.20001220703</ele>
        <time>2019-10-12T10:42:51Z</time>
      </trkpt>
      <trkpt lat="47.32814" lon="2.83787">
        <ele>268.79998779297</ele>
        <time>2019-10-12T10:42:56Z</time>
      </trkpt>
      <trkpt lat="47.32823" lon="2.83786">
        <ele>269.20001220703</ele>
        <time>2019-10-12T10:43:01Z</time>
      </trkpt>
      <trkpt lat="47.3283" lon="2.83782">
        <ele>269.39999389648</ele>
        <time>2019-10-12T10:43:06Z</time>
      </trkpt>
      <trkpt lat="47.32835" lon="2.8378">
        <ele>269.60000610352</ele>
        <time>2019-10-12T10:43:11Z</time>
      </trkpt>
      <trkpt lat="47.32839" lon="2.83775">
        <ele>270</ele>
        <time>2019-10-12T10:43:16Z</time>
      </trkpt>
      <trkpt lat="47.32842" lon="2.83769">
        <ele>270.39999389648</ele>
        <time>2019-10-12T10:43:21Z</time>
      </trkpt>
      <trkpt lat="47.32846" lon="2.83767">
        <ele>270.60000610352</ele>
        <time>2019-10-12T10:43:26Z</time>
      </trkpt>
      <trkpt lat="47.3285" lon="2.83761">
        <ele>270.60000610352</ele>
        <time>2019-10-12T10:43:31Z</time>
      </trkpt>
      <trkpt lat="47.32858" lon="2.83757">
        <ele>270.79998779297</ele>
        <time>2019-10-12T10:43:36Z</time>
      </trkpt>
      <trkpt lat="47.32863" lon="2.83754">
        <ele>271</ele>
        <time>2019-10-12T10:43:41Z</time>
      </trkpt>
      <trkpt lat="47.32866" lon="2.83749">
        <ele>271.20001220703</ele>
        <time>2019-10-12T10:43:46Z</time>
      </trkpt>
      <trkpt lat="47.3287" lon="2.83745">
        <ele>271.60000610352</ele>
        <time>2019-10-12T10:43:51Z</time>
      </trkpt>
      <trkpt lat="47.32875" lon="2.83741">
        <ele>272.20001220703</ele>
        <time>2019-10-12T10:43:56Z</time>
      </trkpt>
      <trkpt lat="47.32879" lon="2.83738">
        <ele>272.60000610352</ele>
        <time>2019-10-12T10:44:01Z</time>
      </trkpt>
      <trkpt lat="47.32886" lon="2.83734">
        <ele>272.79998779297</ele>
        <time>2019-10-12T10:44:06Z</time>
      </trkpt>
      <trkpt lat="47.32893" lon="2.8373">
        <ele>273</ele>
        <time>2019-10-12T10:44:11Z</time>
      </trkpt>
      <trkpt lat="47.32896" lon="2.83727">
        <ele>273.39999389648</ele>
        <time>2019-10-12T10:44:16Z</time>
      </trkpt>
      <trkpt lat="47.32897" lon="2.83727">
        <ele>273.79998779297</ele>
        <time>2019-10-12T10:44:21Z</time>
      </trkpt>
      <trkpt lat="47.32898" lon="2.83727">
        <ele>273.60000610352</ele>
        <time>2019-10-12T10:44:26Z</time>
      </trkpt>
      <trkpt lat="47.32897" lon="2.83723">
        <ele>273.39999389648</ele>
        <time>2019-10-12T10:44:31Z</time>
      </trkpt>
      <trkpt lat="47.32895" lon="2.83715">
        <ele>273.60000610352</ele>
        <time>2019-10-12T10:44:36Z</time>
      </trkpt>
      <trkpt lat="47.32891" lon="2.83707">
        <ele>272.60000610352</ele>
        <time>2019-10-12T10:44:41Z</time>
      </trkpt>
      <trkpt lat="47.32888" lon="2.837">
        <ele>272</ele>
        <time>2019-10-12T10:44:46Z</time>
      </trkpt>
      <trkpt lat="47.32886" lon="2.83692">
        <ele>271.60000610352</ele>
        <time>2019-10-12T10:44:51Z</time>
      </trkpt>
      <trkpt lat="47.32884" lon="2.83683">
        <ele>271.39999389648</ele>
        <time>2019-10-12T10:44:56Z</time>
      </trkpt>
      <trkpt lat="47.32882" lon="2.83674">
        <ele>270.79998779297</ele>
        <time>2019-10-12T10:45:01Z</time>
      </trkpt>
      <trkpt lat="47.32887" lon="2.83669">
        <ele>270.20001220703</ele>
        <time>2019-10-12T10:45:06Z</time>
      </trkpt>
      <trkpt lat="47.32893" lon="2.83664">
        <ele>269.60000610352</ele>
        <time>2019-10-12T10:45:11Z</time>
      </trkpt>
      <trkpt lat="47.32897" lon="2.83658">
        <ele>269.20001220703</ele>
        <time>2019-10-12T10:45:16Z</time>
      </trkpt>
      <trkpt lat="47.32901" lon="2.83652">
        <ele>269</ele>
        <time>2019-10-12T10:45:21Z</time>
      </trkpt>
      <trkpt lat="47.32906" lon="2.8365">
        <ele>268.79998779297</ele>
        <time>2019-10-12T10:45:26Z</time>
      </trkpt>
      <trkpt lat="47.3291" lon="2.83647">
        <ele>268.39999389648</ele>
        <time>2019-10-12T10:45:31Z</time>
      </trkpt>
      <trkpt lat="47.32914" lon="2.83644">
        <ele>268.39999389648</ele>
        <time>2019-10-12T10:45:36Z</time>
      </trkpt>
      <trkpt lat="47.32917" lon="2.83639">
        <ele>268.20001220703</ele>
        <time>2019-10-12T10:45:41Z</time>
      </trkpt>
      <trkpt lat="47.32919" lon="2.83636">
        <ele>268.20001220703</ele>
        <time>2019-10-12T10:45:46Z</time>
      </trkpt>
      <trkpt lat="47.32921" lon="2.83633">
        <ele>268.39999389648</ele>
        <time>2019-10-12T10:45:51Z</time>
      </trkpt>
      <trkpt lat="47.32923" lon="2.83633">
        <ele>268.79998779297</ele>
        <time>2019-10-12T10:45:56Z</time>
      </trkpt>
      <trkpt lat="47.32926" lon="2.83633">
        <ele>268.79998779297</ele>
        <time>2019-10-12T10:46:01Z</time>
      </trkpt>
      <trkpt lat="47.32926" lon="2.83634">
        <ele>268.79998779297</ele>
        <time>2019-10-12T10:46:06Z</time>
      </trkpt>
      <trkpt lat="47.32927" lon="2.83634">
        <ele>268.79998779297</ele>
        <time>2019-10-12T10:46:11Z</time>
      </trkpt>
      <trkpt lat="47.32929" lon="2.83635">
        <ele>268.79998779297</ele>
        <time>2019-10-12T10:46:16Z</time>
      </trkpt>
      <trkpt lat="47.32929" lon="2.83635">
        <ele>268.79998779297</ele>
        <time>2019-10-12T10:46:19Z</time>
      </trkpt>
    </trkseg>
  </trk>
</gpx>